<?xml version="1.0" encoding="UTF-8" standalone="no" ?>
<gpx xmlns="http://www.topografix.com/GPX/1/1" xmlns:xsi="http://www.w3.org/2001/XMLSchema-instance" xsi:schemaLocation="http://www.topografix.com/GPX/1/1 http://www.topografix.com/GPX/1/1/gpx.xsd" version="1.1" creator="VisuGPX - https://www.visugpx.com">
  <metadata>
    <name>VTT - Castellane /Robion</name>
    <desc><![CDATA[VTT - Castellane / Cadières / Brandis / Chasteuil / Rougon / Soleils / Robion - Relevé terrain: 47 km /   1 960 m]]></desc>
  </metadata>
  <trk>
    <name><![CDATA[2013-05-25T06:53:03Z]]></name>
    <trkseg>
      <trkpt lat="43.84607" lon="6.51555">
        <ele>723.319</ele>
        <time>2013-05-25T06:53:03Z</time>
      </trkpt>
      <trkpt lat="43.84607" lon="6.51555">
        <ele>722.632</ele>
        <time>2013-05-25T06:53:08Z</time>
      </trkpt>
      <trkpt lat="43.84605" lon="6.51544">
        <ele>724.621</ele>
        <time>2013-05-25T06:53:13Z</time>
      </trkpt>
      <trkpt lat="43.84603" lon="6.51512">
        <ele>726.059</ele>
        <time>2013-05-25T06:53:21Z</time>
      </trkpt>
      <trkpt lat="43.84605" lon="6.51488">
        <ele>727.932</ele>
        <time>2013-05-25T06:53:27Z</time>
      </trkpt>
      <trkpt lat="43.84604" lon="6.51467">
        <ele>729.463</ele>
        <time>2013-05-25T06:53:32Z</time>
      </trkpt>
      <trkpt lat="43.84598" lon="6.51452">
        <ele>729.163</ele>
        <time>2013-05-25T06:53:36Z</time>
      </trkpt>
      <trkpt lat="43.84587" lon="6.5143">
        <ele>731.515</ele>
        <time>2013-05-25T06:53:41Z</time>
      </trkpt>
      <trkpt lat="43.84579" lon="6.51407">
        <ele>733.738</ele>
        <time>2013-05-25T06:53:46Z</time>
      </trkpt>
      <trkpt lat="43.84579" lon="6.5139">
        <ele>734.786</ele>
        <time>2013-05-25T06:53:50Z</time>
      </trkpt>
      <trkpt lat="43.84588" lon="6.51352">
        <ele>733.422</ele>
        <time>2013-05-25T06:53:57Z</time>
      </trkpt>
      <trkpt lat="43.84599" lon="6.51301">
        <ele>735.942</ele>
        <time>2013-05-25T06:54:06Z</time>
      </trkpt>
      <trkpt lat="43.84612" lon="6.51268">
        <ele>739.865</ele>
        <time>2013-05-25T06:54:13Z</time>
      </trkpt>
      <trkpt lat="43.84626" lon="6.51259">
        <ele>740.013</ele>
        <time>2013-05-25T06:54:17Z</time>
      </trkpt>
      <trkpt lat="43.8463" lon="6.51257">
        <ele>739.752</ele>
        <time>2013-05-25T06:54:18Z</time>
      </trkpt>
      <trkpt lat="43.84648" lon="6.51261">
        <ele>736.625</ele>
        <time>2013-05-25T06:54:23Z</time>
      </trkpt>
      <trkpt lat="43.84653" lon="6.51263">
        <ele>736.572</ele>
        <time>2013-05-25T06:54:25Z</time>
      </trkpt>
      <trkpt lat="43.8466" lon="6.51259">
        <ele>744.949</ele>
        <time>2013-05-25T06:54:32Z</time>
      </trkpt>
      <trkpt lat="43.84658" lon="6.51281">
        <ele>724.471</ele>
        <time>2013-05-25T06:54:53Z</time>
      </trkpt>
      <trkpt lat="43.84657" lon="6.51289">
        <ele>714.66</ele>
        <time>2013-05-25T06:54:59Z</time>
      </trkpt>
      <trkpt lat="43.84658" lon="6.5129">
        <ele>709.141</ele>
        <time>2013-05-25T06:55:07Z</time>
      </trkpt>
      <trkpt lat="43.84663" lon="6.51288">
        <ele>701.062</ele>
        <time>2013-05-25T06:56:51Z</time>
      </trkpt>
      <trkpt lat="43.84661" lon="6.5128">
        <ele>708.67</ele>
        <time>2013-05-25T06:56:53Z</time>
      </trkpt>
      <trkpt lat="43.84656" lon="6.51271">
        <ele>714.949</ele>
        <time>2013-05-25T06:56:57Z</time>
      </trkpt>
      <trkpt lat="43.84651" lon="6.51263">
        <ele>718.483</ele>
        <time>2013-05-25T06:57:02Z</time>
      </trkpt>
      <trkpt lat="43.84651" lon="6.5126">
        <ele>720.386</ele>
        <time>2013-05-25T06:57:10Z</time>
      </trkpt>
      <trkpt lat="43.84647" lon="6.5126">
        <ele>724.26</ele>
        <time>2013-05-25T06:57:36Z</time>
      </trkpt>
      <trkpt lat="43.84637" lon="6.51261">
        <ele>728.006</ele>
        <time>2013-05-25T06:57:41Z</time>
      </trkpt>
      <trkpt lat="43.84637" lon="6.51264">
        <ele>727.991</ele>
        <time>2013-05-25T06:57:45Z</time>
      </trkpt>
      <trkpt lat="43.8464" lon="6.51266">
        <ele>739.884</ele>
        <time>2013-05-25T06:57:52Z</time>
      </trkpt>
      <trkpt lat="43.84637" lon="6.51273">
        <ele>752.557</ele>
        <time>2013-05-25T06:58:23Z</time>
      </trkpt>
      <trkpt lat="43.84643" lon="6.51271">
        <ele>771.07</ele>
        <time>2013-05-25T06:58:40Z</time>
      </trkpt>
      <trkpt lat="43.84643" lon="6.51268">
        <ele>773.518</ele>
        <time>2013-05-25T06:58:48Z</time>
      </trkpt>
      <trkpt lat="43.84639" lon="6.51271">
        <ele>771.17</ele>
        <time>2013-05-25T06:58:55Z</time>
      </trkpt>
      <trkpt lat="43.84639" lon="6.51269">
        <ele>764.482</ele>
        <time>2013-05-25T06:59:10Z</time>
      </trkpt>
      <trkpt lat="43.84632" lon="6.51264">
        <ele>746.096</ele>
        <time>2013-05-25T07:00:16Z</time>
      </trkpt>
      <trkpt lat="43.84638" lon="6.51275">
        <ele>745.627</ele>
        <time>2013-05-25T07:00:21Z</time>
      </trkpt>
      <trkpt lat="43.84646" lon="6.51283">
        <ele>744.597</ele>
        <time>2013-05-25T07:00:25Z</time>
      </trkpt>
      <trkpt lat="43.84648" lon="6.51287">
        <ele>744.19</ele>
        <time>2013-05-25T07:00:27Z</time>
      </trkpt>
      <trkpt lat="43.84649" lon="6.51301">
        <ele>739.55</ele>
        <time>2013-05-25T07:00:33Z</time>
      </trkpt>
      <trkpt lat="43.84649" lon="6.51312">
        <ele>734.848</ele>
        <time>2013-05-25T07:00:39Z</time>
      </trkpt>
      <trkpt lat="43.84649" lon="6.51312">
        <ele>729.019</ele>
        <time>2013-05-25T07:00:46Z</time>
      </trkpt>
      <trkpt lat="43.8465" lon="6.51323">
        <ele>729.322</ele>
        <time>2013-05-25T07:07:56Z</time>
      </trkpt>
      <trkpt lat="43.84652" lon="6.51308">
        <ele>730.913</ele>
        <time>2013-05-25T07:08:01Z</time>
      </trkpt>
      <trkpt lat="43.84655" lon="6.51285">
        <ele>731.199</ele>
        <time>2013-05-25T07:08:07Z</time>
      </trkpt>
      <trkpt lat="43.84659" lon="6.51267">
        <ele>727.064</ele>
        <time>2013-05-25T07:08:12Z</time>
      </trkpt>
      <trkpt lat="43.84649" lon="6.51262">
        <ele>728.81</ele>
        <time>2013-05-25T07:08:15Z</time>
      </trkpt>
      <trkpt lat="43.84646" lon="6.51261">
        <ele>728.388</ele>
        <time>2013-05-25T07:08:16Z</time>
      </trkpt>
      <trkpt lat="43.84621" lon="6.51256">
        <ele>729.987</ele>
        <time>2013-05-25T07:08:23Z</time>
      </trkpt>
      <trkpt lat="43.84612" lon="6.51251">
        <ele>730.349</ele>
        <time>2013-05-25T07:08:26Z</time>
      </trkpt>
      <trkpt lat="43.84607" lon="6.51236">
        <ele>730.086</ele>
        <time>2013-05-25T07:08:30Z</time>
      </trkpt>
      <trkpt lat="43.84611" lon="6.51192">
        <ele>724.691</ele>
        <time>2013-05-25T07:08:38Z</time>
      </trkpt>
      <trkpt lat="43.84612" lon="6.51152">
        <ele>723.646</ele>
        <time>2013-05-25T07:08:46Z</time>
      </trkpt>
      <trkpt lat="43.84613" lon="6.51115">
        <ele>725.897</ele>
        <time>2013-05-25T07:08:54Z</time>
      </trkpt>
      <trkpt lat="43.84615" lon="6.5109">
        <ele>725.541</ele>
        <time>2013-05-25T07:08:59Z</time>
      </trkpt>
      <trkpt lat="43.84617" lon="6.51044">
        <ele>725.099</ele>
        <time>2013-05-25T07:09:08Z</time>
      </trkpt>
      <trkpt lat="43.84619" lon="6.51003">
        <ele>724.878</ele>
        <time>2013-05-25T07:09:16Z</time>
      </trkpt>
      <trkpt lat="43.8462" lon="6.50972">
        <ele>725.007</ele>
        <time>2013-05-25T07:09:22Z</time>
      </trkpt>
      <trkpt lat="43.84622" lon="6.50951">
        <ele>724.368</ele>
        <time>2013-05-25T07:09:26Z</time>
      </trkpt>
      <trkpt lat="43.84622" lon="6.50911">
        <ele>725.11</ele>
        <time>2013-05-25T07:09:34Z</time>
      </trkpt>
      <trkpt lat="43.84624" lon="6.5088">
        <ele>726.169</ele>
        <time>2013-05-25T07:09:40Z</time>
      </trkpt>
      <trkpt lat="43.84619" lon="6.50845">
        <ele>726.218</ele>
        <time>2013-05-25T07:09:47Z</time>
      </trkpt>
      <trkpt lat="43.84612" lon="6.50817">
        <ele>727.368</ele>
        <time>2013-05-25T07:09:53Z</time>
      </trkpt>
      <trkpt lat="43.84604" lon="6.50772">
        <ele>727.022</ele>
        <time>2013-05-25T07:10:02Z</time>
      </trkpt>
      <trkpt lat="43.84597" lon="6.50732">
        <ele>727.733</ele>
        <time>2013-05-25T07:10:10Z</time>
      </trkpt>
      <trkpt lat="43.84588" lon="6.50698">
        <ele>727.47</ele>
        <time>2013-05-25T07:10:17Z</time>
      </trkpt>
      <trkpt lat="43.84579" lon="6.50668">
        <ele>727.399</ele>
        <time>2013-05-25T07:10:24Z</time>
      </trkpt>
      <trkpt lat="43.84569" lon="6.50637">
        <ele>727.648</ele>
        <time>2013-05-25T07:10:31Z</time>
      </trkpt>
      <trkpt lat="43.84562" lon="6.50605">
        <ele>728.02</ele>
        <time>2013-05-25T07:10:38Z</time>
      </trkpt>
      <trkpt lat="43.84553" lon="6.50568">
        <ele>727.849</ele>
        <time>2013-05-25T07:10:46Z</time>
      </trkpt>
      <trkpt lat="43.84544" lon="6.50539">
        <ele>728.481</ele>
        <time>2013-05-25T07:10:53Z</time>
      </trkpt>
      <trkpt lat="43.84535" lon="6.50509">
        <ele>726.464</ele>
        <time>2013-05-25T07:11:00Z</time>
      </trkpt>
      <trkpt lat="43.84538" lon="6.50496">
        <ele>725.141</ele>
        <time>2013-05-25T07:11:03Z</time>
      </trkpt>
      <trkpt lat="43.84564" lon="6.50469">
        <ele>723.603</ele>
        <time>2013-05-25T07:11:11Z</time>
      </trkpt>
      <trkpt lat="43.84582" lon="6.50446">
        <ele>722.583</ele>
        <time>2013-05-25T07:11:17Z</time>
      </trkpt>
      <trkpt lat="43.84604" lon="6.50421">
        <ele>723.617</ele>
        <time>2013-05-25T07:11:25Z</time>
      </trkpt>
      <trkpt lat="43.84634" lon="6.50392">
        <ele>725.448</ele>
        <time>2013-05-25T07:11:35Z</time>
      </trkpt>
      <trkpt lat="43.84654" lon="6.50382">
        <ele>727.012</ele>
        <time>2013-05-25T07:11:41Z</time>
      </trkpt>
      <trkpt lat="43.8467" lon="6.50392">
        <ele>727.507</ele>
        <time>2013-05-25T07:11:46Z</time>
      </trkpt>
      <trkpt lat="43.84687" lon="6.50397">
        <ele>727.074</ele>
        <time>2013-05-25T07:11:51Z</time>
      </trkpt>
      <trkpt lat="43.84713" lon="6.50391">
        <ele>727.568</ele>
        <time>2013-05-25T07:11:58Z</time>
      </trkpt>
      <trkpt lat="43.84739" lon="6.50384">
        <ele>727.748</ele>
        <time>2013-05-25T07:12:05Z</time>
      </trkpt>
      <trkpt lat="43.84766" lon="6.50377">
        <ele>728.679</ele>
        <time>2013-05-25T07:12:12Z</time>
      </trkpt>
      <trkpt lat="43.84779" lon="6.50372">
        <ele>730.201</ele>
        <time>2013-05-25T07:12:16Z</time>
      </trkpt>
      <trkpt lat="43.84781" lon="6.5036">
        <ele>731.964</ele>
        <time>2013-05-25T07:12:20Z</time>
      </trkpt>
      <trkpt lat="43.84779" lon="6.50356">
        <ele>732.132</ele>
        <time>2013-05-25T07:12:21Z</time>
      </trkpt>
      <trkpt lat="43.84769" lon="6.50326">
        <ele>732.298</ele>
        <time>2013-05-25T07:12:28Z</time>
      </trkpt>
      <trkpt lat="43.84767" lon="6.503">
        <ele>733.875</ele>
        <time>2013-05-25T07:12:34Z</time>
      </trkpt>
      <trkpt lat="43.84765" lon="6.50282">
        <ele>734.828</ele>
        <time>2013-05-25T07:12:40Z</time>
      </trkpt>
      <trkpt lat="43.84762" lon="6.50258">
        <ele>734.155</ele>
        <time>2013-05-25T07:12:45Z</time>
      </trkpt>
      <trkpt lat="43.84759" lon="6.50235">
        <ele>734.918</ele>
        <time>2013-05-25T07:12:50Z</time>
      </trkpt>
      <trkpt lat="43.84755" lon="6.50207">
        <ele>736.432</ele>
        <time>2013-05-25T07:12:56Z</time>
      </trkpt>
      <trkpt lat="43.84748" lon="6.50177">
        <ele>737.622</ele>
        <time>2013-05-25T07:13:02Z</time>
      </trkpt>
      <trkpt lat="43.84747" lon="6.50155">
        <ele>739.754</ele>
        <time>2013-05-25T07:13:07Z</time>
      </trkpt>
      <trkpt lat="43.84744" lon="6.50133">
        <ele>741.066</ele>
        <time>2013-05-25T07:13:12Z</time>
      </trkpt>
      <trkpt lat="43.84748" lon="6.501">
        <ele>742.354</ele>
        <time>2013-05-25T07:13:19Z</time>
      </trkpt>
      <trkpt lat="43.84748" lon="6.5008">
        <ele>743.493</ele>
        <time>2013-05-25T07:13:24Z</time>
      </trkpt>
      <trkpt lat="43.84748" lon="6.50049">
        <ele>744.021</ele>
        <time>2013-05-25T07:13:31Z</time>
      </trkpt>
      <trkpt lat="43.84746" lon="6.50023">
        <ele>744.921</ele>
        <time>2013-05-25T07:13:38Z</time>
      </trkpt>
      <trkpt lat="43.84746" lon="6.5002">
        <ele>745.03</ele>
        <time>2013-05-25T07:13:39Z</time>
      </trkpt>
      <trkpt lat="43.84752" lon="6.50009">
        <ele>744.666</ele>
        <time>2013-05-25T07:13:45Z</time>
      </trkpt>
      <trkpt lat="43.84761" lon="6.50001">
        <ele>745.47</ele>
        <time>2013-05-25T07:13:51Z</time>
      </trkpt>
      <trkpt lat="43.84764" lon="6.5">
        <ele>745.84</ele>
        <time>2013-05-25T07:13:53Z</time>
      </trkpt>
      <trkpt lat="43.8477" lon="6.49995">
        <ele>747.714</ele>
        <time>2013-05-25T07:13:58Z</time>
      </trkpt>
      <trkpt lat="43.84771" lon="6.49981">
        <ele>749.736</ele>
        <time>2013-05-25T07:14:05Z</time>
      </trkpt>
      <trkpt lat="43.8477" lon="6.49975">
        <ele>752.355</ele>
        <time>2013-05-25T07:14:09Z</time>
      </trkpt>
      <trkpt lat="43.84768" lon="6.49965">
        <ele>754.104</ele>
        <time>2013-05-25T07:14:14Z</time>
      </trkpt>
      <trkpt lat="43.84767" lon="6.49959">
        <ele>756.003</ele>
        <time>2013-05-25T07:14:19Z</time>
      </trkpt>
      <trkpt lat="43.84763" lon="6.49954">
        <ele>758.103</ele>
        <time>2013-05-25T07:14:26Z</time>
      </trkpt>
      <trkpt lat="43.84762" lon="6.4995">
        <ele>758.275</ele>
        <time>2013-05-25T07:14:33Z</time>
      </trkpt>
      <trkpt lat="43.84762" lon="6.49942">
        <ele>757.728</ele>
        <time>2013-05-25T07:14:37Z</time>
      </trkpt>
      <trkpt lat="43.84762" lon="6.49923">
        <ele>756.687</ele>
        <time>2013-05-25T07:14:44Z</time>
      </trkpt>
      <trkpt lat="43.84761" lon="6.49906">
        <ele>755.963</ele>
        <time>2013-05-25T07:14:50Z</time>
      </trkpt>
      <trkpt lat="43.84754" lon="6.49896">
        <ele>758.019</ele>
        <time>2013-05-25T07:14:55Z</time>
      </trkpt>
      <trkpt lat="43.84747" lon="6.49882">
        <ele>758.809</ele>
        <time>2013-05-25T07:15:02Z</time>
      </trkpt>
      <trkpt lat="43.84745" lon="6.49874">
        <ele>759.549</ele>
        <time>2013-05-25T07:15:06Z</time>
      </trkpt>
      <trkpt lat="43.84741" lon="6.49866">
        <ele>762.726</ele>
        <time>2013-05-25T07:15:11Z</time>
      </trkpt>
      <trkpt lat="43.84739" lon="6.49857">
        <ele>764.045</ele>
        <time>2013-05-25T07:15:15Z</time>
      </trkpt>
      <trkpt lat="43.8474" lon="6.49845">
        <ele>764.268</ele>
        <time>2013-05-25T07:15:23Z</time>
      </trkpt>
      <trkpt lat="43.84742" lon="6.49836">
        <ele>761.871</ele>
        <time>2013-05-25T07:15:30Z</time>
      </trkpt>
      <trkpt lat="43.84742" lon="6.49832">
        <ele>761.554</ele>
        <time>2013-05-25T07:15:35Z</time>
      </trkpt>
      <trkpt lat="43.84741" lon="6.49822">
        <ele>761.406</ele>
        <time>2013-05-25T07:15:42Z</time>
      </trkpt>
      <trkpt lat="43.84739" lon="6.49817">
        <ele>766.765</ele>
        <time>2013-05-25T07:15:50Z</time>
      </trkpt>
      <trkpt lat="43.84739" lon="6.49821">
        <ele>768.302</ele>
        <time>2013-05-25T07:15:56Z</time>
      </trkpt>
      <trkpt lat="43.84738" lon="6.4982">
        <ele>770.791</ele>
        <time>2013-05-25T07:16:03Z</time>
      </trkpt>
      <trkpt lat="43.84733" lon="6.49818">
        <ele>770.747</ele>
        <time>2013-05-25T07:16:11Z</time>
      </trkpt>
      <trkpt lat="43.84732" lon="6.49816">
        <ele>771.977</ele>
        <time>2013-05-25T07:16:17Z</time>
      </trkpt>
      <trkpt lat="43.84732" lon="6.49814">
        <ele>774.069</ele>
        <time>2013-05-25T07:16:23Z</time>
      </trkpt>
      <trkpt lat="43.84731" lon="6.49813">
        <ele>776.183</ele>
        <time>2013-05-25T07:16:26Z</time>
      </trkpt>
      <trkpt lat="43.84731" lon="6.49805">
        <ele>780.886</ele>
        <time>2013-05-25T07:16:33Z</time>
      </trkpt>
      <trkpt lat="43.84729" lon="6.49797">
        <ele>783.592</ele>
        <time>2013-05-25T07:16:41Z</time>
      </trkpt>
      <trkpt lat="43.84723" lon="6.49791">
        <ele>786.245</ele>
        <time>2013-05-25T07:16:49Z</time>
      </trkpt>
      <trkpt lat="43.84719" lon="6.49787">
        <ele>787.107</ele>
        <time>2013-05-25T07:16:56Z</time>
      </trkpt>
      <trkpt lat="43.84715" lon="6.4978">
        <ele>786.623</ele>
        <time>2013-05-25T07:17:03Z</time>
      </trkpt>
      <trkpt lat="43.84711" lon="6.49767">
        <ele>785.854</ele>
        <time>2013-05-25T07:17:10Z</time>
      </trkpt>
      <trkpt lat="43.84709" lon="6.49758">
        <ele>786.569</ele>
        <time>2013-05-25T07:17:15Z</time>
      </trkpt>
      <trkpt lat="43.84705" lon="6.49744">
        <ele>791.465</ele>
        <time>2013-05-25T07:17:23Z</time>
      </trkpt>
      <trkpt lat="43.84704" lon="6.4974">
        <ele>792.324</ele>
        <time>2013-05-25T07:17:26Z</time>
      </trkpt>
      <trkpt lat="43.84703" lon="6.4973">
        <ele>796.395</ele>
        <time>2013-05-25T07:17:32Z</time>
      </trkpt>
      <trkpt lat="43.84703" lon="6.49725">
        <ele>797.954</ele>
        <time>2013-05-25T07:17:36Z</time>
      </trkpt>
      <trkpt lat="43.847" lon="6.49718">
        <ele>799.141</ele>
        <time>2013-05-25T07:17:42Z</time>
      </trkpt>
      <trkpt lat="43.84698" lon="6.49711">
        <ele>799.758</ele>
        <time>2013-05-25T07:17:48Z</time>
      </trkpt>
      <trkpt lat="43.84695" lon="6.49705">
        <ele>795.684</ele>
        <time>2013-05-25T07:17:54Z</time>
      </trkpt>
      <trkpt lat="43.8469" lon="6.49703">
        <ele>795.928</ele>
        <time>2013-05-25T07:18:00Z</time>
      </trkpt>
      <trkpt lat="43.84685" lon="6.49698">
        <ele>795.708</ele>
        <time>2013-05-25T07:18:07Z</time>
      </trkpt>
      <trkpt lat="43.8468" lon="6.49691">
        <ele>797.17</ele>
        <time>2013-05-25T07:18:17Z</time>
      </trkpt>
      <trkpt lat="43.84677" lon="6.49689">
        <ele>797.868</ele>
        <time>2013-05-25T07:18:23Z</time>
      </trkpt>
      <trkpt lat="43.84674" lon="6.49684">
        <ele>797.525</ele>
        <time>2013-05-25T07:18:29Z</time>
      </trkpt>
      <trkpt lat="43.84673" lon="6.49677">
        <ele>800.59</ele>
        <time>2013-05-25T07:18:36Z</time>
      </trkpt>
      <trkpt lat="43.8467" lon="6.49671">
        <ele>803.034</ele>
        <time>2013-05-25T07:18:44Z</time>
      </trkpt>
      <trkpt lat="43.84664" lon="6.49665">
        <ele>804.349</ele>
        <time>2013-05-25T07:18:52Z</time>
      </trkpt>
      <trkpt lat="43.84662" lon="6.49657">
        <ele>806.022</ele>
        <time>2013-05-25T07:19:00Z</time>
      </trkpt>
      <trkpt lat="43.84661" lon="6.49648">
        <ele>803.326</ele>
        <time>2013-05-25T07:19:08Z</time>
      </trkpt>
      <trkpt lat="43.84661" lon="6.49641">
        <ele>805.156</ele>
        <time>2013-05-25T07:19:14Z</time>
      </trkpt>
      <trkpt lat="43.8466" lon="6.49634">
        <ele>807.682</ele>
        <time>2013-05-25T07:19:20Z</time>
      </trkpt>
      <trkpt lat="43.84656" lon="6.49628">
        <ele>814.986</ele>
        <time>2013-05-25T07:19:29Z</time>
      </trkpt>
      <trkpt lat="43.84649" lon="6.49624">
        <ele>816.203</ele>
        <time>2013-05-25T07:19:36Z</time>
      </trkpt>
      <trkpt lat="43.84646" lon="6.49621">
        <ele>817.703</ele>
        <time>2013-05-25T07:19:42Z</time>
      </trkpt>
      <trkpt lat="43.84639" lon="6.49614">
        <ele>816.988</ele>
        <time>2013-05-25T07:19:54Z</time>
      </trkpt>
      <trkpt lat="43.84637" lon="6.4961">
        <ele>820.18</ele>
        <time>2013-05-25T07:20:00Z</time>
      </trkpt>
      <trkpt lat="43.84635" lon="6.4961">
        <ele>822.505</ele>
        <time>2013-05-25T07:20:06Z</time>
      </trkpt>
      <trkpt lat="43.84634" lon="6.49604">
        <ele>823.972</ele>
        <time>2013-05-25T07:20:14Z</time>
      </trkpt>
      <trkpt lat="43.84634" lon="6.49602">
        <ele>824.132</ele>
        <time>2013-05-25T07:20:15Z</time>
      </trkpt>
      <trkpt lat="43.84633" lon="6.49596">
        <ele>823.017</ele>
        <time>2013-05-25T07:20:22Z</time>
      </trkpt>
      <trkpt lat="43.84631" lon="6.49594">
        <ele>821.763</ele>
        <time>2013-05-25T07:20:28Z</time>
      </trkpt>
      <trkpt lat="43.84629" lon="6.49584">
        <ele>822.978</ele>
        <time>2013-05-25T07:20:33Z</time>
      </trkpt>
      <trkpt lat="43.84622" lon="6.49573">
        <ele>826.604</ele>
        <time>2013-05-25T07:20:40Z</time>
      </trkpt>
      <trkpt lat="43.84609" lon="6.49558">
        <ele>831.574</ele>
        <time>2013-05-25T07:20:49Z</time>
      </trkpt>
      <trkpt lat="43.84603" lon="6.49546">
        <ele>835.677</ele>
        <time>2013-05-25T07:20:55Z</time>
      </trkpt>
      <trkpt lat="43.84597" lon="6.49534">
        <ele>837.463</ele>
        <time>2013-05-25T07:21:00Z</time>
      </trkpt>
      <trkpt lat="43.84594" lon="6.49529">
        <ele>838.255</ele>
        <time>2013-05-25T07:21:02Z</time>
      </trkpt>
      <trkpt lat="43.8459" lon="6.4952">
        <ele>838.232</ele>
        <time>2013-05-25T07:21:06Z</time>
      </trkpt>
      <trkpt lat="43.84586" lon="6.49509">
        <ele>840.555</ele>
        <time>2013-05-25T07:21:11Z</time>
      </trkpt>
      <trkpt lat="43.84579" lon="6.49495">
        <ele>841.263</ele>
        <time>2013-05-25T07:21:19Z</time>
      </trkpt>
      <trkpt lat="43.84576" lon="6.49483">
        <ele>842.793</ele>
        <time>2013-05-25T07:21:25Z</time>
      </trkpt>
      <trkpt lat="43.84575" lon="6.49479">
        <ele>841.192</ele>
        <time>2013-05-25T07:21:30Z</time>
      </trkpt>
      <trkpt lat="43.84574" lon="6.49476">
        <ele>840.358</ele>
        <time>2013-05-25T07:21:36Z</time>
      </trkpt>
      <trkpt lat="43.84574" lon="6.4947">
        <ele>840.662</ele>
        <time>2013-05-25T07:21:43Z</time>
      </trkpt>
      <trkpt lat="43.84572" lon="6.49463">
        <ele>842.602</ele>
        <time>2013-05-25T07:21:51Z</time>
      </trkpt>
      <trkpt lat="43.84571" lon="6.49454">
        <ele>842.238</ele>
        <time>2013-05-25T07:21:59Z</time>
      </trkpt>
      <trkpt lat="43.84569" lon="6.49452">
        <ele>840.485</ele>
        <time>2013-05-25T07:22:05Z</time>
      </trkpt>
      <trkpt lat="43.84569" lon="6.49444">
        <ele>841.379</ele>
        <time>2013-05-25T07:22:14Z</time>
      </trkpt>
      <trkpt lat="43.8457" lon="6.49428">
        <ele>840.487</ele>
        <time>2013-05-25T07:22:20Z</time>
      </trkpt>
      <trkpt lat="43.84569" lon="6.49416">
        <ele>842.664</ele>
        <time>2013-05-25T07:22:27Z</time>
      </trkpt>
      <trkpt lat="43.84569" lon="6.49404">
        <ele>844.591</ele>
        <time>2013-05-25T07:22:34Z</time>
      </trkpt>
      <trkpt lat="43.84569" lon="6.49397">
        <ele>844.872</ele>
        <time>2013-05-25T07:22:38Z</time>
      </trkpt>
      <trkpt lat="43.84571" lon="6.49379">
        <ele>846.065</ele>
        <time>2013-05-25T07:22:45Z</time>
      </trkpt>
      <trkpt lat="43.84572" lon="6.49373">
        <ele>846.745</ele>
        <time>2013-05-25T07:22:48Z</time>
      </trkpt>
      <trkpt lat="43.84574" lon="6.49355">
        <ele>846.771</ele>
        <time>2013-05-25T07:22:56Z</time>
      </trkpt>
      <trkpt lat="43.84577" lon="6.4934">
        <ele>844.914</ele>
        <time>2013-05-25T07:23:03Z</time>
      </trkpt>
      <trkpt lat="43.84579" lon="6.49335">
        <ele>844.705</ele>
        <time>2013-05-25T07:23:05Z</time>
      </trkpt>
      <trkpt lat="43.84578" lon="6.49329">
        <ele>846.2</ele>
        <time>2013-05-25T07:23:09Z</time>
      </trkpt>
      <trkpt lat="43.84577" lon="6.49312">
        <ele>848.969</ele>
        <time>2013-05-25T07:23:17Z</time>
      </trkpt>
      <trkpt lat="43.84573" lon="6.49302">
        <ele>851.453</ele>
        <time>2013-05-25T07:23:23Z</time>
      </trkpt>
      <trkpt lat="43.84569" lon="6.49295">
        <ele>854.07</ele>
        <time>2013-05-25T07:23:29Z</time>
      </trkpt>
      <trkpt lat="43.84567" lon="6.49289">
        <ele>856.991</ele>
        <time>2013-05-25T07:23:35Z</time>
      </trkpt>
      <trkpt lat="43.8456" lon="6.49278">
        <ele>858.729</ele>
        <time>2013-05-25T07:23:42Z</time>
      </trkpt>
      <trkpt lat="43.84558" lon="6.4927">
        <ele>859.336</ele>
        <time>2013-05-25T07:23:46Z</time>
      </trkpt>
      <trkpt lat="43.8456" lon="6.4926">
        <ele>857.953</ele>
        <time>2013-05-25T07:23:51Z</time>
      </trkpt>
      <trkpt lat="43.8456" lon="6.49237">
        <ele>856.173</ele>
        <time>2013-05-25T07:23:58Z</time>
      </trkpt>
      <trkpt lat="43.84556" lon="6.49222">
        <ele>858.841</ele>
        <time>2013-05-25T07:24:05Z</time>
      </trkpt>
      <trkpt lat="43.84554" lon="6.49209">
        <ele>860.043</ele>
        <time>2013-05-25T07:24:10Z</time>
      </trkpt>
      <trkpt lat="43.84551" lon="6.49204">
        <ele>860.841</ele>
        <time>2013-05-25T07:24:13Z</time>
      </trkpt>
      <trkpt lat="43.84546" lon="6.49193">
        <ele>861.047</ele>
        <time>2013-05-25T07:24:18Z</time>
      </trkpt>
      <trkpt lat="43.84544" lon="6.49182">
        <ele>861.429</ele>
        <time>2013-05-25T07:24:23Z</time>
      </trkpt>
      <trkpt lat="43.84541" lon="6.4917">
        <ele>863.053</ele>
        <time>2013-05-25T07:24:29Z</time>
      </trkpt>
      <trkpt lat="43.84537" lon="6.49155">
        <ele>865.811</ele>
        <time>2013-05-25T07:24:38Z</time>
      </trkpt>
      <trkpt lat="43.84535" lon="6.49146">
        <ele>866.37</ele>
        <time>2013-05-25T07:24:44Z</time>
      </trkpt>
      <trkpt lat="43.84533" lon="6.49139">
        <ele>866.506</ele>
        <time>2013-05-25T07:24:50Z</time>
      </trkpt>
      <trkpt lat="43.84534" lon="6.49138">
        <ele>866.176</ele>
        <time>2013-05-25T07:24:52Z</time>
      </trkpt>
      <trkpt lat="43.84534" lon="6.49131">
        <ele>865.117</ele>
        <time>2013-05-25T07:24:59Z</time>
      </trkpt>
      <trkpt lat="43.84538" lon="6.49127">
        <ele>865.658</ele>
        <time>2013-05-25T07:25:04Z</time>
      </trkpt>
      <trkpt lat="43.84543" lon="6.49123">
        <ele>864.867</ele>
        <time>2013-05-25T07:25:11Z</time>
      </trkpt>
      <trkpt lat="43.84548" lon="6.4912">
        <ele>866.918</ele>
        <time>2013-05-25T07:25:19Z</time>
      </trkpt>
      <trkpt lat="43.84553" lon="6.49119">
        <ele>869.026</ele>
        <time>2013-05-25T07:25:28Z</time>
      </trkpt>
      <trkpt lat="43.84554" lon="6.49121">
        <ele>870.314</ele>
        <time>2013-05-25T07:25:35Z</time>
      </trkpt>
      <trkpt lat="43.84555" lon="6.4912">
        <ele>870.724</ele>
        <time>2013-05-25T07:25:40Z</time>
      </trkpt>
      <trkpt lat="43.84561" lon="6.49124">
        <ele>872.368</ele>
        <time>2013-05-25T07:25:45Z</time>
      </trkpt>
      <trkpt lat="43.84563" lon="6.49125">
        <ele>872.398</ele>
        <time>2013-05-25T07:25:46Z</time>
      </trkpt>
      <trkpt lat="43.84573" lon="6.4913">
        <ele>875.466</ele>
        <time>2013-05-25T07:25:54Z</time>
      </trkpt>
      <trkpt lat="43.84584" lon="6.4914">
        <ele>877.711</ele>
        <time>2013-05-25T07:26:02Z</time>
      </trkpt>
      <trkpt lat="43.84592" lon="6.49148">
        <ele>881.212</ele>
        <time>2013-05-25T07:26:09Z</time>
      </trkpt>
      <trkpt lat="43.84602" lon="6.49153">
        <ele>884.605</ele>
        <time>2013-05-25T07:26:17Z</time>
      </trkpt>
      <trkpt lat="43.84607" lon="6.49158">
        <ele>887.112</ele>
        <time>2013-05-25T07:26:23Z</time>
      </trkpt>
      <trkpt lat="43.84616" lon="6.49162">
        <ele>888.563</ele>
        <time>2013-05-25T07:26:31Z</time>
      </trkpt>
      <trkpt lat="43.84626" lon="6.49168">
        <ele>893.343</ele>
        <time>2013-05-25T07:26:39Z</time>
      </trkpt>
      <trkpt lat="43.84632" lon="6.49182">
        <ele>891.689</ele>
        <time>2013-05-25T07:26:46Z</time>
      </trkpt>
      <trkpt lat="43.8464" lon="6.49185">
        <ele>894.502</ele>
        <time>2013-05-25T07:26:52Z</time>
      </trkpt>
      <trkpt lat="43.84651" lon="6.49189">
        <ele>891.175</ele>
        <time>2013-05-25T07:26:59Z</time>
      </trkpt>
      <trkpt lat="43.84662" lon="6.49193">
        <ele>887.651</ele>
        <time>2013-05-25T07:27:05Z</time>
      </trkpt>
      <trkpt lat="43.84672" lon="6.49191">
        <ele>883.644</ele>
        <time>2013-05-25T07:27:11Z</time>
      </trkpt>
      <trkpt lat="43.8468" lon="6.49185">
        <ele>880.464</ele>
        <time>2013-05-25T07:27:14Z</time>
      </trkpt>
      <trkpt lat="43.84689" lon="6.49177">
        <ele>879.249</ele>
        <time>2013-05-25T07:27:17Z</time>
      </trkpt>
      <trkpt lat="43.84692" lon="6.49167">
        <ele>878.406</ele>
        <time>2013-05-25T07:27:22Z</time>
      </trkpt>
      <trkpt lat="43.84692" lon="6.49165">
        <ele>879.674</ele>
        <time>2013-05-25T07:27:24Z</time>
      </trkpt>
      <trkpt lat="43.84694" lon="6.49158">
        <ele>881.248</ele>
        <time>2013-05-25T07:27:28Z</time>
      </trkpt>
      <trkpt lat="43.84699" lon="6.49144">
        <ele>880.773</ele>
        <time>2013-05-25T07:27:34Z</time>
      </trkpt>
      <trkpt lat="43.84708" lon="6.49129">
        <ele>880.882</ele>
        <time>2013-05-25T07:27:40Z</time>
      </trkpt>
      <trkpt lat="43.8471" lon="6.49119">
        <ele>882.438</ele>
        <time>2013-05-25T07:27:44Z</time>
      </trkpt>
      <trkpt lat="43.84714" lon="6.49113">
        <ele>884.046</ele>
        <time>2013-05-25T07:27:49Z</time>
      </trkpt>
      <trkpt lat="43.84726" lon="6.49107">
        <ele>882.625</ele>
        <time>2013-05-25T07:27:56Z</time>
      </trkpt>
      <trkpt lat="43.84734" lon="6.49106">
        <ele>884.13</ele>
        <time>2013-05-25T07:28:01Z</time>
      </trkpt>
      <trkpt lat="43.84739" lon="6.49104">
        <ele>884.391</ele>
        <time>2013-05-25T07:28:04Z</time>
      </trkpt>
      <trkpt lat="43.84749" lon="6.49098">
        <ele>887.73</ele>
        <time>2013-05-25T07:28:11Z</time>
      </trkpt>
      <trkpt lat="43.84757" lon="6.49095">
        <ele>892.901</ele>
        <time>2013-05-25T07:28:17Z</time>
      </trkpt>
      <trkpt lat="43.84771" lon="6.4908">
        <ele>895.693</ele>
        <time>2013-05-25T07:28:26Z</time>
      </trkpt>
      <trkpt lat="43.84782" lon="6.49069">
        <ele>896.477</ele>
        <time>2013-05-25T07:28:33Z</time>
      </trkpt>
      <trkpt lat="43.84787" lon="6.49064">
        <ele>898.26</ele>
        <time>2013-05-25T07:28:38Z</time>
      </trkpt>
      <trkpt lat="43.84793" lon="6.49059">
        <ele>901.082</ele>
        <time>2013-05-25T07:28:43Z</time>
      </trkpt>
      <trkpt lat="43.84803" lon="6.49053">
        <ele>903.148</ele>
        <time>2013-05-25T07:28:49Z</time>
      </trkpt>
      <trkpt lat="43.84804" lon="6.49052">
        <ele>902.715</ele>
        <time>2013-05-25T07:28:50Z</time>
      </trkpt>
      <trkpt lat="43.84821" lon="6.49043">
        <ele>898.446</ele>
        <time>2013-05-25T07:29:00Z</time>
      </trkpt>
      <trkpt lat="43.84828" lon="6.49043">
        <ele>900.841</ele>
        <time>2013-05-25T07:29:06Z</time>
      </trkpt>
      <trkpt lat="43.8484" lon="6.4904">
        <ele>902.5</ele>
        <time>2013-05-25T07:29:12Z</time>
      </trkpt>
      <trkpt lat="43.84852" lon="6.49041">
        <ele>900.046</ele>
        <time>2013-05-25T07:29:17Z</time>
      </trkpt>
      <trkpt lat="43.84869" lon="6.49043">
        <ele>899.506</ele>
        <time>2013-05-25T07:29:22Z</time>
      </trkpt>
      <trkpt lat="43.84887" lon="6.49039">
        <ele>905.337</ele>
        <time>2013-05-25T07:29:28Z</time>
      </trkpt>
      <trkpt lat="43.84905" lon="6.49031">
        <ele>903.954</ele>
        <time>2013-05-25T07:29:35Z</time>
      </trkpt>
      <trkpt lat="43.84913" lon="6.49024">
        <ele>902.372</ele>
        <time>2013-05-25T07:29:41Z</time>
      </trkpt>
      <trkpt lat="43.84923" lon="6.49016">
        <ele>902.935</ele>
        <time>2013-05-25T07:29:46Z</time>
      </trkpt>
      <trkpt lat="43.84933" lon="6.49009">
        <ele>904.023</ele>
        <time>2013-05-25T07:29:51Z</time>
      </trkpt>
      <trkpt lat="43.84946" lon="6.49">
        <ele>903.442</ele>
        <time>2013-05-25T07:29:57Z</time>
      </trkpt>
      <trkpt lat="43.84947" lon="6.48993">
        <ele>901.112</ele>
        <time>2013-05-25T07:30:03Z</time>
      </trkpt>
      <trkpt lat="43.84952" lon="6.48988">
        <ele>903.043</ele>
        <time>2013-05-25T07:30:09Z</time>
      </trkpt>
      <trkpt lat="43.84952" lon="6.48987">
        <ele>905.555</ele>
        <time>2013-05-25T07:30:16Z</time>
      </trkpt>
      <trkpt lat="43.84952" lon="6.48986">
        <ele>905.706</ele>
        <time>2013-05-25T07:30:17Z</time>
      </trkpt>
      <trkpt lat="43.84952" lon="6.48975">
        <ele>906.419</ele>
        <time>2013-05-25T07:30:22Z</time>
      </trkpt>
      <trkpt lat="43.84947" lon="6.48964">
        <ele>909.818</ele>
        <time>2013-05-25T07:30:29Z</time>
      </trkpt>
      <trkpt lat="43.84945" lon="6.48961">
        <ele>909.605</ele>
        <time>2013-05-25T07:30:31Z</time>
      </trkpt>
      <trkpt lat="43.84945" lon="6.48957">
        <ele>910.167</ele>
        <time>2013-05-25T07:30:34Z</time>
      </trkpt>
      <trkpt lat="43.84949" lon="6.48949">
        <ele>913.263</ele>
        <time>2013-05-25T07:30:39Z</time>
      </trkpt>
      <trkpt lat="43.84948" lon="6.48948">
        <ele>913.232</ele>
        <time>2013-05-25T07:30:40Z</time>
      </trkpt>
      <trkpt lat="43.84947" lon="6.48944">
        <ele>913.783</ele>
        <time>2013-05-25T07:30:42Z</time>
      </trkpt>
      <trkpt lat="43.84945" lon="6.48935">
        <ele>913.389</ele>
        <time>2013-05-25T07:30:46Z</time>
      </trkpt>
      <trkpt lat="43.84946" lon="6.48926">
        <ele>912.341</ele>
        <time>2013-05-25T07:30:50Z</time>
      </trkpt>
      <trkpt lat="43.84947" lon="6.48921">
        <ele>909.947</ele>
        <time>2013-05-25T07:30:53Z</time>
      </trkpt>
      <trkpt lat="43.84949" lon="6.4891">
        <ele>910.628</ele>
        <time>2013-05-25T07:31:00Z</time>
      </trkpt>
      <trkpt lat="43.84949" lon="6.48906">
        <ele>911.777</ele>
        <time>2013-05-25T07:31:02Z</time>
      </trkpt>
      <trkpt lat="43.84951" lon="6.4889">
        <ele>913.006</ele>
        <time>2013-05-25T07:31:08Z</time>
      </trkpt>
      <trkpt lat="43.84951" lon="6.4888">
        <ele>915.898</ele>
        <time>2013-05-25T07:31:13Z</time>
      </trkpt>
      <trkpt lat="43.84949" lon="6.48873">
        <ele>920.843</ele>
        <time>2013-05-25T07:31:17Z</time>
      </trkpt>
      <trkpt lat="43.84948" lon="6.48865">
        <ele>923.877</ele>
        <time>2013-05-25T07:31:19Z</time>
      </trkpt>
      <trkpt lat="43.84948" lon="6.48861">
        <ele>926.377</ele>
        <time>2013-05-25T07:31:21Z</time>
      </trkpt>
      <trkpt lat="43.84949" lon="6.48851">
        <ele>927.493</ele>
        <time>2013-05-25T07:31:26Z</time>
      </trkpt>
      <trkpt lat="43.84948" lon="6.48847">
        <ele>927.737</ele>
        <time>2013-05-25T07:31:28Z</time>
      </trkpt>
      <trkpt lat="43.84946" lon="6.48837">
        <ele>928.401</ele>
        <time>2013-05-25T07:31:32Z</time>
      </trkpt>
      <trkpt lat="43.84945" lon="6.48832">
        <ele>930.216</ele>
        <time>2013-05-25T07:31:35Z</time>
      </trkpt>
      <trkpt lat="43.84946" lon="6.48817">
        <ele>932.085</ele>
        <time>2013-05-25T07:31:42Z</time>
      </trkpt>
      <trkpt lat="43.84947" lon="6.48809">
        <ele>932.562</ele>
        <time>2013-05-25T07:31:47Z</time>
      </trkpt>
      <trkpt lat="43.8495" lon="6.48796">
        <ele>929.948</ele>
        <time>2013-05-25T07:31:54Z</time>
      </trkpt>
      <trkpt lat="43.84955" lon="6.48779">
        <ele>926.878</ele>
        <time>2013-05-25T07:32:01Z</time>
      </trkpt>
      <trkpt lat="43.84958" lon="6.48769">
        <ele>926.6</ele>
        <time>2013-05-25T07:32:04Z</time>
      </trkpt>
      <trkpt lat="43.84958" lon="6.48762">
        <ele>927.403</ele>
        <time>2013-05-25T07:32:07Z</time>
      </trkpt>
      <trkpt lat="43.84958" lon="6.48753">
        <ele>928.858</ele>
        <time>2013-05-25T07:32:11Z</time>
      </trkpt>
      <trkpt lat="43.84958" lon="6.48746">
        <ele>930.55</ele>
        <time>2013-05-25T07:32:15Z</time>
      </trkpt>
      <trkpt lat="43.84957" lon="6.48741">
        <ele>931.192</ele>
        <time>2013-05-25T07:32:18Z</time>
      </trkpt>
      <trkpt lat="43.84954" lon="6.48736">
        <ele>932.151</ele>
        <time>2013-05-25T07:32:22Z</time>
      </trkpt>
      <trkpt lat="43.84951" lon="6.48724">
        <ele>937.951</ele>
        <time>2013-05-25T07:32:29Z</time>
      </trkpt>
      <trkpt lat="43.8495" lon="6.48719">
        <ele>939.3</ele>
        <time>2013-05-25T07:32:32Z</time>
      </trkpt>
      <trkpt lat="43.84947" lon="6.4871">
        <ele>945.195</ele>
        <time>2013-05-25T07:32:39Z</time>
      </trkpt>
      <trkpt lat="43.84946" lon="6.48708">
        <ele>945.023</ele>
        <time>2013-05-25T07:32:40Z</time>
      </trkpt>
      <trkpt lat="43.84943" lon="6.48696">
        <ele>943.163</ele>
        <time>2013-05-25T07:32:46Z</time>
      </trkpt>
      <trkpt lat="43.84938" lon="6.48677">
        <ele>936.898</ele>
        <time>2013-05-25T07:32:54Z</time>
      </trkpt>
      <trkpt lat="43.84935" lon="6.48672">
        <ele>938.756</ele>
        <time>2013-05-25T07:32:57Z</time>
      </trkpt>
      <trkpt lat="43.84925" lon="6.48661">
        <ele>941.428</ele>
        <time>2013-05-25T07:33:04Z</time>
      </trkpt>
      <trkpt lat="43.84921" lon="6.48652">
        <ele>944.17</ele>
        <time>2013-05-25T07:33:09Z</time>
      </trkpt>
      <trkpt lat="43.84918" lon="6.48641">
        <ele>948.063</ele>
        <time>2013-05-25T07:33:15Z</time>
      </trkpt>
      <trkpt lat="43.84916" lon="6.48628">
        <ele>947.613</ele>
        <time>2013-05-25T07:33:21Z</time>
      </trkpt>
      <trkpt lat="43.84916" lon="6.48622">
        <ele>945.541</ele>
        <time>2013-05-25T07:33:26Z</time>
      </trkpt>
      <trkpt lat="43.84913" lon="6.48619">
        <ele>942.035</ele>
        <time>2013-05-25T07:33:31Z</time>
      </trkpt>
      <trkpt lat="43.84908" lon="6.4862">
        <ele>934.849</ele>
        <time>2013-05-25T07:33:51Z</time>
      </trkpt>
      <trkpt lat="43.84911" lon="6.48608">
        <ele>936.486</ele>
        <time>2013-05-25T07:33:58Z</time>
      </trkpt>
      <trkpt lat="43.84915" lon="6.48596">
        <ele>935.042</ele>
        <time>2013-05-25T07:34:08Z</time>
      </trkpt>
      <trkpt lat="43.84916" lon="6.48584">
        <ele>934.465</ele>
        <time>2013-05-25T07:34:13Z</time>
      </trkpt>
      <trkpt lat="43.84917" lon="6.48573">
        <ele>933.851</ele>
        <time>2013-05-25T07:34:18Z</time>
      </trkpt>
      <trkpt lat="43.84913" lon="6.4856">
        <ele>937.534</ele>
        <time>2013-05-25T07:34:24Z</time>
      </trkpt>
      <trkpt lat="43.84911" lon="6.48549">
        <ele>939.437</ele>
        <time>2013-05-25T07:34:28Z</time>
      </trkpt>
      <trkpt lat="43.84907" lon="6.48533">
        <ele>940.443</ele>
        <time>2013-05-25T07:34:35Z</time>
      </trkpt>
      <trkpt lat="43.849" lon="6.48526">
        <ele>943.158</ele>
        <time>2013-05-25T07:34:40Z</time>
      </trkpt>
      <trkpt lat="43.84897" lon="6.48524">
        <ele>943.237</ele>
        <time>2013-05-25T07:34:42Z</time>
      </trkpt>
      <trkpt lat="43.84894" lon="6.48513">
        <ele>943.655</ele>
        <time>2013-05-25T07:34:47Z</time>
      </trkpt>
      <trkpt lat="43.84894" lon="6.4851">
        <ele>944.531</ele>
        <time>2013-05-25T07:34:56Z</time>
      </trkpt>
      <trkpt lat="43.84893" lon="6.48509">
        <ele>944.37</ele>
        <time>2013-05-25T07:34:57Z</time>
      </trkpt>
      <trkpt lat="43.84889" lon="6.48503">
        <ele>943.492</ele>
        <time>2013-05-25T07:35:03Z</time>
      </trkpt>
      <trkpt lat="43.84888" lon="6.48497">
        <ele>942.628</ele>
        <time>2013-05-25T07:35:10Z</time>
      </trkpt>
      <trkpt lat="43.84888" lon="6.48484">
        <ele>942.841</ele>
        <time>2013-05-25T07:35:16Z</time>
      </trkpt>
      <trkpt lat="43.84891" lon="6.48482">
        <ele>942.649</ele>
        <time>2013-05-25T07:35:18Z</time>
      </trkpt>
      <trkpt lat="43.849" lon="6.48477">
        <ele>943.565</ele>
        <time>2013-05-25T07:35:25Z</time>
      </trkpt>
      <trkpt lat="43.84905" lon="6.48465">
        <ele>944.327</ele>
        <time>2013-05-25T07:35:31Z</time>
      </trkpt>
      <trkpt lat="43.8491" lon="6.48452">
        <ele>945.842</ele>
        <time>2013-05-25T07:35:37Z</time>
      </trkpt>
      <trkpt lat="43.84915" lon="6.48439">
        <ele>945.396</ele>
        <time>2013-05-25T07:35:44Z</time>
      </trkpt>
      <trkpt lat="43.84921" lon="6.48428">
        <ele>944.513</ele>
        <time>2013-05-25T07:35:51Z</time>
      </trkpt>
      <trkpt lat="43.84921" lon="6.48426">
        <ele>944.162</ele>
        <time>2013-05-25T07:35:53Z</time>
      </trkpt>
      <trkpt lat="43.84928" lon="6.48419">
        <ele>945.201</ele>
        <time>2013-05-25T07:35:58Z</time>
      </trkpt>
      <trkpt lat="43.84939" lon="6.48411">
        <ele>947.173</ele>
        <time>2013-05-25T07:36:05Z</time>
      </trkpt>
      <trkpt lat="43.84943" lon="6.48407">
        <ele>944.986</ele>
        <time>2013-05-25T07:36:10Z</time>
      </trkpt>
      <trkpt lat="43.84946" lon="6.48402">
        <ele>947.561</ele>
        <time>2013-05-25T07:36:15Z</time>
      </trkpt>
      <trkpt lat="43.84952" lon="6.48402">
        <ele>950.373</ele>
        <time>2013-05-25T07:36:19Z</time>
      </trkpt>
      <trkpt lat="43.84962" lon="6.48415">
        <ele>955.26</ele>
        <time>2013-05-25T07:36:26Z</time>
      </trkpt>
      <trkpt lat="43.84967" lon="6.48422">
        <ele>957.359</ele>
        <time>2013-05-25T07:36:30Z</time>
      </trkpt>
      <trkpt lat="43.84976" lon="6.48425">
        <ele>957.886</ele>
        <time>2013-05-25T07:36:35Z</time>
      </trkpt>
      <trkpt lat="43.84983" lon="6.48424">
        <ele>958.224</ele>
        <time>2013-05-25T07:36:40Z</time>
      </trkpt>
      <trkpt lat="43.84985" lon="6.4842">
        <ele>957.195</ele>
        <time>2013-05-25T07:36:43Z</time>
      </trkpt>
      <trkpt lat="43.84988" lon="6.4841">
        <ele>957.355</ele>
        <time>2013-05-25T07:36:49Z</time>
      </trkpt>
      <trkpt lat="43.84991" lon="6.48399">
        <ele>959.36</ele>
        <time>2013-05-25T07:36:56Z</time>
      </trkpt>
      <trkpt lat="43.84994" lon="6.48388">
        <ele>961.172</ele>
        <time>2013-05-25T07:37:03Z</time>
      </trkpt>
      <trkpt lat="43.84999" lon="6.48376">
        <ele>962.237</ele>
        <time>2013-05-25T07:37:10Z</time>
      </trkpt>
      <trkpt lat="43.85002" lon="6.48368">
        <ele>963.228</ele>
        <time>2013-05-25T07:37:15Z</time>
      </trkpt>
      <trkpt lat="43.85006" lon="6.48354">
        <ele>965.901</ele>
        <time>2013-05-25T07:37:22Z</time>
      </trkpt>
      <trkpt lat="43.85008" lon="6.48341">
        <ele>966.686</ele>
        <time>2013-05-25T07:37:28Z</time>
      </trkpt>
      <trkpt lat="43.85009" lon="6.48336">
        <ele>968.339</ele>
        <time>2013-05-25T07:37:31Z</time>
      </trkpt>
      <trkpt lat="43.85008" lon="6.48326">
        <ele>969.467</ele>
        <time>2013-05-25T07:37:37Z</time>
      </trkpt>
      <trkpt lat="43.85009" lon="6.48316">
        <ele>970.755</ele>
        <time>2013-05-25T07:38:00Z</time>
      </trkpt>
      <trkpt lat="43.85008" lon="6.48304">
        <ele>970.917</ele>
        <time>2013-05-25T07:38:06Z</time>
      </trkpt>
      <trkpt lat="43.85015" lon="6.48294">
        <ele>972.488</ele>
        <time>2013-05-25T07:38:12Z</time>
      </trkpt>
      <trkpt lat="43.85022" lon="6.48277">
        <ele>972.396</ele>
        <time>2013-05-25T07:38:20Z</time>
      </trkpt>
      <trkpt lat="43.85021" lon="6.48275">
        <ele>971.581</ele>
        <time>2013-05-25T07:38:24Z</time>
      </trkpt>
      <trkpt lat="43.85022" lon="6.48273">
        <ele>971.963</ele>
        <time>2013-05-25T07:38:28Z</time>
      </trkpt>
      <trkpt lat="43.85024" lon="6.48266">
        <ele>972.214</ele>
        <time>2013-05-25T07:38:38Z</time>
      </trkpt>
      <trkpt lat="43.85026" lon="6.48255">
        <ele>974.147</ele>
        <time>2013-05-25T07:38:44Z</time>
      </trkpt>
      <trkpt lat="43.85029" lon="6.48239">
        <ele>973.579</ele>
        <time>2013-05-25T07:38:52Z</time>
      </trkpt>
      <trkpt lat="43.8503" lon="6.4823">
        <ele>976.113</ele>
        <time>2013-05-25T07:38:58Z</time>
      </trkpt>
      <trkpt lat="43.85031" lon="6.48221">
        <ele>975.752</ele>
        <time>2013-05-25T07:39:04Z</time>
      </trkpt>
      <trkpt lat="43.85037" lon="6.48206">
        <ele>978.146</ele>
        <time>2013-05-25T07:39:11Z</time>
      </trkpt>
      <trkpt lat="43.8504" lon="6.482">
        <ele>979.083</ele>
        <time>2013-05-25T07:39:17Z</time>
      </trkpt>
      <trkpt lat="43.85045" lon="6.48194">
        <ele>979.251</ele>
        <time>2013-05-25T07:39:29Z</time>
      </trkpt>
      <trkpt lat="43.85048" lon="6.48191">
        <ele>976.939</ele>
        <time>2013-05-25T07:39:47Z</time>
      </trkpt>
      <trkpt lat="43.85051" lon="6.4819">
        <ele>975.85</ele>
        <time>2013-05-25T07:39:52Z</time>
      </trkpt>
      <trkpt lat="43.85051" lon="6.48189">
        <ele>975.88</ele>
        <time>2013-05-25T07:39:56Z</time>
      </trkpt>
      <trkpt lat="43.85056" lon="6.48192">
        <ele>975.88</ele>
        <time>2013-05-25T07:40:03Z</time>
      </trkpt>
      <trkpt lat="43.85057" lon="6.48194">
        <ele>975.71</ele>
        <time>2013-05-25T07:40:06Z</time>
      </trkpt>
      <trkpt lat="43.85059" lon="6.48192">
        <ele>975.72</ele>
        <time>2013-05-25T07:40:08Z</time>
      </trkpt>
      <trkpt lat="43.85065" lon="6.48196">
        <ele>976.964</ele>
        <time>2013-05-25T07:40:14Z</time>
      </trkpt>
      <trkpt lat="43.85067" lon="6.48199">
        <ele>976.993</ele>
        <time>2013-05-25T07:40:16Z</time>
      </trkpt>
      <trkpt lat="43.85076" lon="6.482">
        <ele>975.742</ele>
        <time>2013-05-25T07:40:22Z</time>
      </trkpt>
      <trkpt lat="43.85077" lon="6.48198">
        <ele>975.834</ele>
        <time>2013-05-25T07:40:23Z</time>
      </trkpt>
      <trkpt lat="43.85082" lon="6.48189">
        <ele>976.655</ele>
        <time>2013-05-25T07:40:30Z</time>
      </trkpt>
      <trkpt lat="43.85084" lon="6.48185">
        <ele>980.463</ele>
        <time>2013-05-25T07:40:37Z</time>
      </trkpt>
      <trkpt lat="43.85084" lon="6.48182">
        <ele>980.731</ele>
        <time>2013-05-25T07:40:39Z</time>
      </trkpt>
      <trkpt lat="43.8509" lon="6.48179">
        <ele>983.535</ele>
        <time>2013-05-25T07:40:45Z</time>
      </trkpt>
      <trkpt lat="43.85096" lon="6.48183">
        <ele>983.554</ele>
        <time>2013-05-25T07:40:49Z</time>
      </trkpt>
      <trkpt lat="43.85097" lon="6.48181">
        <ele>983.292</ele>
        <time>2013-05-25T07:40:53Z</time>
      </trkpt>
      <trkpt lat="43.85098" lon="6.48179">
        <ele>984.705</ele>
        <time>2013-05-25T07:40:58Z</time>
      </trkpt>
      <trkpt lat="43.851" lon="6.48177">
        <ele>987.434</ele>
        <time>2013-05-25T07:41:08Z</time>
      </trkpt>
      <trkpt lat="43.851" lon="6.48167">
        <ele>989.378</ele>
        <time>2013-05-25T07:41:14Z</time>
      </trkpt>
      <trkpt lat="43.85099" lon="6.48165">
        <ele>990.692</ele>
        <time>2013-05-25T07:41:16Z</time>
      </trkpt>
      <trkpt lat="43.85094" lon="6.48164">
        <ele>991.25</ele>
        <time>2013-05-25T07:41:22Z</time>
      </trkpt>
      <trkpt lat="43.85094" lon="6.48163">
        <ele>991.413</ele>
        <time>2013-05-25T07:41:27Z</time>
      </trkpt>
      <trkpt lat="43.85089" lon="6.48161">
        <ele>992.174</ele>
        <time>2013-05-25T07:41:31Z</time>
      </trkpt>
      <trkpt lat="43.85082" lon="6.48155">
        <ele>995.24</ele>
        <time>2013-05-25T07:41:37Z</time>
      </trkpt>
      <trkpt lat="43.85081" lon="6.48155">
        <ele>995.981</ele>
        <time>2013-05-25T07:41:38Z</time>
      </trkpt>
      <trkpt lat="43.85076" lon="6.48153">
        <ele>997.461</ele>
        <time>2013-05-25T07:41:42Z</time>
      </trkpt>
      <trkpt lat="43.85068" lon="6.48151">
        <ele>998.639</ele>
        <time>2013-05-25T07:41:49Z</time>
      </trkpt>
      <trkpt lat="43.8506" lon="6.48146">
        <ele>999.087</ele>
        <time>2013-05-25T07:41:55Z</time>
      </trkpt>
      <trkpt lat="43.85052" lon="6.48143">
        <ele>999.438</ele>
        <time>2013-05-25T07:42:00Z</time>
      </trkpt>
      <trkpt lat="43.85043" lon="6.48133">
        <ele>1002.24</ele>
        <time>2013-05-25T07:42:08Z</time>
      </trkpt>
      <trkpt lat="43.85036" lon="6.48123">
        <ele>1009.207</ele>
        <time>2013-05-25T07:42:17Z</time>
      </trkpt>
      <trkpt lat="43.85027" lon="6.48116">
        <ele>1013.21</ele>
        <time>2013-05-25T07:42:25Z</time>
      </trkpt>
      <trkpt lat="43.85025" lon="6.48114">
        <ele>1014.339</ele>
        <time>2013-05-25T07:42:27Z</time>
      </trkpt>
      <trkpt lat="43.85019" lon="6.48115">
        <ele>1016.365</ele>
        <time>2013-05-25T07:42:33Z</time>
      </trkpt>
      <trkpt lat="43.85014" lon="6.4812">
        <ele>1018.196</ele>
        <time>2013-05-25T07:42:40Z</time>
      </trkpt>
      <trkpt lat="43.8501" lon="6.48128">
        <ele>1019.442</ele>
        <time>2013-05-25T07:42:47Z</time>
      </trkpt>
      <trkpt lat="43.85004" lon="6.48138">
        <ele>1019.886</ele>
        <time>2013-05-25T07:42:54Z</time>
      </trkpt>
      <trkpt lat="43.84997" lon="6.48146">
        <ele>1020.382</ele>
        <time>2013-05-25T07:43:00Z</time>
      </trkpt>
      <trkpt lat="43.84991" lon="6.48153">
        <ele>1018.478</ele>
        <time>2013-05-25T07:43:06Z</time>
      </trkpt>
      <trkpt lat="43.8499" lon="6.48155">
        <ele>1018.669</ele>
        <time>2013-05-25T07:43:08Z</time>
      </trkpt>
      <trkpt lat="43.84987" lon="6.48157">
        <ele>1014.641</ele>
        <time>2013-05-25T07:43:14Z</time>
      </trkpt>
      <trkpt lat="43.84979" lon="6.48168">
        <ele>1017.055</ele>
        <time>2013-05-25T07:43:22Z</time>
      </trkpt>
      <trkpt lat="43.84977" lon="6.48176">
        <ele>1019.697</ele>
        <time>2013-05-25T07:43:28Z</time>
      </trkpt>
      <trkpt lat="43.8497" lon="6.48176">
        <ele>1022.282</ele>
        <time>2013-05-25T07:43:33Z</time>
      </trkpt>
      <trkpt lat="43.84965" lon="6.48169">
        <ele>1023.359</ele>
        <time>2013-05-25T07:43:37Z</time>
      </trkpt>
      <trkpt lat="43.84965" lon="6.48168">
        <ele>1023.407</ele>
        <time>2013-05-25T07:43:38Z</time>
      </trkpt>
      <trkpt lat="43.84961" lon="6.48154">
        <ele>1022.356</ele>
        <time>2013-05-25T07:43:45Z</time>
      </trkpt>
      <trkpt lat="43.84955" lon="6.48139">
        <ele>1018.125</ele>
        <time>2013-05-25T07:43:53Z</time>
      </trkpt>
      <trkpt lat="43.84952" lon="6.48131">
        <ele>1015.643</ele>
        <time>2013-05-25T07:43:57Z</time>
      </trkpt>
      <trkpt lat="43.84947" lon="6.48115">
        <ele>1015.13</ele>
        <time>2013-05-25T07:44:05Z</time>
      </trkpt>
      <trkpt lat="43.84941" lon="6.48102">
        <ele>1013.869</ele>
        <time>2013-05-25T07:44:12Z</time>
      </trkpt>
      <trkpt lat="43.84935" lon="6.48089">
        <ele>1014.08</ele>
        <time>2013-05-25T07:44:17Z</time>
      </trkpt>
      <trkpt lat="43.84929" lon="6.48071">
        <ele>1012.336</ele>
        <time>2013-05-25T07:44:24Z</time>
      </trkpt>
      <trkpt lat="43.8492" lon="6.48048">
        <ele>1011.453</ele>
        <time>2013-05-25T07:44:30Z</time>
      </trkpt>
      <trkpt lat="43.8491" lon="6.48027">
        <ele>1006.764</ele>
        <time>2013-05-25T07:44:36Z</time>
      </trkpt>
      <trkpt lat="43.84898" lon="6.48013">
        <ele>1005.444</ele>
        <time>2013-05-25T07:44:41Z</time>
      </trkpt>
      <trkpt lat="43.84895" lon="6.48008">
        <ele>1004.805</ele>
        <time>2013-05-25T07:44:43Z</time>
      </trkpt>
      <trkpt lat="43.84894" lon="6.4799">
        <ele>1004.563</ele>
        <time>2013-05-25T07:44:50Z</time>
      </trkpt>
      <trkpt lat="43.84899" lon="6.4798">
        <ele>1002.96</ele>
        <time>2013-05-25T07:44:54Z</time>
      </trkpt>
      <trkpt lat="43.849" lon="6.47966">
        <ele>1003.481</ele>
        <time>2013-05-25T07:44:58Z</time>
      </trkpt>
      <trkpt lat="43.84895" lon="6.47945">
        <ele>1004.503</ele>
        <time>2013-05-25T07:45:05Z</time>
      </trkpt>
      <trkpt lat="43.84895" lon="6.4794">
        <ele>1002.779</ele>
        <time>2013-05-25T07:45:07Z</time>
      </trkpt>
      <trkpt lat="43.84894" lon="6.47931">
        <ele>999.89</ele>
        <time>2013-05-25T07:45:11Z</time>
      </trkpt>
      <trkpt lat="43.84896" lon="6.47918">
        <ele>998.364</ele>
        <time>2013-05-25T07:45:17Z</time>
      </trkpt>
      <trkpt lat="43.84893" lon="6.47908">
        <ele>1001.214</ele>
        <time>2013-05-25T07:45:22Z</time>
      </trkpt>
      <trkpt lat="43.84887" lon="6.47894">
        <ele>1006.017</ele>
        <time>2013-05-25T07:45:27Z</time>
      </trkpt>
      <trkpt lat="43.84884" lon="6.47885">
        <ele>1006.731</ele>
        <time>2013-05-25T07:45:31Z</time>
      </trkpt>
      <trkpt lat="43.84879" lon="6.47874">
        <ele>1007.83</ele>
        <time>2013-05-25T07:45:38Z</time>
      </trkpt>
      <trkpt lat="43.84879" lon="6.47868">
        <ele>1011.955</ele>
        <time>2013-05-25T07:45:44Z</time>
      </trkpt>
      <trkpt lat="43.84879" lon="6.47862">
        <ele>1015.724</ele>
        <time>2013-05-25T07:45:56Z</time>
      </trkpt>
      <trkpt lat="43.84874" lon="6.47852">
        <ele>1016.795</ele>
        <time>2013-05-25T07:46:01Z</time>
      </trkpt>
      <trkpt lat="43.84873" lon="6.47848">
        <ele>1016.704</ele>
        <time>2013-05-25T07:46:03Z</time>
      </trkpt>
      <trkpt lat="43.84872" lon="6.47836">
        <ele>1014.166</ele>
        <time>2013-05-25T07:46:09Z</time>
      </trkpt>
      <trkpt lat="43.84873" lon="6.4783">
        <ele>1016.394</ele>
        <time>2013-05-25T07:46:15Z</time>
      </trkpt>
      <trkpt lat="43.84873" lon="6.47826">
        <ele>1017.947</ele>
        <time>2013-05-25T07:46:19Z</time>
      </trkpt>
      <trkpt lat="43.84873" lon="6.47824">
        <ele>1018.278</ele>
        <time>2013-05-25T07:46:20Z</time>
      </trkpt>
      <trkpt lat="43.84872" lon="6.47819">
        <ele>1016.081</ele>
        <time>2013-05-25T07:46:27Z</time>
      </trkpt>
      <trkpt lat="43.84871" lon="6.47812">
        <ele>1015.609</ele>
        <time>2013-05-25T07:46:32Z</time>
      </trkpt>
      <trkpt lat="43.84866" lon="6.47794">
        <ele>1016.463</ele>
        <time>2013-05-25T07:46:40Z</time>
      </trkpt>
      <trkpt lat="43.84865" lon="6.47782">
        <ele>1019.12</ele>
        <time>2013-05-25T07:46:47Z</time>
      </trkpt>
      <trkpt lat="43.84864" lon="6.4778">
        <ele>1019.73</ele>
        <time>2013-05-25T07:46:48Z</time>
      </trkpt>
      <trkpt lat="43.84863" lon="6.47771">
        <ele>1023.807</ele>
        <time>2013-05-25T07:46:54Z</time>
      </trkpt>
      <trkpt lat="43.84865" lon="6.47762">
        <ele>1027.618</ele>
        <time>2013-05-25T07:47:00Z</time>
      </trkpt>
      <trkpt lat="43.84866" lon="6.47749">
        <ele>1032.045</ele>
        <time>2013-05-25T07:47:08Z</time>
      </trkpt>
      <trkpt lat="43.84868" lon="6.47737">
        <ele>1034.181</ele>
        <time>2013-05-25T07:47:14Z</time>
      </trkpt>
      <trkpt lat="43.84869" lon="6.47734">
        <ele>1034.562</ele>
        <time>2013-05-25T07:47:16Z</time>
      </trkpt>
      <trkpt lat="43.84863" lon="6.47734">
        <ele>1041.226</ele>
        <time>2013-05-25T07:47:24Z</time>
      </trkpt>
      <trkpt lat="43.84858" lon="6.47733">
        <ele>1045.188</ele>
        <time>2013-05-25T07:47:31Z</time>
      </trkpt>
      <trkpt lat="43.84855" lon="6.47728">
        <ele>1046.903</ele>
        <time>2013-05-25T07:47:35Z</time>
      </trkpt>
      <trkpt lat="43.84856" lon="6.4772">
        <ele>1046.077</ele>
        <time>2013-05-25T07:47:42Z</time>
      </trkpt>
      <trkpt lat="43.84857" lon="6.47715">
        <ele>1043.863</ele>
        <time>2013-05-25T07:47:47Z</time>
      </trkpt>
      <trkpt lat="43.84857" lon="6.47709">
        <ele>1043.232</ele>
        <time>2013-05-25T07:47:50Z</time>
      </trkpt>
      <trkpt lat="43.8486" lon="6.47699">
        <ele>1041.799</ele>
        <time>2013-05-25T07:47:57Z</time>
      </trkpt>
      <trkpt lat="43.84859" lon="6.47698">
        <ele>1042.299</ele>
        <time>2013-05-25T07:47:58Z</time>
      </trkpt>
      <trkpt lat="43.84858" lon="6.47687">
        <ele>1041.161</ele>
        <time>2013-05-25T07:48:05Z</time>
      </trkpt>
      <trkpt lat="43.84863" lon="6.47678">
        <ele>1037.137</ele>
        <time>2013-05-25T07:48:16Z</time>
      </trkpt>
      <trkpt lat="43.84861" lon="6.47668">
        <ele>1035.007</ele>
        <time>2013-05-25T07:50:43Z</time>
      </trkpt>
      <trkpt lat="43.8486" lon="6.47671">
        <ele>1026.924</ele>
        <time>2013-05-25T07:50:58Z</time>
      </trkpt>
      <trkpt lat="43.84869" lon="6.47658">
        <ele>1044.26</ele>
        <time>2013-05-25T07:51:48Z</time>
      </trkpt>
      <trkpt lat="43.84862" lon="6.47664">
        <ele>1043.792</ele>
        <time>2013-05-25T07:51:59Z</time>
      </trkpt>
      <trkpt lat="43.84864" lon="6.47662">
        <ele>1043.744</ele>
        <time>2013-05-25T07:52:04Z</time>
      </trkpt>
      <trkpt lat="43.84864" lon="6.47661">
        <ele>1039.464</ele>
        <time>2013-05-25T07:52:12Z</time>
      </trkpt>
      <trkpt lat="43.84869" lon="6.4765">
        <ele>1036.195</ele>
        <time>2013-05-25T07:52:18Z</time>
      </trkpt>
      <trkpt lat="43.8487" lon="6.47649">
        <ele>1035.726</ele>
        <time>2013-05-25T07:52:19Z</time>
      </trkpt>
      <trkpt lat="43.84873" lon="6.47636">
        <ele>1034.06</ele>
        <time>2013-05-25T07:52:27Z</time>
      </trkpt>
      <trkpt lat="43.84874" lon="6.47631">
        <ele>1033.35</ele>
        <time>2013-05-25T07:52:32Z</time>
      </trkpt>
      <trkpt lat="43.84878" lon="6.47626">
        <ele>1032.4</ele>
        <time>2013-05-25T07:52:37Z</time>
      </trkpt>
      <trkpt lat="43.8488" lon="6.47623">
        <ele>1033.703</ele>
        <time>2013-05-25T07:52:45Z</time>
      </trkpt>
      <trkpt lat="43.84883" lon="6.47614">
        <ele>1032.679</ele>
        <time>2013-05-25T07:52:51Z</time>
      </trkpt>
      <trkpt lat="43.84886" lon="6.47609">
        <ele>1034.397</ele>
        <time>2013-05-25T07:52:57Z</time>
      </trkpt>
      <trkpt lat="43.84887" lon="6.47601">
        <ele>1037.013</ele>
        <time>2013-05-25T07:53:04Z</time>
      </trkpt>
      <trkpt lat="43.84887" lon="6.47592">
        <ele>1034.967</ele>
        <time>2013-05-25T07:53:10Z</time>
      </trkpt>
      <trkpt lat="43.84893" lon="6.47581">
        <ele>1033.495</ele>
        <time>2013-05-25T07:53:17Z</time>
      </trkpt>
      <trkpt lat="43.84898" lon="6.47574">
        <ele>1036.054</ele>
        <time>2013-05-25T07:53:23Z</time>
      </trkpt>
      <trkpt lat="43.84901" lon="6.47569">
        <ele>1040.057</ele>
        <time>2013-05-25T07:53:28Z</time>
      </trkpt>
      <trkpt lat="43.84904" lon="6.47556">
        <ele>1042.017</ele>
        <time>2013-05-25T07:53:36Z</time>
      </trkpt>
      <trkpt lat="43.84906" lon="6.47552">
        <ele>1045.9</ele>
        <time>2013-05-25T07:53:41Z</time>
      </trkpt>
      <trkpt lat="43.84909" lon="6.47542">
        <ele>1048.732</ele>
        <time>2013-05-25T07:53:49Z</time>
      </trkpt>
      <trkpt lat="43.84908" lon="6.47535">
        <ele>1045.482</ele>
        <time>2013-05-25T07:53:55Z</time>
      </trkpt>
      <trkpt lat="43.84907" lon="6.47529">
        <ele>1045.471</ele>
        <time>2013-05-25T07:54:00Z</time>
      </trkpt>
      <trkpt lat="43.84906" lon="6.47524">
        <ele>1045.761</ele>
        <time>2013-05-25T07:54:05Z</time>
      </trkpt>
      <trkpt lat="43.84906" lon="6.47523">
        <ele>1045.48</ele>
        <time>2013-05-25T07:54:06Z</time>
      </trkpt>
      <trkpt lat="43.84907" lon="6.4752">
        <ele>1044.491</ele>
        <time>2013-05-25T07:54:08Z</time>
      </trkpt>
      <trkpt lat="43.8491" lon="6.47513">
        <ele>1047.253</ele>
        <time>2013-05-25T07:54:14Z</time>
      </trkpt>
      <trkpt lat="43.84911" lon="6.4751">
        <ele>1051.18</ele>
        <time>2013-05-25T07:54:18Z</time>
      </trkpt>
      <trkpt lat="43.84914" lon="6.47501">
        <ele>1059.944</ele>
        <time>2013-05-25T07:54:25Z</time>
      </trkpt>
      <trkpt lat="43.84913" lon="6.47493">
        <ele>1057.39</ele>
        <time>2013-05-25T07:54:30Z</time>
      </trkpt>
      <trkpt lat="43.84911" lon="6.47487">
        <ele>1057.027</ele>
        <time>2013-05-25T07:54:35Z</time>
      </trkpt>
      <trkpt lat="43.8491" lon="6.47483">
        <ele>1054.542</ele>
        <time>2013-05-25T07:54:38Z</time>
      </trkpt>
      <trkpt lat="43.84917" lon="6.47472">
        <ele>1051.264</ele>
        <time>2013-05-25T07:54:45Z</time>
      </trkpt>
      <trkpt lat="43.84922" lon="6.47463">
        <ele>1053.693</ele>
        <time>2013-05-25T07:54:52Z</time>
      </trkpt>
      <trkpt lat="43.84922" lon="6.47457">
        <ele>1054.694</ele>
        <time>2013-05-25T07:54:59Z</time>
      </trkpt>
      <trkpt lat="43.8492" lon="6.47455">
        <ele>1054.953</ele>
        <time>2013-05-25T07:55:02Z</time>
      </trkpt>
      <trkpt lat="43.84917" lon="6.47444">
        <ele>1053.861</ele>
        <time>2013-05-25T07:55:10Z</time>
      </trkpt>
      <trkpt lat="43.84918" lon="6.47438">
        <ele>1056.898</ele>
        <time>2013-05-25T07:55:15Z</time>
      </trkpt>
      <trkpt lat="43.84919" lon="6.47428">
        <ele>1060.745</ele>
        <time>2013-05-25T07:55:24Z</time>
      </trkpt>
      <trkpt lat="43.84919" lon="6.47424">
        <ele>1059.8</ele>
        <time>2013-05-25T07:55:29Z</time>
      </trkpt>
      <trkpt lat="43.84921" lon="6.4742">
        <ele>1061.343</ele>
        <time>2013-05-25T07:55:33Z</time>
      </trkpt>
      <trkpt lat="43.84923" lon="6.47416">
        <ele>1062.153</ele>
        <time>2013-05-25T07:55:37Z</time>
      </trkpt>
      <trkpt lat="43.84925" lon="6.47408">
        <ele>1060.769</ele>
        <time>2013-05-25T07:55:43Z</time>
      </trkpt>
      <trkpt lat="43.84926" lon="6.47401">
        <ele>1058.859</ele>
        <time>2013-05-25T07:55:50Z</time>
      </trkpt>
      <trkpt lat="43.84928" lon="6.47396">
        <ele>1061.266</ele>
        <time>2013-05-25T07:55:56Z</time>
      </trkpt>
      <trkpt lat="43.84934" lon="6.47392">
        <ele>1066.233</ele>
        <time>2013-05-25T07:56:00Z</time>
      </trkpt>
      <trkpt lat="43.84939" lon="6.47387">
        <ele>1069.831</ele>
        <time>2013-05-25T07:56:07Z</time>
      </trkpt>
      <trkpt lat="43.84939" lon="6.47384">
        <ele>1069.297</ele>
        <time>2013-05-25T07:56:11Z</time>
      </trkpt>
      <trkpt lat="43.84939" lon="6.47381">
        <ele>1072.82</ele>
        <time>2013-05-25T07:56:16Z</time>
      </trkpt>
      <trkpt lat="43.84937" lon="6.47377">
        <ele>1077.22</ele>
        <time>2013-05-25T07:56:23Z</time>
      </trkpt>
      <trkpt lat="43.84936" lon="6.47371">
        <ele>1079.199</ele>
        <time>2013-05-25T07:56:27Z</time>
      </trkpt>
      <trkpt lat="43.84938" lon="6.47362">
        <ele>1082.827</ele>
        <time>2013-05-25T07:56:34Z</time>
      </trkpt>
      <trkpt lat="43.84938" lon="6.47359">
        <ele>1081.86</ele>
        <time>2013-05-25T07:56:39Z</time>
      </trkpt>
      <trkpt lat="43.84936" lon="6.47356">
        <ele>1076.088</ele>
        <time>2013-05-25T07:57:02Z</time>
      </trkpt>
      <trkpt lat="43.8494" lon="6.47357">
        <ele>1081.434</ele>
        <time>2013-05-25T07:57:09Z</time>
      </trkpt>
      <trkpt lat="43.84943" lon="6.47355">
        <ele>1078.758</ele>
        <time>2013-05-25T07:57:15Z</time>
      </trkpt>
      <trkpt lat="43.84944" lon="6.47354">
        <ele>1074.023</ele>
        <time>2013-05-25T07:57:23Z</time>
      </trkpt>
      <trkpt lat="43.84953" lon="6.4735">
        <ele>1074.279</ele>
        <time>2013-05-25T07:57:30Z</time>
      </trkpt>
      <trkpt lat="43.84962" lon="6.4735">
        <ele>1075.81</ele>
        <time>2013-05-25T07:57:36Z</time>
      </trkpt>
      <trkpt lat="43.84967" lon="6.4735">
        <ele>1076.964</ele>
        <time>2013-05-25T07:57:39Z</time>
      </trkpt>
      <trkpt lat="43.84978" lon="6.47358">
        <ele>1079.232</ele>
        <time>2013-05-25T07:57:47Z</time>
      </trkpt>
      <trkpt lat="43.8498" lon="6.47359">
        <ele>1079.804</ele>
        <time>2013-05-25T07:57:49Z</time>
      </trkpt>
      <trkpt lat="43.84993" lon="6.47357">
        <ele>1079.304</ele>
        <time>2013-05-25T07:57:57Z</time>
      </trkpt>
      <trkpt lat="43.84989" lon="6.47345">
        <ele>1081.365</ele>
        <time>2013-05-25T07:58:04Z</time>
      </trkpt>
      <trkpt lat="43.84984" lon="6.47334">
        <ele>1082.655</ele>
        <time>2013-05-25T07:58:09Z</time>
      </trkpt>
      <trkpt lat="43.84976" lon="6.47317">
        <ele>1082.482</ele>
        <time>2013-05-25T07:58:18Z</time>
      </trkpt>
      <trkpt lat="43.8497" lon="6.47304">
        <ele>1089.762</ele>
        <time>2013-05-25T07:58:26Z</time>
      </trkpt>
      <trkpt lat="43.84959" lon="6.47295">
        <ele>1093.629</ele>
        <time>2013-05-25T07:58:34Z</time>
      </trkpt>
      <trkpt lat="43.84947" lon="6.47286">
        <ele>1094.265</ele>
        <time>2013-05-25T07:58:43Z</time>
      </trkpt>
      <trkpt lat="43.84943" lon="6.47281">
        <ele>1095.665</ele>
        <time>2013-05-25T07:58:46Z</time>
      </trkpt>
      <trkpt lat="43.84938" lon="6.47274">
        <ele>1097.597</ele>
        <time>2013-05-25T07:58:52Z</time>
      </trkpt>
      <trkpt lat="43.8493" lon="6.47266">
        <ele>1101.24</ele>
        <time>2013-05-25T07:58:59Z</time>
      </trkpt>
      <trkpt lat="43.8492" lon="6.47257">
        <ele>1100.872</ele>
        <time>2013-05-25T07:59:07Z</time>
      </trkpt>
      <trkpt lat="43.84913" lon="6.47254">
        <ele>1099.752</ele>
        <time>2013-05-25T07:59:12Z</time>
      </trkpt>
      <trkpt lat="43.84906" lon="6.47254">
        <ele>1104.093</ele>
        <time>2013-05-25T07:59:18Z</time>
      </trkpt>
      <trkpt lat="43.84895" lon="6.47258">
        <ele>1108.022</ele>
        <time>2013-05-25T07:59:26Z</time>
      </trkpt>
      <trkpt lat="43.84887" lon="6.47268">
        <ele>1115.495</ele>
        <time>2013-05-25T07:59:33Z</time>
      </trkpt>
      <trkpt lat="43.84875" lon="6.47276">
        <ele>1113.147</ele>
        <time>2013-05-25T07:59:40Z</time>
      </trkpt>
      <trkpt lat="43.84866" lon="6.47284">
        <ele>1113.414</ele>
        <time>2013-05-25T07:59:47Z</time>
      </trkpt>
      <trkpt lat="43.84857" lon="6.47293">
        <ele>1111.753</ele>
        <time>2013-05-25T07:59:54Z</time>
      </trkpt>
      <trkpt lat="43.84847" lon="6.473">
        <ele>1111.285</ele>
        <time>2013-05-25T08:00:01Z</time>
      </trkpt>
      <trkpt lat="43.84838" lon="6.47306">
        <ele>1109.523</ele>
        <time>2013-05-25T08:00:08Z</time>
      </trkpt>
      <trkpt lat="43.84827" lon="6.47312">
        <ele>1106.552</ele>
        <time>2013-05-25T08:00:15Z</time>
      </trkpt>
      <trkpt lat="43.84817" lon="6.47318">
        <ele>1107.104</ele>
        <time>2013-05-25T08:00:23Z</time>
      </trkpt>
      <trkpt lat="43.84804" lon="6.47329">
        <ele>1110.39</ele>
        <time>2013-05-25T08:00:32Z</time>
      </trkpt>
      <trkpt lat="43.84796" lon="6.47336">
        <ele>1114.033</ele>
        <time>2013-05-25T08:00:38Z</time>
      </trkpt>
      <trkpt lat="43.84788" lon="6.47347">
        <ele>1119.919</ele>
        <time>2013-05-25T08:00:45Z</time>
      </trkpt>
      <trkpt lat="43.84776" lon="6.47357">
        <ele>1118.244</ele>
        <time>2013-05-25T08:00:53Z</time>
      </trkpt>
      <trkpt lat="43.84762" lon="6.47367">
        <ele>1115.851</ele>
        <time>2013-05-25T08:01:03Z</time>
      </trkpt>
      <trkpt lat="43.84746" lon="6.47378">
        <ele>1114.793</ele>
        <time>2013-05-25T08:01:14Z</time>
      </trkpt>
      <trkpt lat="43.84732" lon="6.47387">
        <ele>1116.835</ele>
        <time>2013-05-25T08:01:24Z</time>
      </trkpt>
      <trkpt lat="43.8472" lon="6.47397">
        <ele>1116.621</ele>
        <time>2013-05-25T08:01:32Z</time>
      </trkpt>
      <trkpt lat="43.8471" lon="6.47409">
        <ele>1118.054</ele>
        <time>2013-05-25T08:01:39Z</time>
      </trkpt>
      <trkpt lat="43.847" lon="6.47424">
        <ele>1117.685</ele>
        <time>2013-05-25T08:01:47Z</time>
      </trkpt>
      <trkpt lat="43.8469" lon="6.47436">
        <ele>1121.261</ele>
        <time>2013-05-25T08:01:55Z</time>
      </trkpt>
      <trkpt lat="43.84681" lon="6.4745">
        <ele>1123.97</ele>
        <time>2013-05-25T08:02:03Z</time>
      </trkpt>
      <trkpt lat="43.84669" lon="6.47462">
        <ele>1125.837</ele>
        <time>2013-05-25T08:02:12Z</time>
      </trkpt>
      <trkpt lat="43.84657" lon="6.47472">
        <ele>1127.617</ele>
        <time>2013-05-25T08:02:21Z</time>
      </trkpt>
      <trkpt lat="43.84648" lon="6.47483">
        <ele>1130.396</ele>
        <time>2013-05-25T08:02:29Z</time>
      </trkpt>
      <trkpt lat="43.84633" lon="6.47493">
        <ele>1130.543</ele>
        <time>2013-05-25T08:02:39Z</time>
      </trkpt>
      <trkpt lat="43.8462" lon="6.47503">
        <ele>1130.534</ele>
        <time>2013-05-25T08:02:48Z</time>
      </trkpt>
      <trkpt lat="43.84606" lon="6.47504">
        <ele>1130.644</ele>
        <time>2013-05-25T08:02:56Z</time>
      </trkpt>
      <trkpt lat="43.84593" lon="6.47497">
        <ele>1129.861</ele>
        <time>2013-05-25T08:03:03Z</time>
      </trkpt>
      <trkpt lat="43.84579" lon="6.47493">
        <ele>1133.668</ele>
        <time>2013-05-25T08:03:11Z</time>
      </trkpt>
      <trkpt lat="43.84571" lon="6.475">
        <ele>1141.837</ele>
        <time>2013-05-25T08:03:17Z</time>
      </trkpt>
      <trkpt lat="43.84561" lon="6.47514">
        <ele>1146.415</ele>
        <time>2013-05-25T08:03:25Z</time>
      </trkpt>
      <trkpt lat="43.84554" lon="6.47532">
        <ele>1151.977</ele>
        <time>2013-05-25T08:03:33Z</time>
      </trkpt>
      <trkpt lat="43.84543" lon="6.4755">
        <ele>1158.148</ele>
        <time>2013-05-25T08:03:42Z</time>
      </trkpt>
      <trkpt lat="43.8453" lon="6.47563">
        <ele>1153.043</ele>
        <time>2013-05-25T08:03:50Z</time>
      </trkpt>
      <trkpt lat="43.84515" lon="6.47574">
        <ele>1150.213</ele>
        <time>2013-05-25T08:03:59Z</time>
      </trkpt>
      <trkpt lat="43.84501" lon="6.47585">
        <ele>1152.538</ele>
        <time>2013-05-25T08:04:08Z</time>
      </trkpt>
      <trkpt lat="43.8449" lon="6.47594">
        <ele>1159.125</ele>
        <time>2013-05-25T08:04:16Z</time>
      </trkpt>
      <trkpt lat="43.84478" lon="6.47604">
        <ele>1156.295</ele>
        <time>2013-05-25T08:04:23Z</time>
      </trkpt>
      <trkpt lat="43.84468" lon="6.47614">
        <ele>1155.392</ele>
        <time>2013-05-25T08:04:30Z</time>
      </trkpt>
      <trkpt lat="43.84467" lon="6.47614">
        <ele>1155.02</ele>
        <time>2013-05-25T08:04:31Z</time>
      </trkpt>
      <trkpt lat="43.84464" lon="6.47612">
        <ele>1153.752</ele>
        <time>2013-05-25T08:04:34Z</time>
      </trkpt>
      <trkpt lat="43.84468" lon="6.47596">
        <ele>1150.565</ele>
        <time>2013-05-25T08:04:41Z</time>
      </trkpt>
      <trkpt lat="43.8448" lon="6.47581">
        <ele>1147.269</ele>
        <time>2013-05-25T08:04:50Z</time>
      </trkpt>
      <trkpt lat="43.84489" lon="6.47572">
        <ele>1147.744</ele>
        <time>2013-05-25T08:04:57Z</time>
      </trkpt>
      <trkpt lat="43.84502" lon="6.4756">
        <ele>1149.56</ele>
        <time>2013-05-25T08:05:06Z</time>
      </trkpt>
      <trkpt lat="43.84513" lon="6.47548">
        <ele>1150.846</ele>
        <time>2013-05-25T08:05:15Z</time>
      </trkpt>
      <trkpt lat="43.84523" lon="6.47534">
        <ele>1152.805</ele>
        <time>2013-05-25T08:05:24Z</time>
      </trkpt>
      <trkpt lat="43.8453" lon="6.47518">
        <ele>1153.685</ele>
        <time>2013-05-25T08:05:32Z</time>
      </trkpt>
      <trkpt lat="43.84536" lon="6.475">
        <ele>1157.795</ele>
        <time>2013-05-25T08:05:41Z</time>
      </trkpt>
      <trkpt lat="43.84538" lon="6.47484">
        <ele>1155.822</ele>
        <time>2013-05-25T08:05:48Z</time>
      </trkpt>
      <trkpt lat="43.84547" lon="6.47468">
        <ele>1165.305</ele>
        <time>2013-05-25T08:05:57Z</time>
      </trkpt>
      <trkpt lat="43.84551" lon="6.47453">
        <ele>1166.149</ele>
        <time>2013-05-25T08:06:04Z</time>
      </trkpt>
      <trkpt lat="43.84559" lon="6.47442">
        <ele>1164.209</ele>
        <time>2013-05-25T08:06:11Z</time>
      </trkpt>
      <trkpt lat="43.8457" lon="6.47433">
        <ele>1160.706</ele>
        <time>2013-05-25T08:06:19Z</time>
      </trkpt>
      <trkpt lat="43.84578" lon="6.47434">
        <ele>1161.188</ele>
        <time>2013-05-25T08:06:25Z</time>
      </trkpt>
      <trkpt lat="43.84587" lon="6.47433">
        <ele>1159.194</ele>
        <time>2013-05-25T08:06:31Z</time>
      </trkpt>
      <trkpt lat="43.84598" lon="6.47429">
        <ele>1159.32</ele>
        <time>2013-05-25T08:06:37Z</time>
      </trkpt>
      <trkpt lat="43.84606" lon="6.47416">
        <ele>1158.201</ele>
        <time>2013-05-25T08:06:44Z</time>
      </trkpt>
      <trkpt lat="43.84614" lon="6.47403">
        <ele>1157.452</ele>
        <time>2013-05-25T08:06:52Z</time>
      </trkpt>
      <trkpt lat="43.84621" lon="6.47388">
        <ele>1159.315</ele>
        <time>2013-05-25T08:07:01Z</time>
      </trkpt>
      <trkpt lat="43.84622" lon="6.47386">
        <ele>1159.706</ele>
        <time>2013-05-25T08:07:02Z</time>
      </trkpt>
      <trkpt lat="43.84624" lon="6.47375">
        <ele>1162.692</ele>
        <time>2013-05-25T08:07:08Z</time>
      </trkpt>
      <trkpt lat="43.84624" lon="6.47362">
        <ele>1164.28</ele>
        <time>2013-05-25T08:07:14Z</time>
      </trkpt>
      <trkpt lat="43.84624" lon="6.4736">
        <ele>1163.95</ele>
        <time>2013-05-25T08:07:15Z</time>
      </trkpt>
      <trkpt lat="43.84626" lon="6.47345">
        <ele>1164.336</ele>
        <time>2013-05-25T08:07:21Z</time>
      </trkpt>
      <trkpt lat="43.84631" lon="6.47329">
        <ele>1165.035</ele>
        <time>2013-05-25T08:07:28Z</time>
      </trkpt>
      <trkpt lat="43.84637" lon="6.47313">
        <ele>1163.923</ele>
        <time>2013-05-25T08:07:36Z</time>
      </trkpt>
      <trkpt lat="43.84641" lon="6.47296">
        <ele>1160.139</ele>
        <time>2013-05-25T08:07:43Z</time>
      </trkpt>
      <trkpt lat="43.84652" lon="6.47274">
        <ele>1160.502</ele>
        <time>2013-05-25T08:07:54Z</time>
      </trkpt>
      <trkpt lat="43.8466" lon="6.47262">
        <ele>1162.955</ele>
        <time>2013-05-25T08:08:01Z</time>
      </trkpt>
      <trkpt lat="43.84672" lon="6.47251">
        <ele>1165.793</ele>
        <time>2013-05-25T08:08:09Z</time>
      </trkpt>
      <trkpt lat="43.84685" lon="6.47242">
        <ele>1166.729</ele>
        <time>2013-05-25T08:08:18Z</time>
      </trkpt>
      <trkpt lat="43.84699" lon="6.47222">
        <ele>1169.574</ele>
        <time>2013-05-25T08:08:30Z</time>
      </trkpt>
      <trkpt lat="43.84709" lon="6.47201">
        <ele>1171.944</ele>
        <time>2013-05-25T08:08:41Z</time>
      </trkpt>
      <trkpt lat="43.84713" lon="6.47186">
        <ele>1171.763</ele>
        <time>2013-05-25T08:08:48Z</time>
      </trkpt>
      <trkpt lat="43.84716" lon="6.4718">
        <ele>1172.273</ele>
        <time>2013-05-25T08:08:51Z</time>
      </trkpt>
      <trkpt lat="43.84718" lon="6.47171">
        <ele>1174.326</ele>
        <time>2013-05-25T08:08:56Z</time>
      </trkpt>
      <trkpt lat="43.84725" lon="6.47149">
        <ele>1178.278</ele>
        <time>2013-05-25T08:09:06Z</time>
      </trkpt>
      <trkpt lat="43.84732" lon="6.4712">
        <ele>1179.958</ele>
        <time>2013-05-25T08:09:19Z</time>
      </trkpt>
      <trkpt lat="43.84735" lon="6.47106">
        <ele>1180.764</ele>
        <time>2013-05-25T08:09:25Z</time>
      </trkpt>
      <trkpt lat="43.84737" lon="6.47095">
        <ele>1181.243</ele>
        <time>2013-05-25T08:09:30Z</time>
      </trkpt>
      <trkpt lat="43.84739" lon="6.47081">
        <ele>1180.263</ele>
        <time>2013-05-25T08:09:37Z</time>
      </trkpt>
      <trkpt lat="43.84741" lon="6.47075">
        <ele>1181.955</ele>
        <time>2013-05-25T08:09:40Z</time>
      </trkpt>
      <trkpt lat="43.84743" lon="6.47064">
        <ele>1187.561</ele>
        <time>2013-05-25T08:09:46Z</time>
      </trkpt>
      <trkpt lat="43.84746" lon="6.47049">
        <ele>1190.43</ele>
        <time>2013-05-25T08:09:53Z</time>
      </trkpt>
      <trkpt lat="43.84751" lon="6.47029">
        <ele>1189.897</ele>
        <time>2013-05-25T08:10:02Z</time>
      </trkpt>
      <trkpt lat="43.84756" lon="6.47007">
        <ele>1189.805</ele>
        <time>2013-05-25T08:10:12Z</time>
      </trkpt>
      <trkpt lat="43.84758" lon="6.46991">
        <ele>1191.095</ele>
        <time>2013-05-25T08:10:19Z</time>
      </trkpt>
      <trkpt lat="43.8476" lon="6.46977">
        <ele>1193.326</ele>
        <time>2013-05-25T08:10:26Z</time>
      </trkpt>
      <trkpt lat="43.84762" lon="6.46962">
        <ele>1193.836</ele>
        <time>2013-05-25T08:10:33Z</time>
      </trkpt>
      <trkpt lat="43.84765" lon="6.46946">
        <ele>1195.845</ele>
        <time>2013-05-25T08:10:40Z</time>
      </trkpt>
      <trkpt lat="43.84767" lon="6.46933">
        <ele>1197.073</ele>
        <time>2013-05-25T08:10:46Z</time>
      </trkpt>
      <trkpt lat="43.84769" lon="6.46918">
        <ele>1198.936</ele>
        <time>2013-05-25T08:10:53Z</time>
      </trkpt>
      <trkpt lat="43.84773" lon="6.46905">
        <ele>1200.104</ele>
        <time>2013-05-25T08:10:59Z</time>
      </trkpt>
      <trkpt lat="43.84774" lon="6.46889">
        <ele>1196.555</ele>
        <time>2013-05-25T08:11:06Z</time>
      </trkpt>
      <trkpt lat="43.84779" lon="6.46871">
        <ele>1196.257</ele>
        <time>2013-05-25T08:11:13Z</time>
      </trkpt>
      <trkpt lat="43.8478" lon="6.46865">
        <ele>1197.53</ele>
        <time>2013-05-25T08:11:16Z</time>
      </trkpt>
      <trkpt lat="43.84779" lon="6.46855">
        <ele>1197.46</ele>
        <time>2013-05-25T08:11:20Z</time>
      </trkpt>
      <trkpt lat="43.84782" lon="6.46842">
        <ele>1201.138</ele>
        <time>2013-05-25T08:11:27Z</time>
      </trkpt>
      <trkpt lat="43.84788" lon="6.46828">
        <ele>1202.354</ele>
        <time>2013-05-25T08:11:34Z</time>
      </trkpt>
      <trkpt lat="43.84789" lon="6.46823">
        <ele>1202.344</ele>
        <time>2013-05-25T08:11:36Z</time>
      </trkpt>
      <trkpt lat="43.84797" lon="6.4681">
        <ele>1203.061</ele>
        <time>2013-05-25T08:11:44Z</time>
      </trkpt>
      <trkpt lat="43.84803" lon="6.46797">
        <ele>1202.951</ele>
        <time>2013-05-25T08:11:51Z</time>
      </trkpt>
      <trkpt lat="43.84808" lon="6.46781">
        <ele>1203.069</ele>
        <time>2013-05-25T08:11:59Z</time>
      </trkpt>
      <trkpt lat="43.84816" lon="6.46762">
        <ele>1201.609</ele>
        <time>2013-05-25T08:12:09Z</time>
      </trkpt>
      <trkpt lat="43.84824" lon="6.46747">
        <ele>1202.521</ele>
        <time>2013-05-25T08:12:17Z</time>
      </trkpt>
      <trkpt lat="43.84831" lon="6.46734">
        <ele>1204.069</ele>
        <time>2013-05-25T08:12:24Z</time>
      </trkpt>
      <trkpt lat="43.84836" lon="6.46727">
        <ele>1205.714</ele>
        <time>2013-05-25T08:12:28Z</time>
      </trkpt>
      <trkpt lat="43.84841" lon="6.4672">
        <ele>1210.046</ele>
        <time>2013-05-25T08:12:32Z</time>
      </trkpt>
      <trkpt lat="43.84846" lon="6.46705">
        <ele>1208.939</ele>
        <time>2013-05-25T08:12:41Z</time>
      </trkpt>
      <trkpt lat="43.84847" lon="6.46703">
        <ele>1208.639</ele>
        <time>2013-05-25T08:12:42Z</time>
      </trkpt>
      <trkpt lat="43.84853" lon="6.46697">
        <ele>1208.961</ele>
        <time>2013-05-25T08:12:46Z</time>
      </trkpt>
      <trkpt lat="43.84867" lon="6.46688">
        <ele>1209.832</ele>
        <time>2013-05-25T08:12:55Z</time>
      </trkpt>
      <trkpt lat="43.8488" lon="6.46687">
        <ele>1211.483</ele>
        <time>2013-05-25T08:13:02Z</time>
      </trkpt>
      <trkpt lat="43.84896" lon="6.46687">
        <ele>1214.814</ele>
        <time>2013-05-25T08:13:11Z</time>
      </trkpt>
      <trkpt lat="43.84909" lon="6.46688">
        <ele>1215.802</ele>
        <time>2013-05-25T08:13:18Z</time>
      </trkpt>
      <trkpt lat="43.84925" lon="6.46688">
        <ele>1215.339</ele>
        <time>2013-05-25T08:13:27Z</time>
      </trkpt>
      <trkpt lat="43.84939" lon="6.46691">
        <ele>1216.08</ele>
        <time>2013-05-25T08:13:36Z</time>
      </trkpt>
      <trkpt lat="43.8495" lon="6.46693">
        <ele>1219.025</ele>
        <time>2013-05-25T08:13:44Z</time>
      </trkpt>
      <trkpt lat="43.84967" lon="6.46696">
        <ele>1217.918</ele>
        <time>2013-05-25T08:13:54Z</time>
      </trkpt>
      <trkpt lat="43.84976" lon="6.46698">
        <ele>1217.338</ele>
        <time>2013-05-25T08:14:00Z</time>
      </trkpt>
      <trkpt lat="43.84986" lon="6.467">
        <ele>1220.161</ele>
        <time>2013-05-25T08:14:06Z</time>
      </trkpt>
      <trkpt lat="43.84999" lon="6.46704">
        <ele>1220.763</ele>
        <time>2013-05-25T08:14:14Z</time>
      </trkpt>
      <trkpt lat="43.85008" lon="6.46705">
        <ele>1221.36</ele>
        <time>2013-05-25T08:14:20Z</time>
      </trkpt>
      <trkpt lat="43.85019" lon="6.46704">
        <ele>1221.649</ele>
        <time>2013-05-25T08:14:28Z</time>
      </trkpt>
      <trkpt lat="43.85029" lon="6.46704">
        <ele>1223.24</ele>
        <time>2013-05-25T08:14:35Z</time>
      </trkpt>
      <trkpt lat="43.85042" lon="6.467">
        <ele>1222.097</ele>
        <time>2013-05-25T08:14:43Z</time>
      </trkpt>
      <trkpt lat="43.85054" lon="6.46697">
        <ele>1222.58</ele>
        <time>2013-05-25T08:14:50Z</time>
      </trkpt>
      <trkpt lat="43.85067" lon="6.46693">
        <ele>1223.49</ele>
        <time>2013-05-25T08:14:57Z</time>
      </trkpt>
      <trkpt lat="43.8508" lon="6.46692">
        <ele>1225.361</ele>
        <time>2013-05-25T08:15:04Z</time>
      </trkpt>
      <trkpt lat="43.85093" lon="6.46691">
        <ele>1227.26</ele>
        <time>2013-05-25T08:15:12Z</time>
      </trkpt>
      <trkpt lat="43.85103" lon="6.4669">
        <ele>1228.671</ele>
        <time>2013-05-25T08:15:18Z</time>
      </trkpt>
      <trkpt lat="43.85113" lon="6.46687">
        <ele>1228.339</ele>
        <time>2013-05-25T08:15:24Z</time>
      </trkpt>
      <trkpt lat="43.85124" lon="6.46686">
        <ele>1228.99</ele>
        <time>2013-05-25T08:15:31Z</time>
      </trkpt>
      <trkpt lat="43.85141" lon="6.46682">
        <ele>1230.452</ele>
        <time>2013-05-25T08:15:41Z</time>
      </trkpt>
      <trkpt lat="43.85157" lon="6.4668">
        <ele>1232.249</ele>
        <time>2013-05-25T08:15:50Z</time>
      </trkpt>
      <trkpt lat="43.85173" lon="6.46677">
        <ele>1233.412</ele>
        <time>2013-05-25T08:15:59Z</time>
      </trkpt>
      <trkpt lat="43.85178" lon="6.46677">
        <ele>1233.892</ele>
        <time>2013-05-25T08:16:03Z</time>
      </trkpt>
      <trkpt lat="43.85193" lon="6.46676">
        <ele>1235.093</ele>
        <time>2013-05-25T08:16:12Z</time>
      </trkpt>
      <trkpt lat="43.85207" lon="6.46675">
        <ele>1236.422</ele>
        <time>2013-05-25T08:16:21Z</time>
      </trkpt>
      <trkpt lat="43.85221" lon="6.46671">
        <ele>1237.252</ele>
        <time>2013-05-25T08:16:30Z</time>
      </trkpt>
      <trkpt lat="43.85237" lon="6.46667">
        <ele>1238.152</ele>
        <time>2013-05-25T08:16:40Z</time>
      </trkpt>
      <trkpt lat="43.85249" lon="6.46664">
        <ele>1238.729</ele>
        <time>2013-05-25T08:16:47Z</time>
      </trkpt>
      <trkpt lat="43.85263" lon="6.4666">
        <ele>1239.291</ele>
        <time>2013-05-25T08:16:55Z</time>
      </trkpt>
      <trkpt lat="43.85273" lon="6.46658">
        <ele>1239.311</ele>
        <time>2013-05-25T08:17:02Z</time>
      </trkpt>
      <trkpt lat="43.85275" lon="6.46658">
        <ele>1239.59</ele>
        <time>2013-05-25T08:17:03Z</time>
      </trkpt>
      <trkpt lat="43.85281" lon="6.46659">
        <ele>1240.122</ele>
        <time>2013-05-25T08:17:08Z</time>
      </trkpt>
      <trkpt lat="43.85286" lon="6.46656">
        <ele>1241.063</ele>
        <time>2013-05-25T08:17:12Z</time>
      </trkpt>
      <trkpt lat="43.85292" lon="6.46654">
        <ele>1241.962</ele>
        <time>2013-05-25T08:17:16Z</time>
      </trkpt>
      <trkpt lat="43.85288" lon="6.4665">
        <ele>1243.362</ele>
        <time>2013-05-25T08:17:21Z</time>
      </trkpt>
      <trkpt lat="43.85273" lon="6.46651">
        <ele>1249.627</ele>
        <time>2013-05-25T08:17:30Z</time>
      </trkpt>
      <trkpt lat="43.85262" lon="6.46653">
        <ele>1255.251</ele>
        <time>2013-05-25T08:17:37Z</time>
      </trkpt>
      <trkpt lat="43.8525" lon="6.46654">
        <ele>1258.331</ele>
        <time>2013-05-25T08:17:45Z</time>
      </trkpt>
      <trkpt lat="43.85245" lon="6.46653">
        <ele>1261.662</ele>
        <time>2013-05-25T08:17:50Z</time>
      </trkpt>
      <trkpt lat="43.85236" lon="6.4665">
        <ele>1263.417</ele>
        <time>2013-05-25T08:17:57Z</time>
      </trkpt>
      <trkpt lat="43.85224" lon="6.46648">
        <ele>1266.387</ele>
        <time>2013-05-25T08:18:06Z</time>
      </trkpt>
      <trkpt lat="43.85215" lon="6.46645">
        <ele>1269.009</ele>
        <time>2013-05-25T08:18:12Z</time>
      </trkpt>
      <trkpt lat="43.85204" lon="6.46643">
        <ele>1272.269</ele>
        <time>2013-05-25T08:18:19Z</time>
      </trkpt>
      <trkpt lat="43.85191" lon="6.46638">
        <ele>1273.906</ele>
        <time>2013-05-25T08:18:28Z</time>
      </trkpt>
      <trkpt lat="43.85181" lon="6.4663">
        <ele>1274.116</ele>
        <time>2013-05-25T08:18:35Z</time>
      </trkpt>
      <trkpt lat="43.85171" lon="6.4662">
        <ele>1276.658</ele>
        <time>2013-05-25T08:18:44Z</time>
      </trkpt>
      <trkpt lat="43.85162" lon="6.46614">
        <ele>1278.807</ele>
        <time>2013-05-25T08:18:52Z</time>
      </trkpt>
      <trkpt lat="43.8516" lon="6.46612">
        <ele>1278.748</ele>
        <time>2013-05-25T08:18:54Z</time>
      </trkpt>
      <trkpt lat="43.85151" lon="6.46607">
        <ele>1280.665</ele>
        <time>2013-05-25T08:19:02Z</time>
      </trkpt>
      <trkpt lat="43.85142" lon="6.46602">
        <ele>1282.967</ele>
        <time>2013-05-25T08:19:10Z</time>
      </trkpt>
      <trkpt lat="43.85139" lon="6.46601">
        <ele>1284.028</ele>
        <time>2013-05-25T08:19:13Z</time>
      </trkpt>
      <trkpt lat="43.85134" lon="6.46597">
        <ele>1286.108</ele>
        <time>2013-05-25T08:19:19Z</time>
      </trkpt>
      <trkpt lat="43.85126" lon="6.46594">
        <ele>1288.069</ele>
        <time>2013-05-25T08:19:28Z</time>
      </trkpt>
      <trkpt lat="43.85116" lon="6.46592">
        <ele>1289.068</ele>
        <time>2013-05-25T08:19:36Z</time>
      </trkpt>
      <trkpt lat="43.85113" lon="6.46589">
        <ele>1289.609</ele>
        <time>2013-05-25T08:19:40Z</time>
      </trkpt>
      <trkpt lat="43.85101" lon="6.46582">
        <ele>1293.419</ele>
        <time>2013-05-25T08:19:50Z</time>
      </trkpt>
      <trkpt lat="43.85091" lon="6.46575">
        <ele>1295.188</ele>
        <time>2013-05-25T08:19:57Z</time>
      </trkpt>
      <trkpt lat="43.85084" lon="6.4657">
        <ele>1297.32</ele>
        <time>2013-05-25T08:20:04Z</time>
      </trkpt>
      <trkpt lat="43.85075" lon="6.46566">
        <ele>1298.479</ele>
        <time>2013-05-25T08:20:10Z</time>
      </trkpt>
      <trkpt lat="43.85066" lon="6.46561">
        <ele>1298.595</ele>
        <time>2013-05-25T08:20:16Z</time>
      </trkpt>
      <trkpt lat="43.85055" lon="6.46555">
        <ele>1297.982</ele>
        <time>2013-05-25T08:20:24Z</time>
      </trkpt>
      <trkpt lat="43.85045" lon="6.46549">
        <ele>1300.896</ele>
        <time>2013-05-25T08:20:32Z</time>
      </trkpt>
      <trkpt lat="43.85037" lon="6.46548">
        <ele>1302.176</ele>
        <time>2013-05-25T08:20:38Z</time>
      </trkpt>
      <trkpt lat="43.85034" lon="6.46537">
        <ele>1301.833</ele>
        <time>2013-05-25T08:20:44Z</time>
      </trkpt>
      <trkpt lat="43.85038" lon="6.46532">
        <ele>1302.035</ele>
        <time>2013-05-25T08:20:48Z</time>
      </trkpt>
      <trkpt lat="43.85055" lon="6.4653">
        <ele>1299.172</ele>
        <time>2013-05-25T08:20:58Z</time>
      </trkpt>
      <trkpt lat="43.85067" lon="6.46529">
        <ele>1299.162</ele>
        <time>2013-05-25T08:21:05Z</time>
      </trkpt>
      <trkpt lat="43.8508" lon="6.46526">
        <ele>1298.52</ele>
        <time>2013-05-25T08:21:13Z</time>
      </trkpt>
      <trkpt lat="43.85092" lon="6.46524">
        <ele>1299.201</ele>
        <time>2013-05-25T08:21:21Z</time>
      </trkpt>
      <trkpt lat="43.85103" lon="6.46526">
        <ele>1300.141</ele>
        <time>2013-05-25T08:21:29Z</time>
      </trkpt>
      <trkpt lat="43.85111" lon="6.46527">
        <ele>1301.221</ele>
        <time>2013-05-25T08:21:35Z</time>
      </trkpt>
      <trkpt lat="43.85114" lon="6.46528">
        <ele>1302.052</ele>
        <time>2013-05-25T08:21:37Z</time>
      </trkpt>
      <trkpt lat="43.85126" lon="6.46524">
        <ele>1301.47</ele>
        <time>2013-05-25T08:21:46Z</time>
      </trkpt>
      <trkpt lat="43.85136" lon="6.46524">
        <ele>1302.052</ele>
        <time>2013-05-25T08:21:53Z</time>
      </trkpt>
      <trkpt lat="43.85148" lon="6.46524">
        <ele>1302.471</ele>
        <time>2013-05-25T08:22:01Z</time>
      </trkpt>
      <trkpt lat="43.85159" lon="6.46523">
        <ele>1303.411</ele>
        <time>2013-05-25T08:22:09Z</time>
      </trkpt>
      <trkpt lat="43.85171" lon="6.46521">
        <ele>1303.469</ele>
        <time>2013-05-25T08:22:17Z</time>
      </trkpt>
      <trkpt lat="43.85184" lon="6.4652">
        <ele>1305.301</ele>
        <time>2013-05-25T08:22:28Z</time>
      </trkpt>
      <trkpt lat="43.85195" lon="6.46516">
        <ele>1305.23</ele>
        <time>2013-05-25T08:22:36Z</time>
      </trkpt>
      <trkpt lat="43.85208" lon="6.46512">
        <ele>1307.113</ele>
        <time>2013-05-25T08:22:46Z</time>
      </trkpt>
      <trkpt lat="43.8522" lon="6.46507">
        <ele>1308.692</ele>
        <time>2013-05-25T08:22:55Z</time>
      </trkpt>
      <trkpt lat="43.85234" lon="6.46503">
        <ele>1309.534</ele>
        <time>2013-05-25T08:23:05Z</time>
      </trkpt>
      <trkpt lat="43.85244" lon="6.46498">
        <ele>1310.47</ele>
        <time>2013-05-25T08:23:13Z</time>
      </trkpt>
      <trkpt lat="43.85254" lon="6.46494">
        <ele>1311.303</ele>
        <time>2013-05-25T08:23:20Z</time>
      </trkpt>
      <trkpt lat="43.85265" lon="6.4649">
        <ele>1313.293</ele>
        <time>2013-05-25T08:23:29Z</time>
      </trkpt>
      <trkpt lat="43.85276" lon="6.46485">
        <ele>1312.52</ele>
        <time>2013-05-25T08:23:36Z</time>
      </trkpt>
      <trkpt lat="43.85279" lon="6.46475">
        <ele>1312.661</ele>
        <time>2013-05-25T08:23:42Z</time>
      </trkpt>
      <trkpt lat="43.85269" lon="6.46471">
        <ele>1316.776</ele>
        <time>2013-05-25T08:23:49Z</time>
      </trkpt>
      <trkpt lat="43.85268" lon="6.46471">
        <ele>1317.347</ele>
        <time>2013-05-25T08:23:50Z</time>
      </trkpt>
      <trkpt lat="43.85257" lon="6.46477">
        <ele>1321.341</ele>
        <time>2013-05-25T08:23:58Z</time>
      </trkpt>
      <trkpt lat="43.85246" lon="6.4648">
        <ele>1326.662</ele>
        <time>2013-05-25T08:24:06Z</time>
      </trkpt>
      <trkpt lat="43.85243" lon="6.46482">
        <ele>1329.766</ele>
        <time>2013-05-25T08:24:09Z</time>
      </trkpt>
      <trkpt lat="43.85237" lon="6.46483">
        <ele>1333.286</ele>
        <time>2013-05-25T08:24:14Z</time>
      </trkpt>
      <trkpt lat="43.85226" lon="6.46482">
        <ele>1336.251</ele>
        <time>2013-05-25T08:24:23Z</time>
      </trkpt>
      <trkpt lat="43.85218" lon="6.46481">
        <ele>1337.399</ele>
        <time>2013-05-25T08:24:29Z</time>
      </trkpt>
      <trkpt lat="43.85208" lon="6.46481">
        <ele>1338.829</ele>
        <time>2013-05-25T08:24:37Z</time>
      </trkpt>
      <trkpt lat="43.85198" lon="6.46479">
        <ele>1339.334</ele>
        <time>2013-05-25T08:24:44Z</time>
      </trkpt>
      <trkpt lat="43.85189" lon="6.46474">
        <ele>1339.506</ele>
        <time>2013-05-25T08:24:51Z</time>
      </trkpt>
      <trkpt lat="43.85178" lon="6.46466">
        <ele>1340.374</ele>
        <time>2013-05-25T08:24:59Z</time>
      </trkpt>
      <trkpt lat="43.85168" lon="6.46459">
        <ele>1341.614</ele>
        <time>2013-05-25T08:25:07Z</time>
      </trkpt>
      <trkpt lat="43.85159" lon="6.46455">
        <ele>1343.217</ele>
        <time>2013-05-25T08:25:14Z</time>
      </trkpt>
      <trkpt lat="43.85147" lon="6.46448">
        <ele>1344.147</ele>
        <time>2013-05-25T08:25:23Z</time>
      </trkpt>
      <trkpt lat="43.85136" lon="6.46443">
        <ele>1346.267</ele>
        <time>2013-05-25T08:25:31Z</time>
      </trkpt>
      <trkpt lat="43.85126" lon="6.4644">
        <ele>1347.897</ele>
        <time>2013-05-25T08:25:38Z</time>
      </trkpt>
      <trkpt lat="43.85117" lon="6.46435">
        <ele>1347.994</ele>
        <time>2013-05-25T08:25:45Z</time>
      </trkpt>
      <trkpt lat="43.85106" lon="6.4643">
        <ele>1348.334</ele>
        <time>2013-05-25T08:25:52Z</time>
      </trkpt>
      <trkpt lat="43.85102" lon="6.46427">
        <ele>1348.044</ele>
        <time>2013-05-25T08:25:55Z</time>
      </trkpt>
      <trkpt lat="43.85096" lon="6.46424">
        <ele>1346.281</ele>
        <time>2013-05-25T08:25:59Z</time>
      </trkpt>
      <trkpt lat="43.85086" lon="6.4642">
        <ele>1347.765</ele>
        <time>2013-05-25T08:26:06Z</time>
      </trkpt>
      <trkpt lat="43.85076" lon="6.46418">
        <ele>1350.568</ele>
        <time>2013-05-25T08:26:13Z</time>
      </trkpt>
      <trkpt lat="43.85062" lon="6.46416">
        <ele>1355.652</ele>
        <time>2013-05-25T08:26:22Z</time>
      </trkpt>
      <trkpt lat="43.8505" lon="6.46415">
        <ele>1359.339</ele>
        <time>2013-05-25T08:26:30Z</time>
      </trkpt>
      <trkpt lat="43.85039" lon="6.46412">
        <ele>1361.508</ele>
        <time>2013-05-25T08:26:38Z</time>
      </trkpt>
      <trkpt lat="43.85028" lon="6.46409">
        <ele>1363.355</ele>
        <time>2013-05-25T08:26:46Z</time>
      </trkpt>
      <trkpt lat="43.85016" lon="6.46402">
        <ele>1362.896</ele>
        <time>2013-05-25T08:26:54Z</time>
      </trkpt>
      <trkpt lat="43.85011" lon="6.46398">
        <ele>1362.984</ele>
        <time>2013-05-25T08:26:58Z</time>
      </trkpt>
      <trkpt lat="43.85003" lon="6.46391">
        <ele>1365.226</ele>
        <time>2013-05-25T08:27:05Z</time>
      </trkpt>
      <trkpt lat="43.85002" lon="6.4639">
        <ele>1365.506</ele>
        <time>2013-05-25T08:27:06Z</time>
      </trkpt>
      <trkpt lat="43.84991" lon="6.46382">
        <ele>1363.844</ele>
        <time>2013-05-25T08:27:14Z</time>
      </trkpt>
      <trkpt lat="43.84981" lon="6.46378">
        <ele>1368.361</ele>
        <time>2013-05-25T08:27:22Z</time>
      </trkpt>
      <trkpt lat="43.84971" lon="6.46371">
        <ele>1371.384</ele>
        <time>2013-05-25T08:27:30Z</time>
      </trkpt>
      <trkpt lat="43.84964" lon="6.4637">
        <ele>1376.216</ele>
        <time>2013-05-25T08:27:36Z</time>
      </trkpt>
      <trkpt lat="43.84958" lon="6.46363">
        <ele>1374.689</ele>
        <time>2013-05-25T08:27:41Z</time>
      </trkpt>
      <trkpt lat="43.84951" lon="6.46353">
        <ele>1372.845</ele>
        <time>2013-05-25T08:27:48Z</time>
      </trkpt>
      <trkpt lat="43.84944" lon="6.4635">
        <ele>1376.797</ele>
        <time>2013-05-25T08:27:54Z</time>
      </trkpt>
      <trkpt lat="43.84934" lon="6.46344">
        <ele>1381.901</ele>
        <time>2013-05-25T08:28:02Z</time>
      </trkpt>
      <trkpt lat="43.84926" lon="6.46337">
        <ele>1385.536</ele>
        <time>2013-05-25T08:28:09Z</time>
      </trkpt>
      <trkpt lat="43.8492" lon="6.46331">
        <ele>1388.017</ele>
        <time>2013-05-25T08:28:15Z</time>
      </trkpt>
      <trkpt lat="43.84905" lon="6.46328">
        <ele>1391.325</ele>
        <time>2013-05-25T08:28:24Z</time>
      </trkpt>
      <trkpt lat="43.84894" lon="6.46322">
        <ele>1392.472</ele>
        <time>2013-05-25T08:28:31Z</time>
      </trkpt>
      <trkpt lat="43.84889" lon="6.46315">
        <ele>1391.57</ele>
        <time>2013-05-25T08:28:37Z</time>
      </trkpt>
      <trkpt lat="43.84885" lon="6.46303">
        <ele>1388.255</ele>
        <time>2013-05-25T08:28:42Z</time>
      </trkpt>
      <trkpt lat="43.84877" lon="6.46292">
        <ele>1387.619</ele>
        <time>2013-05-25T08:28:50Z</time>
      </trkpt>
      <trkpt lat="43.84867" lon="6.46288">
        <ele>1391.215</ele>
        <time>2013-05-25T08:28:57Z</time>
      </trkpt>
      <trkpt lat="43.84857" lon="6.46282">
        <ele>1391.41</ele>
        <time>2013-05-25T08:29:04Z</time>
      </trkpt>
      <trkpt lat="43.84855" lon="6.46282">
        <ele>1392.502</ele>
        <time>2013-05-25T08:29:05Z</time>
      </trkpt>
      <trkpt lat="43.84846" lon="6.4628">
        <ele>1396.625</ele>
        <time>2013-05-25T08:29:12Z</time>
      </trkpt>
      <trkpt lat="43.84836" lon="6.46276">
        <ele>1397.74</ele>
        <time>2013-05-25T08:29:20Z</time>
      </trkpt>
      <trkpt lat="43.84835" lon="6.46276">
        <ele>1397.709</ele>
        <time>2013-05-25T08:29:21Z</time>
      </trkpt>
      <trkpt lat="43.84829" lon="6.46273">
        <ele>1397.728</ele>
        <time>2013-05-25T08:29:25Z</time>
      </trkpt>
      <trkpt lat="43.84818" lon="6.46271">
        <ele>1394.815</ele>
        <time>2013-05-25T08:29:33Z</time>
      </trkpt>
      <trkpt lat="43.8481" lon="6.46272">
        <ele>1394.746</ele>
        <time>2013-05-25T08:29:39Z</time>
      </trkpt>
      <trkpt lat="43.84801" lon="6.46279">
        <ele>1395.506</ele>
        <time>2013-05-25T08:29:47Z</time>
      </trkpt>
      <trkpt lat="43.84789" lon="6.4629">
        <ele>1390.953</ele>
        <time>2013-05-25T08:29:55Z</time>
      </trkpt>
      <trkpt lat="43.84781" lon="6.46298">
        <ele>1392.126</ele>
        <time>2013-05-25T08:30:02Z</time>
      </trkpt>
      <trkpt lat="43.84772" lon="6.46312">
        <ele>1394.567</ele>
        <time>2013-05-25T08:30:11Z</time>
      </trkpt>
      <trkpt lat="43.84764" lon="6.46324">
        <ele>1394.848</ele>
        <time>2013-05-25T08:30:19Z</time>
      </trkpt>
      <trkpt lat="43.84754" lon="6.46338">
        <ele>1400.213</ele>
        <time>2013-05-25T08:30:26Z</time>
      </trkpt>
      <trkpt lat="43.84743" lon="6.46352">
        <ele>1404.101</ele>
        <time>2013-05-25T08:30:35Z</time>
      </trkpt>
      <trkpt lat="43.84733" lon="6.46365">
        <ele>1404.245</ele>
        <time>2013-05-25T08:30:44Z</time>
      </trkpt>
      <trkpt lat="43.84724" lon="6.46375">
        <ele>1404.054</ele>
        <time>2013-05-25T08:30:51Z</time>
      </trkpt>
      <trkpt lat="43.84714" lon="6.46389">
        <ele>1400.422</ele>
        <time>2013-05-25T08:31:00Z</time>
      </trkpt>
      <trkpt lat="43.84705" lon="6.46404">
        <ele>1404.688</ele>
        <time>2013-05-25T08:31:08Z</time>
      </trkpt>
      <trkpt lat="43.84698" lon="6.46416">
        <ele>1403.845</ele>
        <time>2013-05-25T08:31:16Z</time>
      </trkpt>
      <trkpt lat="43.84693" lon="6.46425">
        <ele>1400.591</ele>
        <time>2013-05-25T08:31:22Z</time>
      </trkpt>
      <trkpt lat="43.84689" lon="6.46426">
        <ele>1399.841</ele>
        <time>2013-05-25T08:31:25Z</time>
      </trkpt>
      <trkpt lat="43.84681" lon="6.46422">
        <ele>1399.453</ele>
        <time>2013-05-25T08:31:31Z</time>
      </trkpt>
      <trkpt lat="43.84678" lon="6.4641">
        <ele>1399.033</ele>
        <time>2013-05-25T08:31:38Z</time>
      </trkpt>
      <trkpt lat="43.84675" lon="6.46396">
        <ele>1401.196</ele>
        <time>2013-05-25T08:31:46Z</time>
      </trkpt>
      <trkpt lat="43.84672" lon="6.46384">
        <ele>1399.712</ele>
        <time>2013-05-25T08:31:53Z</time>
      </trkpt>
      <trkpt lat="43.84671" lon="6.46383">
        <ele>1400.079</ele>
        <time>2013-05-25T08:31:58Z</time>
      </trkpt>
      <trkpt lat="43.84671" lon="6.46384">
        <ele>1396.623</ele>
        <time>2013-05-25T08:32:03Z</time>
      </trkpt>
      <trkpt lat="43.84668" lon="6.46392">
        <ele>1393.173</ele>
        <time>2013-05-25T08:32:10Z</time>
      </trkpt>
      <trkpt lat="43.84662" lon="6.46406">
        <ele>1391.322</ele>
        <time>2013-05-25T08:32:15Z</time>
      </trkpt>
      <trkpt lat="43.84662" lon="6.46411">
        <ele>1390.235</ele>
        <time>2013-05-25T08:32:20Z</time>
      </trkpt>
      <trkpt lat="43.84662" lon="6.46412">
        <ele>1391.327</ele>
        <time>2013-05-25T08:32:30Z</time>
      </trkpt>
      <trkpt lat="43.84658" lon="6.46413">
        <ele>1409.358</ele>
        <time>2013-05-25T08:38:33Z</time>
      </trkpt>
      <trkpt lat="43.84658" lon="6.46409">
        <ele>1403.586</ele>
        <time>2013-05-25T08:38:41Z</time>
      </trkpt>
      <trkpt lat="43.84658" lon="6.46409">
        <ele>1402.947</ele>
        <time>2013-05-25T08:38:43Z</time>
      </trkpt>
      <trkpt lat="43.8465" lon="6.46403">
        <ele>1400.588</ele>
        <time>2013-05-25T08:38:48Z</time>
      </trkpt>
      <trkpt lat="43.84646" lon="6.46394">
        <ele>1397.049</ele>
        <time>2013-05-25T08:38:51Z</time>
      </trkpt>
      <trkpt lat="43.84646" lon="6.46367">
        <ele>1390.265</ele>
        <time>2013-05-25T08:38:57Z</time>
      </trkpt>
      <trkpt lat="43.84642" lon="6.46353">
        <ele>1386.021</ele>
        <time>2013-05-25T08:39:00Z</time>
      </trkpt>
      <trkpt lat="43.84638" lon="6.46332">
        <ele>1381.827</ele>
        <time>2013-05-25T08:39:04Z</time>
      </trkpt>
      <trkpt lat="43.84631" lon="6.4631">
        <ele>1377.066</ele>
        <time>2013-05-25T08:39:08Z</time>
      </trkpt>
      <trkpt lat="43.84626" lon="6.46284">
        <ele>1368.821</ele>
        <time>2013-05-25T08:39:14Z</time>
      </trkpt>
      <trkpt lat="43.84622" lon="6.46258">
        <ele>1360.815</ele>
        <time>2013-05-25T08:39:20Z</time>
      </trkpt>
      <trkpt lat="43.84618" lon="6.4624">
        <ele>1356.829</ele>
        <time>2013-05-25T08:39:24Z</time>
      </trkpt>
      <trkpt lat="43.84609" lon="6.46197">
        <ele>1348.501</ele>
        <time>2013-05-25T08:39:31Z</time>
      </trkpt>
      <trkpt lat="43.846" lon="6.46167">
        <ele>1342.693</ele>
        <time>2013-05-25T08:39:36Z</time>
      </trkpt>
      <trkpt lat="43.84595" lon="6.46144">
        <ele>1338.076</ele>
        <time>2013-05-25T08:39:41Z</time>
      </trkpt>
      <trkpt lat="43.84593" lon="6.46134">
        <ele>1336.256</ele>
        <time>2013-05-25T08:39:43Z</time>
      </trkpt>
      <trkpt lat="43.84581" lon="6.46103">
        <ele>1331.287</ele>
        <time>2013-05-25T08:39:49Z</time>
      </trkpt>
      <trkpt lat="43.84568" lon="6.46086">
        <ele>1330.072</ele>
        <time>2013-05-25T08:39:54Z</time>
      </trkpt>
      <trkpt lat="43.84561" lon="6.46075">
        <ele>1329.608</ele>
        <time>2013-05-25T08:39:57Z</time>
      </trkpt>
      <trkpt lat="43.84554" lon="6.46079">
        <ele>1327.951</ele>
        <time>2013-05-25T08:40:01Z</time>
      </trkpt>
      <trkpt lat="43.84552" lon="6.46093">
        <ele>1324.421</ele>
        <time>2013-05-25T08:40:06Z</time>
      </trkpt>
      <trkpt lat="43.84551" lon="6.46107">
        <ele>1321.278</ele>
        <time>2013-05-25T08:40:10Z</time>
      </trkpt>
      <trkpt lat="43.84547" lon="6.46112">
        <ele>1318.089</ele>
        <time>2013-05-25T08:40:14Z</time>
      </trkpt>
      <trkpt lat="43.84537" lon="6.46113">
        <ele>1314.415</ele>
        <time>2013-05-25T08:40:18Z</time>
      </trkpt>
      <trkpt lat="43.84528" lon="6.46117">
        <ele>1310.988</ele>
        <time>2013-05-25T08:40:22Z</time>
      </trkpt>
      <trkpt lat="43.84524" lon="6.4612">
        <ele>1309.178</ele>
        <time>2013-05-25T08:40:24Z</time>
      </trkpt>
      <trkpt lat="43.84516" lon="6.46122">
        <ele>1307.008</ele>
        <time>2013-05-25T08:40:27Z</time>
      </trkpt>
      <trkpt lat="43.84505" lon="6.46124">
        <ele>1303.712</ele>
        <time>2013-05-25T08:40:33Z</time>
      </trkpt>
      <trkpt lat="43.84503" lon="6.46125">
        <ele>1303.141</ele>
        <time>2013-05-25T08:40:34Z</time>
      </trkpt>
      <trkpt lat="43.84483" lon="6.46128">
        <ele>1298.661</ele>
        <time>2013-05-25T08:40:41Z</time>
      </trkpt>
      <trkpt lat="43.84481" lon="6.46129">
        <ele>1298.112</ele>
        <time>2013-05-25T08:40:42Z</time>
      </trkpt>
      <trkpt lat="43.84474" lon="6.46133">
        <ele>1295.907</ele>
        <time>2013-05-25T08:40:47Z</time>
      </trkpt>
      <trkpt lat="43.84473" lon="6.46133">
        <ele>1296.244</ele>
        <time>2013-05-25T08:40:55Z</time>
      </trkpt>
      <trkpt lat="43.84473" lon="6.46133">
        <ele>1296.196</ele>
        <time>2013-05-25T08:40:59Z</time>
      </trkpt>
      <trkpt lat="43.84472" lon="6.46135">
        <ele>1295.474</ele>
        <time>2013-05-25T08:41:04Z</time>
      </trkpt>
      <trkpt lat="43.84467" lon="6.46144">
        <ele>1293.547</ele>
        <time>2013-05-25T08:41:09Z</time>
      </trkpt>
      <trkpt lat="43.84465" lon="6.46157">
        <ele>1292.316</ele>
        <time>2013-05-25T08:41:12Z</time>
      </trkpt>
      <trkpt lat="43.84458" lon="6.46187">
        <ele>1287.572</ele>
        <time>2013-05-25T08:41:18Z</time>
      </trkpt>
      <trkpt lat="43.84458" lon="6.46214">
        <ele>1282.815</ele>
        <time>2013-05-25T08:41:23Z</time>
      </trkpt>
      <trkpt lat="43.84449" lon="6.46226">
        <ele>1278.711</ele>
        <time>2013-05-25T08:41:27Z</time>
      </trkpt>
      <trkpt lat="43.84447" lon="6.46234">
        <ele>1276.945</ele>
        <time>2013-05-25T08:41:29Z</time>
      </trkpt>
      <trkpt lat="43.84445" lon="6.46257">
        <ele>1272.567</ele>
        <time>2013-05-25T08:41:34Z</time>
      </trkpt>
      <trkpt lat="43.84439" lon="6.46275">
        <ele>1269.96</ele>
        <time>2013-05-25T08:41:38Z</time>
      </trkpt>
      <trkpt lat="43.84434" lon="6.4629">
        <ele>1267.51</ele>
        <time>2013-05-25T08:41:42Z</time>
      </trkpt>
      <trkpt lat="43.84433" lon="6.46291">
        <ele>1266.628</ele>
        <time>2013-05-25T08:41:43Z</time>
      </trkpt>
      <trkpt lat="43.84429" lon="6.46289">
        <ele>1264.099</ele>
        <time>2013-05-25T08:41:47Z</time>
      </trkpt>
      <trkpt lat="43.84423" lon="6.46267">
        <ele>1258.954</ele>
        <time>2013-05-25T08:41:53Z</time>
      </trkpt>
      <trkpt lat="43.84418" lon="6.46246">
        <ele>1255.161</ele>
        <time>2013-05-25T08:41:57Z</time>
      </trkpt>
      <trkpt lat="43.84413" lon="6.46231">
        <ele>1252.554</ele>
        <time>2013-05-25T08:42:01Z</time>
      </trkpt>
      <trkpt lat="43.84409" lon="6.46214">
        <ele>1250.815</ele>
        <time>2013-05-25T08:42:07Z</time>
      </trkpt>
      <trkpt lat="43.84408" lon="6.46212">
        <ele>1251.028</ele>
        <time>2013-05-25T08:42:08Z</time>
      </trkpt>
      <trkpt lat="43.84393" lon="6.46198">
        <ele>1249.332</ele>
        <time>2013-05-25T08:42:14Z</time>
      </trkpt>
      <trkpt lat="43.84382" lon="6.46189">
        <ele>1247.742</ele>
        <time>2013-05-25T08:42:19Z</time>
      </trkpt>
      <trkpt lat="43.84369" lon="6.46179">
        <ele>1245.28</ele>
        <time>2013-05-25T08:42:24Z</time>
      </trkpt>
      <trkpt lat="43.84357" lon="6.46174">
        <ele>1242.526</ele>
        <time>2013-05-25T08:42:28Z</time>
      </trkpt>
      <trkpt lat="43.84338" lon="6.46165">
        <ele>1238.13</ele>
        <time>2013-05-25T08:42:33Z</time>
      </trkpt>
      <trkpt lat="43.84322" lon="6.46159">
        <ele>1233.805</ele>
        <time>2013-05-25T08:42:38Z</time>
      </trkpt>
      <trkpt lat="43.84311" lon="6.46152">
        <ele>1230.406</ele>
        <time>2013-05-25T08:42:42Z</time>
      </trkpt>
      <trkpt lat="43.84299" lon="6.46148">
        <ele>1226.785</ele>
        <time>2013-05-25T08:42:46Z</time>
      </trkpt>
      <trkpt lat="43.84295" lon="6.46158">
        <ele>1222.843</ele>
        <time>2013-05-25T08:42:50Z</time>
      </trkpt>
      <trkpt lat="43.84294" lon="6.46165">
        <ele>1220.692</ele>
        <time>2013-05-25T08:42:52Z</time>
      </trkpt>
      <trkpt lat="43.84293" lon="6.46179">
        <ele>1216.01</ele>
        <time>2013-05-25T08:42:57Z</time>
      </trkpt>
      <trkpt lat="43.8429" lon="6.46184">
        <ele>1213.962</ele>
        <time>2013-05-25T08:42:59Z</time>
      </trkpt>
      <trkpt lat="43.84278" lon="6.46185">
        <ele>1208.74</ele>
        <time>2013-05-25T08:43:04Z</time>
      </trkpt>
      <trkpt lat="43.84268" lon="6.46201">
        <ele>1203.772</ele>
        <time>2013-05-25T08:43:09Z</time>
      </trkpt>
      <trkpt lat="43.84267" lon="6.4622">
        <ele>1199.385</ele>
        <time>2013-05-25T08:43:13Z</time>
      </trkpt>
      <trkpt lat="43.84267" lon="6.46234">
        <ele>1194.453</ele>
        <time>2013-05-25T08:43:18Z</time>
      </trkpt>
      <trkpt lat="43.84267" lon="6.46235">
        <ele>1193.015</ele>
        <time>2013-05-25T08:43:22Z</time>
      </trkpt>
      <trkpt lat="43.84264" lon="6.46236">
        <ele>1192.389</ele>
        <time>2013-05-25T08:43:30Z</time>
      </trkpt>
      <trkpt lat="43.84262" lon="6.46241">
        <ele>1190.135</ele>
        <time>2013-05-25T08:43:36Z</time>
      </trkpt>
      <trkpt lat="43.84262" lon="6.46242">
        <ele>1190.181</ele>
        <time>2013-05-25T08:43:40Z</time>
      </trkpt>
      <trkpt lat="43.84259" lon="6.46245">
        <ele>1187.478</ele>
        <time>2013-05-25T08:43:47Z</time>
      </trkpt>
      <trkpt lat="43.84255" lon="6.46249">
        <ele>1185.286</ele>
        <time>2013-05-25T08:43:54Z</time>
      </trkpt>
      <trkpt lat="43.84248" lon="6.46251">
        <ele>1183.125</ele>
        <time>2013-05-25T08:43:57Z</time>
      </trkpt>
      <trkpt lat="43.84242" lon="6.46257">
        <ele>1180.542</ele>
        <time>2013-05-25T08:44:00Z</time>
      </trkpt>
      <trkpt lat="43.84226" lon="6.4626">
        <ele>1175.707</ele>
        <time>2013-05-25T08:44:05Z</time>
      </trkpt>
      <trkpt lat="43.84222" lon="6.46261">
        <ele>1174.46</ele>
        <time>2013-05-25T08:44:06Z</time>
      </trkpt>
      <trkpt lat="43.84214" lon="6.46264">
        <ele>1172.459</ele>
        <time>2013-05-25T08:44:08Z</time>
      </trkpt>
      <trkpt lat="43.84198" lon="6.46259">
        <ele>1169.421</ele>
        <time>2013-05-25T08:44:12Z</time>
      </trkpt>
      <trkpt lat="43.8418" lon="6.46253">
        <ele>1166.89</ele>
        <time>2013-05-25T08:44:16Z</time>
      </trkpt>
      <trkpt lat="43.84171" lon="6.46249">
        <ele>1164.927</ele>
        <time>2013-05-25T08:44:18Z</time>
      </trkpt>
      <trkpt lat="43.84149" lon="6.46246">
        <ele>1159.408</ele>
        <time>2013-05-25T08:44:23Z</time>
      </trkpt>
      <trkpt lat="43.84145" lon="6.46243">
        <ele>1158.388</ele>
        <time>2013-05-25T08:44:24Z</time>
      </trkpt>
      <trkpt lat="43.84134" lon="6.46238">
        <ele>1156.266</ele>
        <time>2013-05-25T08:44:26Z</time>
      </trkpt>
      <trkpt lat="43.84115" lon="6.46221">
        <ele>1152.658</ele>
        <time>2013-05-25T08:44:31Z</time>
      </trkpt>
      <trkpt lat="43.84108" lon="6.46218">
        <ele>1151.735</ele>
        <time>2013-05-25T08:44:33Z</time>
      </trkpt>
      <trkpt lat="43.84099" lon="6.46214">
        <ele>1151.561</ele>
        <time>2013-05-25T08:44:35Z</time>
      </trkpt>
      <trkpt lat="43.84078" lon="6.46208">
        <ele>1147.133</ele>
        <time>2013-05-25T08:44:40Z</time>
      </trkpt>
      <trkpt lat="43.84075" lon="6.46208">
        <ele>1146.183</ele>
        <time>2013-05-25T08:44:41Z</time>
      </trkpt>
      <trkpt lat="43.84067" lon="6.46204">
        <ele>1144.443</ele>
        <time>2013-05-25T08:44:43Z</time>
      </trkpt>
      <trkpt lat="43.84052" lon="6.46189">
        <ele>1139.374</ele>
        <time>2013-05-25T08:44:48Z</time>
      </trkpt>
      <trkpt lat="43.8404" lon="6.46181">
        <ele>1136</ele>
        <time>2013-05-25T08:44:51Z</time>
      </trkpt>
      <trkpt lat="43.84032" lon="6.46176">
        <ele>1134.461</ele>
        <time>2013-05-25T08:44:53Z</time>
      </trkpt>
      <trkpt lat="43.84024" lon="6.46169">
        <ele>1131.946</ele>
        <time>2013-05-25T08:44:55Z</time>
      </trkpt>
      <trkpt lat="43.84007" lon="6.46163">
        <ele>1127.746</ele>
        <time>2013-05-25T08:44:59Z</time>
      </trkpt>
      <trkpt lat="43.83984" lon="6.46146">
        <ele>1121.987</ele>
        <time>2013-05-25T08:45:05Z</time>
      </trkpt>
      <trkpt lat="43.83975" lon="6.46142">
        <ele>1118.692</ele>
        <time>2013-05-25T08:45:08Z</time>
      </trkpt>
      <trkpt lat="43.83969" lon="6.46138">
        <ele>1117.196</ele>
        <time>2013-05-25T08:45:10Z</time>
      </trkpt>
      <trkpt lat="43.83955" lon="6.46123">
        <ele>1112.513</ele>
        <time>2013-05-25T08:45:14Z</time>
      </trkpt>
      <trkpt lat="43.83935" lon="6.46111">
        <ele>1109.963</ele>
        <time>2013-05-25T08:45:18Z</time>
      </trkpt>
      <trkpt lat="43.83915" lon="6.46113">
        <ele>1108.432</ele>
        <time>2013-05-25T08:45:23Z</time>
      </trkpt>
      <trkpt lat="43.83908" lon="6.46127">
        <ele>1106.44</ele>
        <time>2013-05-25T08:45:26Z</time>
      </trkpt>
      <trkpt lat="43.839" lon="6.46144">
        <ele>1104.084</ele>
        <time>2013-05-25T08:45:29Z</time>
      </trkpt>
      <trkpt lat="43.83892" lon="6.46156">
        <ele>1104.099</ele>
        <time>2013-05-25T08:45:31Z</time>
      </trkpt>
      <trkpt lat="43.83875" lon="6.46182">
        <ele>1100.284</ele>
        <time>2013-05-25T08:45:36Z</time>
      </trkpt>
      <trkpt lat="43.83866" lon="6.46197">
        <ele>1097.395</ele>
        <time>2013-05-25T08:45:39Z</time>
      </trkpt>
      <trkpt lat="43.8386" lon="6.46203">
        <ele>1094.711</ele>
        <time>2013-05-25T08:45:42Z</time>
      </trkpt>
      <trkpt lat="43.83838" lon="6.46221">
        <ele>1088.089</ele>
        <time>2013-05-25T08:45:48Z</time>
      </trkpt>
      <trkpt lat="43.83835" lon="6.46236">
        <ele>1083.817</ele>
        <time>2013-05-25T08:45:52Z</time>
      </trkpt>
      <trkpt lat="43.83839" lon="6.46249">
        <ele>1080.947</ele>
        <time>2013-05-25T08:45:55Z</time>
      </trkpt>
      <trkpt lat="43.83848" lon="6.46271">
        <ele>1076.514</ele>
        <time>2013-05-25T08:46:00Z</time>
      </trkpt>
      <trkpt lat="43.83853" lon="6.4629">
        <ele>1073.431</ele>
        <time>2013-05-25T08:46:05Z</time>
      </trkpt>
      <trkpt lat="43.83857" lon="6.46312">
        <ele>1069.262</ele>
        <time>2013-05-25T08:46:10Z</time>
      </trkpt>
      <trkpt lat="43.83856" lon="6.46329">
        <ele>1065.289</ele>
        <time>2013-05-25T08:46:14Z</time>
      </trkpt>
      <trkpt lat="43.83856" lon="6.46343">
        <ele>1062.34</ele>
        <time>2013-05-25T08:46:17Z</time>
      </trkpt>
      <trkpt lat="43.83859" lon="6.46371">
        <ele>1057.233</ele>
        <time>2013-05-25T08:46:22Z</time>
      </trkpt>
      <trkpt lat="43.8386" lon="6.46381">
        <ele>1054.99</ele>
        <time>2013-05-25T08:46:24Z</time>
      </trkpt>
      <trkpt lat="43.83853" lon="6.46398">
        <ele>1050.78</ele>
        <time>2013-05-25T08:46:28Z</time>
      </trkpt>
      <trkpt lat="43.83838" lon="6.46425">
        <ele>1043.238</ele>
        <time>2013-05-25T08:46:35Z</time>
      </trkpt>
      <trkpt lat="43.83822" lon="6.4644">
        <ele>1037.458</ele>
        <time>2013-05-25T08:46:41Z</time>
      </trkpt>
      <trkpt lat="43.83812" lon="6.46449">
        <ele>1033.178</ele>
        <time>2013-05-25T08:46:45Z</time>
      </trkpt>
      <trkpt lat="43.83806" lon="6.46455">
        <ele>1030.978</ele>
        <time>2013-05-25T08:46:48Z</time>
      </trkpt>
      <trkpt lat="43.83798" lon="6.46452">
        <ele>1029.25</ele>
        <time>2013-05-25T08:46:53Z</time>
      </trkpt>
      <trkpt lat="43.83795" lon="6.46447">
        <ele>1029.625</ele>
        <time>2013-05-25T08:46:55Z</time>
      </trkpt>
      <trkpt lat="43.83782" lon="6.4643">
        <ele>1032.738</ele>
        <time>2013-05-25T08:47:02Z</time>
      </trkpt>
      <trkpt lat="43.8377" lon="6.46418">
        <ele>1035.12</ele>
        <time>2013-05-25T08:47:08Z</time>
      </trkpt>
      <trkpt lat="43.83763" lon="6.46406">
        <ele>1037.968</ele>
        <time>2013-05-25T08:47:14Z</time>
      </trkpt>
      <trkpt lat="43.83763" lon="6.46397">
        <ele>1040.129</ele>
        <time>2013-05-25T08:47:19Z</time>
      </trkpt>
      <trkpt lat="43.83765" lon="6.46393">
        <ele>1041.918</ele>
        <time>2013-05-25T08:47:25Z</time>
      </trkpt>
      <trkpt lat="43.83767" lon="6.46387">
        <ele>1042.104</ele>
        <time>2013-05-25T08:47:31Z</time>
      </trkpt>
      <trkpt lat="43.83772" lon="6.46379">
        <ele>1043.023</ele>
        <time>2013-05-25T08:47:40Z</time>
      </trkpt>
      <trkpt lat="43.83775" lon="6.46372">
        <ele>1043.203</ele>
        <time>2013-05-25T08:47:49Z</time>
      </trkpt>
      <trkpt lat="43.83778" lon="6.46365">
        <ele>1043.853</ele>
        <time>2013-05-25T08:47:58Z</time>
      </trkpt>
      <trkpt lat="43.83778" lon="6.46358">
        <ele>1050.375</ele>
        <time>2013-05-25T08:48:09Z</time>
      </trkpt>
      <trkpt lat="43.83775" lon="6.46351">
        <ele>1051.032</ele>
        <time>2013-05-25T08:48:17Z</time>
      </trkpt>
      <trkpt lat="43.83766" lon="6.46344">
        <ele>1050.777</ele>
        <time>2013-05-25T08:48:26Z</time>
      </trkpt>
      <trkpt lat="43.83761" lon="6.46343">
        <ele>1050.427</ele>
        <time>2013-05-25T08:48:34Z</time>
      </trkpt>
      <trkpt lat="43.83756" lon="6.46342">
        <ele>1051.567</ele>
        <time>2013-05-25T08:48:42Z</time>
      </trkpt>
      <trkpt lat="43.8374" lon="6.46335">
        <ele>1052.808</ele>
        <time>2013-05-25T08:48:49Z</time>
      </trkpt>
      <trkpt lat="43.83728" lon="6.46325">
        <ele>1053.549</ele>
        <time>2013-05-25T08:48:55Z</time>
      </trkpt>
      <trkpt lat="43.83712" lon="6.46308">
        <ele>1056.918</ele>
        <time>2013-05-25T08:49:03Z</time>
      </trkpt>
      <trkpt lat="43.83702" lon="6.46283">
        <ele>1060.5</ele>
        <time>2013-05-25T08:49:12Z</time>
      </trkpt>
      <trkpt lat="43.83695" lon="6.46257">
        <ele>1064.159</ele>
        <time>2013-05-25T08:49:22Z</time>
      </trkpt>
      <trkpt lat="43.83689" lon="6.46231">
        <ele>1067.267</ele>
        <time>2013-05-25T08:49:32Z</time>
      </trkpt>
      <trkpt lat="43.83683" lon="6.46207">
        <ele>1070.914</ele>
        <time>2013-05-25T08:49:42Z</time>
      </trkpt>
      <trkpt lat="43.83681" lon="6.4619">
        <ele>1071.41</ele>
        <time>2013-05-25T08:49:50Z</time>
      </trkpt>
      <trkpt lat="43.83681" lon="6.46175">
        <ele>1073.039</ele>
        <time>2013-05-25T08:49:58Z</time>
      </trkpt>
      <trkpt lat="43.83686" lon="6.46158">
        <ele>1074.219</ele>
        <time>2013-05-25T08:50:07Z</time>
      </trkpt>
      <trkpt lat="43.83694" lon="6.46142">
        <ele>1075.023</ele>
        <time>2013-05-25T08:50:15Z</time>
      </trkpt>
      <trkpt lat="43.83702" lon="6.46132">
        <ele>1073.284</ele>
        <time>2013-05-25T08:50:22Z</time>
      </trkpt>
      <trkpt lat="43.83701" lon="6.46131">
        <ele>1071.974</ele>
        <time>2013-05-25T08:50:58Z</time>
      </trkpt>
      <trkpt lat="43.83706" lon="6.46126">
        <ele>1072.013</ele>
        <time>2013-05-25T08:51:03Z</time>
      </trkpt>
      <trkpt lat="43.83718" lon="6.46115">
        <ele>1071.16</ele>
        <time>2013-05-25T08:51:07Z</time>
      </trkpt>
      <trkpt lat="43.83733" lon="6.46086">
        <ele>1069.21</ele>
        <time>2013-05-25T08:51:13Z</time>
      </trkpt>
      <trkpt lat="43.83742" lon="6.4607">
        <ele>1067.736</ele>
        <time>2013-05-25T08:51:16Z</time>
      </trkpt>
      <trkpt lat="43.8377" lon="6.46035">
        <ele>1064.497</ele>
        <time>2013-05-25T08:51:22Z</time>
      </trkpt>
      <trkpt lat="43.83786" lon="6.46007">
        <ele>1063.788</ele>
        <time>2013-05-25T08:51:27Z</time>
      </trkpt>
      <trkpt lat="43.83796" lon="6.45983">
        <ele>1063.465</ele>
        <time>2013-05-25T08:51:32Z</time>
      </trkpt>
      <trkpt lat="43.838" lon="6.45956">
        <ele>1065.38</ele>
        <time>2013-05-25T08:51:38Z</time>
      </trkpt>
      <trkpt lat="43.83797" lon="6.45934">
        <ele>1070.817</ele>
        <time>2013-05-25T08:51:44Z</time>
      </trkpt>
      <trkpt lat="43.83796" lon="6.45914">
        <ele>1073.215</ele>
        <time>2013-05-25T08:51:50Z</time>
      </trkpt>
      <trkpt lat="43.83795" lon="6.4588">
        <ele>1074.025</ele>
        <time>2013-05-25T08:52:00Z</time>
      </trkpt>
      <trkpt lat="43.83792" lon="6.45847">
        <ele>1072.056</ele>
        <time>2013-05-25T08:52:08Z</time>
      </trkpt>
      <trkpt lat="43.83793" lon="6.45817">
        <ele>1070.932</ele>
        <time>2013-05-25T08:52:14Z</time>
      </trkpt>
      <trkpt lat="43.83797" lon="6.45781">
        <ele>1068.56</ele>
        <time>2013-05-25T08:52:21Z</time>
      </trkpt>
      <trkpt lat="43.83803" lon="6.45761">
        <ele>1066.066</ele>
        <time>2013-05-25T08:52:24Z</time>
      </trkpt>
      <trkpt lat="43.83829" lon="6.45717">
        <ele>1061.006</ele>
        <time>2013-05-25T08:52:31Z</time>
      </trkpt>
      <trkpt lat="43.83832" lon="6.4571">
        <ele>1060.224</ele>
        <time>2013-05-25T08:52:32Z</time>
      </trkpt>
      <trkpt lat="43.83842" lon="6.45683">
        <ele>1057.413</ele>
        <time>2013-05-25T08:52:36Z</time>
      </trkpt>
      <trkpt lat="43.83859" lon="6.45649">
        <ele>1053.843</ele>
        <time>2013-05-25T08:52:41Z</time>
      </trkpt>
      <trkpt lat="43.8387" lon="6.45617">
        <ele>1051.067</ele>
        <time>2013-05-25T08:52:45Z</time>
      </trkpt>
      <trkpt lat="43.83878" lon="6.45591">
        <ele>1048.203</ele>
        <time>2013-05-25T08:52:48Z</time>
      </trkpt>
      <trkpt lat="43.83884" lon="6.45559">
        <ele>1047.54</ele>
        <time>2013-05-25T08:52:52Z</time>
      </trkpt>
      <trkpt lat="43.83886" lon="6.45535">
        <ele>1046.286</ele>
        <time>2013-05-25T08:52:55Z</time>
      </trkpt>
      <trkpt lat="43.83894" lon="6.45489">
        <ele>1041.476</ele>
        <time>2013-05-25T08:53:01Z</time>
      </trkpt>
      <trkpt lat="43.83896" lon="6.4548">
        <ele>1040.623</ele>
        <time>2013-05-25T08:53:02Z</time>
      </trkpt>
      <trkpt lat="43.83889" lon="6.45445">
        <ele>1038.061</ele>
        <time>2013-05-25T08:53:06Z</time>
      </trkpt>
      <trkpt lat="43.83885" lon="6.45437">
        <ele>1038.029</ele>
        <time>2013-05-25T08:53:07Z</time>
      </trkpt>
      <trkpt lat="43.83864" lon="6.45387">
        <ele>1038.859</ele>
        <time>2013-05-25T08:53:15Z</time>
      </trkpt>
      <trkpt lat="43.83846" lon="6.45357">
        <ele>1045.133</ele>
        <time>2013-05-25T08:53:21Z</time>
      </trkpt>
      <trkpt lat="43.8383" lon="6.45335">
        <ele>1049.542</ele>
        <time>2013-05-25T08:53:27Z</time>
      </trkpt>
      <trkpt lat="43.83828" lon="6.45331">
        <ele>1049.546</ele>
        <time>2013-05-25T08:53:28Z</time>
      </trkpt>
      <trkpt lat="43.83823" lon="6.45307">
        <ele>1049.958</ele>
        <time>2013-05-25T08:53:32Z</time>
      </trkpt>
      <trkpt lat="43.83825" lon="6.45296">
        <ele>1049.047</ele>
        <time>2013-05-25T08:53:34Z</time>
      </trkpt>
      <trkpt lat="43.83827" lon="6.4525">
        <ele>1043.464</ele>
        <time>2013-05-25T08:53:43Z</time>
      </trkpt>
      <trkpt lat="43.83832" lon="6.45233">
        <ele>1042.952</ele>
        <time>2013-05-25T08:53:48Z</time>
      </trkpt>
      <trkpt lat="43.83839" lon="6.45223">
        <ele>1044.246</ele>
        <time>2013-05-25T08:53:54Z</time>
      </trkpt>
      <trkpt lat="43.83846" lon="6.45217">
        <ele>1044.871</ele>
        <time>2013-05-25T08:53:59Z</time>
      </trkpt>
      <trkpt lat="43.8385" lon="6.45207">
        <ele>1047.246</ele>
        <time>2013-05-25T08:54:04Z</time>
      </trkpt>
      <trkpt lat="43.83851" lon="6.45204">
        <ele>1047.202</ele>
        <time>2013-05-25T08:54:05Z</time>
      </trkpt>
      <trkpt lat="43.83865" lon="6.45181">
        <ele>1047.759</ele>
        <time>2013-05-25T08:54:11Z</time>
      </trkpt>
      <trkpt lat="43.83888" lon="6.45167">
        <ele>1046.126</ele>
        <time>2013-05-25T08:54:19Z</time>
      </trkpt>
      <trkpt lat="43.83892" lon="6.45166">
        <ele>1046.099</ele>
        <time>2013-05-25T08:54:22Z</time>
      </trkpt>
      <trkpt lat="43.83895" lon="6.45166">
        <ele>1047.983</ele>
        <time>2013-05-25T08:55:01Z</time>
      </trkpt>
      <trkpt lat="43.83913" lon="6.4516">
        <ele>1048.073</ele>
        <time>2013-05-25T08:55:07Z</time>
      </trkpt>
      <trkpt lat="43.83933" lon="6.45156">
        <ele>1047.413</ele>
        <time>2013-05-25T08:55:13Z</time>
      </trkpt>
      <trkpt lat="43.83946" lon="6.45151">
        <ele>1047.301</ele>
        <time>2013-05-25T08:55:18Z</time>
      </trkpt>
      <trkpt lat="43.83966" lon="6.45139">
        <ele>1045.938</ele>
        <time>2013-05-25T08:55:23Z</time>
      </trkpt>
      <trkpt lat="43.8398" lon="6.45138">
        <ele>1047.592</ele>
        <time>2013-05-25T08:55:29Z</time>
      </trkpt>
      <trkpt lat="43.8399" lon="6.45132">
        <ele>1047.544</ele>
        <time>2013-05-25T08:55:33Z</time>
      </trkpt>
      <trkpt lat="43.84005" lon="6.45118">
        <ele>1046.911</ele>
        <time>2013-05-25T08:55:38Z</time>
      </trkpt>
      <trkpt lat="43.84016" lon="6.45108">
        <ele>1047.117</ele>
        <time>2013-05-25T08:55:43Z</time>
      </trkpt>
      <trkpt lat="43.84025" lon="6.45092">
        <ele>1048.595</ele>
        <time>2013-05-25T08:55:48Z</time>
      </trkpt>
      <trkpt lat="43.84031" lon="6.45079">
        <ele>1050.393</ele>
        <time>2013-05-25T08:55:54Z</time>
      </trkpt>
      <trkpt lat="43.84035" lon="6.45065">
        <ele>1052.24</ele>
        <time>2013-05-25T08:56:00Z</time>
      </trkpt>
      <trkpt lat="43.84036" lon="6.4506">
        <ele>1053.152</ele>
        <time>2013-05-25T08:56:02Z</time>
      </trkpt>
      <trkpt lat="43.84044" lon="6.4505">
        <ele>1056.499</ele>
        <time>2013-05-25T08:56:09Z</time>
      </trkpt>
      <trkpt lat="43.84049" lon="6.4504">
        <ele>1056.386</ele>
        <time>2013-05-25T08:56:16Z</time>
      </trkpt>
      <trkpt lat="43.84048" lon="6.45027">
        <ele>1055.305</ele>
        <time>2013-05-25T08:56:23Z</time>
      </trkpt>
      <trkpt lat="43.8405" lon="6.45017">
        <ele>1052.454</ele>
        <time>2013-05-25T08:56:28Z</time>
      </trkpt>
      <trkpt lat="43.84051" lon="6.45016">
        <ele>1051.64</ele>
        <time>2013-05-25T08:56:29Z</time>
      </trkpt>
      <trkpt lat="43.84058" lon="6.45008">
        <ele>1047.963</ele>
        <time>2013-05-25T08:56:35Z</time>
      </trkpt>
      <trkpt lat="43.84055" lon="6.45003">
        <ele>1045.792</ele>
        <time>2013-05-25T08:56:40Z</time>
      </trkpt>
      <trkpt lat="43.84049" lon="6.44998">
        <ele>1044.981</ele>
        <time>2013-05-25T08:56:43Z</time>
      </trkpt>
      <trkpt lat="43.84044" lon="6.44995">
        <ele>1043.068</ele>
        <time>2013-05-25T08:56:45Z</time>
      </trkpt>
      <trkpt lat="43.8404" lon="6.44991">
        <ele>1041.289</ele>
        <time>2013-05-25T08:56:48Z</time>
      </trkpt>
      <trkpt lat="43.84032" lon="6.44989">
        <ele>1038.317</ele>
        <time>2013-05-25T08:56:52Z</time>
      </trkpt>
      <trkpt lat="43.84028" lon="6.44992">
        <ele>1035.951</ele>
        <time>2013-05-25T08:56:54Z</time>
      </trkpt>
      <trkpt lat="43.84018" lon="6.45004">
        <ele>1029.938</ele>
        <time>2013-05-25T08:57:00Z</time>
      </trkpt>
      <trkpt lat="43.84017" lon="6.45007">
        <ele>1029.156</ele>
        <time>2013-05-25T08:57:01Z</time>
      </trkpt>
      <trkpt lat="43.84014" lon="6.45003">
        <ele>1027.387</ele>
        <time>2013-05-25T08:57:05Z</time>
      </trkpt>
      <trkpt lat="43.84013" lon="6.44995">
        <ele>1026.388</ele>
        <time>2013-05-25T08:57:07Z</time>
      </trkpt>
      <trkpt lat="43.84012" lon="6.44979">
        <ele>1022.729</ele>
        <time>2013-05-25T08:57:11Z</time>
      </trkpt>
      <trkpt lat="43.84013" lon="6.44961">
        <ele>1018.874</ele>
        <time>2013-05-25T08:57:15Z</time>
      </trkpt>
      <trkpt lat="43.84009" lon="6.44954">
        <ele>1014.152</ele>
        <time>2013-05-25T08:57:20Z</time>
      </trkpt>
      <trkpt lat="43.84005" lon="6.44958">
        <ele>1011.372</ele>
        <time>2013-05-25T08:57:23Z</time>
      </trkpt>
      <trkpt lat="43.84002" lon="6.4496">
        <ele>1010.046</ele>
        <time>2013-05-25T08:57:26Z</time>
      </trkpt>
      <trkpt lat="43.83998" lon="6.4496">
        <ele>1009.517</ele>
        <time>2013-05-25T08:57:29Z</time>
      </trkpt>
      <trkpt lat="43.83982" lon="6.44964">
        <ele>1005.766</ele>
        <time>2013-05-25T08:57:35Z</time>
      </trkpt>
      <trkpt lat="43.8398" lon="6.44965">
        <ele>1005.005</ele>
        <time>2013-05-25T08:57:36Z</time>
      </trkpt>
      <trkpt lat="43.83975" lon="6.44956">
        <ele>1002.532</ele>
        <time>2013-05-25T08:57:41Z</time>
      </trkpt>
      <trkpt lat="43.83972" lon="6.44941">
        <ele>1001.048</ele>
        <time>2013-05-25T08:57:45Z</time>
      </trkpt>
      <trkpt lat="43.8397" lon="6.44932">
        <ele>997.566</ele>
        <time>2013-05-25T08:57:50Z</time>
      </trkpt>
      <trkpt lat="43.83969" lon="6.44933">
        <ele>996.397</ele>
        <time>2013-05-25T08:57:51Z</time>
      </trkpt>
      <trkpt lat="43.83958" lon="6.44948">
        <ele>990.432</ele>
        <time>2013-05-25T08:57:56Z</time>
      </trkpt>
      <trkpt lat="43.83953" lon="6.44962">
        <ele>987.234</ele>
        <time>2013-05-25T08:58:00Z</time>
      </trkpt>
      <trkpt lat="43.83952" lon="6.44972">
        <ele>985.904</ele>
        <time>2013-05-25T08:58:02Z</time>
      </trkpt>
      <trkpt lat="43.83939" lon="6.44988">
        <ele>981.399</ele>
        <time>2013-05-25T08:58:07Z</time>
      </trkpt>
      <trkpt lat="43.83937" lon="6.4499">
        <ele>980.661</ele>
        <time>2013-05-25T08:58:08Z</time>
      </trkpt>
      <trkpt lat="43.83934" lon="6.44991">
        <ele>978.861</ele>
        <time>2013-05-25T08:58:11Z</time>
      </trkpt>
      <trkpt lat="43.83936" lon="6.44976">
        <ele>976.675</ele>
        <time>2013-05-25T08:58:17Z</time>
      </trkpt>
      <trkpt lat="43.83935" lon="6.44958">
        <ele>974.461</ele>
        <time>2013-05-25T08:58:23Z</time>
      </trkpt>
      <trkpt lat="43.83929" lon="6.44956">
        <ele>971.982</ele>
        <time>2013-05-25T08:58:27Z</time>
      </trkpt>
      <trkpt lat="43.83917" lon="6.44965">
        <ele>967.499</ele>
        <time>2013-05-25T08:58:32Z</time>
      </trkpt>
      <trkpt lat="43.83914" lon="6.44968">
        <ele>965.722</ele>
        <time>2013-05-25T08:58:37Z</time>
      </trkpt>
      <trkpt lat="43.83915" lon="6.44967">
        <ele>965.194</ele>
        <time>2013-05-25T08:58:50Z</time>
      </trkpt>
      <trkpt lat="43.83916" lon="6.44962">
        <ele>966.066</ele>
        <time>2013-05-25T08:58:56Z</time>
      </trkpt>
      <trkpt lat="43.83915" lon="6.44962">
        <ele>966.214</ele>
        <time>2013-05-25T08:58:57Z</time>
      </trkpt>
      <trkpt lat="43.83913" lon="6.44962">
        <ele>966.85</ele>
        <time>2013-05-25T08:59:04Z</time>
      </trkpt>
      <trkpt lat="43.8391" lon="6.44961">
        <ele>965.775</ele>
        <time>2013-05-25T08:59:10Z</time>
      </trkpt>
      <trkpt lat="43.83909" lon="6.44962">
        <ele>966.28</ele>
        <time>2013-05-25T08:59:19Z</time>
      </trkpt>
      <trkpt lat="43.83909" lon="6.44962">
        <ele>965.795</ele>
        <time>2013-05-25T08:59:21Z</time>
      </trkpt>
      <trkpt lat="43.83906" lon="6.44962">
        <ele>964.295</ele>
        <time>2013-05-25T08:59:26Z</time>
      </trkpt>
      <trkpt lat="43.83904" lon="6.44961">
        <ele>964.315</ele>
        <time>2013-05-25T08:59:33Z</time>
      </trkpt>
      <trkpt lat="43.83905" lon="6.44962">
        <ele>964.555</ele>
        <time>2013-05-25T09:00:04Z</time>
      </trkpt>
      <trkpt lat="43.83904" lon="6.44963">
        <ele>964.683</ele>
        <time>2013-05-25T09:00:12Z</time>
      </trkpt>
      <trkpt lat="43.83902" lon="6.44965">
        <ele>965.124</ele>
        <time>2013-05-25T09:00:20Z</time>
      </trkpt>
      <trkpt lat="43.83903" lon="6.44964">
        <ele>966.059</ele>
        <time>2013-05-25T09:00:24Z</time>
      </trkpt>
      <trkpt lat="43.83905" lon="6.44961">
        <ele>967.487</ele>
        <time>2013-05-25T09:00:30Z</time>
      </trkpt>
      <trkpt lat="43.83905" lon="6.4496">
        <ele>967.291</ele>
        <time>2013-05-25T09:00:35Z</time>
      </trkpt>
      <trkpt lat="43.83903" lon="6.4496">
        <ele>966.429</ele>
        <time>2013-05-25T09:00:43Z</time>
      </trkpt>
      <trkpt lat="43.83904" lon="6.44958">
        <ele>965.378</ele>
        <time>2013-05-25T09:00:48Z</time>
      </trkpt>
      <trkpt lat="43.83903" lon="6.44954">
        <ele>963.474</ele>
        <time>2013-05-25T09:00:57Z</time>
      </trkpt>
      <trkpt lat="43.83901" lon="6.4495">
        <ele>961.934</ele>
        <time>2013-05-25T09:01:02Z</time>
      </trkpt>
      <trkpt lat="43.83899" lon="6.44947">
        <ele>961.078</ele>
        <time>2013-05-25T09:01:09Z</time>
      </trkpt>
      <trkpt lat="43.839" lon="6.44945">
        <ele>961.075</ele>
        <time>2013-05-25T09:01:16Z</time>
      </trkpt>
      <trkpt lat="43.83901" lon="6.44945">
        <ele>961.377</ele>
        <time>2013-05-25T09:01:18Z</time>
      </trkpt>
      <trkpt lat="43.83904" lon="6.4494">
        <ele>961.593</ele>
        <time>2013-05-25T09:01:24Z</time>
      </trkpt>
      <trkpt lat="43.83904" lon="6.4494">
        <ele>962.097</ele>
        <time>2013-05-25T09:01:25Z</time>
      </trkpt>
      <trkpt lat="43.83903" lon="6.44944">
        <ele>961.48</ele>
        <time>2013-05-25T09:01:29Z</time>
      </trkpt>
      <trkpt lat="43.83899" lon="6.44945">
        <ele>960.33</ele>
        <time>2013-05-25T09:01:36Z</time>
      </trkpt>
      <trkpt lat="43.83901" lon="6.44941">
        <ele>959.302</ele>
        <time>2013-05-25T09:02:03Z</time>
      </trkpt>
      <trkpt lat="43.83903" lon="6.44938">
        <ele>963.683</ele>
        <time>2013-05-25T09:02:24Z</time>
      </trkpt>
      <trkpt lat="43.83899" lon="6.4494">
        <ele>962.036</ele>
        <time>2013-05-25T09:02:42Z</time>
      </trkpt>
      <trkpt lat="43.83896" lon="6.4494">
        <ele>958.817</ele>
        <time>2013-05-25T09:02:51Z</time>
      </trkpt>
      <trkpt lat="43.83896" lon="6.4494">
        <ele>957.659</ele>
        <time>2013-05-25T09:02:56Z</time>
      </trkpt>
      <trkpt lat="43.83895" lon="6.44937">
        <ele>957.819</ele>
        <time>2013-05-25T09:03:03Z</time>
      </trkpt>
      <trkpt lat="43.83898" lon="6.44931">
        <ele>957.454</ele>
        <time>2013-05-25T09:03:08Z</time>
      </trkpt>
      <trkpt lat="43.83899" lon="6.4493">
        <ele>957.424</ele>
        <time>2013-05-25T09:03:09Z</time>
      </trkpt>
      <trkpt lat="43.83899" lon="6.44926">
        <ele>957.061</ele>
        <time>2013-05-25T09:03:16Z</time>
      </trkpt>
      <trkpt lat="43.839" lon="6.44917">
        <ele>954.803</ele>
        <time>2013-05-25T09:03:22Z</time>
      </trkpt>
      <trkpt lat="43.83899" lon="6.44913">
        <ele>954.052</ele>
        <time>2013-05-25T09:03:24Z</time>
      </trkpt>
      <trkpt lat="43.83899" lon="6.44907">
        <ele>953.764</ele>
        <time>2013-05-25T09:03:27Z</time>
      </trkpt>
      <trkpt lat="43.83893" lon="6.44898">
        <ele>950.789</ele>
        <time>2013-05-25T09:03:32Z</time>
      </trkpt>
      <trkpt lat="43.8389" lon="6.44888">
        <ele>948.879</ele>
        <time>2013-05-25T09:03:37Z</time>
      </trkpt>
      <trkpt lat="43.83884" lon="6.44878">
        <ele>952.687</ele>
        <time>2013-05-25T09:03:44Z</time>
      </trkpt>
      <trkpt lat="43.83877" lon="6.44857">
        <ele>954.6</ele>
        <time>2013-05-25T09:03:50Z</time>
      </trkpt>
      <trkpt lat="43.83876" lon="6.44842">
        <ele>953.273</ele>
        <time>2013-05-25T09:03:55Z</time>
      </trkpt>
      <trkpt lat="43.83874" lon="6.44819">
        <ele>952.664</ele>
        <time>2013-05-25T09:04:03Z</time>
      </trkpt>
      <trkpt lat="43.83871" lon="6.44812">
        <ele>948.56</ele>
        <time>2013-05-25T09:04:10Z</time>
      </trkpt>
      <trkpt lat="43.83872" lon="6.44814">
        <ele>947.092</ele>
        <time>2013-05-25T09:04:21Z</time>
      </trkpt>
      <trkpt lat="43.83877" lon="6.44826">
        <ele>947.582</ele>
        <time>2013-05-25T09:04:27Z</time>
      </trkpt>
      <trkpt lat="43.83876" lon="6.44848">
        <ele>948.927</ele>
        <time>2013-05-25T09:04:32Z</time>
      </trkpt>
      <trkpt lat="43.8388" lon="6.44869">
        <ele>948.761</ele>
        <time>2013-05-25T09:04:37Z</time>
      </trkpt>
      <trkpt lat="43.83887" lon="6.44886">
        <ele>948.69</ele>
        <time>2013-05-25T09:04:44Z</time>
      </trkpt>
      <trkpt lat="43.83888" lon="6.44889">
        <ele>948.481</ele>
        <time>2013-05-25T09:04:45Z</time>
      </trkpt>
      <trkpt lat="43.83891" lon="6.4489">
        <ele>947.966</ele>
        <time>2013-05-25T09:04:50Z</time>
      </trkpt>
      <trkpt lat="43.83887" lon="6.44898">
        <ele>962.653</ele>
        <time>2013-05-25T09:07:39Z</time>
      </trkpt>
      <trkpt lat="43.83887" lon="6.44893">
        <ele>961.562</ele>
        <time>2013-05-25T09:07:46Z</time>
      </trkpt>
      <trkpt lat="43.8389" lon="6.4489">
        <ele>943.328</ele>
        <time>2013-05-25T09:09:05Z</time>
      </trkpt>
      <trkpt lat="43.83884" lon="6.44875">
        <ele>943.073</ele>
        <time>2013-05-25T09:09:11Z</time>
      </trkpt>
      <trkpt lat="43.83879" lon="6.44853">
        <ele>943.689</ele>
        <time>2013-05-25T09:09:17Z</time>
      </trkpt>
      <trkpt lat="43.83878" lon="6.44838">
        <ele>943.867</ele>
        <time>2013-05-25T09:09:22Z</time>
      </trkpt>
      <trkpt lat="43.83875" lon="6.44818">
        <ele>947.672</ele>
        <time>2013-05-25T09:09:29Z</time>
      </trkpt>
      <trkpt lat="43.83867" lon="6.44806">
        <ele>947.185</ele>
        <time>2013-05-25T09:09:35Z</time>
      </trkpt>
      <trkpt lat="43.83854" lon="6.44789">
        <ele>946.89</ele>
        <time>2013-05-25T09:09:43Z</time>
      </trkpt>
      <trkpt lat="43.83845" lon="6.44767">
        <ele>944.497</ele>
        <time>2013-05-25T09:09:50Z</time>
      </trkpt>
      <trkpt lat="43.83843" lon="6.44759">
        <ele>943.203</ele>
        <time>2013-05-25T09:09:53Z</time>
      </trkpt>
      <trkpt lat="43.83835" lon="6.44745">
        <ele>945.549</ele>
        <time>2013-05-25T09:10:01Z</time>
      </trkpt>
      <trkpt lat="43.83829" lon="6.44738">
        <ele>945.786</ele>
        <time>2013-05-25T09:10:08Z</time>
      </trkpt>
      <trkpt lat="43.83827" lon="6.44733">
        <ele>945.441</ele>
        <time>2013-05-25T09:10:13Z</time>
      </trkpt>
      <trkpt lat="43.83825" lon="6.44718">
        <ele>950.584</ele>
        <time>2013-05-25T09:10:20Z</time>
      </trkpt>
      <trkpt lat="43.83821" lon="6.44702">
        <ele>952.774</ele>
        <time>2013-05-25T09:10:28Z</time>
      </trkpt>
      <trkpt lat="43.83817" lon="6.44696">
        <ele>953.219</ele>
        <time>2013-05-25T09:10:34Z</time>
      </trkpt>
      <trkpt lat="43.83806" lon="6.44683">
        <ele>949.586</ele>
        <time>2013-05-25T09:10:41Z</time>
      </trkpt>
      <trkpt lat="43.83796" lon="6.4467">
        <ele>946.741</ele>
        <time>2013-05-25T09:10:48Z</time>
      </trkpt>
      <trkpt lat="43.8378" lon="6.44663">
        <ele>951.346</ele>
        <time>2013-05-25T09:10:55Z</time>
      </trkpt>
      <trkpt lat="43.83764" lon="6.44662">
        <ele>951.42</ele>
        <time>2013-05-25T09:11:02Z</time>
      </trkpt>
      <trkpt lat="43.83739" lon="6.44655">
        <ele>952.66</ele>
        <time>2013-05-25T09:11:10Z</time>
      </trkpt>
      <trkpt lat="43.83736" lon="6.44655">
        <ele>952.75</ele>
        <time>2013-05-25T09:11:11Z</time>
      </trkpt>
      <trkpt lat="43.83715" lon="6.44667">
        <ele>953.998</ele>
        <time>2013-05-25T09:11:16Z</time>
      </trkpt>
      <trkpt lat="43.83698" lon="6.44674">
        <ele>954.883</ele>
        <time>2013-05-25T09:11:21Z</time>
      </trkpt>
      <trkpt lat="43.83694" lon="6.44677">
        <ele>955.595</ele>
        <time>2013-05-25T09:11:23Z</time>
      </trkpt>
      <trkpt lat="43.83686" lon="6.44682">
        <ele>956.668</ele>
        <time>2013-05-25T09:11:28Z</time>
      </trkpt>
      <trkpt lat="43.83681" lon="6.44678">
        <ele>957.007</ele>
        <time>2013-05-25T09:11:30Z</time>
      </trkpt>
      <trkpt lat="43.83665" lon="6.44665">
        <ele>958.604</ele>
        <time>2013-05-25T09:11:38Z</time>
      </trkpt>
      <trkpt lat="43.83652" lon="6.44644">
        <ele>959.435</ele>
        <time>2013-05-25T09:11:47Z</time>
      </trkpt>
      <trkpt lat="43.83642" lon="6.44637">
        <ele>962.792</ele>
        <time>2013-05-25T09:11:54Z</time>
      </trkpt>
      <trkpt lat="43.83635" lon="6.44629">
        <ele>964.255</ele>
        <time>2013-05-25T09:12:00Z</time>
      </trkpt>
      <trkpt lat="43.83625" lon="6.44622">
        <ele>966.899</ele>
        <time>2013-05-25T09:12:07Z</time>
      </trkpt>
      <trkpt lat="43.83615" lon="6.44617">
        <ele>969.854</ele>
        <time>2013-05-25T09:12:14Z</time>
      </trkpt>
      <trkpt lat="43.83608" lon="6.44613">
        <ele>972.897</ele>
        <time>2013-05-25T09:12:20Z</time>
      </trkpt>
      <trkpt lat="43.83596" lon="6.44607">
        <ele>976.116</ele>
        <time>2013-05-25T09:12:28Z</time>
      </trkpt>
      <trkpt lat="43.83585" lon="6.44599">
        <ele>974.256</ele>
        <time>2013-05-25T09:12:35Z</time>
      </trkpt>
      <trkpt lat="43.83572" lon="6.44587">
        <ele>972.793</ele>
        <time>2013-05-25T09:12:44Z</time>
      </trkpt>
      <trkpt lat="43.83565" lon="6.44576">
        <ele>971.843</ele>
        <time>2013-05-25T09:12:51Z</time>
      </trkpt>
      <trkpt lat="43.83557" lon="6.44569">
        <ele>973.122</ele>
        <time>2013-05-25T09:12:58Z</time>
      </trkpt>
      <trkpt lat="43.83555" lon="6.44568">
        <ele>975.564</ele>
        <time>2013-05-25T09:13:00Z</time>
      </trkpt>
      <trkpt lat="43.8355" lon="6.44559">
        <ele>979.747</ele>
        <time>2013-05-25T09:13:07Z</time>
      </trkpt>
      <trkpt lat="43.83549" lon="6.44558">
        <ele>981.753</ele>
        <time>2013-05-25T09:13:12Z</time>
      </trkpt>
      <trkpt lat="43.83546" lon="6.44557">
        <ele>982.937</ele>
        <time>2013-05-25T09:13:15Z</time>
      </trkpt>
      <trkpt lat="43.83547" lon="6.44564">
        <ele>990.339</ele>
        <time>2013-05-25T09:13:20Z</time>
      </trkpt>
      <trkpt lat="43.83543" lon="6.44574">
        <ele>992.591</ele>
        <time>2013-05-25T09:13:24Z</time>
      </trkpt>
      <trkpt lat="43.83535" lon="6.44596">
        <ele>993.591</ele>
        <time>2013-05-25T09:13:33Z</time>
      </trkpt>
      <trkpt lat="43.8353" lon="6.44612">
        <ele>993.463</ele>
        <time>2013-05-25T09:13:39Z</time>
      </trkpt>
      <trkpt lat="43.83526" lon="6.44625">
        <ele>991.974</ele>
        <time>2013-05-25T09:13:43Z</time>
      </trkpt>
      <trkpt lat="43.83525" lon="6.44628">
        <ele>991.21</ele>
        <time>2013-05-25T09:13:46Z</time>
      </trkpt>
      <trkpt lat="43.83522" lon="6.44632">
        <ele>990.381</ele>
        <time>2013-05-25T09:13:51Z</time>
      </trkpt>
      <trkpt lat="43.83516" lon="6.44638">
        <ele>991.158</ele>
        <time>2013-05-25T09:13:59Z</time>
      </trkpt>
      <trkpt lat="43.83514" lon="6.44641">
        <ele>990.8</ele>
        <time>2013-05-25T09:14:04Z</time>
      </trkpt>
      <trkpt lat="43.83505" lon="6.44655">
        <ele>994.112</ele>
        <time>2013-05-25T09:14:11Z</time>
      </trkpt>
      <trkpt lat="43.83497" lon="6.44669">
        <ele>998.07</ele>
        <time>2013-05-25T09:14:19Z</time>
      </trkpt>
      <trkpt lat="43.83491" lon="6.44684">
        <ele>999.842</ele>
        <time>2013-05-25T09:14:27Z</time>
      </trkpt>
      <trkpt lat="43.83488" lon="6.44689">
        <ele>1000.93</ele>
        <time>2013-05-25T09:14:36Z</time>
      </trkpt>
      <trkpt lat="43.83484" lon="6.44697">
        <ele>1001.287</ele>
        <time>2013-05-25T09:14:42Z</time>
      </trkpt>
      <trkpt lat="43.83481" lon="6.44698">
        <ele>1000.552</ele>
        <time>2013-05-25T09:14:48Z</time>
      </trkpt>
      <trkpt lat="43.83482" lon="6.44698">
        <ele>1002.594</ele>
        <time>2013-05-25T09:14:57Z</time>
      </trkpt>
      <trkpt lat="43.83482" lon="6.44698">
        <ele>1003.063</ele>
        <time>2013-05-25T09:15:04Z</time>
      </trkpt>
      <trkpt lat="43.83476" lon="6.44705">
        <ele>1003.523</ele>
        <time>2013-05-25T09:15:13Z</time>
      </trkpt>
      <trkpt lat="43.83475" lon="6.44706">
        <ele>1001.703</ele>
        <time>2013-05-25T09:15:20Z</time>
      </trkpt>
      <trkpt lat="43.83471" lon="6.44716">
        <ele>1003.614</ele>
        <time>2013-05-25T09:15:30Z</time>
      </trkpt>
      <trkpt lat="43.83469" lon="6.44716">
        <ele>999.081</ele>
        <time>2013-05-25T09:15:40Z</time>
      </trkpt>
      <trkpt lat="43.83468" lon="6.44714">
        <ele>996.929</ele>
        <time>2013-05-25T09:17:41Z</time>
      </trkpt>
      <trkpt lat="43.83474" lon="6.447">
        <ele>995.456</ele>
        <time>2013-05-25T09:17:46Z</time>
      </trkpt>
      <trkpt lat="43.83483" lon="6.44689">
        <ele>992.239</ele>
        <time>2013-05-25T09:17:51Z</time>
      </trkpt>
      <trkpt lat="43.8349" lon="6.44669">
        <ele>988.496</ele>
        <time>2013-05-25T09:17:56Z</time>
      </trkpt>
      <trkpt lat="43.83499" lon="6.44655">
        <ele>984.832</ele>
        <time>2013-05-25T09:18:00Z</time>
      </trkpt>
      <trkpt lat="43.83517" lon="6.44627">
        <ele>977.683</ele>
        <time>2013-05-25T09:18:06Z</time>
      </trkpt>
      <trkpt lat="43.83522" lon="6.44615">
        <ele>975.303</ele>
        <time>2013-05-25T09:18:09Z</time>
      </trkpt>
      <trkpt lat="43.83527" lon="6.44599">
        <ele>975.661</ele>
        <time>2013-05-25T09:18:13Z</time>
      </trkpt>
      <trkpt lat="43.83529" lon="6.44592">
        <ele>974.569</ele>
        <time>2013-05-25T09:18:15Z</time>
      </trkpt>
      <trkpt lat="43.83538" lon="6.44577">
        <ele>972.595</ele>
        <time>2013-05-25T09:18:18Z</time>
      </trkpt>
      <trkpt lat="43.83544" lon="6.44558">
        <ele>972.029</ele>
        <time>2013-05-25T09:18:22Z</time>
      </trkpt>
      <trkpt lat="43.83547" lon="6.44552">
        <ele>972.486</ele>
        <time>2013-05-25T09:18:27Z</time>
      </trkpt>
      <trkpt lat="43.83551" lon="6.44558">
        <ele>982.34</ele>
        <time>2013-05-25T09:19:30Z</time>
      </trkpt>
      <trkpt lat="43.83553" lon="6.44542">
        <ele>982.836</ele>
        <time>2013-05-25T09:19:34Z</time>
      </trkpt>
      <trkpt lat="43.83555" lon="6.4452">
        <ele>983.581</ele>
        <time>2013-05-25T09:19:37Z</time>
      </trkpt>
      <trkpt lat="43.83557" lon="6.44495">
        <ele>983.652</ele>
        <time>2013-05-25T09:19:40Z</time>
      </trkpt>
      <trkpt lat="43.83567" lon="6.4446">
        <ele>981.986</ele>
        <time>2013-05-25T09:19:44Z</time>
      </trkpt>
      <trkpt lat="43.8357" lon="6.44451">
        <ele>981.677</ele>
        <time>2013-05-25T09:19:45Z</time>
      </trkpt>
      <trkpt lat="43.83587" lon="6.44388">
        <ele>980.823</ele>
        <time>2013-05-25T09:19:51Z</time>
      </trkpt>
      <trkpt lat="43.83598" lon="6.44338">
        <ele>979.965</ele>
        <time>2013-05-25T09:19:56Z</time>
      </trkpt>
      <trkpt lat="43.83606" lon="6.4431">
        <ele>979.012</ele>
        <time>2013-05-25T09:20:00Z</time>
      </trkpt>
      <trkpt lat="43.83611" lon="6.44296">
        <ele>978.751</ele>
        <time>2013-05-25T09:20:02Z</time>
      </trkpt>
      <trkpt lat="43.83622" lon="6.44276">
        <ele>978.159</ele>
        <time>2013-05-25T09:20:05Z</time>
      </trkpt>
      <trkpt lat="43.83637" lon="6.44252">
        <ele>977.651</ele>
        <time>2013-05-25T09:20:10Z</time>
      </trkpt>
      <trkpt lat="43.83641" lon="6.44224">
        <ele>976.708</ele>
        <time>2013-05-25T09:20:14Z</time>
      </trkpt>
      <trkpt lat="43.83641" lon="6.44216">
        <ele>976.357</ele>
        <time>2013-05-25T09:20:15Z</time>
      </trkpt>
      <trkpt lat="43.83643" lon="6.44178">
        <ele>975.521</ele>
        <time>2013-05-25T09:20:19Z</time>
      </trkpt>
      <trkpt lat="43.83646" lon="6.44126">
        <ele>974.344</ele>
        <time>2013-05-25T09:20:25Z</time>
      </trkpt>
      <trkpt lat="43.8365" lon="6.44103">
        <ele>974.529</ele>
        <time>2013-05-25T09:20:30Z</time>
      </trkpt>
      <trkpt lat="43.83657" lon="6.4406">
        <ele>974.532</ele>
        <time>2013-05-25T09:20:37Z</time>
      </trkpt>
      <trkpt lat="43.83661" lon="6.44048">
        <ele>972.402</ele>
        <time>2013-05-25T09:20:39Z</time>
      </trkpt>
      <trkpt lat="43.83678" lon="6.44023">
        <ele>969.233</ele>
        <time>2013-05-25T09:20:44Z</time>
      </trkpt>
      <trkpt lat="43.83682" lon="6.4402">
        <ele>969.375</ele>
        <time>2013-05-25T09:20:45Z</time>
      </trkpt>
      <trkpt lat="43.83704" lon="6.44002">
        <ele>968.842</ele>
        <time>2013-05-25T09:20:50Z</time>
      </trkpt>
      <trkpt lat="43.83724" lon="6.43994">
        <ele>967.967</ele>
        <time>2013-05-25T09:20:54Z</time>
      </trkpt>
      <trkpt lat="43.83734" lon="6.43992">
        <ele>966.975</ele>
        <time>2013-05-25T09:20:56Z</time>
      </trkpt>
      <trkpt lat="43.83752" lon="6.43978">
        <ele>966.315</ele>
        <time>2013-05-25T09:21:01Z</time>
      </trkpt>
      <trkpt lat="43.83755" lon="6.43961">
        <ele>963.625</ele>
        <time>2013-05-25T09:21:05Z</time>
      </trkpt>
      <trkpt lat="43.83761" lon="6.43936">
        <ele>960.985</ele>
        <time>2013-05-25T09:21:11Z</time>
      </trkpt>
      <trkpt lat="43.83762" lon="6.43931">
        <ele>960.898</ele>
        <time>2013-05-25T09:21:12Z</time>
      </trkpt>
      <trkpt lat="43.83763" lon="6.43894">
        <ele>959.723</ele>
        <time>2013-05-25T09:21:18Z</time>
      </trkpt>
      <trkpt lat="43.83759" lon="6.43861">
        <ele>959.469</ele>
        <time>2013-05-25T09:21:23Z</time>
      </trkpt>
      <trkpt lat="43.83751" lon="6.43815">
        <ele>962.126</ele>
        <time>2013-05-25T09:21:31Z</time>
      </trkpt>
      <trkpt lat="43.83751" lon="6.43776">
        <ele>963.02</ele>
        <time>2013-05-25T09:21:39Z</time>
      </trkpt>
      <trkpt lat="43.83752" lon="6.43749">
        <ele>961.409</ele>
        <time>2013-05-25T09:21:45Z</time>
      </trkpt>
      <trkpt lat="43.8376" lon="6.43731">
        <ele>959.628</ele>
        <time>2013-05-25T09:21:49Z</time>
      </trkpt>
      <trkpt lat="43.83777" lon="6.43712">
        <ele>956.658</ele>
        <time>2013-05-25T09:21:53Z</time>
      </trkpt>
      <trkpt lat="43.8379" lon="6.43695">
        <ele>953.518</ele>
        <time>2013-05-25T09:21:56Z</time>
      </trkpt>
      <trkpt lat="43.83814" lon="6.43671">
        <ele>951.162</ele>
        <time>2013-05-25T09:22:01Z</time>
      </trkpt>
      <trkpt lat="43.83827" lon="6.43657">
        <ele>949.353</ele>
        <time>2013-05-25T09:22:04Z</time>
      </trkpt>
      <trkpt lat="43.83848" lon="6.43643">
        <ele>947.015</ele>
        <time>2013-05-25T09:22:08Z</time>
      </trkpt>
      <trkpt lat="43.83873" lon="6.43632">
        <ele>944.546</ele>
        <time>2013-05-25T09:22:12Z</time>
      </trkpt>
      <trkpt lat="43.83886" lon="6.43622">
        <ele>943.015</ele>
        <time>2013-05-25T09:22:14Z</time>
      </trkpt>
      <trkpt lat="43.83903" lon="6.43605">
        <ele>941.066</ele>
        <time>2013-05-25T09:22:17Z</time>
      </trkpt>
      <trkpt lat="43.83928" lon="6.43588">
        <ele>937.496</ele>
        <time>2013-05-25T09:22:21Z</time>
      </trkpt>
      <trkpt lat="43.83952" lon="6.43562">
        <ele>933.248</ele>
        <time>2013-05-25T09:22:25Z</time>
      </trkpt>
      <trkpt lat="43.83984" lon="6.43531">
        <ele>927.647</ele>
        <time>2013-05-25T09:22:31Z</time>
      </trkpt>
      <trkpt lat="43.83997" lon="6.43515">
        <ele>924.686</ele>
        <time>2013-05-25T09:22:34Z</time>
      </trkpt>
      <trkpt lat="43.84004" lon="6.43497">
        <ele>922.37</ele>
        <time>2013-05-25T09:22:38Z</time>
      </trkpt>
      <trkpt lat="43.84002" lon="6.43477">
        <ele>919.289</ele>
        <time>2013-05-25T09:22:44Z</time>
      </trkpt>
      <trkpt lat="43.83997" lon="6.43462">
        <ele>916.574</ele>
        <time>2013-05-25T09:22:49Z</time>
      </trkpt>
      <trkpt lat="43.83991" lon="6.4345">
        <ele>913.262</ele>
        <time>2013-05-25T09:22:53Z</time>
      </trkpt>
      <trkpt lat="43.83985" lon="6.43432">
        <ele>908.565</ele>
        <time>2013-05-25T09:22:58Z</time>
      </trkpt>
      <trkpt lat="43.83975" lon="6.43412">
        <ele>904.804</ele>
        <time>2013-05-25T09:23:04Z</time>
      </trkpt>
      <trkpt lat="43.8397" lon="6.434">
        <ele>903.525</ele>
        <time>2013-05-25T09:23:07Z</time>
      </trkpt>
      <trkpt lat="43.83963" lon="6.43399">
        <ele>901.497</ele>
        <time>2013-05-25T09:23:10Z</time>
      </trkpt>
      <trkpt lat="43.8396" lon="6.4341">
        <ele>899.644</ele>
        <time>2013-05-25T09:23:12Z</time>
      </trkpt>
      <trkpt lat="43.83952" lon="6.43433">
        <ele>898.422</ele>
        <time>2013-05-25T09:23:17Z</time>
      </trkpt>
      <trkpt lat="43.83945" lon="6.43455">
        <ele>896.891</ele>
        <time>2013-05-25T09:23:22Z</time>
      </trkpt>
      <trkpt lat="43.83936" lon="6.43479">
        <ele>896.951</ele>
        <time>2013-05-25T09:23:27Z</time>
      </trkpt>
      <trkpt lat="43.83919" lon="6.43494">
        <ele>896.473</ele>
        <time>2013-05-25T09:23:31Z</time>
      </trkpt>
      <trkpt lat="43.8391" lon="6.43498">
        <ele>894.486</ele>
        <time>2013-05-25T09:23:33Z</time>
      </trkpt>
      <trkpt lat="43.8391" lon="6.43482">
        <ele>893.301</ele>
        <time>2013-05-25T09:23:37Z</time>
      </trkpt>
      <trkpt lat="43.83913" lon="6.43462">
        <ele>892.709</ele>
        <time>2013-05-25T09:23:40Z</time>
      </trkpt>
      <trkpt lat="43.83911" lon="6.43447">
        <ele>890.071</ele>
        <time>2013-05-25T09:23:42Z</time>
      </trkpt>
      <trkpt lat="43.83908" lon="6.4341">
        <ele>885.645</ele>
        <time>2013-05-25T09:23:47Z</time>
      </trkpt>
      <trkpt lat="43.83899" lon="6.43404">
        <ele>881.861</ele>
        <time>2013-05-25T09:23:51Z</time>
      </trkpt>
      <trkpt lat="43.83894" lon="6.43403">
        <ele>879.556</ele>
        <time>2013-05-25T09:23:53Z</time>
      </trkpt>
      <trkpt lat="43.83881" lon="6.43399">
        <ele>876.91</ele>
        <time>2013-05-25T09:23:58Z</time>
      </trkpt>
      <trkpt lat="43.83876" lon="6.43393">
        <ele>875.632</ele>
        <time>2013-05-25T09:24:00Z</time>
      </trkpt>
      <trkpt lat="43.83858" lon="6.4336">
        <ele>871.168</ele>
        <time>2013-05-25T09:24:06Z</time>
      </trkpt>
      <trkpt lat="43.83851" lon="6.43348">
        <ele>869.921</ele>
        <time>2013-05-25T09:24:08Z</time>
      </trkpt>
      <trkpt lat="43.83843" lon="6.43337">
        <ele>868.783</ele>
        <time>2013-05-25T09:24:10Z</time>
      </trkpt>
      <trkpt lat="43.83828" lon="6.43312">
        <ele>867.29</ele>
        <time>2013-05-25T09:24:14Z</time>
      </trkpt>
      <trkpt lat="43.83807" lon="6.43276">
        <ele>866.313</ele>
        <time>2013-05-25T09:24:21Z</time>
      </trkpt>
      <trkpt lat="43.83783" lon="6.43236">
        <ele>867.474</ele>
        <time>2013-05-25T09:24:30Z</time>
      </trkpt>
      <trkpt lat="43.83765" lon="6.43209">
        <ele>869.422</ele>
        <time>2013-05-25T09:24:37Z</time>
      </trkpt>
      <trkpt lat="43.83748" lon="6.43181">
        <ele>870.688</ele>
        <time>2013-05-25T09:24:44Z</time>
      </trkpt>
      <trkpt lat="43.83732" lon="6.43147">
        <ele>875.392</ele>
        <time>2013-05-25T09:24:52Z</time>
      </trkpt>
      <trkpt lat="43.83719" lon="6.43128">
        <ele>876.51</ele>
        <time>2013-05-25T09:24:58Z</time>
      </trkpt>
      <trkpt lat="43.83703" lon="6.43107">
        <ele>877.927</ele>
        <time>2013-05-25T09:25:06Z</time>
      </trkpt>
      <trkpt lat="43.837" lon="6.43089">
        <ele>878.919</ele>
        <time>2013-05-25T09:25:11Z</time>
      </trkpt>
      <trkpt lat="43.83703" lon="6.43069">
        <ele>881.522</ele>
        <time>2013-05-25T09:25:17Z</time>
      </trkpt>
      <trkpt lat="43.83706" lon="6.4305">
        <ele>879.46</ele>
        <time>2013-05-25T09:25:22Z</time>
      </trkpt>
      <trkpt lat="43.83706" lon="6.43034">
        <ele>879.122</ele>
        <time>2013-05-25T09:25:26Z</time>
      </trkpt>
      <trkpt lat="43.83708" lon="6.43001">
        <ele>879.995</ele>
        <time>2013-05-25T09:25:34Z</time>
      </trkpt>
      <trkpt lat="43.8371" lon="6.4297">
        <ele>878.712</ele>
        <time>2013-05-25T09:25:40Z</time>
      </trkpt>
      <trkpt lat="43.83711" lon="6.42938">
        <ele>877.719</ele>
        <time>2013-05-25T09:25:45Z</time>
      </trkpt>
      <trkpt lat="43.83713" lon="6.42892">
        <ele>876.469</ele>
        <time>2013-05-25T09:25:51Z</time>
      </trkpt>
      <trkpt lat="43.83713" lon="6.42884">
        <ele>876.421</ele>
        <time>2013-05-25T09:25:52Z</time>
      </trkpt>
      <trkpt lat="43.83714" lon="6.42824">
        <ele>876.183</ele>
        <time>2013-05-25T09:26:00Z</time>
      </trkpt>
      <trkpt lat="43.83724" lon="6.42798">
        <ele>876.333</ele>
        <time>2013-05-25T09:26:04Z</time>
      </trkpt>
      <trkpt lat="43.83742" lon="6.4278">
        <ele>876.757</ele>
        <time>2013-05-25T09:26:09Z</time>
      </trkpt>
      <trkpt lat="43.83754" lon="6.42756">
        <ele>879.157</ele>
        <time>2013-05-25T09:26:14Z</time>
      </trkpt>
      <trkpt lat="43.8377" lon="6.42735">
        <ele>880.308</ele>
        <time>2013-05-25T09:26:19Z</time>
      </trkpt>
      <trkpt lat="43.8379" lon="6.42727">
        <ele>880.599</ele>
        <time>2013-05-25T09:26:24Z</time>
      </trkpt>
      <trkpt lat="43.83813" lon="6.42717">
        <ele>881.289</ele>
        <time>2013-05-25T09:26:30Z</time>
      </trkpt>
      <trkpt lat="43.83822" lon="6.42713">
        <ele>883.329</ele>
        <time>2013-05-25T09:26:32Z</time>
      </trkpt>
      <trkpt lat="43.8384" lon="6.42698">
        <ele>884.171</ele>
        <time>2013-05-25T09:26:38Z</time>
      </trkpt>
      <trkpt lat="43.83844" lon="6.42685">
        <ele>884.752</ele>
        <time>2013-05-25T09:26:42Z</time>
      </trkpt>
      <trkpt lat="43.83844" lon="6.42679">
        <ele>884.027</ele>
        <time>2013-05-25T09:26:44Z</time>
      </trkpt>
      <trkpt lat="43.83833" lon="6.42657">
        <ele>886.652</ele>
        <time>2013-05-25T09:26:49Z</time>
      </trkpt>
      <trkpt lat="43.83829" lon="6.42628">
        <ele>886.411</ele>
        <time>2013-05-25T09:26:53Z</time>
      </trkpt>
      <trkpt lat="43.83827" lon="6.42602">
        <ele>887.03</ele>
        <time>2013-05-25T09:26:57Z</time>
      </trkpt>
      <trkpt lat="43.83834" lon="6.4259">
        <ele>886.797</ele>
        <time>2013-05-25T09:27:00Z</time>
      </trkpt>
      <trkpt lat="43.83851" lon="6.42583">
        <ele>884.055</ele>
        <time>2013-05-25T09:27:05Z</time>
      </trkpt>
      <trkpt lat="43.83872" lon="6.42582">
        <ele>881.221</ele>
        <time>2013-05-25T09:27:13Z</time>
      </trkpt>
      <trkpt lat="43.83889" lon="6.42582">
        <ele>879.669</ele>
        <time>2013-05-25T09:27:22Z</time>
      </trkpt>
      <trkpt lat="43.83896" lon="6.42577">
        <ele>879.849</ele>
        <time>2013-05-25T09:27:25Z</time>
      </trkpt>
      <trkpt lat="43.83896" lon="6.42557">
        <ele>879.577</ele>
        <time>2013-05-25T09:27:30Z</time>
      </trkpt>
      <trkpt lat="43.83892" lon="6.42536">
        <ele>877.779</ele>
        <time>2013-05-25T09:27:34Z</time>
      </trkpt>
      <trkpt lat="43.83891" lon="6.42524">
        <ele>876.138</ele>
        <time>2013-05-25T09:27:36Z</time>
      </trkpt>
      <trkpt lat="43.83888" lon="6.42509">
        <ele>874.375</ele>
        <time>2013-05-25T09:27:39Z</time>
      </trkpt>
      <trkpt lat="43.83891" lon="6.42478">
        <ele>872.752</ele>
        <time>2013-05-25T09:27:44Z</time>
      </trkpt>
      <trkpt lat="43.83899" lon="6.42469">
        <ele>869.688</ele>
        <time>2013-05-25T09:27:46Z</time>
      </trkpt>
      <trkpt lat="43.83922" lon="6.42453">
        <ele>865.292</ele>
        <time>2013-05-25T09:27:50Z</time>
      </trkpt>
      <trkpt lat="43.83938" lon="6.42447">
        <ele>863.573</ele>
        <time>2013-05-25T09:27:54Z</time>
      </trkpt>
      <trkpt lat="43.83938" lon="6.42435">
        <ele>863.292</ele>
        <time>2013-05-25T09:27:57Z</time>
      </trkpt>
      <trkpt lat="43.83944" lon="6.42415">
        <ele>863.821</ele>
        <time>2013-05-25T09:28:01Z</time>
      </trkpt>
      <trkpt lat="43.83951" lon="6.42407">
        <ele>864.4</ele>
        <time>2013-05-25T09:28:03Z</time>
      </trkpt>
      <trkpt lat="43.83963" lon="6.42391">
        <ele>862.98</ele>
        <time>2013-05-25T09:28:08Z</time>
      </trkpt>
      <trkpt lat="43.83961" lon="6.42376">
        <ele>866.256</ele>
        <time>2013-05-25T09:28:12Z</time>
      </trkpt>
      <trkpt lat="43.83957" lon="6.42374">
        <ele>871.315</ele>
        <time>2013-05-25T09:28:14Z</time>
      </trkpt>
      <trkpt lat="43.83941" lon="6.42371">
        <ele>876.818</ele>
        <time>2013-05-25T09:28:20Z</time>
      </trkpt>
      <trkpt lat="43.83926" lon="6.42373">
        <ele>879.435</ele>
        <time>2013-05-25T09:28:27Z</time>
      </trkpt>
      <trkpt lat="43.83915" lon="6.42366">
        <ele>880.996</ele>
        <time>2013-05-25T09:28:33Z</time>
      </trkpt>
      <trkpt lat="43.83904" lon="6.42345">
        <ele>879.015</ele>
        <time>2013-05-25T09:28:43Z</time>
      </trkpt>
      <trkpt lat="43.83898" lon="6.42335">
        <ele>876.263</ele>
        <time>2013-05-25T09:28:49Z</time>
      </trkpt>
      <trkpt lat="43.83887" lon="6.4232">
        <ele>870.305</ele>
        <time>2013-05-25T09:28:59Z</time>
      </trkpt>
      <trkpt lat="43.83876" lon="6.42309">
        <ele>868.447</ele>
        <time>2013-05-25T09:29:08Z</time>
      </trkpt>
      <trkpt lat="43.83865" lon="6.42303">
        <ele>870.565</ele>
        <time>2013-05-25T09:29:16Z</time>
      </trkpt>
      <trkpt lat="43.83854" lon="6.423">
        <ele>873.448</ele>
        <time>2013-05-25T09:29:24Z</time>
      </trkpt>
      <trkpt lat="43.83844" lon="6.42299">
        <ele>880.082</ele>
        <time>2013-05-25T09:29:32Z</time>
      </trkpt>
      <trkpt lat="43.83833" lon="6.42302">
        <ele>881.609</ele>
        <time>2013-05-25T09:29:39Z</time>
      </trkpt>
      <trkpt lat="43.83823" lon="6.42306">
        <ele>883.53</ele>
        <time>2013-05-25T09:29:46Z</time>
      </trkpt>
      <trkpt lat="43.83814" lon="6.42306">
        <ele>884.253</ele>
        <time>2013-05-25T09:29:52Z</time>
      </trkpt>
      <trkpt lat="43.83805" lon="6.42306">
        <ele>886.265</ele>
        <time>2013-05-25T09:30:00Z</time>
      </trkpt>
      <trkpt lat="43.83802" lon="6.423">
        <ele>888.24</ele>
        <time>2013-05-25T09:30:05Z</time>
      </trkpt>
      <trkpt lat="43.83809" lon="6.42293">
        <ele>888.835</ele>
        <time>2013-05-25T09:30:12Z</time>
      </trkpt>
      <trkpt lat="43.83813" lon="6.4229">
        <ele>887.981</ele>
        <time>2013-05-25T09:30:16Z</time>
      </trkpt>
      <trkpt lat="43.83816" lon="6.42282">
        <ele>889.09</ele>
        <time>2013-05-25T09:30:21Z</time>
      </trkpt>
      <trkpt lat="43.83808" lon="6.42275">
        <ele>890.449</ele>
        <time>2013-05-25T09:30:29Z</time>
      </trkpt>
      <trkpt lat="43.83797" lon="6.42267">
        <ele>890.257</ele>
        <time>2013-05-25T09:30:37Z</time>
      </trkpt>
      <trkpt lat="43.83786" lon="6.4226">
        <ele>890.857</ele>
        <time>2013-05-25T09:30:45Z</time>
      </trkpt>
      <trkpt lat="43.83771" lon="6.42251">
        <ele>892.944</ele>
        <time>2013-05-25T09:30:56Z</time>
      </trkpt>
      <trkpt lat="43.8376" lon="6.42242">
        <ele>892.401</ele>
        <time>2013-05-25T09:31:03Z</time>
      </trkpt>
      <trkpt lat="43.83749" lon="6.42228">
        <ele>893.471</ele>
        <time>2013-05-25T09:31:11Z</time>
      </trkpt>
      <trkpt lat="43.83741" lon="6.42213">
        <ele>895.809</ele>
        <time>2013-05-25T09:31:17Z</time>
      </trkpt>
      <trkpt lat="43.8373" lon="6.42207">
        <ele>895.757</ele>
        <time>2013-05-25T09:31:22Z</time>
      </trkpt>
      <trkpt lat="43.83712" lon="6.42221">
        <ele>896.796</ele>
        <time>2013-05-25T09:31:27Z</time>
      </trkpt>
      <trkpt lat="43.83709" lon="6.42228">
        <ele>896.801</ele>
        <time>2013-05-25T09:31:28Z</time>
      </trkpt>
      <trkpt lat="43.83688" lon="6.4227">
        <ele>894.239</ele>
        <time>2013-05-25T09:31:34Z</time>
      </trkpt>
      <trkpt lat="43.83687" lon="6.42275">
        <ele>895.039</ele>
        <time>2013-05-25T09:31:37Z</time>
      </trkpt>
      <trkpt lat="43.83687" lon="6.42266">
        <ele>895.229</ele>
        <time>2013-05-25T09:35:02Z</time>
      </trkpt>
      <trkpt lat="43.8369" lon="6.42265">
        <ele>892.853</ele>
        <time>2013-05-25T09:35:09Z</time>
      </trkpt>
      <trkpt lat="43.8369" lon="6.42265">
        <ele>890.521</ele>
        <time>2013-05-25T09:35:20Z</time>
      </trkpt>
      <trkpt lat="43.83689" lon="6.42261">
        <ele>886.6</ele>
        <time>2013-05-25T09:40:21Z</time>
      </trkpt>
      <trkpt lat="43.83688" lon="6.42257">
        <ele>887.977</ele>
        <time>2013-05-25T09:40:26Z</time>
      </trkpt>
      <trkpt lat="43.83693" lon="6.42246">
        <ele>884.692</ele>
        <time>2013-05-25T09:40:31Z</time>
      </trkpt>
      <trkpt lat="43.83701" lon="6.42234">
        <ele>881.822</ele>
        <time>2013-05-25T09:40:35Z</time>
      </trkpt>
      <trkpt lat="43.83707" lon="6.42219">
        <ele>880.835</ele>
        <time>2013-05-25T09:40:40Z</time>
      </trkpt>
      <trkpt lat="43.83698" lon="6.42212">
        <ele>882.424</ele>
        <time>2013-05-25T09:40:46Z</time>
      </trkpt>
      <trkpt lat="43.83687" lon="6.42201">
        <ele>881.715</ele>
        <time>2013-05-25T09:40:51Z</time>
      </trkpt>
      <trkpt lat="43.83678" lon="6.42185">
        <ele>885.376</ele>
        <time>2013-05-25T09:40:57Z</time>
      </trkpt>
      <trkpt lat="43.83668" lon="6.42168">
        <ele>888.149</ele>
        <time>2013-05-25T09:41:04Z</time>
      </trkpt>
      <trkpt lat="43.83664" lon="6.42151">
        <ele>895.061</ele>
        <time>2013-05-25T09:41:11Z</time>
      </trkpt>
      <trkpt lat="43.83661" lon="6.42142">
        <ele>896.137</ele>
        <time>2013-05-25T09:41:15Z</time>
      </trkpt>
      <trkpt lat="43.8366" lon="6.42135">
        <ele>895.968</ele>
        <time>2013-05-25T09:41:18Z</time>
      </trkpt>
      <trkpt lat="43.83663" lon="6.42116">
        <ele>899.385</ele>
        <time>2013-05-25T09:41:26Z</time>
      </trkpt>
      <trkpt lat="43.83666" lon="6.42101">
        <ele>903.43</ele>
        <time>2013-05-25T09:41:34Z</time>
      </trkpt>
      <trkpt lat="43.83667" lon="6.4209">
        <ele>906.33</ele>
        <time>2013-05-25T09:41:40Z</time>
      </trkpt>
      <trkpt lat="43.83668" lon="6.42076">
        <ele>907.86</ele>
        <time>2013-05-25T09:41:48Z</time>
      </trkpt>
      <trkpt lat="43.83671" lon="6.42058">
        <ele>907.612</ele>
        <time>2013-05-25T09:41:57Z</time>
      </trkpt>
      <trkpt lat="43.83671" lon="6.4204">
        <ele>906.294</ele>
        <time>2013-05-25T09:42:03Z</time>
      </trkpt>
      <trkpt lat="43.8366" lon="6.42027">
        <ele>908.016</ele>
        <time>2013-05-25T09:42:09Z</time>
      </trkpt>
      <trkpt lat="43.83642" lon="6.42017">
        <ele>909.656</ele>
        <time>2013-05-25T09:42:18Z</time>
      </trkpt>
      <trkpt lat="43.83631" lon="6.42015">
        <ele>911.74</ele>
        <time>2013-05-25T09:42:24Z</time>
      </trkpt>
      <trkpt lat="43.83615" lon="6.42012">
        <ele>914.013</ele>
        <time>2013-05-25T09:42:33Z</time>
      </trkpt>
      <trkpt lat="43.83602" lon="6.4201">
        <ele>915.863</ele>
        <time>2013-05-25T09:42:40Z</time>
      </trkpt>
      <trkpt lat="43.83583" lon="6.42008">
        <ele>917.127</ele>
        <time>2013-05-25T09:42:50Z</time>
      </trkpt>
      <trkpt lat="43.83567" lon="6.42002">
        <ele>918.841</ele>
        <time>2013-05-25T09:42:59Z</time>
      </trkpt>
      <trkpt lat="43.83554" lon="6.41988">
        <ele>916.147</ele>
        <time>2013-05-25T09:43:08Z</time>
      </trkpt>
      <trkpt lat="43.83545" lon="6.41969">
        <ele>915.745</ele>
        <time>2013-05-25T09:43:16Z</time>
      </trkpt>
      <trkpt lat="43.83542" lon="6.41949">
        <ele>916.119</ele>
        <time>2013-05-25T09:43:24Z</time>
      </trkpt>
      <trkpt lat="43.83542" lon="6.41927">
        <ele>916.791</ele>
        <time>2013-05-25T09:43:33Z</time>
      </trkpt>
      <trkpt lat="43.83539" lon="6.41914">
        <ele>918.685</ele>
        <time>2013-05-25T09:43:39Z</time>
      </trkpt>
      <trkpt lat="43.83535" lon="6.41903">
        <ele>924.871</ele>
        <time>2013-05-25T09:43:45Z</time>
      </trkpt>
      <trkpt lat="43.83524" lon="6.41888">
        <ele>927.727</ele>
        <time>2013-05-25T09:43:53Z</time>
      </trkpt>
      <trkpt lat="43.83513" lon="6.41873">
        <ele>932.141</ele>
        <time>2013-05-25T09:44:01Z</time>
      </trkpt>
      <trkpt lat="43.83501" lon="6.41857">
        <ele>935.097</ele>
        <time>2013-05-25T09:44:08Z</time>
      </trkpt>
      <trkpt lat="43.83487" lon="6.41837">
        <ele>939.796</ele>
        <time>2013-05-25T09:44:17Z</time>
      </trkpt>
      <trkpt lat="43.83478" lon="6.41823">
        <ele>945.362</ele>
        <time>2013-05-25T09:44:24Z</time>
      </trkpt>
      <trkpt lat="43.83472" lon="6.41809">
        <ele>945.68</ele>
        <time>2013-05-25T09:44:31Z</time>
      </trkpt>
      <trkpt lat="43.83469" lon="6.41793">
        <ele>941.511</ele>
        <time>2013-05-25T09:44:38Z</time>
      </trkpt>
      <trkpt lat="43.83465" lon="6.41781">
        <ele>943.317</ele>
        <time>2013-05-25T09:44:44Z</time>
      </trkpt>
      <trkpt lat="43.83459" lon="6.41765">
        <ele>946.701</ele>
        <time>2013-05-25T09:44:52Z</time>
      </trkpt>
      <trkpt lat="43.83453" lon="6.41749">
        <ele>949.416</ele>
        <time>2013-05-25T09:45:00Z</time>
      </trkpt>
      <trkpt lat="43.83448" lon="6.41736">
        <ele>951.201</ele>
        <time>2013-05-25T09:45:07Z</time>
      </trkpt>
      <trkpt lat="43.83441" lon="6.41722">
        <ele>948.798</ele>
        <time>2013-05-25T09:45:15Z</time>
      </trkpt>
      <trkpt lat="43.83439" lon="6.41719">
        <ele>949.632</ele>
        <time>2013-05-25T09:45:17Z</time>
      </trkpt>
      <trkpt lat="43.83426" lon="6.41711">
        <ele>949.242</ele>
        <time>2013-05-25T09:45:27Z</time>
      </trkpt>
      <trkpt lat="43.83419" lon="6.41705">
        <ele>948.942</ele>
        <time>2013-05-25T09:45:34Z</time>
      </trkpt>
      <trkpt lat="43.83414" lon="6.41693">
        <ele>948.749</ele>
        <time>2013-05-25T09:45:41Z</time>
      </trkpt>
      <trkpt lat="43.83409" lon="6.41678">
        <ele>949.124</ele>
        <time>2013-05-25T09:45:49Z</time>
      </trkpt>
      <trkpt lat="43.83402" lon="6.41667">
        <ele>952.377</ele>
        <time>2013-05-25T09:45:57Z</time>
      </trkpt>
      <trkpt lat="43.83398" lon="6.41655">
        <ele>952.741</ele>
        <time>2013-05-25T09:46:04Z</time>
      </trkpt>
      <trkpt lat="43.83394" lon="6.41645">
        <ele>955.808</ele>
        <time>2013-05-25T09:46:11Z</time>
      </trkpt>
      <trkpt lat="43.83387" lon="6.41632">
        <ele>958.698</ele>
        <time>2013-05-25T09:46:19Z</time>
      </trkpt>
      <trkpt lat="43.8338" lon="6.41618">
        <ele>958.099</ele>
        <time>2013-05-25T09:46:27Z</time>
      </trkpt>
      <trkpt lat="43.83373" lon="6.41604">
        <ele>958.452</ele>
        <time>2013-05-25T09:46:34Z</time>
      </trkpt>
      <trkpt lat="43.83364" lon="6.41589">
        <ele>962.471</ele>
        <time>2013-05-25T09:46:43Z</time>
      </trkpt>
      <trkpt lat="43.83358" lon="6.41576">
        <ele>963.707</ele>
        <time>2013-05-25T09:46:51Z</time>
      </trkpt>
      <trkpt lat="43.83357" lon="6.41559">
        <ele>960.927</ele>
        <time>2013-05-25T09:46:59Z</time>
      </trkpt>
      <trkpt lat="43.8336" lon="6.41543">
        <ele>960.884</ele>
        <time>2013-05-25T09:47:07Z</time>
      </trkpt>
      <trkpt lat="43.8336" lon="6.41529">
        <ele>959.331</ele>
        <time>2013-05-25T09:47:14Z</time>
      </trkpt>
      <trkpt lat="43.83359" lon="6.4152">
        <ele>959.787</ele>
        <time>2013-05-25T09:47:20Z</time>
      </trkpt>
      <trkpt lat="43.83357" lon="6.41511">
        <ele>964.373</ele>
        <time>2013-05-25T09:47:25Z</time>
      </trkpt>
      <trkpt lat="43.83356" lon="6.41495">
        <ele>967.822</ele>
        <time>2013-05-25T09:47:34Z</time>
      </trkpt>
      <trkpt lat="43.83356" lon="6.41484">
        <ele>968.308</ele>
        <time>2013-05-25T09:47:40Z</time>
      </trkpt>
      <trkpt lat="43.83356" lon="6.41468">
        <ele>968.047</ele>
        <time>2013-05-25T09:47:47Z</time>
      </trkpt>
      <trkpt lat="43.83357" lon="6.41458">
        <ele>968.606</ele>
        <time>2013-05-25T09:47:52Z</time>
      </trkpt>
      <trkpt lat="43.83357" lon="6.41446">
        <ele>970.521</ele>
        <time>2013-05-25T09:47:59Z</time>
      </trkpt>
      <trkpt lat="43.83353" lon="6.41434">
        <ele>975.959</ele>
        <time>2013-05-25T09:48:07Z</time>
      </trkpt>
      <trkpt lat="43.8335" lon="6.41417">
        <ele>978.349</ele>
        <time>2013-05-25T09:48:16Z</time>
      </trkpt>
      <trkpt lat="43.83348" lon="6.41403">
        <ele>982.531</ele>
        <time>2013-05-25T09:48:24Z</time>
      </trkpt>
      <trkpt lat="43.83347" lon="6.41386">
        <ele>983.283</ele>
        <time>2013-05-25T09:48:32Z</time>
      </trkpt>
      <trkpt lat="43.83342" lon="6.41368">
        <ele>984.392</ele>
        <time>2013-05-25T09:48:39Z</time>
      </trkpt>
      <trkpt lat="43.83332" lon="6.41341">
        <ele>983.964</ele>
        <time>2013-05-25T09:48:46Z</time>
      </trkpt>
      <trkpt lat="43.83326" lon="6.41319">
        <ele>984.554</ele>
        <time>2013-05-25T09:48:53Z</time>
      </trkpt>
      <trkpt lat="43.8332" lon="6.41298">
        <ele>982.467</ele>
        <time>2013-05-25T09:49:01Z</time>
      </trkpt>
      <trkpt lat="43.83313" lon="6.41279">
        <ele>981.648</ele>
        <time>2013-05-25T09:49:08Z</time>
      </trkpt>
      <trkpt lat="43.83312" lon="6.41257">
        <ele>979.055</ele>
        <time>2013-05-25T09:49:12Z</time>
      </trkpt>
      <trkpt lat="43.83313" lon="6.41228">
        <ele>973.971</ele>
        <time>2013-05-25T09:49:17Z</time>
      </trkpt>
      <trkpt lat="43.83322" lon="6.41202">
        <ele>975.718</ele>
        <time>2013-05-25T09:49:24Z</time>
      </trkpt>
      <trkpt lat="43.83332" lon="6.41183">
        <ele>979.12</ele>
        <time>2013-05-25T09:49:32Z</time>
      </trkpt>
      <trkpt lat="43.83333" lon="6.41168">
        <ele>982.543</ele>
        <time>2013-05-25T09:49:39Z</time>
      </trkpt>
      <trkpt lat="43.83335" lon="6.41154">
        <ele>987.251</ele>
        <time>2013-05-25T09:49:46Z</time>
      </trkpt>
      <trkpt lat="43.83335" lon="6.41142">
        <ele>989.608</ele>
        <time>2013-05-25T09:49:51Z</time>
      </trkpt>
      <trkpt lat="43.83335" lon="6.41132">
        <ele>989.591</ele>
        <time>2013-05-25T09:49:55Z</time>
      </trkpt>
      <trkpt lat="43.83333" lon="6.41109">
        <ele>988.865</ele>
        <time>2013-05-25T09:50:03Z</time>
      </trkpt>
      <trkpt lat="43.83327" lon="6.41093">
        <ele>992.985</ele>
        <time>2013-05-25T09:50:10Z</time>
      </trkpt>
      <trkpt lat="43.83318" lon="6.41082">
        <ele>995.975</ele>
        <time>2013-05-25T09:50:17Z</time>
      </trkpt>
      <trkpt lat="43.83302" lon="6.41068">
        <ele>995.845</ele>
        <time>2013-05-25T09:50:26Z</time>
      </trkpt>
      <trkpt lat="43.83287" lon="6.41051">
        <ele>997.196</ele>
        <time>2013-05-25T09:50:34Z</time>
      </trkpt>
      <trkpt lat="43.8327" lon="6.41032">
        <ele>996.238</ele>
        <time>2013-05-25T09:50:43Z</time>
      </trkpt>
      <trkpt lat="43.83258" lon="6.41021">
        <ele>994.943</ele>
        <time>2013-05-25T09:50:50Z</time>
      </trkpt>
      <trkpt lat="43.83256" lon="6.4102">
        <ele>994.715</ele>
        <time>2013-05-25T09:50:51Z</time>
      </trkpt>
      <trkpt lat="43.83243" lon="6.41006">
        <ele>995.295</ele>
        <time>2013-05-25T09:50:58Z</time>
      </trkpt>
      <trkpt lat="43.83231" lon="6.40996">
        <ele>993.741</ele>
        <time>2013-05-25T09:51:05Z</time>
      </trkpt>
      <trkpt lat="43.83217" lon="6.40985">
        <ele>993.638</ele>
        <time>2013-05-25T09:51:14Z</time>
      </trkpt>
      <trkpt lat="43.83205" lon="6.40971">
        <ele>994.277</ele>
        <time>2013-05-25T09:51:23Z</time>
      </trkpt>
      <trkpt lat="43.83199" lon="6.40964">
        <ele>994.812</ele>
        <time>2013-05-25T09:51:28Z</time>
      </trkpt>
      <trkpt lat="43.83195" lon="6.40955">
        <ele>995.234</ele>
        <time>2013-05-25T09:51:33Z</time>
      </trkpt>
      <trkpt lat="43.83188" lon="6.40942">
        <ele>997.252</ele>
        <time>2013-05-25T09:51:40Z</time>
      </trkpt>
      <trkpt lat="43.83185" lon="6.40929">
        <ele>997.384</ele>
        <time>2013-05-25T09:51:46Z</time>
      </trkpt>
      <trkpt lat="43.83183" lon="6.40912">
        <ele>995.907</ele>
        <time>2013-05-25T09:51:53Z</time>
      </trkpt>
      <trkpt lat="43.8318" lon="6.40897">
        <ele>996.262</ele>
        <time>2013-05-25T09:52:01Z</time>
      </trkpt>
      <trkpt lat="43.83178" lon="6.40879">
        <ele>995.222</ele>
        <time>2013-05-25T09:52:10Z</time>
      </trkpt>
      <trkpt lat="43.83177" lon="6.4086">
        <ele>997.492</ele>
        <time>2013-05-25T09:52:20Z</time>
      </trkpt>
      <trkpt lat="43.83178" lon="6.40848">
        <ele>1001.712</ele>
        <time>2013-05-25T09:52:27Z</time>
      </trkpt>
      <trkpt lat="43.83177" lon="6.40836">
        <ele>1006.102</ele>
        <time>2013-05-25T09:52:35Z</time>
      </trkpt>
      <trkpt lat="43.83178" lon="6.40813">
        <ele>1002.959</ele>
        <time>2013-05-25T09:52:45Z</time>
      </trkpt>
      <trkpt lat="43.83179" lon="6.40794">
        <ele>1002.162</ele>
        <time>2013-05-25T09:52:54Z</time>
      </trkpt>
      <trkpt lat="43.83181" lon="6.40778">
        <ele>1007.53</ele>
        <time>2013-05-25T09:53:03Z</time>
      </trkpt>
      <trkpt lat="43.83181" lon="6.40764">
        <ele>1010.081</ele>
        <time>2013-05-25T09:53:10Z</time>
      </trkpt>
      <trkpt lat="43.83183" lon="6.40747">
        <ele>1011.303</ele>
        <time>2013-05-25T09:53:19Z</time>
      </trkpt>
      <trkpt lat="43.83182" lon="6.40734">
        <ele>1012.419</ele>
        <time>2013-05-25T09:53:27Z</time>
      </trkpt>
      <trkpt lat="43.83181" lon="6.4072">
        <ele>1011.141</ele>
        <time>2013-05-25T09:53:34Z</time>
      </trkpt>
      <trkpt lat="43.83178" lon="6.40709">
        <ele>1016.293</ele>
        <time>2013-05-25T09:53:41Z</time>
      </trkpt>
      <trkpt lat="43.83173" lon="6.40698">
        <ele>1021.434</ele>
        <time>2013-05-25T09:53:48Z</time>
      </trkpt>
      <trkpt lat="43.83166" lon="6.4069">
        <ele>1023.549</ele>
        <time>2013-05-25T09:53:55Z</time>
      </trkpt>
      <trkpt lat="43.83159" lon="6.40678">
        <ele>1024.634</ele>
        <time>2013-05-25T09:54:03Z</time>
      </trkpt>
      <trkpt lat="43.83157" lon="6.40672">
        <ele>1025.222</ele>
        <time>2013-05-25T09:54:06Z</time>
      </trkpt>
      <trkpt lat="43.8315" lon="6.40655">
        <ele>1025.619</ele>
        <time>2013-05-25T09:54:14Z</time>
      </trkpt>
      <trkpt lat="43.83145" lon="6.40643">
        <ele>1025.769</ele>
        <time>2013-05-25T09:54:22Z</time>
      </trkpt>
      <trkpt lat="43.83138" lon="6.4063">
        <ele>1029.42</ele>
        <time>2013-05-25T09:54:31Z</time>
      </trkpt>
      <trkpt lat="43.83133" lon="6.40618">
        <ele>1030.62</ele>
        <time>2013-05-25T09:54:39Z</time>
      </trkpt>
      <trkpt lat="43.83122" lon="6.40606">
        <ele>1030.795</ele>
        <time>2013-05-25T09:54:49Z</time>
      </trkpt>
      <trkpt lat="43.83115" lon="6.40602">
        <ele>1032.141</ele>
        <time>2013-05-25T09:54:56Z</time>
      </trkpt>
      <trkpt lat="43.83107" lon="6.40598">
        <ele>1032.443</ele>
        <time>2013-05-25T09:55:03Z</time>
      </trkpt>
      <trkpt lat="43.83097" lon="6.40599">
        <ele>1034.633</ele>
        <time>2013-05-25T09:55:10Z</time>
      </trkpt>
      <trkpt lat="43.83085" lon="6.40602">
        <ele>1038.044</ele>
        <time>2013-05-25T09:55:19Z</time>
      </trkpt>
      <trkpt lat="43.83078" lon="6.40601">
        <ele>1041.912</ele>
        <time>2013-05-25T09:55:26Z</time>
      </trkpt>
      <trkpt lat="43.83068" lon="6.40603">
        <ele>1044.599</ele>
        <time>2013-05-25T09:55:34Z</time>
      </trkpt>
      <trkpt lat="43.8306" lon="6.40606">
        <ele>1046.145</ele>
        <time>2013-05-25T09:55:41Z</time>
      </trkpt>
      <trkpt lat="43.8305" lon="6.40607">
        <ele>1048.275</ele>
        <time>2013-05-25T09:55:49Z</time>
      </trkpt>
      <trkpt lat="43.83041" lon="6.40611">
        <ele>1048.912</ele>
        <time>2013-05-25T09:55:56Z</time>
      </trkpt>
      <trkpt lat="43.83029" lon="6.40616">
        <ele>1046.854</ele>
        <time>2013-05-25T09:56:04Z</time>
      </trkpt>
      <trkpt lat="43.83018" lon="6.40624">
        <ele>1047.146</ele>
        <time>2013-05-25T09:56:13Z</time>
      </trkpt>
      <trkpt lat="43.83009" lon="6.40632">
        <ele>1046.386</ele>
        <time>2013-05-25T09:56:21Z</time>
      </trkpt>
      <trkpt lat="43.83" lon="6.40641">
        <ele>1047.746</ele>
        <time>2013-05-25T09:56:29Z</time>
      </trkpt>
      <trkpt lat="43.82992" lon="6.40648">
        <ele>1046.664</ele>
        <time>2013-05-25T09:56:36Z</time>
      </trkpt>
      <trkpt lat="43.82983" lon="6.40657">
        <ele>1046.303</ele>
        <time>2013-05-25T09:56:44Z</time>
      </trkpt>
      <trkpt lat="43.82978" lon="6.40663">
        <ele>1046.502</ele>
        <time>2013-05-25T09:56:50Z</time>
      </trkpt>
      <trkpt lat="43.82969" lon="6.40674">
        <ele>1048.12</ele>
        <time>2013-05-25T09:56:58Z</time>
      </trkpt>
      <trkpt lat="43.8296" lon="6.40683">
        <ele>1045.887</ele>
        <time>2013-05-25T09:57:05Z</time>
      </trkpt>
      <trkpt lat="43.82952" lon="6.4069">
        <ele>1045.31</ele>
        <time>2013-05-25T09:57:10Z</time>
      </trkpt>
      <trkpt lat="43.8294" lon="6.407">
        <ele>1044.747</ele>
        <time>2013-05-25T09:57:19Z</time>
      </trkpt>
      <trkpt lat="43.82928" lon="6.40712">
        <ele>1046.541</ele>
        <time>2013-05-25T09:57:28Z</time>
      </trkpt>
      <trkpt lat="43.82919" lon="6.40723">
        <ele>1049.499</ele>
        <time>2013-05-25T09:57:35Z</time>
      </trkpt>
      <trkpt lat="43.82911" lon="6.40732">
        <ele>1053.101</ele>
        <time>2013-05-25T09:57:42Z</time>
      </trkpt>
      <trkpt lat="43.82903" lon="6.40736">
        <ele>1053.646</ele>
        <time>2013-05-25T09:57:49Z</time>
      </trkpt>
      <trkpt lat="43.82893" lon="6.4074">
        <ele>1054.783</ele>
        <time>2013-05-25T09:57:57Z</time>
      </trkpt>
      <trkpt lat="43.82883" lon="6.40742">
        <ele>1056.291</ele>
        <time>2013-05-25T09:58:05Z</time>
      </trkpt>
      <trkpt lat="43.82871" lon="6.40745">
        <ele>1058.705</ele>
        <time>2013-05-25T09:58:13Z</time>
      </trkpt>
      <trkpt lat="43.8286" lon="6.40748">
        <ele>1060.631</ele>
        <time>2013-05-25T09:58:21Z</time>
      </trkpt>
      <trkpt lat="43.82849" lon="6.40751">
        <ele>1061.63</ele>
        <time>2013-05-25T09:58:29Z</time>
      </trkpt>
      <trkpt lat="43.82839" lon="6.40748">
        <ele>1064.653</ele>
        <time>2013-05-25T09:58:36Z</time>
      </trkpt>
      <trkpt lat="43.82837" lon="6.40746">
        <ele>1064.731</ele>
        <time>2013-05-25T09:58:38Z</time>
      </trkpt>
      <trkpt lat="43.82834" lon="6.40742">
        <ele>1063.664</ele>
        <time>2013-05-25T09:58:42Z</time>
      </trkpt>
      <trkpt lat="43.82825" lon="6.40728">
        <ele>1064.745</ele>
        <time>2013-05-25T09:58:52Z</time>
      </trkpt>
      <trkpt lat="43.8282" lon="6.40721">
        <ele>1067.19</ele>
        <time>2013-05-25T09:58:57Z</time>
      </trkpt>
      <trkpt lat="43.82815" lon="6.40717">
        <ele>1068.728</ele>
        <time>2013-05-25T09:59:01Z</time>
      </trkpt>
      <trkpt lat="43.82812" lon="6.40714">
        <ele>1069.82</ele>
        <time>2013-05-25T09:59:04Z</time>
      </trkpt>
      <trkpt lat="43.82804" lon="6.40703">
        <ele>1071.79</ele>
        <time>2013-05-25T09:59:13Z</time>
      </trkpt>
      <trkpt lat="43.82792" lon="6.40699">
        <ele>1074.784</ele>
        <time>2013-05-25T09:59:21Z</time>
      </trkpt>
      <trkpt lat="43.82782" lon="6.407">
        <ele>1071.986</ele>
        <time>2013-05-25T09:59:29Z</time>
      </trkpt>
      <trkpt lat="43.82774" lon="6.40701">
        <ele>1071.09</ele>
        <time>2013-05-25T09:59:36Z</time>
      </trkpt>
      <trkpt lat="43.82764" lon="6.40703">
        <ele>1071.663</ele>
        <time>2013-05-25T09:59:43Z</time>
      </trkpt>
      <trkpt lat="43.82754" lon="6.40704">
        <ele>1073.621</ele>
        <time>2013-05-25T09:59:50Z</time>
      </trkpt>
      <trkpt lat="43.82743" lon="6.407">
        <ele>1076.107</ele>
        <time>2013-05-25T09:59:59Z</time>
      </trkpt>
      <trkpt lat="43.82738" lon="6.40691">
        <ele>1076.172</ele>
        <time>2013-05-25T10:00:06Z</time>
      </trkpt>
      <trkpt lat="43.82737" lon="6.40683">
        <ele>1076.85</ele>
        <time>2013-05-25T10:00:10Z</time>
      </trkpt>
      <trkpt lat="43.82729" lon="6.40668">
        <ele>1078.332</ele>
        <time>2013-05-25T10:00:20Z</time>
      </trkpt>
      <trkpt lat="43.82726" lon="6.40655">
        <ele>1079.885</ele>
        <time>2013-05-25T10:00:28Z</time>
      </trkpt>
      <trkpt lat="43.82731" lon="6.40648">
        <ele>1082.586</ele>
        <time>2013-05-25T10:00:34Z</time>
      </trkpt>
      <trkpt lat="43.82739" lon="6.4065">
        <ele>1084.541</ele>
        <time>2013-05-25T10:00:40Z</time>
      </trkpt>
      <trkpt lat="43.82743" lon="6.40651">
        <ele>1086.638</ele>
        <time>2013-05-25T10:00:46Z</time>
      </trkpt>
      <trkpt lat="43.82753" lon="6.40645">
        <ele>1085.278</ele>
        <time>2013-05-25T10:01:37Z</time>
      </trkpt>
      <trkpt lat="43.82761" lon="6.4064">
        <ele>1088.307</ele>
        <time>2013-05-25T10:01:42Z</time>
      </trkpt>
      <trkpt lat="43.82765" lon="6.40636">
        <ele>1091.079</ele>
        <time>2013-05-25T10:01:46Z</time>
      </trkpt>
      <trkpt lat="43.82763" lon="6.40626">
        <ele>1092.147</ele>
        <time>2013-05-25T10:01:52Z</time>
      </trkpt>
      <trkpt lat="43.82762" lon="6.40625">
        <ele>1092.376</ele>
        <time>2013-05-25T10:01:53Z</time>
      </trkpt>
      <trkpt lat="43.82755" lon="6.40624">
        <ele>1095.267</ele>
        <time>2013-05-25T10:02:00Z</time>
      </trkpt>
      <trkpt lat="43.82743" lon="6.40619">
        <ele>1098.37</ele>
        <time>2013-05-25T10:02:09Z</time>
      </trkpt>
      <trkpt lat="43.82736" lon="6.40614">
        <ele>1100.293</ele>
        <time>2013-05-25T10:02:16Z</time>
      </trkpt>
      <trkpt lat="43.82728" lon="6.40609">
        <ele>1101.547</ele>
        <time>2013-05-25T10:02:22Z</time>
      </trkpt>
      <trkpt lat="43.82719" lon="6.40603">
        <ele>1101.837</ele>
        <time>2013-05-25T10:02:29Z</time>
      </trkpt>
      <trkpt lat="43.82707" lon="6.40598">
        <ele>1104.222</ele>
        <time>2013-05-25T10:02:38Z</time>
      </trkpt>
      <trkpt lat="43.82698" lon="6.40595">
        <ele>1102.481</ele>
        <time>2013-05-25T10:02:45Z</time>
      </trkpt>
      <trkpt lat="43.8269" lon="6.40595">
        <ele>1098.203</ele>
        <time>2013-05-25T10:02:52Z</time>
      </trkpt>
      <trkpt lat="43.82679" lon="6.40598">
        <ele>1099.299</ele>
        <time>2013-05-25T10:03:00Z</time>
      </trkpt>
      <trkpt lat="43.82666" lon="6.40599">
        <ele>1099.463</ele>
        <time>2013-05-25T10:03:09Z</time>
      </trkpt>
      <trkpt lat="43.82656" lon="6.40597">
        <ele>1100.971</ele>
        <time>2013-05-25T10:03:15Z</time>
      </trkpt>
      <trkpt lat="43.82644" lon="6.40592">
        <ele>1104.949</ele>
        <time>2013-05-25T10:03:23Z</time>
      </trkpt>
      <trkpt lat="43.82636" lon="6.40586">
        <ele>1107.985</ele>
        <time>2013-05-25T10:03:30Z</time>
      </trkpt>
      <trkpt lat="43.82632" lon="6.40582">
        <ele>1110.061</ele>
        <time>2013-05-25T10:03:33Z</time>
      </trkpt>
      <trkpt lat="43.82625" lon="6.40573">
        <ele>1110.995</ele>
        <time>2013-05-25T10:03:40Z</time>
      </trkpt>
      <trkpt lat="43.82623" lon="6.40571">
        <ele>1112.577</ele>
        <time>2013-05-25T10:03:42Z</time>
      </trkpt>
      <trkpt lat="43.82614" lon="6.40564">
        <ele>1114.578</ele>
        <time>2013-05-25T10:03:50Z</time>
      </trkpt>
      <trkpt lat="43.82604" lon="6.4056">
        <ele>1114.996</ele>
        <time>2013-05-25T10:03:57Z</time>
      </trkpt>
      <trkpt lat="43.8259" lon="6.40555">
        <ele>1114.277</ele>
        <time>2013-05-25T10:04:07Z</time>
      </trkpt>
      <trkpt lat="43.82578" lon="6.40548">
        <ele>1115.598</ele>
        <time>2013-05-25T10:04:15Z</time>
      </trkpt>
      <trkpt lat="43.82569" lon="6.40544">
        <ele>1118.065</ele>
        <time>2013-05-25T10:04:22Z</time>
      </trkpt>
      <trkpt lat="43.82561" lon="6.40541">
        <ele>1120.355</ele>
        <time>2013-05-25T10:04:28Z</time>
      </trkpt>
      <trkpt lat="43.82551" lon="6.40538">
        <ele>1121.101</ele>
        <time>2013-05-25T10:04:35Z</time>
      </trkpt>
      <trkpt lat="43.82535" lon="6.4053">
        <ele>1123.424</ele>
        <time>2013-05-25T10:04:45Z</time>
      </trkpt>
      <trkpt lat="43.82524" lon="6.40521">
        <ele>1125.283</ele>
        <time>2013-05-25T10:04:54Z</time>
      </trkpt>
      <trkpt lat="43.82518" lon="6.4051">
        <ele>1125.548</ele>
        <time>2013-05-25T10:05:01Z</time>
      </trkpt>
      <trkpt lat="43.82516" lon="6.40499">
        <ele>1125.623</ele>
        <time>2013-05-25T10:05:07Z</time>
      </trkpt>
      <trkpt lat="43.82512" lon="6.40482">
        <ele>1122.063</ele>
        <time>2013-05-25T10:05:15Z</time>
      </trkpt>
      <trkpt lat="43.82501" lon="6.4048">
        <ele>1123.871</ele>
        <time>2013-05-25T10:05:23Z</time>
      </trkpt>
      <trkpt lat="43.82493" lon="6.4048">
        <ele>1126.549</ele>
        <time>2013-05-25T10:05:29Z</time>
      </trkpt>
      <trkpt lat="43.82483" lon="6.40474">
        <ele>1131.617</ele>
        <time>2013-05-25T10:05:37Z</time>
      </trkpt>
      <trkpt lat="43.82475" lon="6.40467">
        <ele>1133.968</ele>
        <time>2013-05-25T10:05:44Z</time>
      </trkpt>
      <trkpt lat="43.82465" lon="6.40459">
        <ele>1136.928</ele>
        <time>2013-05-25T10:05:52Z</time>
      </trkpt>
      <trkpt lat="43.82455" lon="6.40452">
        <ele>1139.835</ele>
        <time>2013-05-25T10:06:00Z</time>
      </trkpt>
      <trkpt lat="43.82442" lon="6.40444">
        <ele>1142.019</ele>
        <time>2013-05-25T10:06:10Z</time>
      </trkpt>
      <trkpt lat="43.82431" lon="6.40439">
        <ele>1143.319</ele>
        <time>2013-05-25T10:06:18Z</time>
      </trkpt>
      <trkpt lat="43.82422" lon="6.40433">
        <ele>1142.177</ele>
        <time>2013-05-25T10:06:25Z</time>
      </trkpt>
      <trkpt lat="43.82417" lon="6.40423">
        <ele>1135.889</ele>
        <time>2013-05-25T10:06:32Z</time>
      </trkpt>
      <trkpt lat="43.82408" lon="6.40417">
        <ele>1133.759</ele>
        <time>2013-05-25T10:06:40Z</time>
      </trkpt>
      <trkpt lat="43.82402" lon="6.40412">
        <ele>1133.247</ele>
        <time>2013-05-25T10:06:45Z</time>
      </trkpt>
      <trkpt lat="43.82395" lon="6.40408">
        <ele>1132.918</ele>
        <time>2013-05-25T10:06:50Z</time>
      </trkpt>
      <trkpt lat="43.82386" lon="6.40401">
        <ele>1134.725</ele>
        <time>2013-05-25T10:06:56Z</time>
      </trkpt>
      <trkpt lat="43.82375" lon="6.40394">
        <ele>1137.069</ele>
        <time>2013-05-25T10:07:04Z</time>
      </trkpt>
      <trkpt lat="43.82366" lon="6.40388">
        <ele>1138.115</ele>
        <time>2013-05-25T10:07:11Z</time>
      </trkpt>
      <trkpt lat="43.82353" lon="6.40379">
        <ele>1139.22</ele>
        <time>2013-05-25T10:07:20Z</time>
      </trkpt>
      <trkpt lat="43.82344" lon="6.40371">
        <ele>1139.873</ele>
        <time>2013-05-25T10:07:27Z</time>
      </trkpt>
      <trkpt lat="43.8234" lon="6.40361">
        <ele>1140.702</ele>
        <time>2013-05-25T10:07:34Z</time>
      </trkpt>
      <trkpt lat="43.82338" lon="6.40355">
        <ele>1144.071</ele>
        <time>2013-05-25T10:07:53Z</time>
      </trkpt>
      <trkpt lat="43.82335" lon="6.40348">
        <ele>1145.443</ele>
        <time>2013-05-25T10:07:58Z</time>
      </trkpt>
      <trkpt lat="43.82331" lon="6.40337">
        <ele>1148.415</ele>
        <time>2013-05-25T10:08:06Z</time>
      </trkpt>
      <trkpt lat="43.82326" lon="6.40329">
        <ele>1149.784</ele>
        <time>2013-05-25T10:08:13Z</time>
      </trkpt>
      <trkpt lat="43.82322" lon="6.40321">
        <ele>1149.603</ele>
        <time>2013-05-25T10:08:20Z</time>
      </trkpt>
      <trkpt lat="43.82318" lon="6.40309">
        <ele>1150.073</ele>
        <time>2013-05-25T10:08:29Z</time>
      </trkpt>
      <trkpt lat="43.82316" lon="6.40299">
        <ele>1151.045</ele>
        <time>2013-05-25T10:08:37Z</time>
      </trkpt>
      <trkpt lat="43.82315" lon="6.40298">
        <ele>1151.295</ele>
        <time>2013-05-25T10:08:38Z</time>
      </trkpt>
      <trkpt lat="43.82315" lon="6.40293">
        <ele>1152.477</ele>
        <time>2013-05-25T10:08:42Z</time>
      </trkpt>
      <trkpt lat="43.82312" lon="6.40282">
        <ele>1153.544</ele>
        <time>2013-05-25T10:08:51Z</time>
      </trkpt>
      <trkpt lat="43.82311" lon="6.40277">
        <ele>1153.794</ele>
        <time>2013-05-25T10:08:55Z</time>
      </trkpt>
      <trkpt lat="43.8231" lon="6.40271">
        <ele>1153.354</ele>
        <time>2013-05-25T10:08:59Z</time>
      </trkpt>
      <trkpt lat="43.82304" lon="6.40258">
        <ele>1152.403</ele>
        <time>2013-05-25T10:09:09Z</time>
      </trkpt>
      <trkpt lat="43.82303" lon="6.40253">
        <ele>1152.923</ele>
        <time>2013-05-25T10:09:14Z</time>
      </trkpt>
      <trkpt lat="43.82299" lon="6.40242">
        <ele>1153.683</ele>
        <time>2013-05-25T10:09:23Z</time>
      </trkpt>
      <trkpt lat="43.82296" lon="6.40233">
        <ele>1154.001</ele>
        <time>2013-05-25T10:09:30Z</time>
      </trkpt>
      <trkpt lat="43.82297" lon="6.4023">
        <ele>1155.061</ele>
        <time>2013-05-25T10:09:38Z</time>
      </trkpt>
      <trkpt lat="43.82301" lon="6.40231">
        <ele>1155.792</ele>
        <time>2013-05-25T10:09:42Z</time>
      </trkpt>
      <trkpt lat="43.82309" lon="6.40237">
        <ele>1158.654</ele>
        <time>2013-05-25T10:09:51Z</time>
      </trkpt>
      <trkpt lat="43.82318" lon="6.4024">
        <ele>1160.143</ele>
        <time>2013-05-25T10:09:58Z</time>
      </trkpt>
      <trkpt lat="43.82326" lon="6.40244">
        <ele>1161.922</ele>
        <time>2013-05-25T10:10:06Z</time>
      </trkpt>
      <trkpt lat="43.82334" lon="6.40249">
        <ele>1163.803</ele>
        <time>2013-05-25T10:10:14Z</time>
      </trkpt>
      <trkpt lat="43.82343" lon="6.40252">
        <ele>1163.442</ele>
        <time>2013-05-25T10:10:22Z</time>
      </trkpt>
      <trkpt lat="43.82348" lon="6.40254">
        <ele>1163.773</ele>
        <time>2013-05-25T10:10:26Z</time>
      </trkpt>
      <trkpt lat="43.82349" lon="6.40252">
        <ele>1165.334</ele>
        <time>2013-05-25T10:10:31Z</time>
      </trkpt>
      <trkpt lat="43.82348" lon="6.40247">
        <ele>1167.195</ele>
        <time>2013-05-25T10:10:36Z</time>
      </trkpt>
      <trkpt lat="43.82343" lon="6.4023">
        <ele>1169.223</ele>
        <time>2013-05-25T10:10:48Z</time>
      </trkpt>
      <trkpt lat="43.8234" lon="6.40221">
        <ele>1170.414</ele>
        <time>2013-05-25T10:10:55Z</time>
      </trkpt>
      <trkpt lat="43.82335" lon="6.40206">
        <ele>1171.434</ele>
        <time>2013-05-25T10:11:06Z</time>
      </trkpt>
      <trkpt lat="43.82332" lon="6.40196">
        <ele>1171.498</ele>
        <time>2013-05-25T10:11:14Z</time>
      </trkpt>
      <trkpt lat="43.82331" lon="6.40192">
        <ele>1171.481</ele>
        <time>2013-05-25T10:11:21Z</time>
      </trkpt>
      <trkpt lat="43.82329" lon="6.40184">
        <ele>1170.24</ele>
        <time>2013-05-25T10:11:29Z</time>
      </trkpt>
      <trkpt lat="43.82324" lon="6.40165">
        <ele>1172.004</ele>
        <time>2013-05-25T10:11:39Z</time>
      </trkpt>
      <trkpt lat="43.8232" lon="6.40145">
        <ele>1173.573</ele>
        <time>2013-05-25T10:11:49Z</time>
      </trkpt>
      <trkpt lat="43.82317" lon="6.4013">
        <ele>1175.305</ele>
        <time>2013-05-25T10:11:57Z</time>
      </trkpt>
      <trkpt lat="43.82313" lon="6.40112">
        <ele>1178.125</ele>
        <time>2013-05-25T10:12:06Z</time>
      </trkpt>
      <trkpt lat="43.82312" lon="6.401">
        <ele>1178.813</ele>
        <time>2013-05-25T10:12:13Z</time>
      </trkpt>
      <trkpt lat="43.82311" lon="6.40084">
        <ele>1180.964</ele>
        <time>2013-05-25T10:12:23Z</time>
      </trkpt>
      <trkpt lat="43.82308" lon="6.4007">
        <ele>1181.693</ele>
        <time>2013-05-25T10:12:31Z</time>
      </trkpt>
      <trkpt lat="43.82304" lon="6.40051">
        <ele>1183.233</ele>
        <time>2013-05-25T10:12:42Z</time>
      </trkpt>
      <trkpt lat="43.82301" lon="6.40037">
        <ele>1184.953</ele>
        <time>2013-05-25T10:12:50Z</time>
      </trkpt>
      <trkpt lat="43.82297" lon="6.40022">
        <ele>1186.462</ele>
        <time>2013-05-25T10:12:58Z</time>
      </trkpt>
      <trkpt lat="43.82292" lon="6.40004">
        <ele>1187.542</ele>
        <time>2013-05-25T10:13:07Z</time>
      </trkpt>
      <trkpt lat="43.82288" lon="6.39988">
        <ele>1189.914</ele>
        <time>2013-05-25T10:13:15Z</time>
      </trkpt>
      <trkpt lat="43.82285" lon="6.39976">
        <ele>1191.594</ele>
        <time>2013-05-25T10:13:22Z</time>
      </trkpt>
      <trkpt lat="43.82281" lon="6.39964">
        <ele>1194.356</ele>
        <time>2013-05-25T10:13:30Z</time>
      </trkpt>
      <trkpt lat="43.82277" lon="6.39948">
        <ele>1195.235</ele>
        <time>2013-05-25T10:13:39Z</time>
      </trkpt>
      <trkpt lat="43.82273" lon="6.39939">
        <ele>1196.904</ele>
        <time>2013-05-25T10:13:45Z</time>
      </trkpt>
      <trkpt lat="43.8227" lon="6.39933">
        <ele>1197.925</ele>
        <time>2013-05-25T10:13:49Z</time>
      </trkpt>
      <trkpt lat="43.8227" lon="6.39927">
        <ele>1199.474</ele>
        <time>2013-05-25T10:13:55Z</time>
      </trkpt>
      <trkpt lat="43.82266" lon="6.39918">
        <ele>1200.604</ele>
        <time>2013-05-25T10:14:03Z</time>
      </trkpt>
      <trkpt lat="43.8226" lon="6.39911">
        <ele>1200.569</ele>
        <time>2013-05-25T10:14:11Z</time>
      </trkpt>
      <trkpt lat="43.82258" lon="6.3991">
        <ele>1200.921</ele>
        <time>2013-05-25T10:14:13Z</time>
      </trkpt>
      <trkpt lat="43.82253" lon="6.39913">
        <ele>1201.531</ele>
        <time>2013-05-25T10:14:20Z</time>
      </trkpt>
      <trkpt lat="43.82246" lon="6.39903">
        <ele>1202.211</ele>
        <time>2013-05-25T10:14:28Z</time>
      </trkpt>
      <trkpt lat="43.82243" lon="6.39891">
        <ele>1202.694</ele>
        <time>2013-05-25T10:14:37Z</time>
      </trkpt>
      <trkpt lat="43.82241" lon="6.39888">
        <ele>1202.584</ele>
        <time>2013-05-25T10:14:40Z</time>
      </trkpt>
      <trkpt lat="43.82237" lon="6.39891">
        <ele>1203.065</ele>
        <time>2013-05-25T10:14:46Z</time>
      </trkpt>
      <trkpt lat="43.82235" lon="6.39899">
        <ele>1203.034</ele>
        <time>2013-05-25T10:14:54Z</time>
      </trkpt>
      <trkpt lat="43.82233" lon="6.39901">
        <ele>1204.416</ele>
        <time>2013-05-25T10:14:58Z</time>
      </trkpt>
      <trkpt lat="43.82226" lon="6.39906">
        <ele>1202.859</ele>
        <time>2013-05-25T10:15:07Z</time>
      </trkpt>
      <trkpt lat="43.82224" lon="6.39906">
        <ele>1203.301</ele>
        <time>2013-05-25T10:15:13Z</time>
      </trkpt>
      <trkpt lat="43.82218" lon="6.39913">
        <ele>1204.755</ele>
        <time>2013-05-25T10:15:20Z</time>
      </trkpt>
      <trkpt lat="43.8221" lon="6.39923">
        <ele>1207.404</ele>
        <time>2013-05-25T10:15:29Z</time>
      </trkpt>
      <trkpt lat="43.82202" lon="6.3993">
        <ele>1208.305</ele>
        <time>2013-05-25T10:15:39Z</time>
      </trkpt>
      <trkpt lat="43.82194" lon="6.3993">
        <ele>1211.655</ele>
        <time>2013-05-25T10:15:46Z</time>
      </trkpt>
      <trkpt lat="43.82185" lon="6.39932">
        <ele>1212.143</ele>
        <time>2013-05-25T10:15:55Z</time>
      </trkpt>
      <trkpt lat="43.82174" lon="6.39929">
        <ele>1213.403</ele>
        <time>2013-05-25T10:16:03Z</time>
      </trkpt>
      <trkpt lat="43.82164" lon="6.39924">
        <ele>1215.762</ele>
        <time>2013-05-25T10:16:12Z</time>
      </trkpt>
      <trkpt lat="43.82162" lon="6.39922">
        <ele>1217.19</ele>
        <time>2013-05-25T10:16:19Z</time>
      </trkpt>
      <trkpt lat="43.82158" lon="6.39919">
        <ele>1217.614</ele>
        <time>2013-05-25T10:16:24Z</time>
      </trkpt>
      <trkpt lat="43.8215" lon="6.39911">
        <ele>1218.302</ele>
        <time>2013-05-25T10:16:30Z</time>
      </trkpt>
      <trkpt lat="43.82138" lon="6.39902">
        <ele>1219.293</ele>
        <time>2013-05-25T10:16:39Z</time>
      </trkpt>
      <trkpt lat="43.82125" lon="6.39906">
        <ele>1221.934</ele>
        <time>2013-05-25T10:16:48Z</time>
      </trkpt>
      <trkpt lat="43.82116" lon="6.3991">
        <ele>1223.483</ele>
        <time>2013-05-25T10:16:55Z</time>
      </trkpt>
      <trkpt lat="43.82103" lon="6.39912">
        <ele>1223.582</ele>
        <time>2013-05-25T10:17:04Z</time>
      </trkpt>
      <trkpt lat="43.82091" lon="6.39912">
        <ele>1224.242</ele>
        <time>2013-05-25T10:17:12Z</time>
      </trkpt>
      <trkpt lat="43.82081" lon="6.39909">
        <ele>1225.263</ele>
        <time>2013-05-25T10:17:18Z</time>
      </trkpt>
      <trkpt lat="43.82068" lon="6.39897">
        <ele>1226.254</ele>
        <time>2013-05-25T10:17:27Z</time>
      </trkpt>
      <trkpt lat="43.82058" lon="6.39889">
        <ele>1227.483</ele>
        <time>2013-05-25T10:17:33Z</time>
      </trkpt>
      <trkpt lat="43.82046" lon="6.39879">
        <ele>1230.716</ele>
        <time>2013-05-25T10:17:40Z</time>
      </trkpt>
      <trkpt lat="43.82034" lon="6.39871">
        <ele>1230.882</ele>
        <time>2013-05-25T10:17:46Z</time>
      </trkpt>
      <trkpt lat="43.82021" lon="6.39857">
        <ele>1229.721</ele>
        <time>2013-05-25T10:17:54Z</time>
      </trkpt>
      <trkpt lat="43.82014" lon="6.39848">
        <ele>1229.953</ele>
        <time>2013-05-25T10:18:00Z</time>
      </trkpt>
      <trkpt lat="43.82006" lon="6.39837">
        <ele>1230.514</ele>
        <time>2013-05-25T10:18:08Z</time>
      </trkpt>
      <trkpt lat="43.81997" lon="6.39826">
        <ele>1230.944</ele>
        <time>2013-05-25T10:18:17Z</time>
      </trkpt>
      <trkpt lat="43.81991" lon="6.39818">
        <ele>1231.894</ele>
        <time>2013-05-25T10:18:24Z</time>
      </trkpt>
      <trkpt lat="43.81985" lon="6.39809">
        <ele>1232.934</ele>
        <time>2013-05-25T10:18:30Z</time>
      </trkpt>
      <trkpt lat="43.81975" lon="6.39797">
        <ele>1233.7</ele>
        <time>2013-05-25T10:18:38Z</time>
      </trkpt>
      <trkpt lat="43.81967" lon="6.39778">
        <ele>1236.34</ele>
        <time>2013-05-25T10:18:47Z</time>
      </trkpt>
      <trkpt lat="43.81958" lon="6.39758">
        <ele>1239.411</ele>
        <time>2013-05-25T10:18:56Z</time>
      </trkpt>
      <trkpt lat="43.81949" lon="6.39745">
        <ele>1240.682</ele>
        <time>2013-05-25T10:19:03Z</time>
      </trkpt>
      <trkpt lat="43.81935" lon="6.39731">
        <ele>1242.032</ele>
        <time>2013-05-25T10:19:12Z</time>
      </trkpt>
      <trkpt lat="43.81923" lon="6.39725">
        <ele>1243.252</ele>
        <time>2013-05-25T10:19:19Z</time>
      </trkpt>
      <trkpt lat="43.81913" lon="6.39723">
        <ele>1246.873</ele>
        <time>2013-05-25T10:19:26Z</time>
      </trkpt>
      <trkpt lat="43.81906" lon="6.39714">
        <ele>1249.903</ele>
        <time>2013-05-25T10:19:33Z</time>
      </trkpt>
      <trkpt lat="43.819" lon="6.39701">
        <ele>1250.623</ele>
        <time>2013-05-25T10:19:39Z</time>
      </trkpt>
      <trkpt lat="43.81893" lon="6.39684">
        <ele>1252.223</ele>
        <time>2013-05-25T10:19:47Z</time>
      </trkpt>
      <trkpt lat="43.81891" lon="6.39667">
        <ele>1251.984</ele>
        <time>2013-05-25T10:19:54Z</time>
      </trkpt>
      <trkpt lat="43.81888" lon="6.3965">
        <ele>1251.629</ele>
        <time>2013-05-25T10:20:01Z</time>
      </trkpt>
      <trkpt lat="43.81886" lon="6.39628">
        <ele>1252.32</ele>
        <time>2013-05-25T10:20:09Z</time>
      </trkpt>
      <trkpt lat="43.81885" lon="6.3961">
        <ele>1252.789</ele>
        <time>2013-05-25T10:20:15Z</time>
      </trkpt>
      <trkpt lat="43.81886" lon="6.39583">
        <ele>1252.769</ele>
        <time>2013-05-25T10:20:24Z</time>
      </trkpt>
      <trkpt lat="43.81887" lon="6.39579">
        <ele>1252.519</ele>
        <time>2013-05-25T10:20:27Z</time>
      </trkpt>
      <trkpt lat="43.81888" lon="6.39578">
        <ele>1252.63</ele>
        <time>2013-05-25T10:20:29Z</time>
      </trkpt>
      <trkpt lat="43.81893" lon="6.3958">
        <ele>1253.821</ele>
        <time>2013-05-25T10:20:34Z</time>
      </trkpt>
      <trkpt lat="43.81895" lon="6.39578">
        <ele>1253.26</ele>
        <time>2013-05-25T10:20:37Z</time>
      </trkpt>
      <trkpt lat="43.81894" lon="6.39575">
        <ele>1252.458</ele>
        <time>2013-05-25T10:20:41Z</time>
      </trkpt>
      <trkpt lat="43.81898" lon="6.3957">
        <ele>1251.901</ele>
        <time>2013-05-25T10:20:47Z</time>
      </trkpt>
      <trkpt lat="43.81899" lon="6.3957">
        <ele>1250.438</ele>
        <time>2013-05-25T10:20:59Z</time>
      </trkpt>
      <trkpt lat="43.81903" lon="6.39565">
        <ele>1255.829</ele>
        <time>2013-05-25T10:38:56Z</time>
      </trkpt>
      <trkpt lat="43.81896" lon="6.3957">
        <ele>1256.461</ele>
        <time>2013-05-25T10:39:01Z</time>
      </trkpt>
      <trkpt lat="43.81887" lon="6.3957">
        <ele>1255.826</ele>
        <time>2013-05-25T10:39:06Z</time>
      </trkpt>
      <trkpt lat="43.81882" lon="6.39558">
        <ele>1254.995</ele>
        <time>2013-05-25T10:39:09Z</time>
      </trkpt>
      <trkpt lat="43.81879" lon="6.39545">
        <ele>1254.033</ele>
        <time>2013-05-25T10:39:12Z</time>
      </trkpt>
      <trkpt lat="43.81872" lon="6.3952">
        <ele>1251.589</ele>
        <time>2013-05-25T10:39:16Z</time>
      </trkpt>
      <trkpt lat="43.81859" lon="6.39483">
        <ele>1247.784</ele>
        <time>2013-05-25T10:39:21Z</time>
      </trkpt>
      <trkpt lat="43.81839" lon="6.39462">
        <ele>1243.617</ele>
        <time>2013-05-25T10:39:25Z</time>
      </trkpt>
      <trkpt lat="43.81815" lon="6.39456">
        <ele>1239.228</ele>
        <time>2013-05-25T10:39:29Z</time>
      </trkpt>
      <trkpt lat="43.818" lon="6.39453">
        <ele>1236.752</ele>
        <time>2013-05-25T10:39:32Z</time>
      </trkpt>
      <trkpt lat="43.81789" lon="6.39437">
        <ele>1234.153</ele>
        <time>2013-05-25T10:39:35Z</time>
      </trkpt>
      <trkpt lat="43.81789" lon="6.39414">
        <ele>1232.206</ele>
        <time>2013-05-25T10:39:38Z</time>
      </trkpt>
      <trkpt lat="43.81782" lon="6.39386">
        <ele>1229.195</ele>
        <time>2013-05-25T10:39:42Z</time>
      </trkpt>
      <trkpt lat="43.81766" lon="6.39372">
        <ele>1226.685</ele>
        <time>2013-05-25T10:39:45Z</time>
      </trkpt>
      <trkpt lat="43.81758" lon="6.39372">
        <ele>1225.753</ele>
        <time>2013-05-25T10:39:46Z</time>
      </trkpt>
      <trkpt lat="43.81736" lon="6.39373">
        <ele>1223.611</ele>
        <time>2013-05-25T10:39:49Z</time>
      </trkpt>
      <trkpt lat="43.81719" lon="6.39374">
        <ele>1222.159</ele>
        <time>2013-05-25T10:39:53Z</time>
      </trkpt>
      <trkpt lat="43.81712" lon="6.39365">
        <ele>1221.011</ele>
        <time>2013-05-25T10:39:57Z</time>
      </trkpt>
      <trkpt lat="43.81707" lon="6.39357">
        <ele>1220.021</ele>
        <time>2013-05-25T10:40:00Z</time>
      </trkpt>
      <trkpt lat="43.81698" lon="6.39348">
        <ele>1219.141</ele>
        <time>2013-05-25T10:40:03Z</time>
      </trkpt>
      <trkpt lat="43.81664" lon="6.39323">
        <ele>1217.746</ele>
        <time>2013-05-25T10:40:10Z</time>
      </trkpt>
      <trkpt lat="43.8165" lon="6.39315">
        <ele>1217.727</ele>
        <time>2013-05-25T10:40:13Z</time>
      </trkpt>
      <trkpt lat="43.81621" lon="6.39299">
        <ele>1216.473</ele>
        <time>2013-05-25T10:40:20Z</time>
      </trkpt>
      <trkpt lat="43.8158" lon="6.39274">
        <ele>1214.463</ele>
        <time>2013-05-25T10:40:28Z</time>
      </trkpt>
      <trkpt lat="43.81537" lon="6.39248">
        <ele>1214.646</ele>
        <time>2013-05-25T10:40:36Z</time>
      </trkpt>
      <trkpt lat="43.81491" lon="6.39218">
        <ele>1215.327</ele>
        <time>2013-05-25T10:40:44Z</time>
      </trkpt>
      <trkpt lat="43.81482" lon="6.39211">
        <ele>1215.417</ele>
        <time>2013-05-25T10:40:46Z</time>
      </trkpt>
      <trkpt lat="43.81445" lon="6.39189">
        <ele>1215.716</ele>
        <time>2013-05-25T10:40:55Z</time>
      </trkpt>
      <trkpt lat="43.81405" lon="6.39169">
        <ele>1215.726</ele>
        <time>2013-05-25T10:41:04Z</time>
      </trkpt>
      <trkpt lat="43.81368" lon="6.39148">
        <ele>1215.635</ele>
        <time>2013-05-25T10:41:12Z</time>
      </trkpt>
      <trkpt lat="43.81359" lon="6.39143">
        <ele>1215.645</ele>
        <time>2013-05-25T10:41:14Z</time>
      </trkpt>
      <trkpt lat="43.81325" lon="6.39134">
        <ele>1215.384</ele>
        <time>2013-05-25T10:41:21Z</time>
      </trkpt>
      <trkpt lat="43.81291" lon="6.39126">
        <ele>1214.434</ele>
        <time>2013-05-25T10:41:27Z</time>
      </trkpt>
      <trkpt lat="43.81269" lon="6.39117">
        <ele>1216.078</ele>
        <time>2013-05-25T10:41:32Z</time>
      </trkpt>
      <trkpt lat="43.81265" lon="6.39116">
        <ele>1216.157</ele>
        <time>2013-05-25T10:41:33Z</time>
      </trkpt>
      <trkpt lat="43.81255" lon="6.39116">
        <ele>1215.854</ele>
        <time>2013-05-25T10:41:35Z</time>
      </trkpt>
      <trkpt lat="43.81234" lon="6.39111">
        <ele>1215.805</ele>
        <time>2013-05-25T10:41:39Z</time>
      </trkpt>
      <trkpt lat="43.81202" lon="6.39091">
        <ele>1216.589</ele>
        <time>2013-05-25T10:41:47Z</time>
      </trkpt>
      <trkpt lat="43.81185" lon="6.39089">
        <ele>1217.558</ele>
        <time>2013-05-25T10:41:53Z</time>
      </trkpt>
      <trkpt lat="43.81167" lon="6.39084">
        <ele>1217.927</ele>
        <time>2013-05-25T10:41:59Z</time>
      </trkpt>
      <trkpt lat="43.81144" lon="6.39079">
        <ele>1218.407</ele>
        <time>2013-05-25T10:42:06Z</time>
      </trkpt>
      <trkpt lat="43.8112" lon="6.39069">
        <ele>1218.538</ele>
        <time>2013-05-25T10:42:14Z</time>
      </trkpt>
      <trkpt lat="43.81095" lon="6.39071">
        <ele>1218.777</ele>
        <time>2013-05-25T10:42:22Z</time>
      </trkpt>
      <trkpt lat="43.8108" lon="6.39068">
        <ele>1219.568</ele>
        <time>2013-05-25T10:42:27Z</time>
      </trkpt>
      <trkpt lat="43.81066" lon="6.39071">
        <ele>1220.057</ele>
        <time>2013-05-25T10:42:32Z</time>
      </trkpt>
      <trkpt lat="43.81053" lon="6.39078">
        <ele>1220.608</ele>
        <time>2013-05-25T10:42:37Z</time>
      </trkpt>
      <trkpt lat="43.81036" lon="6.39086">
        <ele>1220.655</ele>
        <time>2013-05-25T10:42:43Z</time>
      </trkpt>
      <trkpt lat="43.81024" lon="6.39087">
        <ele>1220.966</ele>
        <time>2013-05-25T10:42:47Z</time>
      </trkpt>
      <trkpt lat="43.81008" lon="6.39078">
        <ele>1222.278</ele>
        <time>2013-05-25T10:42:53Z</time>
      </trkpt>
      <trkpt lat="43.80989" lon="6.39076">
        <ele>1223.287</ele>
        <time>2013-05-25T10:43:00Z</time>
      </trkpt>
      <trkpt lat="43.80969" lon="6.39066">
        <ele>1224.108</ele>
        <time>2013-05-25T10:43:07Z</time>
      </trkpt>
      <trkpt lat="43.80951" lon="6.39045">
        <ele>1224.445</ele>
        <time>2013-05-25T10:43:14Z</time>
      </trkpt>
      <trkpt lat="43.80933" lon="6.39013">
        <ele>1222.632</ele>
        <time>2013-05-25T10:43:22Z</time>
      </trkpt>
      <trkpt lat="43.80925" lon="6.38991">
        <ele>1221.723</ele>
        <time>2013-05-25T10:43:27Z</time>
      </trkpt>
      <trkpt lat="43.80913" lon="6.38977">
        <ele>1221.042</ele>
        <time>2013-05-25T10:43:31Z</time>
      </trkpt>
      <trkpt lat="43.80905" lon="6.3897">
        <ele>1220.411</ele>
        <time>2013-05-25T10:43:33Z</time>
      </trkpt>
      <trkpt lat="43.8089" lon="6.3897">
        <ele>1220.524</ele>
        <time>2013-05-25T10:43:37Z</time>
      </trkpt>
      <trkpt lat="43.80865" lon="6.3898">
        <ele>1218.242</ele>
        <time>2013-05-25T10:43:44Z</time>
      </trkpt>
      <trkpt lat="43.80856" lon="6.38982">
        <ele>1217.712</ele>
        <time>2013-05-25T10:43:46Z</time>
      </trkpt>
      <trkpt lat="43.80847" lon="6.38984">
        <ele>1217.352</ele>
        <time>2013-05-25T10:43:48Z</time>
      </trkpt>
      <trkpt lat="43.80831" lon="6.38991">
        <ele>1217.587</ele>
        <time>2013-05-25T10:43:52Z</time>
      </trkpt>
      <trkpt lat="43.80808" lon="6.38999">
        <ele>1218.931</ele>
        <time>2013-05-25T10:43:58Z</time>
      </trkpt>
      <trkpt lat="43.8079" lon="6.39016">
        <ele>1219.418</ele>
        <time>2013-05-25T10:44:04Z</time>
      </trkpt>
      <trkpt lat="43.80771" lon="6.39028">
        <ele>1219.615</ele>
        <time>2013-05-25T10:44:10Z</time>
      </trkpt>
      <trkpt lat="43.80755" lon="6.39044">
        <ele>1219.294</ele>
        <time>2013-05-25T10:44:16Z</time>
      </trkpt>
      <trkpt lat="43.80738" lon="6.39049">
        <ele>1218.361</ele>
        <time>2013-05-25T10:44:21Z</time>
      </trkpt>
      <trkpt lat="43.80734" lon="6.3905">
        <ele>1218.12</ele>
        <time>2013-05-25T10:44:22Z</time>
      </trkpt>
      <trkpt lat="43.80701" lon="6.39053">
        <ele>1217.844</ele>
        <time>2013-05-25T10:44:30Z</time>
      </trkpt>
      <trkpt lat="43.80678" lon="6.39061">
        <ele>1218.117</ele>
        <time>2013-05-25T10:44:36Z</time>
      </trkpt>
      <trkpt lat="43.80658" lon="6.39074">
        <ele>1217.965</ele>
        <time>2013-05-25T10:44:42Z</time>
      </trkpt>
      <trkpt lat="43.80635" lon="6.39095">
        <ele>1218.497</ele>
        <time>2013-05-25T10:44:49Z</time>
      </trkpt>
      <trkpt lat="43.80616" lon="6.39113">
        <ele>1218.948</ele>
        <time>2013-05-25T10:44:55Z</time>
      </trkpt>
      <trkpt lat="43.80594" lon="6.39134">
        <ele>1218.873</ele>
        <time>2013-05-25T10:45:02Z</time>
      </trkpt>
      <trkpt lat="43.80576" lon="6.39157">
        <ele>1217.339</ele>
        <time>2013-05-25T10:45:08Z</time>
      </trkpt>
      <trkpt lat="43.80559" lon="6.39187">
        <ele>1215.498</ele>
        <time>2013-05-25T10:45:14Z</time>
      </trkpt>
      <trkpt lat="43.80532" lon="6.39232">
        <ele>1211.644</ele>
        <time>2013-05-25T10:45:21Z</time>
      </trkpt>
      <trkpt lat="43.80508" lon="6.39277">
        <ele>1209.177</ele>
        <time>2013-05-25T10:45:27Z</time>
      </trkpt>
      <trkpt lat="43.80492" lon="6.39302">
        <ele>1207.619</ele>
        <time>2013-05-25T10:45:32Z</time>
      </trkpt>
      <trkpt lat="43.80489" lon="6.39307">
        <ele>1207.259</ele>
        <time>2013-05-25T10:45:33Z</time>
      </trkpt>
      <trkpt lat="43.80471" lon="6.39347">
        <ele>1205.058</ele>
        <time>2013-05-25T10:45:40Z</time>
      </trkpt>
      <trkpt lat="43.80452" lon="6.39388">
        <ele>1201.542</ele>
        <time>2013-05-25T10:45:46Z</time>
      </trkpt>
      <trkpt lat="43.80447" lon="6.39403">
        <ele>1200.15</ele>
        <time>2013-05-25T10:45:48Z</time>
      </trkpt>
      <trkpt lat="43.80441" lon="6.39435">
        <ele>1197.491</ele>
        <time>2013-05-25T10:45:52Z</time>
      </trkpt>
      <trkpt lat="43.80436" lon="6.39467">
        <ele>1194.018</ele>
        <time>2013-05-25T10:45:57Z</time>
      </trkpt>
      <trkpt lat="43.80432" lon="6.39483">
        <ele>1191.548</ele>
        <time>2013-05-25T10:46:00Z</time>
      </trkpt>
      <trkpt lat="43.80433" lon="6.39505">
        <ele>1188.809</ele>
        <time>2013-05-25T10:46:04Z</time>
      </trkpt>
      <trkpt lat="43.80439" lon="6.39512">
        <ele>1187.891</ele>
        <time>2013-05-25T10:46:06Z</time>
      </trkpt>
      <trkpt lat="43.80446" lon="6.39516">
        <ele>1186.56</ele>
        <time>2013-05-25T10:46:08Z</time>
      </trkpt>
      <trkpt lat="43.8046" lon="6.39523">
        <ele>1184.147</ele>
        <time>2013-05-25T10:46:11Z</time>
      </trkpt>
      <trkpt lat="43.80476" lon="6.39539">
        <ele>1181.972</ele>
        <time>2013-05-25T10:46:15Z</time>
      </trkpt>
      <trkpt lat="43.8049" lon="6.39547">
        <ele>1180.261</ele>
        <time>2013-05-25T10:46:18Z</time>
      </trkpt>
      <trkpt lat="43.80507" lon="6.39566">
        <ele>1176.596</ele>
        <time>2013-05-25T10:46:22Z</time>
      </trkpt>
      <trkpt lat="43.80515" lon="6.39589">
        <ele>1172.425</ele>
        <time>2013-05-25T10:46:27Z</time>
      </trkpt>
      <trkpt lat="43.80506" lon="6.39587">
        <ele>1169.584</ele>
        <time>2013-05-25T10:46:30Z</time>
      </trkpt>
      <trkpt lat="43.80501" lon="6.39594">
        <ele>1167.478</ele>
        <time>2013-05-25T10:46:33Z</time>
      </trkpt>
      <trkpt lat="43.80506" lon="6.39609">
        <ele>1164.458</ele>
        <time>2013-05-25T10:46:37Z</time>
      </trkpt>
      <trkpt lat="43.80508" lon="6.39614">
        <ele>1163.326</ele>
        <time>2013-05-25T10:46:38Z</time>
      </trkpt>
      <trkpt lat="43.80529" lon="6.39654">
        <ele>1155.602</ele>
        <time>2013-05-25T10:46:45Z</time>
      </trkpt>
      <trkpt lat="43.80531" lon="6.3966">
        <ele>1154.703</ele>
        <time>2013-05-25T10:46:46Z</time>
      </trkpt>
      <trkpt lat="43.80544" lon="6.39706">
        <ele>1149.107</ele>
        <time>2013-05-25T10:46:53Z</time>
      </trkpt>
      <trkpt lat="43.80552" lon="6.39754">
        <ele>1144.431</ele>
        <time>2013-05-25T10:47:00Z</time>
      </trkpt>
      <trkpt lat="43.80553" lon="6.39766">
        <ele>1143.139</ele>
        <time>2013-05-25T10:47:02Z</time>
      </trkpt>
      <trkpt lat="43.80552" lon="6.39784">
        <ele>1141.157</ele>
        <time>2013-05-25T10:47:05Z</time>
      </trkpt>
      <trkpt lat="43.80542" lon="6.39837">
        <ele>1135.516</ele>
        <time>2013-05-25T10:47:13Z</time>
      </trkpt>
      <trkpt lat="43.80533" lon="6.39873">
        <ele>1130.746</ele>
        <time>2013-05-25T10:47:19Z</time>
      </trkpt>
      <trkpt lat="43.80526" lon="6.39901">
        <ele>1126.749</ele>
        <time>2013-05-25T10:47:25Z</time>
      </trkpt>
      <trkpt lat="43.80523" lon="6.39895">
        <ele>1125.643</ele>
        <time>2013-05-25T10:47:28Z</time>
      </trkpt>
      <trkpt lat="43.8052" lon="6.39875">
        <ele>1123.607</ele>
        <time>2013-05-25T10:47:34Z</time>
      </trkpt>
      <trkpt lat="43.8052" lon="6.39875">
        <ele>1123.442</ele>
        <time>2013-05-25T10:47:37Z</time>
      </trkpt>
      <trkpt lat="43.80522" lon="6.39889">
        <ele>1123.919</ele>
        <time>2013-05-25T10:47:47Z</time>
      </trkpt>
      <trkpt lat="43.80522" lon="6.39895">
        <ele>1124.61</ele>
        <time>2013-05-25T10:47:52Z</time>
      </trkpt>
      <trkpt lat="43.80524" lon="6.39901">
        <ele>1125.321</ele>
        <time>2013-05-25T10:47:57Z</time>
      </trkpt>
      <trkpt lat="43.80524" lon="6.39904">
        <ele>1125.929</ele>
        <time>2013-05-25T10:48:02Z</time>
      </trkpt>
      <trkpt lat="43.80518" lon="6.39917">
        <ele>1122.623</ele>
        <time>2013-05-25T10:48:07Z</time>
      </trkpt>
      <trkpt lat="43.80506" lon="6.3994">
        <ele>1117.617</ele>
        <time>2013-05-25T10:48:13Z</time>
      </trkpt>
      <trkpt lat="43.80504" lon="6.39943">
        <ele>1116.766</ele>
        <time>2013-05-25T10:48:14Z</time>
      </trkpt>
      <trkpt lat="43.80487" lon="6.39965">
        <ele>1110.342</ele>
        <time>2013-05-25T10:48:20Z</time>
      </trkpt>
      <trkpt lat="43.80475" lon="6.39974">
        <ele>1106.189</ele>
        <time>2013-05-25T10:48:24Z</time>
      </trkpt>
      <trkpt lat="43.80464" lon="6.39981">
        <ele>1102.393</ele>
        <time>2013-05-25T10:48:28Z</time>
      </trkpt>
      <trkpt lat="43.80453" lon="6.3999">
        <ele>1097.779</ele>
        <time>2013-05-25T10:48:32Z</time>
      </trkpt>
      <trkpt lat="43.8044" lon="6.40001">
        <ele>1093.829</ele>
        <time>2013-05-25T10:48:37Z</time>
      </trkpt>
      <trkpt lat="43.80436" lon="6.40002">
        <ele>1092.488</ele>
        <time>2013-05-25T10:48:39Z</time>
      </trkpt>
      <trkpt lat="43.80421" lon="6.40017">
        <ele>1087.997</ele>
        <time>2013-05-25T10:48:45Z</time>
      </trkpt>
      <trkpt lat="43.80414" lon="6.40024">
        <ele>1084.929</ele>
        <time>2013-05-25T10:48:49Z</time>
      </trkpt>
      <trkpt lat="43.80401" lon="6.40031">
        <ele>1081.044</ele>
        <time>2013-05-25T10:48:54Z</time>
      </trkpt>
      <trkpt lat="43.80389" lon="6.40041">
        <ele>1077.579</ele>
        <time>2013-05-25T10:48:59Z</time>
      </trkpt>
      <trkpt lat="43.80374" lon="6.40047">
        <ele>1073.696</ele>
        <time>2013-05-25T10:49:04Z</time>
      </trkpt>
      <trkpt lat="43.80365" lon="6.40051">
        <ele>1070.722</ele>
        <time>2013-05-25T10:49:07Z</time>
      </trkpt>
      <trkpt lat="43.80345" lon="6.40067">
        <ele>1066.039</ele>
        <time>2013-05-25T10:49:13Z</time>
      </trkpt>
      <trkpt lat="43.8033" lon="6.40076">
        <ele>1063.23</ele>
        <time>2013-05-25T10:49:17Z</time>
      </trkpt>
      <trkpt lat="43.80325" lon="6.40078">
        <ele>1062.428</ele>
        <time>2013-05-25T10:49:18Z</time>
      </trkpt>
      <trkpt lat="43.80313" lon="6.40088">
        <ele>1060.035</ele>
        <time>2013-05-25T10:49:22Z</time>
      </trkpt>
      <trkpt lat="43.80313" lon="6.40089">
        <ele>1059.74</ele>
        <time>2013-05-25T10:49:24Z</time>
      </trkpt>
      <trkpt lat="43.80311" lon="6.40108">
        <ele>1056.973</ele>
        <time>2013-05-25T10:49:29Z</time>
      </trkpt>
      <trkpt lat="43.8031" lon="6.40113">
        <ele>1056.322</ele>
        <time>2013-05-25T10:49:30Z</time>
      </trkpt>
      <trkpt lat="43.80295" lon="6.40132">
        <ele>1052.679</ele>
        <time>2013-05-25T10:49:35Z</time>
      </trkpt>
      <trkpt lat="43.8029" lon="6.40135">
        <ele>1051.442</ele>
        <time>2013-05-25T10:49:37Z</time>
      </trkpt>
      <trkpt lat="43.80278" lon="6.40123">
        <ele>1048.872</ele>
        <time>2013-05-25T10:49:42Z</time>
      </trkpt>
      <trkpt lat="43.80275" lon="6.40113">
        <ele>1047.048</ele>
        <time>2013-05-25T10:49:44Z</time>
      </trkpt>
      <trkpt lat="43.80264" lon="6.40084">
        <ele>1041.807</ele>
        <time>2013-05-25T10:49:50Z</time>
      </trkpt>
      <trkpt lat="43.80256" lon="6.40053">
        <ele>1036.864</ele>
        <time>2013-05-25T10:49:55Z</time>
      </trkpt>
      <trkpt lat="43.80244" lon="6.40055">
        <ele>1035.681</ele>
        <time>2013-05-25T10:49:59Z</time>
      </trkpt>
      <trkpt lat="43.8024" lon="6.40059">
        <ele>1035.041</ele>
        <time>2013-05-25T10:50:00Z</time>
      </trkpt>
      <trkpt lat="43.80215" lon="6.40079">
        <ele>1031.682</ele>
        <time>2013-05-25T10:50:06Z</time>
      </trkpt>
      <trkpt lat="43.80202" lon="6.40088">
        <ele>1030.673</ele>
        <time>2013-05-25T10:50:09Z</time>
      </trkpt>
      <trkpt lat="43.80175" lon="6.40101">
        <ele>1026.529</ele>
        <time>2013-05-25T10:50:15Z</time>
      </trkpt>
      <trkpt lat="43.8017" lon="6.40102">
        <ele>1025.97</ele>
        <time>2013-05-25T10:50:16Z</time>
      </trkpt>
      <trkpt lat="43.80142" lon="6.40113">
        <ele>1020.999</ele>
        <time>2013-05-25T10:50:22Z</time>
      </trkpt>
      <trkpt lat="43.80126" lon="6.4011">
        <ele>1017.337</ele>
        <time>2013-05-25T10:50:26Z</time>
      </trkpt>
      <trkpt lat="43.80116" lon="6.40112">
        <ele>1015.27</ele>
        <time>2013-05-25T10:50:29Z</time>
      </trkpt>
      <trkpt lat="43.80113" lon="6.40114">
        <ele>1014.54</ele>
        <time>2013-05-25T10:50:30Z</time>
      </trkpt>
      <trkpt lat="43.80098" lon="6.40125">
        <ele>1010.109</ele>
        <time>2013-05-25T10:50:35Z</time>
      </trkpt>
      <trkpt lat="43.80081" lon="6.40131">
        <ele>1006.882</ele>
        <time>2013-05-25T10:50:40Z</time>
      </trkpt>
      <trkpt lat="43.80068" lon="6.40149">
        <ele>1004.647</ele>
        <time>2013-05-25T10:50:44Z</time>
      </trkpt>
      <trkpt lat="43.80063" lon="6.4017">
        <ele>1002.436</ele>
        <time>2013-05-25T10:50:49Z</time>
      </trkpt>
      <trkpt lat="43.80061" lon="6.40181">
        <ele>1001.507</ele>
        <time>2013-05-25T10:50:51Z</time>
      </trkpt>
      <trkpt lat="43.80065" lon="6.40199">
        <ele>999.04</ele>
        <time>2013-05-25T10:50:56Z</time>
      </trkpt>
      <trkpt lat="43.80077" lon="6.40216">
        <ele>996.895</ele>
        <time>2013-05-25T10:51:00Z</time>
      </trkpt>
      <trkpt lat="43.80085" lon="6.40222">
        <ele>996.591</ele>
        <time>2013-05-25T10:51:02Z</time>
      </trkpt>
      <trkpt lat="43.80093" lon="6.40227">
        <ele>996.004</ele>
        <time>2013-05-25T10:51:06Z</time>
      </trkpt>
      <trkpt lat="43.80104" lon="6.40237">
        <ele>993.703</ele>
        <time>2013-05-25T10:51:09Z</time>
      </trkpt>
      <trkpt lat="43.80124" lon="6.40257">
        <ele>991.017</ele>
        <time>2013-05-25T10:51:13Z</time>
      </trkpt>
      <trkpt lat="43.80136" lon="6.40281">
        <ele>987.946</ele>
        <time>2013-05-25T10:51:18Z</time>
      </trkpt>
      <trkpt lat="43.80139" lon="6.40284">
        <ele>987.495</ele>
        <time>2013-05-25T10:51:19Z</time>
      </trkpt>
      <trkpt lat="43.80136" lon="6.40301">
        <ele>984.288</ele>
        <time>2013-05-25T10:51:23Z</time>
      </trkpt>
      <trkpt lat="43.80129" lon="6.40306">
        <ele>982.577</ele>
        <time>2013-05-25T10:51:25Z</time>
      </trkpt>
      <trkpt lat="43.8012" lon="6.40311">
        <ele>980.883</ele>
        <time>2013-05-25T10:51:27Z</time>
      </trkpt>
      <trkpt lat="43.80112" lon="6.40317">
        <ele>979.296</ele>
        <time>2013-05-25T10:51:29Z</time>
      </trkpt>
      <trkpt lat="43.80111" lon="6.40329">
        <ele>976.751</ele>
        <time>2013-05-25T10:51:33Z</time>
      </trkpt>
      <trkpt lat="43.80106" lon="6.40329">
        <ele>975.605</ele>
        <time>2013-05-25T10:51:36Z</time>
      </trkpt>
      <trkpt lat="43.80101" lon="6.4033">
        <ele>974.717</ele>
        <time>2013-05-25T10:51:39Z</time>
      </trkpt>
      <trkpt lat="43.80106" lon="6.40337">
        <ele>974.231</ele>
        <time>2013-05-25T10:51:42Z</time>
      </trkpt>
      <trkpt lat="43.80127" lon="6.40356">
        <ele>973.726</ele>
        <time>2013-05-25T10:51:48Z</time>
      </trkpt>
      <trkpt lat="43.80136" lon="6.40384">
        <ele>974.408</ele>
        <time>2013-05-25T10:51:53Z</time>
      </trkpt>
      <trkpt lat="43.80136" lon="6.4039">
        <ele>974.791</ele>
        <time>2013-05-25T10:51:54Z</time>
      </trkpt>
      <trkpt lat="43.8013" lon="6.40428">
        <ele>976.097</ele>
        <time>2013-05-25T10:52:00Z</time>
      </trkpt>
      <trkpt lat="43.80121" lon="6.40488">
        <ele>978.855</ele>
        <time>2013-05-25T10:52:08Z</time>
      </trkpt>
      <trkpt lat="43.80116" lon="6.40521">
        <ele>982.362</ele>
        <time>2013-05-25T10:52:14Z</time>
      </trkpt>
      <trkpt lat="43.80108" lon="6.4055">
        <ele>984.468</ele>
        <time>2013-05-25T10:52:21Z</time>
      </trkpt>
      <trkpt lat="43.80103" lon="6.40566">
        <ele>984.24</ele>
        <time>2013-05-25T10:52:25Z</time>
      </trkpt>
      <trkpt lat="43.80106" lon="6.40592">
        <ele>983.779</ele>
        <time>2013-05-25T10:52:30Z</time>
      </trkpt>
      <trkpt lat="43.80115" lon="6.40602">
        <ele>983.658</ele>
        <time>2013-05-25T10:52:33Z</time>
      </trkpt>
      <trkpt lat="43.8014" lon="6.40614">
        <ele>984.291</ele>
        <time>2013-05-25T10:52:40Z</time>
      </trkpt>
      <trkpt lat="43.80164" lon="6.40617">
        <ele>984.619</ele>
        <time>2013-05-25T10:52:47Z</time>
      </trkpt>
      <trkpt lat="43.80174" lon="6.40627">
        <ele>983.936</ele>
        <time>2013-05-25T10:52:51Z</time>
      </trkpt>
      <trkpt lat="43.80176" lon="6.40636">
        <ele>983.302</ele>
        <time>2013-05-25T10:52:53Z</time>
      </trkpt>
      <trkpt lat="43.80171" lon="6.4066">
        <ele>982.148</ele>
        <time>2013-05-25T10:52:57Z</time>
      </trkpt>
      <trkpt lat="43.8017" lon="6.40683">
        <ele>981.75</ele>
        <time>2013-05-25T10:53:00Z</time>
      </trkpt>
      <trkpt lat="43.80173" lon="6.40737">
        <ele>981.937</ele>
        <time>2013-05-25T10:53:07Z</time>
      </trkpt>
      <trkpt lat="43.80179" lon="6.40787">
        <ele>981.236</ele>
        <time>2013-05-25T10:53:14Z</time>
      </trkpt>
      <trkpt lat="43.80178" lon="6.40825">
        <ele>981.099</ele>
        <time>2013-05-25T10:53:20Z</time>
      </trkpt>
      <trkpt lat="43.80178" lon="6.40834">
        <ele>980.708</ele>
        <time>2013-05-25T10:53:23Z</time>
      </trkpt>
      <trkpt lat="43.80181" lon="6.40839">
        <ele>973.099</ele>
        <time>2013-05-25T10:54:06Z</time>
      </trkpt>
      <trkpt lat="43.80182" lon="6.40861">
        <ele>972.73</ele>
        <time>2013-05-25T10:54:10Z</time>
      </trkpt>
      <trkpt lat="43.80185" lon="6.40885">
        <ele>971.436</ele>
        <time>2013-05-25T10:54:13Z</time>
      </trkpt>
      <trkpt lat="43.80198" lon="6.40936">
        <ele>970.841</ele>
        <time>2013-05-25T10:54:20Z</time>
      </trkpt>
      <trkpt lat="43.80207" lon="6.40963">
        <ele>971.217</ele>
        <time>2013-05-25T10:54:24Z</time>
      </trkpt>
      <trkpt lat="43.80219" lon="6.40982">
        <ele>972.262</ele>
        <time>2013-05-25T10:54:29Z</time>
      </trkpt>
      <trkpt lat="43.8023" lon="6.40999">
        <ele>973.496</ele>
        <time>2013-05-25T10:54:34Z</time>
      </trkpt>
      <trkpt lat="43.80229" lon="6.41015">
        <ele>973.76</ele>
        <time>2013-05-25T10:54:37Z</time>
      </trkpt>
      <trkpt lat="43.80235" lon="6.41045">
        <ele>972.804</ele>
        <time>2013-05-25T10:54:42Z</time>
      </trkpt>
      <trkpt lat="43.80237" lon="6.41051">
        <ele>972.835</ele>
        <time>2013-05-25T10:54:43Z</time>
      </trkpt>
      <trkpt lat="43.80249" lon="6.41085">
        <ele>973.246</ele>
        <time>2013-05-25T10:54:50Z</time>
      </trkpt>
      <trkpt lat="43.80242" lon="6.411">
        <ele>974.929</ele>
        <time>2013-05-25T10:54:54Z</time>
      </trkpt>
      <trkpt lat="43.80228" lon="6.41124">
        <ele>976.021</ele>
        <time>2013-05-25T10:55:01Z</time>
      </trkpt>
      <trkpt lat="43.80227" lon="6.41146">
        <ele>977.156</ele>
        <time>2013-05-25T10:55:08Z</time>
      </trkpt>
      <trkpt lat="43.8023" lon="6.41163">
        <ele>979.097</ele>
        <time>2013-05-25T10:55:15Z</time>
      </trkpt>
      <trkpt lat="43.80229" lon="6.41186">
        <ele>981.346</ele>
        <time>2013-05-25T10:55:24Z</time>
      </trkpt>
      <trkpt lat="43.80222" lon="6.41209">
        <ele>982.861</ele>
        <time>2013-05-25T10:55:33Z</time>
      </trkpt>
      <trkpt lat="43.80218" lon="6.41225">
        <ele>983.754</ele>
        <time>2013-05-25T10:55:40Z</time>
      </trkpt>
      <trkpt lat="43.80216" lon="6.41241">
        <ele>985.092</ele>
        <time>2013-05-25T10:55:47Z</time>
      </trkpt>
      <trkpt lat="43.80212" lon="6.41263">
        <ele>986.195</ele>
        <time>2013-05-25T10:55:57Z</time>
      </trkpt>
      <trkpt lat="43.8021" lon="6.41277">
        <ele>987.789</ele>
        <time>2013-05-25T10:56:04Z</time>
      </trkpt>
      <trkpt lat="43.80207" lon="6.41295">
        <ele>990.659</ele>
        <time>2013-05-25T10:56:13Z</time>
      </trkpt>
      <trkpt lat="43.80203" lon="6.41315">
        <ele>992.437</ele>
        <time>2013-05-25T10:56:23Z</time>
      </trkpt>
      <trkpt lat="43.802" lon="6.41328">
        <ele>993.546</ele>
        <time>2013-05-25T10:56:30Z</time>
      </trkpt>
      <trkpt lat="43.80198" lon="6.41345">
        <ele>995.098</ele>
        <time>2013-05-25T10:56:39Z</time>
      </trkpt>
      <trkpt lat="43.80196" lon="6.41356">
        <ele>996.738</ele>
        <time>2013-05-25T10:56:45Z</time>
      </trkpt>
      <trkpt lat="43.80194" lon="6.41371">
        <ele>999.582</ele>
        <time>2013-05-25T10:56:53Z</time>
      </trkpt>
      <trkpt lat="43.80186" lon="6.41387">
        <ele>999.844</ele>
        <time>2013-05-25T10:57:03Z</time>
      </trkpt>
      <trkpt lat="43.80176" lon="6.4139">
        <ele>1000.409</ele>
        <time>2013-05-25T10:57:10Z</time>
      </trkpt>
      <trkpt lat="43.80166" lon="6.41395">
        <ele>1001.18</ele>
        <time>2013-05-25T10:57:18Z</time>
      </trkpt>
      <trkpt lat="43.80156" lon="6.41403">
        <ele>1002.239</ele>
        <time>2013-05-25T10:57:26Z</time>
      </trkpt>
      <trkpt lat="43.80147" lon="6.41417">
        <ele>1004.199</ele>
        <time>2013-05-25T10:57:35Z</time>
      </trkpt>
      <trkpt lat="43.80138" lon="6.41436">
        <ele>1006.296</ele>
        <time>2013-05-25T10:57:46Z</time>
      </trkpt>
      <trkpt lat="43.80135" lon="6.41449">
        <ele>1007.311</ele>
        <time>2013-05-25T10:57:53Z</time>
      </trkpt>
      <trkpt lat="43.80132" lon="6.41462">
        <ele>1008.133</ele>
        <time>2013-05-25T10:58:00Z</time>
      </trkpt>
      <trkpt lat="43.8013" lon="6.41474">
        <ele>1009.899</ele>
        <time>2013-05-25T10:58:07Z</time>
      </trkpt>
      <trkpt lat="43.80127" lon="6.41489">
        <ele>1012.177</ele>
        <time>2013-05-25T10:58:15Z</time>
      </trkpt>
      <trkpt lat="43.80123" lon="6.41507">
        <ele>1014.207</ele>
        <time>2013-05-25T10:58:24Z</time>
      </trkpt>
      <trkpt lat="43.80117" lon="6.41522">
        <ele>1016.017</ele>
        <time>2013-05-25T10:58:32Z</time>
      </trkpt>
      <trkpt lat="43.80105" lon="6.41538">
        <ele>1016.481</ele>
        <time>2013-05-25T10:58:42Z</time>
      </trkpt>
      <trkpt lat="43.80094" lon="6.41556">
        <ele>1015.44</ele>
        <time>2013-05-25T10:58:51Z</time>
      </trkpt>
      <trkpt lat="43.80081" lon="6.41574">
        <ele>1013.673</ele>
        <time>2013-05-25T10:59:00Z</time>
      </trkpt>
      <trkpt lat="43.80065" lon="6.41582">
        <ele>1014.237</ele>
        <time>2013-05-25T10:59:08Z</time>
      </trkpt>
      <trkpt lat="43.80051" lon="6.41588">
        <ele>1015.313</ele>
        <time>2013-05-25T10:59:15Z</time>
      </trkpt>
      <trkpt lat="43.80034" lon="6.41596">
        <ele>1015.934</ele>
        <time>2013-05-25T10:59:22Z</time>
      </trkpt>
      <trkpt lat="43.80015" lon="6.41608">
        <ele>1019.459</ele>
        <time>2013-05-25T10:59:29Z</time>
      </trkpt>
      <trkpt lat="43.79992" lon="6.41624">
        <ele>1020.62</ele>
        <time>2013-05-25T10:59:36Z</time>
      </trkpt>
      <trkpt lat="43.79978" lon="6.41635">
        <ele>1020.819</ele>
        <time>2013-05-25T10:59:41Z</time>
      </trkpt>
      <trkpt lat="43.79975" lon="6.41637">
        <ele>1020.796</ele>
        <time>2013-05-25T10:59:42Z</time>
      </trkpt>
      <trkpt lat="43.79949" lon="6.41662">
        <ele>1016.994</ele>
        <time>2013-05-25T10:59:48Z</time>
      </trkpt>
      <trkpt lat="43.79944" lon="6.41666">
        <ele>1016.072</ele>
        <time>2013-05-25T10:59:49Z</time>
      </trkpt>
      <trkpt lat="43.79928" lon="6.41688">
        <ele>1012.083</ele>
        <time>2013-05-25T10:59:53Z</time>
      </trkpt>
      <trkpt lat="43.79915" lon="6.4171">
        <ele>1006.794</ele>
        <time>2013-05-25T10:59:57Z</time>
      </trkpt>
      <trkpt lat="43.79895" lon="6.41738">
        <ele>999.008</ele>
        <time>2013-05-25T11:00:03Z</time>
      </trkpt>
      <trkpt lat="43.79891" lon="6.41743">
        <ele>997.746</ele>
        <time>2013-05-25T11:00:04Z</time>
      </trkpt>
      <trkpt lat="43.79866" lon="6.41759">
        <ele>993.586</ele>
        <time>2013-05-25T11:00:10Z</time>
      </trkpt>
      <trkpt lat="43.7986" lon="6.41761">
        <ele>991.16</ele>
        <time>2013-05-25T11:00:14Z</time>
      </trkpt>
      <trkpt lat="43.79858" lon="6.41759">
        <ele>1001.454</ele>
        <time>2013-05-25T11:00:38Z</time>
      </trkpt>
      <trkpt lat="43.79852" lon="6.41763">
        <ele>1000.615</ele>
        <time>2013-05-25T11:00:42Z</time>
      </trkpt>
      <trkpt lat="43.79843" lon="6.41767">
        <ele>999.745</ele>
        <time>2013-05-25T11:00:45Z</time>
      </trkpt>
      <trkpt lat="43.7982" lon="6.4178">
        <ele>996.296</ele>
        <time>2013-05-25T11:00:50Z</time>
      </trkpt>
      <trkpt lat="43.79815" lon="6.41783">
        <ele>995.513</ele>
        <time>2013-05-25T11:00:51Z</time>
      </trkpt>
      <trkpt lat="43.79804" lon="6.41791">
        <ele>993.411</ele>
        <time>2013-05-25T11:00:54Z</time>
      </trkpt>
      <trkpt lat="43.79792" lon="6.41801">
        <ele>990.323</ele>
        <time>2013-05-25T11:00:57Z</time>
      </trkpt>
      <trkpt lat="43.79779" lon="6.41819">
        <ele>983.975</ele>
        <time>2013-05-25T11:01:02Z</time>
      </trkpt>
      <trkpt lat="43.79784" lon="6.41828">
        <ele>981.011</ele>
        <time>2013-05-25T11:01:05Z</time>
      </trkpt>
      <trkpt lat="43.79782" lon="6.41834">
        <ele>979.189</ele>
        <time>2013-05-25T11:01:07Z</time>
      </trkpt>
      <trkpt lat="43.79777" lon="6.41841">
        <ele>976.902</ele>
        <time>2013-05-25T11:01:09Z</time>
      </trkpt>
      <trkpt lat="43.7977" lon="6.41849">
        <ele>974.549</ele>
        <time>2013-05-25T11:01:11Z</time>
      </trkpt>
      <trkpt lat="43.79763" lon="6.41857">
        <ele>972.045</ele>
        <time>2013-05-25T11:01:13Z</time>
      </trkpt>
      <trkpt lat="43.79752" lon="6.41872">
        <ele>967.939</ele>
        <time>2013-05-25T11:01:16Z</time>
      </trkpt>
      <trkpt lat="43.79742" lon="6.4189">
        <ele>963.565</ele>
        <time>2013-05-25T11:01:19Z</time>
      </trkpt>
      <trkpt lat="43.79727" lon="6.41914">
        <ele>957.777</ele>
        <time>2013-05-25T11:01:23Z</time>
      </trkpt>
      <trkpt lat="43.79705" lon="6.41932">
        <ele>952.764</ele>
        <time>2013-05-25T11:01:28Z</time>
      </trkpt>
      <trkpt lat="43.79702" lon="6.41935">
        <ele>952.048</ele>
        <time>2013-05-25T11:01:29Z</time>
      </trkpt>
      <trkpt lat="43.79707" lon="6.41942">
        <ele>949.401</ele>
        <time>2013-05-25T11:01:33Z</time>
      </trkpt>
      <trkpt lat="43.7974" lon="6.41953">
        <ele>947.296</ele>
        <time>2013-05-25T11:01:39Z</time>
      </trkpt>
      <trkpt lat="43.79756" lon="6.41959">
        <ele>946.574</ele>
        <time>2013-05-25T11:01:42Z</time>
      </trkpt>
      <trkpt lat="43.798" lon="6.41974">
        <ele>940.815</ele>
        <time>2013-05-25T11:01:50Z</time>
      </trkpt>
      <trkpt lat="43.79804" lon="6.41993">
        <ele>934.936</ele>
        <time>2013-05-25T11:01:54Z</time>
      </trkpt>
      <trkpt lat="43.79792" lon="6.4201">
        <ele>930.643</ele>
        <time>2013-05-25T11:01:57Z</time>
      </trkpt>
      <trkpt lat="43.79759" lon="6.42039">
        <ele>923.426</ele>
        <time>2013-05-25T11:02:03Z</time>
      </trkpt>
      <trkpt lat="43.79754" lon="6.42043">
        <ele>922.622</ele>
        <time>2013-05-25T11:02:04Z</time>
      </trkpt>
      <trkpt lat="43.79725" lon="6.42068">
        <ele>917.25</ele>
        <time>2013-05-25T11:02:09Z</time>
      </trkpt>
      <trkpt lat="43.79715" lon="6.42078">
        <ele>914.957</ele>
        <time>2013-05-25T11:02:11Z</time>
      </trkpt>
      <trkpt lat="43.79688" lon="6.42101">
        <ele>909.734</ele>
        <time>2013-05-25T11:02:16Z</time>
      </trkpt>
      <trkpt lat="43.79674" lon="6.42113">
        <ele>907.337</ele>
        <time>2013-05-25T11:02:19Z</time>
      </trkpt>
      <trkpt lat="43.79665" lon="6.42119">
        <ele>906.652</ele>
        <time>2013-05-25T11:02:21Z</time>
      </trkpt>
      <trkpt lat="43.79652" lon="6.42133">
        <ele>905.187</ele>
        <time>2013-05-25T11:02:26Z</time>
      </trkpt>
      <trkpt lat="43.79645" lon="6.42139">
        <ele>904.995</ele>
        <time>2013-05-25T11:02:28Z</time>
      </trkpt>
      <trkpt lat="43.79629" lon="6.42152">
        <ele>907.693</ele>
        <time>2013-05-25T11:02:33Z</time>
      </trkpt>
      <trkpt lat="43.79616" lon="6.42165">
        <ele>907.624</ele>
        <time>2013-05-25T11:02:37Z</time>
      </trkpt>
      <trkpt lat="43.79601" lon="6.4218">
        <ele>906.621</ele>
        <time>2013-05-25T11:02:41Z</time>
      </trkpt>
      <trkpt lat="43.79587" lon="6.42189">
        <ele>903.751</ele>
        <time>2013-05-25T11:02:45Z</time>
      </trkpt>
      <trkpt lat="43.79572" lon="6.42203">
        <ele>901.43</ele>
        <time>2013-05-25T11:02:49Z</time>
      </trkpt>
      <trkpt lat="43.79546" lon="6.42221">
        <ele>896.229</ele>
        <time>2013-05-25T11:02:55Z</time>
      </trkpt>
      <trkpt lat="43.79529" lon="6.42234">
        <ele>893.365</ele>
        <time>2013-05-25T11:02:59Z</time>
      </trkpt>
      <trkpt lat="43.79514" lon="6.42244">
        <ele>890.952</ele>
        <time>2013-05-25T11:03:02Z</time>
      </trkpt>
      <trkpt lat="43.79489" lon="6.42265">
        <ele>885.412</ele>
        <time>2013-05-25T11:03:07Z</time>
      </trkpt>
      <trkpt lat="43.79486" lon="6.42272">
        <ele>883.931</ele>
        <time>2013-05-25T11:03:09Z</time>
      </trkpt>
      <trkpt lat="43.79498" lon="6.42274">
        <ele>877.397</ele>
        <time>2013-05-25T11:03:13Z</time>
      </trkpt>
      <trkpt lat="43.79536" lon="6.42282">
        <ele>869.284</ele>
        <time>2013-05-25T11:03:19Z</time>
      </trkpt>
      <trkpt lat="43.79562" lon="6.42289">
        <ele>863.838</ele>
        <time>2013-05-25T11:03:23Z</time>
      </trkpt>
      <trkpt lat="43.79591" lon="6.42294">
        <ele>858.404</ele>
        <time>2013-05-25T11:03:28Z</time>
      </trkpt>
      <trkpt lat="43.79594" lon="6.42296">
        <ele>857.59</ele>
        <time>2013-05-25T11:03:29Z</time>
      </trkpt>
      <trkpt lat="43.79592" lon="6.42302">
        <ele>857.082</ele>
        <time>2013-05-25T11:03:34Z</time>
      </trkpt>
      <trkpt lat="43.7959" lon="6.42301">
        <ele>858.722</ele>
        <time>2013-05-25T11:03:38Z</time>
      </trkpt>
      <trkpt lat="43.7958" lon="6.42311">
        <ele>859.926</ele>
        <time>2013-05-25T11:03:43Z</time>
      </trkpt>
      <trkpt lat="43.79565" lon="6.4232">
        <ele>860.825</ele>
        <time>2013-05-25T11:03:47Z</time>
      </trkpt>
      <trkpt lat="43.79538" lon="6.42335">
        <ele>860.385</ele>
        <time>2013-05-25T11:03:53Z</time>
      </trkpt>
      <trkpt lat="43.79527" lon="6.42341">
        <ele>859.901</ele>
        <time>2013-05-25T11:03:56Z</time>
      </trkpt>
      <trkpt lat="43.795" lon="6.42354">
        <ele>859.863</ele>
        <time>2013-05-25T11:04:02Z</time>
      </trkpt>
      <trkpt lat="43.79487" lon="6.42361">
        <ele>860.613</ele>
        <time>2013-05-25T11:04:05Z</time>
      </trkpt>
      <trkpt lat="43.79464" lon="6.42377">
        <ele>860.029</ele>
        <time>2013-05-25T11:04:10Z</time>
      </trkpt>
      <trkpt lat="43.7943" lon="6.42389">
        <ele>853.006</ele>
        <time>2013-05-25T11:04:16Z</time>
      </trkpt>
      <trkpt lat="43.79411" lon="6.42399">
        <ele>850.42</ele>
        <time>2013-05-25T11:04:20Z</time>
      </trkpt>
      <trkpt lat="43.79386" lon="6.42409">
        <ele>847.727</ele>
        <time>2013-05-25T11:04:26Z</time>
      </trkpt>
      <trkpt lat="43.79387" lon="6.42415">
        <ele>844.698</ele>
        <time>2013-05-25T11:04:30Z</time>
      </trkpt>
      <trkpt lat="43.79407" lon="6.42419">
        <ele>840.757</ele>
        <time>2013-05-25T11:04:34Z</time>
      </trkpt>
      <trkpt lat="43.79417" lon="6.42421">
        <ele>839.001</ele>
        <time>2013-05-25T11:04:36Z</time>
      </trkpt>
      <trkpt lat="43.79438" lon="6.42428">
        <ele>835.828</ele>
        <time>2013-05-25T11:04:40Z</time>
      </trkpt>
      <trkpt lat="43.79465" lon="6.42434">
        <ele>833.337</ele>
        <time>2013-05-25T11:04:45Z</time>
      </trkpt>
      <trkpt lat="43.79481" lon="6.42438">
        <ele>830.511</ele>
        <time>2013-05-25T11:04:48Z</time>
      </trkpt>
      <trkpt lat="43.79505" lon="6.42444">
        <ele>825.487</ele>
        <time>2013-05-25T11:04:53Z</time>
      </trkpt>
      <trkpt lat="43.79513" lon="6.42449">
        <ele>823.509</ele>
        <time>2013-05-25T11:04:56Z</time>
      </trkpt>
      <trkpt lat="43.79506" lon="6.4246">
        <ele>823.485</ele>
        <time>2013-05-25T11:05:01Z</time>
      </trkpt>
      <trkpt lat="43.7949" lon="6.42472">
        <ele>823.53</ele>
        <time>2013-05-25T11:05:05Z</time>
      </trkpt>
      <trkpt lat="43.79477" lon="6.42486">
        <ele>823.463</ele>
        <time>2013-05-25T11:05:09Z</time>
      </trkpt>
      <trkpt lat="43.79457" lon="6.42502">
        <ele>820.956</ele>
        <time>2013-05-25T11:05:15Z</time>
      </trkpt>
      <trkpt lat="43.79436" lon="6.42515">
        <ele>818.059</ele>
        <time>2013-05-25T11:05:19Z</time>
      </trkpt>
      <trkpt lat="43.7942" lon="6.42527">
        <ele>814.873</ele>
        <time>2013-05-25T11:05:23Z</time>
      </trkpt>
      <trkpt lat="43.79406" lon="6.42537">
        <ele>811.46</ele>
        <time>2013-05-25T11:05:27Z</time>
      </trkpt>
      <trkpt lat="43.7942" lon="6.42541">
        <ele>806.223</ele>
        <time>2013-05-25T11:05:31Z</time>
      </trkpt>
      <trkpt lat="43.7945" lon="6.42543">
        <ele>799.17</ele>
        <time>2013-05-25T11:05:37Z</time>
      </trkpt>
      <trkpt lat="43.7947" lon="6.42547">
        <ele>794.837</ele>
        <time>2013-05-25T11:05:41Z</time>
      </trkpt>
      <trkpt lat="43.79488" lon="6.4255">
        <ele>791.804</ele>
        <time>2013-05-25T11:05:45Z</time>
      </trkpt>
      <trkpt lat="43.7949" lon="6.42558">
        <ele>792.376</ele>
        <time>2013-05-25T11:05:50Z</time>
      </trkpt>
      <trkpt lat="43.79476" lon="6.42572">
        <ele>795.109</ele>
        <time>2013-05-25T11:05:54Z</time>
      </trkpt>
      <trkpt lat="43.79463" lon="6.42585">
        <ele>795.605</ele>
        <time>2013-05-25T11:05:58Z</time>
      </trkpt>
      <trkpt lat="43.79436" lon="6.42609">
        <ele>795.331</ele>
        <time>2013-05-25T11:06:04Z</time>
      </trkpt>
      <trkpt lat="43.79428" lon="6.42617">
        <ele>794.062</ele>
        <time>2013-05-25T11:06:06Z</time>
      </trkpt>
      <trkpt lat="43.79408" lon="6.42637">
        <ele>791.661</ele>
        <time>2013-05-25T11:06:10Z</time>
      </trkpt>
      <trkpt lat="43.79387" lon="6.42657">
        <ele>789.784</ele>
        <time>2013-05-25T11:06:15Z</time>
      </trkpt>
      <trkpt lat="43.79386" lon="6.42659">
        <ele>787.779</ele>
        <time>2013-05-25T11:06:17Z</time>
      </trkpt>
      <trkpt lat="43.79398" lon="6.42662">
        <ele>784.167</ele>
        <time>2013-05-25T11:06:20Z</time>
      </trkpt>
      <trkpt lat="43.79413" lon="6.42666">
        <ele>779.91</ele>
        <time>2013-05-25T11:06:24Z</time>
      </trkpt>
      <trkpt lat="43.79424" lon="6.42667">
        <ele>777.705</ele>
        <time>2013-05-25T11:06:27Z</time>
      </trkpt>
      <trkpt lat="43.79428" lon="6.4267">
        <ele>777.82</ele>
        <time>2013-05-25T11:06:29Z</time>
      </trkpt>
      <trkpt lat="43.79439" lon="6.42671">
        <ele>774.333</ele>
        <time>2013-05-25T11:06:32Z</time>
      </trkpt>
      <trkpt lat="43.79437" lon="6.42682">
        <ele>773.963</ele>
        <time>2013-05-25T11:06:36Z</time>
      </trkpt>
      <trkpt lat="43.79402" lon="6.42723">
        <ele>777.202</ele>
        <time>2013-05-25T11:06:45Z</time>
      </trkpt>
      <trkpt lat="43.7939" lon="6.4274">
        <ele>776.383</ele>
        <time>2013-05-25T11:06:49Z</time>
      </trkpt>
      <trkpt lat="43.79367" lon="6.42762">
        <ele>776.233</ele>
        <time>2013-05-25T11:06:54Z</time>
      </trkpt>
      <trkpt lat="43.79342" lon="6.42781">
        <ele>768.683</ele>
        <time>2013-05-25T11:06:59Z</time>
      </trkpt>
      <trkpt lat="43.79319" lon="6.42797">
        <ele>759.952</ele>
        <time>2013-05-25T11:07:04Z</time>
      </trkpt>
      <trkpt lat="43.79301" lon="6.42812">
        <ele>751.634</ele>
        <time>2013-05-25T11:07:09Z</time>
      </trkpt>
      <trkpt lat="43.79301" lon="6.42814">
        <ele>749.884</ele>
        <time>2013-05-25T11:07:10Z</time>
      </trkpt>
      <trkpt lat="43.79318" lon="6.42818">
        <ele>741.464</ele>
        <time>2013-05-25T11:07:14Z</time>
      </trkpt>
      <trkpt lat="43.79334" lon="6.42823">
        <ele>737.027</ele>
        <time>2013-05-25T11:07:18Z</time>
      </trkpt>
      <trkpt lat="43.7935" lon="6.42824">
        <ele>732.533</ele>
        <time>2013-05-25T11:07:21Z</time>
      </trkpt>
      <trkpt lat="43.79367" lon="6.42829">
        <ele>729.207</ele>
        <time>2013-05-25T11:07:25Z</time>
      </trkpt>
      <trkpt lat="43.79364" lon="6.42842">
        <ele>729.043</ele>
        <time>2013-05-25T11:07:29Z</time>
      </trkpt>
      <trkpt lat="43.79358" lon="6.42849">
        <ele>729.885</ele>
        <time>2013-05-25T11:07:31Z</time>
      </trkpt>
      <trkpt lat="43.79345" lon="6.42861">
        <ele>732.913</ele>
        <time>2013-05-25T11:07:34Z</time>
      </trkpt>
      <trkpt lat="43.79336" lon="6.42872">
        <ele>731.996</ele>
        <time>2013-05-25T11:07:37Z</time>
      </trkpt>
      <trkpt lat="43.79332" lon="6.42887">
        <ele>727.935</ele>
        <time>2013-05-25T11:07:42Z</time>
      </trkpt>
      <trkpt lat="43.79347" lon="6.4289">
        <ele>725.507</ele>
        <time>2013-05-25T11:07:46Z</time>
      </trkpt>
      <trkpt lat="43.79375" lon="6.42894">
        <ele>720.551</ele>
        <time>2013-05-25T11:07:52Z</time>
      </trkpt>
      <trkpt lat="43.79379" lon="6.42894">
        <ele>719.323</ele>
        <time>2013-05-25T11:07:55Z</time>
      </trkpt>
      <trkpt lat="43.79381" lon="6.42895">
        <ele>718.834</ele>
        <time>2013-05-25T11:07:57Z</time>
      </trkpt>
      <trkpt lat="43.79395" lon="6.42895">
        <ele>715.64</ele>
        <time>2013-05-25T11:08:01Z</time>
      </trkpt>
      <trkpt lat="43.79405" lon="6.42897">
        <ele>714.083</ele>
        <time>2013-05-25T11:08:03Z</time>
      </trkpt>
      <trkpt lat="43.79426" lon="6.42901">
        <ele>710.846</ele>
        <time>2013-05-25T11:08:07Z</time>
      </trkpt>
      <trkpt lat="43.79433" lon="6.42901">
        <ele>708.344</ele>
        <time>2013-05-25T11:08:09Z</time>
      </trkpt>
      <trkpt lat="43.79429" lon="6.42909">
        <ele>707.384</ele>
        <time>2013-05-25T11:08:12Z</time>
      </trkpt>
      <trkpt lat="43.79412" lon="6.42932">
        <ele>707.351</ele>
        <time>2013-05-25T11:08:17Z</time>
      </trkpt>
      <trkpt lat="43.79393" lon="6.42958">
        <ele>707.62</ele>
        <time>2013-05-25T11:08:21Z</time>
      </trkpt>
      <trkpt lat="43.79359" lon="6.42998">
        <ele>702.951</ele>
        <time>2013-05-25T11:08:27Z</time>
      </trkpt>
      <trkpt lat="43.79321" lon="6.43039">
        <ele>694.565</ele>
        <time>2013-05-25T11:08:34Z</time>
      </trkpt>
      <trkpt lat="43.79319" lon="6.43042">
        <ele>693.438</ele>
        <time>2013-05-25T11:08:35Z</time>
      </trkpt>
      <trkpt lat="43.79331" lon="6.43044">
        <ele>690.32</ele>
        <time>2013-05-25T11:08:39Z</time>
      </trkpt>
      <trkpt lat="43.79342" lon="6.43044">
        <ele>688.662</ele>
        <time>2013-05-25T11:08:42Z</time>
      </trkpt>
      <trkpt lat="43.79368" lon="6.43045">
        <ele>686.931</ele>
        <time>2013-05-25T11:08:47Z</time>
      </trkpt>
      <trkpt lat="43.79393" lon="6.43048">
        <ele>683.824</ele>
        <time>2013-05-25T11:08:52Z</time>
      </trkpt>
      <trkpt lat="43.79423" lon="6.43049">
        <ele>679.404</ele>
        <time>2013-05-25T11:08:58Z</time>
      </trkpt>
      <trkpt lat="43.79427" lon="6.43049">
        <ele>679.063</ele>
        <time>2013-05-25T11:08:59Z</time>
      </trkpt>
      <trkpt lat="43.79426" lon="6.43057">
        <ele>678.217</ele>
        <time>2013-05-25T11:09:03Z</time>
      </trkpt>
      <trkpt lat="43.79418" lon="6.43067">
        <ele>676.934</ele>
        <time>2013-05-25T11:09:05Z</time>
      </trkpt>
      <trkpt lat="43.79407" lon="6.43077">
        <ele>675.76</ele>
        <time>2013-05-25T11:09:07Z</time>
      </trkpt>
      <trkpt lat="43.79392" lon="6.43097">
        <ele>672.799</ele>
        <time>2013-05-25T11:09:10Z</time>
      </trkpt>
      <trkpt lat="43.79353" lon="6.43133">
        <ele>666.225</ele>
        <time>2013-05-25T11:09:16Z</time>
      </trkpt>
      <trkpt lat="43.79319" lon="6.43171">
        <ele>659.596</ele>
        <time>2013-05-25T11:09:22Z</time>
      </trkpt>
      <trkpt lat="43.79307" lon="6.43184">
        <ele>657.346</ele>
        <time>2013-05-25T11:09:24Z</time>
      </trkpt>
      <trkpt lat="43.79289" lon="6.43205">
        <ele>654.197</ele>
        <time>2013-05-25T11:09:28Z</time>
      </trkpt>
      <trkpt lat="43.79269" lon="6.43224">
        <ele>650.925</ele>
        <time>2013-05-25T11:09:32Z</time>
      </trkpt>
      <trkpt lat="43.79254" lon="6.43241">
        <ele>647.626</ele>
        <time>2013-05-25T11:09:35Z</time>
      </trkpt>
      <trkpt lat="43.7924" lon="6.43255">
        <ele>644.846</ele>
        <time>2013-05-25T11:09:39Z</time>
      </trkpt>
      <trkpt lat="43.7924" lon="6.43275">
        <ele>642.353</ele>
        <time>2013-05-25T11:09:43Z</time>
      </trkpt>
      <trkpt lat="43.79245" lon="6.4329">
        <ele>641.541</ele>
        <time>2013-05-25T11:09:45Z</time>
      </trkpt>
      <trkpt lat="43.79249" lon="6.43307">
        <ele>641.578</ele>
        <time>2013-05-25T11:09:47Z</time>
      </trkpt>
      <trkpt lat="43.7927" lon="6.43333">
        <ele>643.464</ele>
        <time>2013-05-25T11:09:52Z</time>
      </trkpt>
      <trkpt lat="43.79303" lon="6.43361">
        <ele>645.385</ele>
        <time>2013-05-25T11:09:59Z</time>
      </trkpt>
      <trkpt lat="43.79321" lon="6.43366">
        <ele>646.23</ele>
        <time>2013-05-25T11:10:03Z</time>
      </trkpt>
      <trkpt lat="43.79359" lon="6.4336">
        <ele>645.507</ele>
        <time>2013-05-25T11:10:11Z</time>
      </trkpt>
      <trkpt lat="43.7938" lon="6.43368">
        <ele>644.823</ele>
        <time>2013-05-25T11:10:16Z</time>
      </trkpt>
      <trkpt lat="43.79388" lon="6.43389">
        <ele>645.699</ele>
        <time>2013-05-25T11:10:20Z</time>
      </trkpt>
      <trkpt lat="43.79398" lon="6.43425">
        <ele>646.364</ele>
        <time>2013-05-25T11:10:27Z</time>
      </trkpt>
      <trkpt lat="43.79415" lon="6.43463">
        <ele>648.665</ele>
        <time>2013-05-25T11:10:34Z</time>
      </trkpt>
      <trkpt lat="43.79439" lon="6.43507">
        <ele>650.428</ele>
        <time>2013-05-25T11:10:43Z</time>
      </trkpt>
      <trkpt lat="43.79453" lon="6.43527">
        <ele>652.67</ele>
        <time>2013-05-25T11:10:48Z</time>
      </trkpt>
      <trkpt lat="43.79482" lon="6.43557">
        <ele>653.496</ele>
        <time>2013-05-25T11:10:56Z</time>
      </trkpt>
      <trkpt lat="43.79504" lon="6.43579">
        <ele>655.06</ele>
        <time>2013-05-25T11:11:02Z</time>
      </trkpt>
      <trkpt lat="43.79528" lon="6.43601">
        <ele>654.345</ele>
        <time>2013-05-25T11:11:08Z</time>
      </trkpt>
      <trkpt lat="43.79555" lon="6.43624">
        <ele>653.824</ele>
        <time>2013-05-25T11:11:15Z</time>
      </trkpt>
      <trkpt lat="43.79574" lon="6.43653">
        <ele>655.974</ele>
        <time>2013-05-25T11:11:21Z</time>
      </trkpt>
      <trkpt lat="43.79589" lon="6.43696">
        <ele>654.992</ele>
        <time>2013-05-25T11:11:29Z</time>
      </trkpt>
      <trkpt lat="43.796" lon="6.43736">
        <ele>654.675</ele>
        <time>2013-05-25T11:11:36Z</time>
      </trkpt>
      <trkpt lat="43.79613" lon="6.43777">
        <ele>653.831</ele>
        <time>2013-05-25T11:11:43Z</time>
      </trkpt>
      <trkpt lat="43.79625" lon="6.43796">
        <ele>654.03</ele>
        <time>2013-05-25T11:11:47Z</time>
      </trkpt>
      <trkpt lat="43.79653" lon="6.43822">
        <ele>653.971</ele>
        <time>2013-05-25T11:11:55Z</time>
      </trkpt>
      <trkpt lat="43.79674" lon="6.43837">
        <ele>651.573</ele>
        <time>2013-05-25T11:12:00Z</time>
      </trkpt>
      <trkpt lat="43.79678" lon="6.4384">
        <ele>652.056</ele>
        <time>2013-05-25T11:12:01Z</time>
      </trkpt>
      <trkpt lat="43.79704" lon="6.43842">
        <ele>651.269</ele>
        <time>2013-05-25T11:12:06Z</time>
      </trkpt>
      <trkpt lat="43.79709" lon="6.43841">
        <ele>651.045</ele>
        <time>2013-05-25T11:12:07Z</time>
      </trkpt>
      <trkpt lat="43.79758" lon="6.43835">
        <ele>648.65</ele>
        <time>2013-05-25T11:12:17Z</time>
      </trkpt>
      <trkpt lat="43.79793" lon="6.43828">
        <ele>647.167</ele>
        <time>2013-05-25T11:12:25Z</time>
      </trkpt>
      <trkpt lat="43.79829" lon="6.43819">
        <ele>645.845</ele>
        <time>2013-05-25T11:12:33Z</time>
      </trkpt>
      <trkpt lat="43.79858" lon="6.4381">
        <ele>645.296</ele>
        <time>2013-05-25T11:12:40Z</time>
      </trkpt>
      <trkpt lat="43.79903" lon="6.43794">
        <ele>645.537</ele>
        <time>2013-05-25T11:12:50Z</time>
      </trkpt>
      <trkpt lat="43.79927" lon="6.43785">
        <ele>645.402</ele>
        <time>2013-05-25T11:12:55Z</time>
      </trkpt>
      <trkpt lat="43.79956" lon="6.43789">
        <ele>645.056</ele>
        <time>2013-05-25T11:13:01Z</time>
      </trkpt>
      <trkpt lat="43.79965" lon="6.43796">
        <ele>645.406</ele>
        <time>2013-05-25T11:13:03Z</time>
      </trkpt>
      <trkpt lat="43.79986" lon="6.43824">
        <ele>649.91</ele>
        <time>2013-05-25T11:13:09Z</time>
      </trkpt>
      <trkpt lat="43.8001" lon="6.43843">
        <ele>652.78</ele>
        <time>2013-05-25T11:13:15Z</time>
      </trkpt>
      <trkpt lat="43.80027" lon="6.43839">
        <ele>652.447</ele>
        <time>2013-05-25T11:13:19Z</time>
      </trkpt>
      <trkpt lat="43.80032" lon="6.43837">
        <ele>652.262</ele>
        <time>2013-05-25T11:13:20Z</time>
      </trkpt>
      <trkpt lat="43.80056" lon="6.4382">
        <ele>649.589</ele>
        <time>2013-05-25T11:13:26Z</time>
      </trkpt>
      <trkpt lat="43.80084" lon="6.43803">
        <ele>647.408</ele>
        <time>2013-05-25T11:13:32Z</time>
      </trkpt>
      <trkpt lat="43.80117" lon="6.43788">
        <ele>643.978</ele>
        <time>2013-05-25T11:13:39Z</time>
      </trkpt>
      <trkpt lat="43.80126" lon="6.43784">
        <ele>642.951</ele>
        <time>2013-05-25T11:13:41Z</time>
      </trkpt>
      <trkpt lat="43.80153" lon="6.43782">
        <ele>641.925</ele>
        <time>2013-05-25T11:13:46Z</time>
      </trkpt>
      <trkpt lat="43.80172" lon="6.43782">
        <ele>640.192</ele>
        <time>2013-05-25T11:13:50Z</time>
      </trkpt>
      <trkpt lat="43.80187" lon="6.43781">
        <ele>637.99</ele>
        <time>2013-05-25T11:13:53Z</time>
      </trkpt>
      <trkpt lat="43.80222" lon="6.43772">
        <ele>635.518</ele>
        <time>2013-05-25T11:14:00Z</time>
      </trkpt>
      <trkpt lat="43.80245" lon="6.43766">
        <ele>633.899</ele>
        <time>2013-05-25T11:14:05Z</time>
      </trkpt>
      <trkpt lat="43.80276" lon="6.43768">
        <ele>631.942</ele>
        <time>2013-05-25T11:14:11Z</time>
      </trkpt>
      <trkpt lat="43.80324" lon="6.43782">
        <ele>638.601</ele>
        <time>2013-05-25T11:14:20Z</time>
      </trkpt>
      <trkpt lat="43.80335" lon="6.43785">
        <ele>639.605</ele>
        <time>2013-05-25T11:14:22Z</time>
      </trkpt>
      <trkpt lat="43.80357" lon="6.43801">
        <ele>641.131</ele>
        <time>2013-05-25T11:14:27Z</time>
      </trkpt>
      <trkpt lat="43.80389" lon="6.43823">
        <ele>641.83</ele>
        <time>2013-05-25T11:14:34Z</time>
      </trkpt>
      <trkpt lat="43.80409" lon="6.43836">
        <ele>641.857</ele>
        <time>2013-05-25T11:14:38Z</time>
      </trkpt>
      <trkpt lat="43.80427" lon="6.43861">
        <ele>642.459</ele>
        <time>2013-05-25T11:14:43Z</time>
      </trkpt>
      <trkpt lat="43.80432" lon="6.43887">
        <ele>643.402</ele>
        <time>2013-05-25T11:14:47Z</time>
      </trkpt>
      <trkpt lat="43.80437" lon="6.43942">
        <ele>646.064</ele>
        <time>2013-05-25T11:14:55Z</time>
      </trkpt>
      <trkpt lat="43.80433" lon="6.43993">
        <ele>652.54</ele>
        <time>2013-05-25T11:15:02Z</time>
      </trkpt>
      <trkpt lat="43.80429" lon="6.44044">
        <ele>653.914</ele>
        <time>2013-05-25T11:15:10Z</time>
      </trkpt>
      <trkpt lat="43.80428" lon="6.44058">
        <ele>654.101</ele>
        <time>2013-05-25T11:15:12Z</time>
      </trkpt>
      <trkpt lat="43.80433" lon="6.44083">
        <ele>652.988</ele>
        <time>2013-05-25T11:15:16Z</time>
      </trkpt>
      <trkpt lat="43.8045" lon="6.44104">
        <ele>653.268</ele>
        <time>2013-05-25T11:15:21Z</time>
      </trkpt>
      <trkpt lat="43.80469" lon="6.44102">
        <ele>653.651</ele>
        <time>2013-05-25T11:15:25Z</time>
      </trkpt>
      <trkpt lat="43.80479" lon="6.44096">
        <ele>653.354</ele>
        <time>2013-05-25T11:15:27Z</time>
      </trkpt>
      <trkpt lat="43.80503" lon="6.44075">
        <ele>651.701</ele>
        <time>2013-05-25T11:15:33Z</time>
      </trkpt>
      <trkpt lat="43.80519" lon="6.44051">
        <ele>650.275</ele>
        <time>2013-05-25T11:15:38Z</time>
      </trkpt>
      <trkpt lat="43.8053" lon="6.44031">
        <ele>649.685</ele>
        <time>2013-05-25T11:15:42Z</time>
      </trkpt>
      <trkpt lat="43.80551" lon="6.44009">
        <ele>649.366</ele>
        <time>2013-05-25T11:15:48Z</time>
      </trkpt>
      <trkpt lat="43.80565" lon="6.44005">
        <ele>652.439</ele>
        <time>2013-05-25T11:15:52Z</time>
      </trkpt>
      <trkpt lat="43.80574" lon="6.44021">
        <ele>657.457</ele>
        <time>2013-05-25T11:15:55Z</time>
      </trkpt>
      <trkpt lat="43.80573" lon="6.44039">
        <ele>658.704</ele>
        <time>2013-05-25T11:15:58Z</time>
      </trkpt>
      <trkpt lat="43.80568" lon="6.44062">
        <ele>657.444</ele>
        <time>2013-05-25T11:16:02Z</time>
      </trkpt>
      <trkpt lat="43.80561" lon="6.44118">
        <ele>655.237</ele>
        <time>2013-05-25T11:16:10Z</time>
      </trkpt>
      <trkpt lat="43.8056" lon="6.44132">
        <ele>655.258</ele>
        <time>2013-05-25T11:16:12Z</time>
      </trkpt>
      <trkpt lat="43.80549" lon="6.44155">
        <ele>655.567</ele>
        <time>2013-05-25T11:16:16Z</time>
      </trkpt>
      <trkpt lat="43.80516" lon="6.44188">
        <ele>652.927</ele>
        <time>2013-05-25T11:16:24Z</time>
      </trkpt>
      <trkpt lat="43.80489" lon="6.44208">
        <ele>652.154</ele>
        <time>2013-05-25T11:16:30Z</time>
      </trkpt>
      <trkpt lat="43.80451" lon="6.4422">
        <ele>654.573</ele>
        <time>2013-05-25T11:16:38Z</time>
      </trkpt>
      <trkpt lat="43.80422" lon="6.44225">
        <ele>657.13</ele>
        <time>2013-05-25T11:16:44Z</time>
      </trkpt>
      <trkpt lat="43.804" lon="6.44209">
        <ele>664.655</ele>
        <time>2013-05-25T11:16:49Z</time>
      </trkpt>
      <trkpt lat="43.80394" lon="6.44189">
        <ele>665.093</ele>
        <time>2013-05-25T11:16:52Z</time>
      </trkpt>
      <trkpt lat="43.80392" lon="6.44183">
        <ele>664.408</ele>
        <time>2013-05-25T11:16:53Z</time>
      </trkpt>
      <trkpt lat="43.80383" lon="6.44138">
        <ele>663.902</ele>
        <time>2013-05-25T11:17:00Z</time>
      </trkpt>
      <trkpt lat="43.80377" lon="6.44119">
        <ele>663.946</ele>
        <time>2013-05-25T11:17:03Z</time>
      </trkpt>
      <trkpt lat="43.80372" lon="6.44079">
        <ele>665.907</ele>
        <time>2013-05-25T11:17:09Z</time>
      </trkpt>
      <trkpt lat="43.80375" lon="6.44026">
        <ele>669.283</ele>
        <time>2013-05-25T11:17:17Z</time>
      </trkpt>
      <trkpt lat="43.80375" lon="6.44012">
        <ele>668.031</ele>
        <time>2013-05-25T11:17:19Z</time>
      </trkpt>
      <trkpt lat="43.80368" lon="6.43983">
        <ele>666.184</ele>
        <time>2013-05-25T11:17:24Z</time>
      </trkpt>
      <trkpt lat="43.80352" lon="6.43958">
        <ele>663.654</ele>
        <time>2013-05-25T11:17:29Z</time>
      </trkpt>
      <trkpt lat="43.80321" lon="6.43923">
        <ele>659.364</ele>
        <time>2013-05-25T11:17:38Z</time>
      </trkpt>
      <trkpt lat="43.80317" lon="6.4392">
        <ele>658.927</ele>
        <time>2013-05-25T11:17:39Z</time>
      </trkpt>
      <trkpt lat="43.803" lon="6.4391">
        <ele>657.839</ele>
        <time>2013-05-25T11:17:43Z</time>
      </trkpt>
      <trkpt lat="43.80274" lon="6.43908">
        <ele>661.927</ele>
        <time>2013-05-25T11:17:49Z</time>
      </trkpt>
      <trkpt lat="43.80262" lon="6.43913">
        <ele>663.374</ele>
        <time>2013-05-25T11:17:52Z</time>
      </trkpt>
      <trkpt lat="43.80254" lon="6.43918">
        <ele>662.79</ele>
        <time>2013-05-25T11:17:54Z</time>
      </trkpt>
      <trkpt lat="43.80219" lon="6.43952">
        <ele>662.584</ele>
        <time>2013-05-25T11:18:03Z</time>
      </trkpt>
      <trkpt lat="43.80211" lon="6.43959">
        <ele>662.309</ele>
        <time>2013-05-25T11:18:05Z</time>
      </trkpt>
      <trkpt lat="43.80194" lon="6.4397">
        <ele>663.413</ele>
        <time>2013-05-25T11:18:09Z</time>
      </trkpt>
      <trkpt lat="43.80171" lon="6.43978">
        <ele>662.442</ele>
        <time>2013-05-25T11:18:14Z</time>
      </trkpt>
      <trkpt lat="43.80133" lon="6.43978">
        <ele>668.851</ele>
        <time>2013-05-25T11:18:22Z</time>
      </trkpt>
      <trkpt lat="43.80099" lon="6.43976">
        <ele>669.347</ele>
        <time>2013-05-25T11:18:29Z</time>
      </trkpt>
      <trkpt lat="43.80081" lon="6.43978">
        <ele>669.464</ele>
        <time>2013-05-25T11:18:33Z</time>
      </trkpt>
      <trkpt lat="43.80068" lon="6.43982">
        <ele>669.232</ele>
        <time>2013-05-25T11:18:36Z</time>
      </trkpt>
      <trkpt lat="43.80055" lon="6.4399">
        <ele>668.866</ele>
        <time>2013-05-25T11:18:39Z</time>
      </trkpt>
      <trkpt lat="43.80033" lon="6.44018">
        <ele>665.48</ele>
        <time>2013-05-25T11:18:46Z</time>
      </trkpt>
      <trkpt lat="43.80024" lon="6.44047">
        <ele>664.69</ele>
        <time>2013-05-25T11:18:52Z</time>
      </trkpt>
      <trkpt lat="43.80017" lon="6.44076">
        <ele>667.584</ele>
        <time>2013-05-25T11:18:58Z</time>
      </trkpt>
      <trkpt lat="43.80007" lon="6.44097">
        <ele>670.647</ele>
        <time>2013-05-25T11:19:03Z</time>
      </trkpt>
      <trkpt lat="43.79992" lon="6.44111">
        <ele>670.632</ele>
        <time>2013-05-25T11:19:08Z</time>
      </trkpt>
      <trkpt lat="43.79971" lon="6.44111">
        <ele>673.077</ele>
        <time>2013-05-25T11:19:13Z</time>
      </trkpt>
      <trkpt lat="43.79947" lon="6.44113">
        <ele>674.345</ele>
        <time>2013-05-25T11:19:19Z</time>
      </trkpt>
      <trkpt lat="43.7993" lon="6.44127">
        <ele>673.421</ele>
        <time>2013-05-25T11:19:24Z</time>
      </trkpt>
      <trkpt lat="43.79909" lon="6.44137">
        <ele>671.716</ele>
        <time>2013-05-25T11:19:29Z</time>
      </trkpt>
      <trkpt lat="43.79873" lon="6.44142">
        <ele>673.332</ele>
        <time>2013-05-25T11:19:38Z</time>
      </trkpt>
      <trkpt lat="43.79862" lon="6.44147">
        <ele>672.659</ele>
        <time>2013-05-25T11:19:41Z</time>
      </trkpt>
      <trkpt lat="43.79853" lon="6.44149">
        <ele>672.247</ele>
        <time>2013-05-25T11:19:43Z</time>
      </trkpt>
      <trkpt lat="43.79815" lon="6.44162">
        <ele>673.017</ele>
        <time>2013-05-25T11:19:53Z</time>
      </trkpt>
      <trkpt lat="43.79801" lon="6.44177">
        <ele>672.831</ele>
        <time>2013-05-25T11:19:58Z</time>
      </trkpt>
      <trkpt lat="43.79791" lon="6.44207">
        <ele>671.176</ele>
        <time>2013-05-25T11:20:04Z</time>
      </trkpt>
      <trkpt lat="43.79793" lon="6.44238">
        <ele>669.732</ele>
        <time>2013-05-25T11:20:10Z</time>
      </trkpt>
      <trkpt lat="43.79795" lon="6.44248">
        <ele>670.544</ele>
        <time>2013-05-25T11:20:12Z</time>
      </trkpt>
      <trkpt lat="43.79801" lon="6.44279">
        <ele>669.856</ele>
        <time>2013-05-25T11:20:18Z</time>
      </trkpt>
      <trkpt lat="43.798" lon="6.44283">
        <ele>669.864</ele>
        <time>2013-05-25T11:20:19Z</time>
      </trkpt>
      <trkpt lat="43.79787" lon="6.44315">
        <ele>671.366</ele>
        <time>2013-05-25T11:20:26Z</time>
      </trkpt>
      <trkpt lat="43.79771" lon="6.44337">
        <ele>672.751</ele>
        <time>2013-05-25T11:20:32Z</time>
      </trkpt>
      <trkpt lat="43.79748" lon="6.44354">
        <ele>675.019</ele>
        <time>2013-05-25T11:20:39Z</time>
      </trkpt>
      <trkpt lat="43.79723" lon="6.44373">
        <ele>677.884</ele>
        <time>2013-05-25T11:20:47Z</time>
      </trkpt>
      <trkpt lat="43.79706" lon="6.44391">
        <ele>678.218</ele>
        <time>2013-05-25T11:20:54Z</time>
      </trkpt>
      <trkpt lat="43.79689" lon="6.44412">
        <ele>676.96</ele>
        <time>2013-05-25T11:21:01Z</time>
      </trkpt>
      <trkpt lat="43.79679" lon="6.44423">
        <ele>680.335</ele>
        <time>2013-05-25T11:21:06Z</time>
      </trkpt>
      <trkpt lat="43.7968" lon="6.44425">
        <ele>681.89</ele>
        <time>2013-05-25T11:21:08Z</time>
      </trkpt>
      <trkpt lat="43.79684" lon="6.44422">
        <ele>683.907</ele>
        <time>2013-05-25T11:21:11Z</time>
      </trkpt>
      <trkpt lat="43.79695" lon="6.44418">
        <ele>680.615</ele>
        <time>2013-05-25T11:21:17Z</time>
      </trkpt>
      <trkpt lat="43.79704" lon="6.44413">
        <ele>680.457</ele>
        <time>2013-05-25T11:21:24Z</time>
      </trkpt>
      <trkpt lat="43.79711" lon="6.44423">
        <ele>696.577</ele>
        <time>2013-05-25T11:25:37Z</time>
      </trkpt>
      <trkpt lat="43.79715" lon="6.44423">
        <ele>695.713</ele>
        <time>2013-05-25T11:25:42Z</time>
      </trkpt>
      <trkpt lat="43.79722" lon="6.44425">
        <ele>694.647</ele>
        <time>2013-05-25T11:25:47Z</time>
      </trkpt>
      <trkpt lat="43.79724" lon="6.44429">
        <ele>696.386</ele>
        <time>2013-05-25T11:25:50Z</time>
      </trkpt>
      <trkpt lat="43.79724" lon="6.4444">
        <ele>696.539</ele>
        <time>2013-05-25T11:25:56Z</time>
      </trkpt>
      <trkpt lat="43.7972" lon="6.44454">
        <ele>697.082</ele>
        <time>2013-05-25T11:26:04Z</time>
      </trkpt>
      <trkpt lat="43.79716" lon="6.44471">
        <ele>694.411</ele>
        <time>2013-05-25T11:26:13Z</time>
      </trkpt>
      <trkpt lat="43.79716" lon="6.44486">
        <ele>693.125</ele>
        <time>2013-05-25T11:26:21Z</time>
      </trkpt>
      <trkpt lat="43.79715" lon="6.44498">
        <ele>697.304</ele>
        <time>2013-05-25T11:26:28Z</time>
      </trkpt>
      <trkpt lat="43.79715" lon="6.445">
        <ele>697.955</ele>
        <time>2013-05-25T11:26:29Z</time>
      </trkpt>
      <trkpt lat="43.79718" lon="6.4451">
        <ele>696.955</ele>
        <time>2013-05-25T11:26:33Z</time>
      </trkpt>
      <trkpt lat="43.79719" lon="6.44529">
        <ele>693.401</ele>
        <time>2013-05-25T11:26:40Z</time>
      </trkpt>
      <trkpt lat="43.79715" lon="6.44546">
        <ele>694.173</ele>
        <time>2013-05-25T11:26:47Z</time>
      </trkpt>
      <trkpt lat="43.79711" lon="6.44556">
        <ele>696.342</ele>
        <time>2013-05-25T11:26:53Z</time>
      </trkpt>
      <trkpt lat="43.79711" lon="6.44569">
        <ele>699.058</ele>
        <time>2013-05-25T11:26:59Z</time>
      </trkpt>
      <trkpt lat="43.79714" lon="6.44575">
        <ele>703.857</ele>
        <time>2013-05-25T11:27:04Z</time>
      </trkpt>
      <trkpt lat="43.79718" lon="6.44579">
        <ele>707.783</ele>
        <time>2013-05-25T11:27:09Z</time>
      </trkpt>
      <trkpt lat="43.79719" lon="6.44585">
        <ele>709.092</ele>
        <time>2013-05-25T11:27:12Z</time>
      </trkpt>
      <trkpt lat="43.79715" lon="6.44603">
        <ele>714.708</ele>
        <time>2013-05-25T11:27:21Z</time>
      </trkpt>
      <trkpt lat="43.79709" lon="6.44616">
        <ele>719.299</ele>
        <time>2013-05-25T11:27:29Z</time>
      </trkpt>
      <trkpt lat="43.79705" lon="6.44627">
        <ele>721.08</ele>
        <time>2013-05-25T11:27:36Z</time>
      </trkpt>
      <trkpt lat="43.79699" lon="6.44641">
        <ele>715.873</ele>
        <time>2013-05-25T11:27:44Z</time>
      </trkpt>
      <trkpt lat="43.79692" lon="6.44648">
        <ele>715.826</ele>
        <time>2013-05-25T11:27:51Z</time>
      </trkpt>
      <trkpt lat="43.7969" lon="6.44651">
        <ele>715.154</ele>
        <time>2013-05-25T11:27:54Z</time>
      </trkpt>
      <trkpt lat="43.79682" lon="6.44662">
        <ele>716.046</ele>
        <time>2013-05-25T11:28:03Z</time>
      </trkpt>
      <trkpt lat="43.79678" lon="6.44666">
        <ele>717.199</ele>
        <time>2013-05-25T11:28:07Z</time>
      </trkpt>
      <trkpt lat="43.79671" lon="6.4467">
        <ele>717.111</ele>
        <time>2013-05-25T11:28:14Z</time>
      </trkpt>
      <trkpt lat="43.7966" lon="6.44675">
        <ele>724.274</ele>
        <time>2013-05-25T11:28:23Z</time>
      </trkpt>
      <trkpt lat="43.79649" lon="6.4468">
        <ele>730.692</ele>
        <time>2013-05-25T11:28:31Z</time>
      </trkpt>
      <trkpt lat="43.79638" lon="6.44689">
        <ele>734.631</ele>
        <time>2013-05-25T11:28:40Z</time>
      </trkpt>
      <trkpt lat="43.79629" lon="6.447">
        <ele>731.447</ele>
        <time>2013-05-25T11:28:47Z</time>
      </trkpt>
      <trkpt lat="43.7962" lon="6.44712">
        <ele>728.093</ele>
        <time>2013-05-25T11:28:55Z</time>
      </trkpt>
      <trkpt lat="43.7961" lon="6.44722">
        <ele>727.906</ele>
        <time>2013-05-25T11:29:04Z</time>
      </trkpt>
      <trkpt lat="43.79602" lon="6.44728">
        <ele>727.264</ele>
        <time>2013-05-25T11:29:12Z</time>
      </trkpt>
      <trkpt lat="43.79596" lon="6.44729">
        <ele>728.995</ele>
        <time>2013-05-25T11:29:17Z</time>
      </trkpt>
      <trkpt lat="43.79592" lon="6.4473">
        <ele>729.709</ele>
        <time>2013-05-25T11:29:21Z</time>
      </trkpt>
      <trkpt lat="43.79577" lon="6.44734">
        <ele>733.262</ele>
        <time>2013-05-25T11:29:31Z</time>
      </trkpt>
      <trkpt lat="43.79566" lon="6.44732">
        <ele>736.405</ele>
        <time>2013-05-25T11:29:38Z</time>
      </trkpt>
      <trkpt lat="43.79554" lon="6.44735">
        <ele>735.932</ele>
        <time>2013-05-25T11:29:44Z</time>
      </trkpt>
      <trkpt lat="43.79553" lon="6.44735">
        <ele>736.926</ele>
        <time>2013-05-25T11:29:45Z</time>
      </trkpt>
      <trkpt lat="43.79541" lon="6.44747">
        <ele>739.487</ele>
        <time>2013-05-25T11:29:54Z</time>
      </trkpt>
      <trkpt lat="43.79538" lon="6.44761">
        <ele>736.815</ele>
        <time>2013-05-25T11:30:01Z</time>
      </trkpt>
      <trkpt lat="43.79536" lon="6.44771">
        <ele>737.444</ele>
        <time>2013-05-25T11:30:07Z</time>
      </trkpt>
      <trkpt lat="43.79533" lon="6.4479">
        <ele>735.612</ele>
        <time>2013-05-25T11:30:15Z</time>
      </trkpt>
      <trkpt lat="43.7953" lon="6.44806">
        <ele>735.795</ele>
        <time>2013-05-25T11:30:22Z</time>
      </trkpt>
      <trkpt lat="43.79524" lon="6.44824">
        <ele>738.738</ele>
        <time>2013-05-25T11:30:29Z</time>
      </trkpt>
      <trkpt lat="43.79513" lon="6.44841">
        <ele>741.737</ele>
        <time>2013-05-25T11:30:36Z</time>
      </trkpt>
      <trkpt lat="43.79501" lon="6.44856">
        <ele>744.334</ele>
        <time>2013-05-25T11:30:44Z</time>
      </trkpt>
      <trkpt lat="43.79492" lon="6.44868">
        <ele>749.184</ele>
        <time>2013-05-25T11:30:51Z</time>
      </trkpt>
      <trkpt lat="43.79488" lon="6.44873">
        <ele>748.902</ele>
        <time>2013-05-25T11:30:55Z</time>
      </trkpt>
      <trkpt lat="43.79482" lon="6.44876">
        <ele>749.135</ele>
        <time>2013-05-25T11:30:59Z</time>
      </trkpt>
      <trkpt lat="43.79471" lon="6.44886">
        <ele>749.966</ele>
        <time>2013-05-25T11:31:06Z</time>
      </trkpt>
      <trkpt lat="43.79459" lon="6.44901">
        <ele>752.437</ele>
        <time>2013-05-25T11:31:13Z</time>
      </trkpt>
      <trkpt lat="43.7945" lon="6.44921">
        <ele>749.852</ele>
        <time>2013-05-25T11:31:20Z</time>
      </trkpt>
      <trkpt lat="43.79445" lon="6.44941">
        <ele>746.744</ele>
        <time>2013-05-25T11:31:26Z</time>
      </trkpt>
      <trkpt lat="43.79446" lon="6.44956">
        <ele>747.131</ele>
        <time>2013-05-25T11:31:31Z</time>
      </trkpt>
      <trkpt lat="43.79452" lon="6.44971">
        <ele>745.127</ele>
        <time>2013-05-25T11:31:37Z</time>
      </trkpt>
      <trkpt lat="43.79457" lon="6.44991">
        <ele>745.273</ele>
        <time>2013-05-25T11:31:43Z</time>
      </trkpt>
      <trkpt lat="43.79457" lon="6.44997">
        <ele>746.568</ele>
        <time>2013-05-25T11:31:45Z</time>
      </trkpt>
      <trkpt lat="43.79457" lon="6.45025">
        <ele>750.546</ele>
        <time>2013-05-25T11:31:53Z</time>
      </trkpt>
      <trkpt lat="43.79452" lon="6.45042">
        <ele>752.662</ele>
        <time>2013-05-25T11:31:59Z</time>
      </trkpt>
      <trkpt lat="43.79441" lon="6.45059">
        <ele>755.507</ele>
        <time>2013-05-25T11:32:07Z</time>
      </trkpt>
      <trkpt lat="43.79438" lon="6.45067">
        <ele>756.977</ele>
        <time>2013-05-25T11:32:11Z</time>
      </trkpt>
      <trkpt lat="43.79441" lon="6.45085">
        <ele>757.41</ele>
        <time>2013-05-25T11:32:18Z</time>
      </trkpt>
      <trkpt lat="43.79446" lon="6.45102">
        <ele>756.573</ele>
        <time>2013-05-25T11:32:24Z</time>
      </trkpt>
      <trkpt lat="43.79453" lon="6.45116">
        <ele>752.199</ele>
        <time>2013-05-25T11:32:31Z</time>
      </trkpt>
      <trkpt lat="43.79454" lon="6.45121">
        <ele>751.166</ele>
        <time>2013-05-25T11:32:33Z</time>
      </trkpt>
      <trkpt lat="43.79457" lon="6.45133">
        <ele>751.072</ele>
        <time>2013-05-25T11:32:40Z</time>
      </trkpt>
      <trkpt lat="43.79459" lon="6.45154">
        <ele>749.949</ele>
        <time>2013-05-25T11:32:47Z</time>
      </trkpt>
      <trkpt lat="43.79455" lon="6.45166">
        <ele>751.125</ele>
        <time>2013-05-25T11:32:52Z</time>
      </trkpt>
      <trkpt lat="43.79456" lon="6.45182">
        <ele>753.165</ele>
        <time>2013-05-25T11:32:59Z</time>
      </trkpt>
      <trkpt lat="43.79462" lon="6.4519">
        <ele>754.175</ele>
        <time>2013-05-25T11:33:05Z</time>
      </trkpt>
      <trkpt lat="43.79463" lon="6.4519">
        <ele>753.77</ele>
        <time>2013-05-25T11:33:06Z</time>
      </trkpt>
      <trkpt lat="43.79474" lon="6.45185">
        <ele>753.53</ele>
        <time>2013-05-25T11:33:14Z</time>
      </trkpt>
      <trkpt lat="43.79477" lon="6.4518">
        <ele>753.477</ele>
        <time>2013-05-25T11:33:17Z</time>
      </trkpt>
      <trkpt lat="43.7948" lon="6.45167">
        <ele>755.21</ele>
        <time>2013-05-25T11:33:23Z</time>
      </trkpt>
      <trkpt lat="43.79483" lon="6.45155">
        <ele>757.166</ele>
        <time>2013-05-25T11:33:29Z</time>
      </trkpt>
      <trkpt lat="43.79484" lon="6.45148">
        <ele>759.799</ele>
        <time>2013-05-25T11:33:32Z</time>
      </trkpt>
      <trkpt lat="43.79491" lon="6.45131">
        <ele>762.632</ele>
        <time>2013-05-25T11:33:40Z</time>
      </trkpt>
      <trkpt lat="43.79497" lon="6.4511">
        <ele>767.156</ele>
        <time>2013-05-25T11:33:49Z</time>
      </trkpt>
      <trkpt lat="43.79501" lon="6.45097">
        <ele>768.669</ele>
        <time>2013-05-25T11:33:54Z</time>
      </trkpt>
      <trkpt lat="43.7951" lon="6.45078">
        <ele>769.472</ele>
        <time>2013-05-25T11:34:02Z</time>
      </trkpt>
      <trkpt lat="43.79513" lon="6.45071">
        <ele>769.513</ele>
        <time>2013-05-25T11:34:05Z</time>
      </trkpt>
      <trkpt lat="43.79523" lon="6.45062">
        <ele>768.939</ele>
        <time>2013-05-25T11:34:12Z</time>
      </trkpt>
      <trkpt lat="43.79529" lon="6.45062">
        <ele>769.528</ele>
        <time>2013-05-25T11:34:17Z</time>
      </trkpt>
      <trkpt lat="43.79532" lon="6.45061">
        <ele>770.509</ele>
        <time>2013-05-25T11:34:20Z</time>
      </trkpt>
      <trkpt lat="43.79541" lon="6.45066">
        <ele>768.871</ele>
        <time>2013-05-25T11:34:26Z</time>
      </trkpt>
      <trkpt lat="43.79548" lon="6.45079">
        <ele>769.259</ele>
        <time>2013-05-25T11:34:34Z</time>
      </trkpt>
      <trkpt lat="43.79551" lon="6.4509">
        <ele>768.185</ele>
        <time>2013-05-25T11:34:40Z</time>
      </trkpt>
      <trkpt lat="43.79551" lon="6.45094">
        <ele>766.93</ele>
        <time>2013-05-25T11:34:42Z</time>
      </trkpt>
      <trkpt lat="43.79556" lon="6.4511">
        <ele>765.536</ele>
        <time>2013-05-25T11:34:48Z</time>
      </trkpt>
      <trkpt lat="43.79561" lon="6.45121">
        <ele>767.005</ele>
        <time>2013-05-25T11:34:53Z</time>
      </trkpt>
      <trkpt lat="43.79568" lon="6.45127">
        <ele>767.049</ele>
        <time>2013-05-25T11:34:59Z</time>
      </trkpt>
      <trkpt lat="43.79584" lon="6.45126">
        <ele>766.529</ele>
        <time>2013-05-25T11:35:07Z</time>
      </trkpt>
      <trkpt lat="43.79593" lon="6.4512">
        <ele>767.296</ele>
        <time>2013-05-25T11:35:14Z</time>
      </trkpt>
      <trkpt lat="43.79595" lon="6.45119">
        <ele>768.281</ele>
        <time>2013-05-25T11:35:16Z</time>
      </trkpt>
      <trkpt lat="43.79604" lon="6.45115">
        <ele>769.617</ele>
        <time>2013-05-25T11:35:23Z</time>
      </trkpt>
      <trkpt lat="43.79612" lon="6.45106">
        <ele>770.94</ele>
        <time>2013-05-25T11:35:30Z</time>
      </trkpt>
      <trkpt lat="43.79627" lon="6.45098">
        <ele>772.363</ele>
        <time>2013-05-25T11:35:38Z</time>
      </trkpt>
      <trkpt lat="43.79635" lon="6.45092">
        <ele>773.416</ele>
        <time>2013-05-25T11:35:42Z</time>
      </trkpt>
      <trkpt lat="43.79645" lon="6.45074">
        <ele>778.861</ele>
        <time>2013-05-25T11:35:52Z</time>
      </trkpt>
      <trkpt lat="43.79652" lon="6.45062">
        <ele>781.654</ele>
        <time>2013-05-25T11:35:59Z</time>
      </trkpt>
      <trkpt lat="43.7966" lon="6.45063">
        <ele>780.662</ele>
        <time>2013-05-25T11:36:06Z</time>
      </trkpt>
      <trkpt lat="43.79661" lon="6.45065">
        <ele>781.305</ele>
        <time>2013-05-25T11:36:07Z</time>
      </trkpt>
      <trkpt lat="43.7966" lon="6.45078">
        <ele>782.844</ele>
        <time>2013-05-25T11:36:14Z</time>
      </trkpt>
      <trkpt lat="43.79661" lon="6.45089">
        <ele>785.957</ele>
        <time>2013-05-25T11:36:20Z</time>
      </trkpt>
      <trkpt lat="43.79662" lon="6.45103">
        <ele>790.907</ele>
        <time>2013-05-25T11:36:27Z</time>
      </trkpt>
      <trkpt lat="43.79663" lon="6.45115">
        <ele>792.727</ele>
        <time>2013-05-25T11:36:33Z</time>
      </trkpt>
      <trkpt lat="43.79665" lon="6.45126">
        <ele>794.855</ele>
        <time>2013-05-25T11:36:39Z</time>
      </trkpt>
      <trkpt lat="43.79676" lon="6.45142">
        <ele>793.532</ele>
        <time>2013-05-25T11:36:47Z</time>
      </trkpt>
      <trkpt lat="43.79686" lon="6.45155">
        <ele>793.919</ele>
        <time>2013-05-25T11:36:54Z</time>
      </trkpt>
      <trkpt lat="43.7969" lon="6.45168">
        <ele>792.062</ele>
        <time>2013-05-25T11:37:00Z</time>
      </trkpt>
      <trkpt lat="43.7969" lon="6.45187">
        <ele>791.833</ele>
        <time>2013-05-25T11:37:08Z</time>
      </trkpt>
      <trkpt lat="43.79687" lon="6.45208">
        <ele>791.987</ele>
        <time>2013-05-25T11:37:16Z</time>
      </trkpt>
      <trkpt lat="43.79682" lon="6.45216">
        <ele>795.729</ele>
        <time>2013-05-25T11:37:21Z</time>
      </trkpt>
      <trkpt lat="43.7968" lon="6.45217">
        <ele>796.444</ele>
        <time>2013-05-25T11:37:22Z</time>
      </trkpt>
      <trkpt lat="43.79679" lon="6.45225">
        <ele>796.758</ele>
        <time>2013-05-25T11:37:26Z</time>
      </trkpt>
      <trkpt lat="43.79677" lon="6.45231">
        <ele>795.581</ele>
        <time>2013-05-25T11:37:29Z</time>
      </trkpt>
      <trkpt lat="43.79678" lon="6.45244">
        <ele>794.096</ele>
        <time>2013-05-25T11:37:34Z</time>
      </trkpt>
      <trkpt lat="43.79677" lon="6.4526">
        <ele>795.46</ele>
        <time>2013-05-25T11:37:41Z</time>
      </trkpt>
      <trkpt lat="43.79677" lon="6.45279">
        <ele>795.568</ele>
        <time>2013-05-25T11:37:50Z</time>
      </trkpt>
      <trkpt lat="43.79679" lon="6.45294">
        <ele>799.324</ele>
        <time>2013-05-25T11:37:56Z</time>
      </trkpt>
      <trkpt lat="43.79681" lon="6.45309">
        <ele>801.032</ele>
        <time>2013-05-25T11:38:03Z</time>
      </trkpt>
      <trkpt lat="43.79682" lon="6.45322">
        <ele>803.78</ele>
        <time>2013-05-25T11:38:09Z</time>
      </trkpt>
      <trkpt lat="43.79682" lon="6.45328">
        <ele>804.549</ele>
        <time>2013-05-25T11:38:12Z</time>
      </trkpt>
      <trkpt lat="43.79681" lon="6.45345">
        <ele>800.909</ele>
        <time>2013-05-25T11:38:18Z</time>
      </trkpt>
      <trkpt lat="43.79678" lon="6.45363">
        <ele>802.365</ele>
        <time>2013-05-25T11:38:26Z</time>
      </trkpt>
      <trkpt lat="43.79677" lon="6.45371">
        <ele>804.245</ele>
        <time>2013-05-25T11:38:30Z</time>
      </trkpt>
      <trkpt lat="43.79671" lon="6.45382">
        <ele>810.277</ele>
        <time>2013-05-25T11:38:37Z</time>
      </trkpt>
      <trkpt lat="43.79668" lon="6.45396">
        <ele>813.41</ele>
        <time>2013-05-25T11:38:43Z</time>
      </trkpt>
      <trkpt lat="43.79665" lon="6.45414">
        <ele>810.924</ele>
        <time>2013-05-25T11:38:51Z</time>
      </trkpt>
      <trkpt lat="43.79657" lon="6.45432">
        <ele>811.019</ele>
        <time>2013-05-25T11:39:01Z</time>
      </trkpt>
      <trkpt lat="43.79649" lon="6.4545">
        <ele>809.038</ele>
        <time>2013-05-25T11:39:10Z</time>
      </trkpt>
      <trkpt lat="43.79638" lon="6.4546">
        <ele>809.873</ele>
        <time>2013-05-25T11:39:18Z</time>
      </trkpt>
      <trkpt lat="43.7963" lon="6.45468">
        <ele>809.674</ele>
        <time>2013-05-25T11:39:24Z</time>
      </trkpt>
      <trkpt lat="43.79632" lon="6.45479">
        <ele>811.124</ele>
        <time>2013-05-25T11:39:30Z</time>
      </trkpt>
      <trkpt lat="43.79634" lon="6.45483">
        <ele>811.17</ele>
        <time>2013-05-25T11:39:33Z</time>
      </trkpt>
      <trkpt lat="43.79643" lon="6.45488">
        <ele>812.907</ele>
        <time>2013-05-25T11:39:41Z</time>
      </trkpt>
      <trkpt lat="43.79648" lon="6.4549">
        <ele>813.516</ele>
        <time>2013-05-25T11:39:46Z</time>
      </trkpt>
      <trkpt lat="43.79654" lon="6.45491">
        <ele>814.729</ele>
        <time>2013-05-25T11:39:51Z</time>
      </trkpt>
      <trkpt lat="43.79665" lon="6.45493">
        <ele>816.022</ele>
        <time>2013-05-25T11:39:59Z</time>
      </trkpt>
      <trkpt lat="43.79677" lon="6.45495">
        <ele>818.922</ele>
        <time>2013-05-25T11:40:06Z</time>
      </trkpt>
      <trkpt lat="43.79684" lon="6.45496">
        <ele>818.147</ele>
        <time>2013-05-25T11:40:10Z</time>
      </trkpt>
      <trkpt lat="43.79693" lon="6.45505">
        <ele>816.092</ele>
        <time>2013-05-25T11:40:16Z</time>
      </trkpt>
      <trkpt lat="43.79698" lon="6.45516">
        <ele>815.968</ele>
        <time>2013-05-25T11:40:21Z</time>
      </trkpt>
      <trkpt lat="43.79701" lon="6.45527">
        <ele>815.076</ele>
        <time>2013-05-25T11:40:26Z</time>
      </trkpt>
      <trkpt lat="43.79704" lon="6.45548">
        <ele>817.704</ele>
        <time>2013-05-25T11:40:33Z</time>
      </trkpt>
      <trkpt lat="43.79704" lon="6.45569">
        <ele>819.114</ele>
        <time>2013-05-25T11:40:40Z</time>
      </trkpt>
      <trkpt lat="43.79701" lon="6.4559">
        <ele>819.87</ele>
        <time>2013-05-25T11:40:47Z</time>
      </trkpt>
      <trkpt lat="43.79696" lon="6.45609">
        <ele>819.222</ele>
        <time>2013-05-25T11:40:54Z</time>
      </trkpt>
      <trkpt lat="43.79687" lon="6.45621">
        <ele>821.21</ele>
        <time>2013-05-25T11:41:00Z</time>
      </trkpt>
      <trkpt lat="43.79674" lon="6.45636">
        <ele>823.613</ele>
        <time>2013-05-25T11:41:07Z</time>
      </trkpt>
      <trkpt lat="43.79663" lon="6.45651">
        <ele>828.003</ele>
        <time>2013-05-25T11:41:14Z</time>
      </trkpt>
      <trkpt lat="43.79656" lon="6.45663">
        <ele>832.553</ele>
        <time>2013-05-25T11:41:20Z</time>
      </trkpt>
      <trkpt lat="43.79649" lon="6.45668">
        <ele>835.986</ele>
        <time>2013-05-25T11:41:25Z</time>
      </trkpt>
      <trkpt lat="43.79641" lon="6.45681">
        <ele>840.585</ele>
        <time>2013-05-25T11:41:35Z</time>
      </trkpt>
      <trkpt lat="43.79633" lon="6.45692">
        <ele>840.758</ele>
        <time>2013-05-25T11:41:43Z</time>
      </trkpt>
      <trkpt lat="43.79627" lon="6.45694">
        <ele>841.266</ele>
        <time>2013-05-25T11:41:47Z</time>
      </trkpt>
      <trkpt lat="43.79617" lon="6.45702">
        <ele>839.539</ele>
        <time>2013-05-25T11:41:55Z</time>
      </trkpt>
      <trkpt lat="43.79609" lon="6.45708">
        <ele>837.983</ele>
        <time>2013-05-25T11:42:01Z</time>
      </trkpt>
      <trkpt lat="43.79598" lon="6.45717">
        <ele>836.008</ele>
        <time>2013-05-25T11:42:09Z</time>
      </trkpt>
      <trkpt lat="43.79583" lon="6.45725">
        <ele>836.535</ele>
        <time>2013-05-25T11:42:18Z</time>
      </trkpt>
      <trkpt lat="43.7957" lon="6.45736">
        <ele>835.808</ele>
        <time>2013-05-25T11:42:26Z</time>
      </trkpt>
      <trkpt lat="43.79566" lon="6.45739">
        <ele>835.249</ele>
        <time>2013-05-25T11:42:28Z</time>
      </trkpt>
      <trkpt lat="43.79561" lon="6.45755">
        <ele>835.034</ele>
        <time>2013-05-25T11:42:35Z</time>
      </trkpt>
      <trkpt lat="43.79561" lon="6.45758">
        <ele>835.365</ele>
        <time>2013-05-25T11:42:36Z</time>
      </trkpt>
      <trkpt lat="43.7956" lon="6.45776">
        <ele>839.026</ele>
        <time>2013-05-25T11:42:45Z</time>
      </trkpt>
      <trkpt lat="43.79558" lon="6.45788">
        <ele>843.551</ele>
        <time>2013-05-25T11:42:52Z</time>
      </trkpt>
      <trkpt lat="43.79552" lon="6.45798">
        <ele>849.767</ele>
        <time>2013-05-25T11:42:58Z</time>
      </trkpt>
      <trkpt lat="43.79543" lon="6.45814">
        <ele>847.278</ele>
        <time>2013-05-25T11:43:08Z</time>
      </trkpt>
      <trkpt lat="43.79543" lon="6.45816">
        <ele>846.526</ele>
        <time>2013-05-25T11:43:09Z</time>
      </trkpt>
      <trkpt lat="43.7954" lon="6.45824">
        <ele>844.616</ele>
        <time>2013-05-25T11:43:13Z</time>
      </trkpt>
      <trkpt lat="43.7954" lon="6.4584">
        <ele>845.366</ele>
        <time>2013-05-25T11:43:20Z</time>
      </trkpt>
      <trkpt lat="43.79541" lon="6.45853">
        <ele>846.909</ele>
        <time>2013-05-25T11:43:27Z</time>
      </trkpt>
      <trkpt lat="43.79536" lon="6.45872">
        <ele>845.93</ele>
        <time>2013-05-25T11:43:36Z</time>
      </trkpt>
      <trkpt lat="43.79529" lon="6.45882">
        <ele>848.886</ele>
        <time>2013-05-25T11:43:44Z</time>
      </trkpt>
      <trkpt lat="43.79523" lon="6.4589">
        <ele>849.578</ele>
        <time>2013-05-25T11:43:50Z</time>
      </trkpt>
      <trkpt lat="43.79519" lon="6.45893">
        <ele>851.092</ele>
        <time>2013-05-25T11:43:53Z</time>
      </trkpt>
      <trkpt lat="43.79511" lon="6.45905">
        <ele>849.888</ele>
        <time>2013-05-25T11:44:00Z</time>
      </trkpt>
      <trkpt lat="43.79505" lon="6.45921">
        <ele>849.7</ele>
        <time>2013-05-25T11:44:08Z</time>
      </trkpt>
      <trkpt lat="43.795" lon="6.45936">
        <ele>850.971</ele>
        <time>2013-05-25T11:44:16Z</time>
      </trkpt>
      <trkpt lat="43.79503" lon="6.45949">
        <ele>852.796</ele>
        <time>2013-05-25T11:44:24Z</time>
      </trkpt>
      <trkpt lat="43.79512" lon="6.45959">
        <ele>852.776</ele>
        <time>2013-05-25T11:44:31Z</time>
      </trkpt>
      <trkpt lat="43.79519" lon="6.45971">
        <ele>852.752</ele>
        <time>2013-05-25T11:44:39Z</time>
      </trkpt>
      <trkpt lat="43.79523" lon="6.45978">
        <ele>852.47</ele>
        <time>2013-05-25T11:44:44Z</time>
      </trkpt>
      <trkpt lat="43.79528" lon="6.45987">
        <ele>855.3</ele>
        <time>2013-05-25T11:44:49Z</time>
      </trkpt>
      <trkpt lat="43.79536" lon="6.46001">
        <ele>853.58</ele>
        <time>2013-05-25T11:44:56Z</time>
      </trkpt>
      <trkpt lat="43.7954" lon="6.46014">
        <ele>853.617</ele>
        <time>2013-05-25T11:45:03Z</time>
      </trkpt>
      <trkpt lat="43.79541" lon="6.46015">
        <ele>852.942</ele>
        <time>2013-05-25T11:45:04Z</time>
      </trkpt>
      <trkpt lat="43.7954" lon="6.46028">
        <ele>852.704</ele>
        <time>2013-05-25T11:45:10Z</time>
      </trkpt>
      <trkpt lat="43.79539" lon="6.46038">
        <ele>852.638</ele>
        <time>2013-05-25T11:45:14Z</time>
      </trkpt>
      <trkpt lat="43.79537" lon="6.4606">
        <ele>853.544</ele>
        <time>2013-05-25T11:45:23Z</time>
      </trkpt>
      <trkpt lat="43.79532" lon="6.46081">
        <ele>850.8</ele>
        <time>2013-05-25T11:45:33Z</time>
      </trkpt>
      <trkpt lat="43.79529" lon="6.46094">
        <ele>853.079</ele>
        <time>2013-05-25T11:45:39Z</time>
      </trkpt>
      <trkpt lat="43.79525" lon="6.46105">
        <ele>855.587</ele>
        <time>2013-05-25T11:45:45Z</time>
      </trkpt>
      <trkpt lat="43.7952" lon="6.46114">
        <ele>858.45</ele>
        <time>2013-05-25T11:45:51Z</time>
      </trkpt>
      <trkpt lat="43.79511" lon="6.46126">
        <ele>860.756</ele>
        <time>2013-05-25T11:45:58Z</time>
      </trkpt>
      <trkpt lat="43.79503" lon="6.46136">
        <ele>860.105</ele>
        <time>2013-05-25T11:46:05Z</time>
      </trkpt>
      <trkpt lat="43.79501" lon="6.46142">
        <ele>859.696</ele>
        <time>2013-05-25T11:46:08Z</time>
      </trkpt>
      <trkpt lat="43.79496" lon="6.46156">
        <ele>861.031</ele>
        <time>2013-05-25T11:46:15Z</time>
      </trkpt>
      <trkpt lat="43.79501" lon="6.46164">
        <ele>862.666</ele>
        <time>2013-05-25T11:46:21Z</time>
      </trkpt>
      <trkpt lat="43.79504" lon="6.46164">
        <ele>862.744</ele>
        <time>2013-05-25T11:46:23Z</time>
      </trkpt>
      <trkpt lat="43.79513" lon="6.46154">
        <ele>863.908</ele>
        <time>2013-05-25T11:46:29Z</time>
      </trkpt>
      <trkpt lat="43.79521" lon="6.46143">
        <ele>865.205</ele>
        <time>2013-05-25T11:46:35Z</time>
      </trkpt>
      <trkpt lat="43.79532" lon="6.46136">
        <ele>866.162</ele>
        <time>2013-05-25T11:46:42Z</time>
      </trkpt>
      <trkpt lat="43.79547" lon="6.46132">
        <ele>870.041</ele>
        <time>2013-05-25T11:46:50Z</time>
      </trkpt>
      <trkpt lat="43.79559" lon="6.46125">
        <ele>872.63</ele>
        <time>2013-05-25T11:46:58Z</time>
      </trkpt>
      <trkpt lat="43.79573" lon="6.46114">
        <ele>872.08</ele>
        <time>2013-05-25T11:47:07Z</time>
      </trkpt>
      <trkpt lat="43.79581" lon="6.46105">
        <ele>873.515</ele>
        <time>2013-05-25T11:47:15Z</time>
      </trkpt>
      <trkpt lat="43.79579" lon="6.46103">
        <ele>877.666</ele>
        <time>2013-05-25T11:47:40Z</time>
      </trkpt>
      <trkpt lat="43.79582" lon="6.46099">
        <ele>877.849</ele>
        <time>2013-05-25T11:47:44Z</time>
      </trkpt>
      <trkpt lat="43.79589" lon="6.4609">
        <ele>877.016</ele>
        <time>2013-05-25T11:47:53Z</time>
      </trkpt>
      <trkpt lat="43.79597" lon="6.4608">
        <ele>876.456</ele>
        <time>2013-05-25T11:48:02Z</time>
      </trkpt>
      <trkpt lat="43.79606" lon="6.46071">
        <ele>879.756</ele>
        <time>2013-05-25T11:48:10Z</time>
      </trkpt>
      <trkpt lat="43.79613" lon="6.4606">
        <ele>881.693</ele>
        <time>2013-05-25T11:48:19Z</time>
      </trkpt>
      <trkpt lat="43.7962" lon="6.46047">
        <ele>881.589</ele>
        <time>2013-05-25T11:48:28Z</time>
      </trkpt>
      <trkpt lat="43.79626" lon="6.46038">
        <ele>881.893</ele>
        <time>2013-05-25T11:48:37Z</time>
      </trkpt>
      <trkpt lat="43.7963" lon="6.46033">
        <ele>876.957</ele>
        <time>2013-05-25T11:49:15Z</time>
      </trkpt>
      <trkpt lat="43.79641" lon="6.46022">
        <ele>878.059</ele>
        <time>2013-05-25T11:49:22Z</time>
      </trkpt>
      <trkpt lat="43.79649" lon="6.46011">
        <ele>880.835</ele>
        <time>2013-05-25T11:49:29Z</time>
      </trkpt>
      <trkpt lat="43.79655" lon="6.45997">
        <ele>883.006</ele>
        <time>2013-05-25T11:49:36Z</time>
      </trkpt>
      <trkpt lat="43.79666" lon="6.45983">
        <ele>882.983</ele>
        <time>2013-05-25T11:49:44Z</time>
      </trkpt>
      <trkpt lat="43.79681" lon="6.45979">
        <ele>888.463</ele>
        <time>2013-05-25T11:49:52Z</time>
      </trkpt>
      <trkpt lat="43.79694" lon="6.45976">
        <ele>889.791</ele>
        <time>2013-05-25T11:50:00Z</time>
      </trkpt>
      <trkpt lat="43.79701" lon="6.45976">
        <ele>888.639</ele>
        <time>2013-05-25T11:50:04Z</time>
      </trkpt>
      <trkpt lat="43.79707" lon="6.45985">
        <ele>887.908</ele>
        <time>2013-05-25T11:50:10Z</time>
      </trkpt>
      <trkpt lat="43.79704" lon="6.45996">
        <ele>890.928</ele>
        <time>2013-05-25T11:50:16Z</time>
      </trkpt>
      <trkpt lat="43.79694" lon="6.4601">
        <ele>892.861</ele>
        <time>2013-05-25T11:50:24Z</time>
      </trkpt>
      <trkpt lat="43.79687" lon="6.46028">
        <ele>893.024</ele>
        <time>2013-05-25T11:50:32Z</time>
      </trkpt>
      <trkpt lat="43.79679" lon="6.4605">
        <ele>892.82</ele>
        <time>2013-05-25T11:50:41Z</time>
      </trkpt>
      <trkpt lat="43.79675" lon="6.46065">
        <ele>892.957</ele>
        <time>2013-05-25T11:50:48Z</time>
      </trkpt>
      <trkpt lat="43.79674" lon="6.46083">
        <ele>892.897</ele>
        <time>2013-05-25T11:50:57Z</time>
      </trkpt>
      <trkpt lat="43.79674" lon="6.46102">
        <ele>892.381</ele>
        <time>2013-05-25T11:51:06Z</time>
      </trkpt>
      <trkpt lat="43.7967" lon="6.46119">
        <ele>892.841</ele>
        <time>2013-05-25T11:51:14Z</time>
      </trkpt>
      <trkpt lat="43.79664" lon="6.46134">
        <ele>895.593</ele>
        <time>2013-05-25T11:51:22Z</time>
      </trkpt>
      <trkpt lat="43.79653" lon="6.46147">
        <ele>897.555</ele>
        <time>2013-05-25T11:51:31Z</time>
      </trkpt>
      <trkpt lat="43.79647" lon="6.46158">
        <ele>898.621</ele>
        <time>2013-05-25T11:51:37Z</time>
      </trkpt>
      <trkpt lat="43.79647" lon="6.46171">
        <ele>898.815</ele>
        <time>2013-05-25T11:51:43Z</time>
      </trkpt>
      <trkpt lat="43.79643" lon="6.46189">
        <ele>901.794</ele>
        <time>2013-05-25T11:51:50Z</time>
      </trkpt>
      <trkpt lat="43.79634" lon="6.46201">
        <ele>904.614</ele>
        <time>2013-05-25T11:51:57Z</time>
      </trkpt>
      <trkpt lat="43.79624" lon="6.46209">
        <ele>905.555</ele>
        <time>2013-05-25T11:52:05Z</time>
      </trkpt>
      <trkpt lat="43.79616" lon="6.46221">
        <ele>907.892</ele>
        <time>2013-05-25T11:52:13Z</time>
      </trkpt>
      <trkpt lat="43.79614" lon="6.46227">
        <ele>907.47</ele>
        <time>2013-05-25T11:52:16Z</time>
      </trkpt>
      <trkpt lat="43.79615" lon="6.46236">
        <ele>907.133</ele>
        <time>2013-05-25T11:52:21Z</time>
      </trkpt>
      <trkpt lat="43.7962" lon="6.46257">
        <ele>905.211</ele>
        <time>2013-05-25T11:52:31Z</time>
      </trkpt>
      <trkpt lat="43.79622" lon="6.4627">
        <ele>905.125</ele>
        <time>2013-05-25T11:52:37Z</time>
      </trkpt>
      <trkpt lat="43.79629" lon="6.46286">
        <ele>904.956</ele>
        <time>2013-05-25T11:52:44Z</time>
      </trkpt>
      <trkpt lat="43.7964" lon="6.46299">
        <ele>903.6</ele>
        <time>2013-05-25T11:52:51Z</time>
      </trkpt>
      <trkpt lat="43.79651" lon="6.46313">
        <ele>903.217</ele>
        <time>2013-05-25T11:52:58Z</time>
      </trkpt>
      <trkpt lat="43.79662" lon="6.46333">
        <ele>903.381</ele>
        <time>2013-05-25T11:53:07Z</time>
      </trkpt>
      <trkpt lat="43.79663" lon="6.46351">
        <ele>904.059</ele>
        <time>2013-05-25T11:53:14Z</time>
      </trkpt>
      <trkpt lat="43.79659" lon="6.46361">
        <ele>904.416</ele>
        <time>2013-05-25T11:53:19Z</time>
      </trkpt>
      <trkpt lat="43.79656" lon="6.46376">
        <ele>904.336</ele>
        <time>2013-05-25T11:53:25Z</time>
      </trkpt>
      <trkpt lat="43.79661" lon="6.46386">
        <ele>904.767</ele>
        <time>2013-05-25T11:53:30Z</time>
      </trkpt>
      <trkpt lat="43.79663" lon="6.46387">
        <ele>904.848</ele>
        <time>2013-05-25T11:53:31Z</time>
      </trkpt>
      <trkpt lat="43.79677" lon="6.46379">
        <ele>906.145</ele>
        <time>2013-05-25T11:53:39Z</time>
      </trkpt>
      <trkpt lat="43.79689" lon="6.46366">
        <ele>907.236</ele>
        <time>2013-05-25T11:53:47Z</time>
      </trkpt>
      <trkpt lat="43.79702" lon="6.46347">
        <ele>908.338</ele>
        <time>2013-05-25T11:53:56Z</time>
      </trkpt>
      <trkpt lat="43.79709" lon="6.46333">
        <ele>909.852</ele>
        <time>2013-05-25T11:54:02Z</time>
      </trkpt>
      <trkpt lat="43.79719" lon="6.46322">
        <ele>911.464</ele>
        <time>2013-05-25T11:54:09Z</time>
      </trkpt>
      <trkpt lat="43.79727" lon="6.46314">
        <ele>913.366</ele>
        <time>2013-05-25T11:54:15Z</time>
      </trkpt>
      <trkpt lat="43.79728" lon="6.46312">
        <ele>914.093</ele>
        <time>2013-05-25T11:54:16Z</time>
      </trkpt>
      <trkpt lat="43.79734" lon="6.46297">
        <ele>917.429</ele>
        <time>2013-05-25T11:54:24Z</time>
      </trkpt>
      <trkpt lat="43.79742" lon="6.46279">
        <ele>920.231</ele>
        <time>2013-05-25T11:54:33Z</time>
      </trkpt>
      <trkpt lat="43.79756" lon="6.46268">
        <ele>920.795</ele>
        <time>2013-05-25T11:54:42Z</time>
      </trkpt>
      <trkpt lat="43.79771" lon="6.46265">
        <ele>918.36</ele>
        <time>2013-05-25T11:54:51Z</time>
      </trkpt>
      <trkpt lat="43.79784" lon="6.46265">
        <ele>917.692</ele>
        <time>2013-05-25T11:54:58Z</time>
      </trkpt>
      <trkpt lat="43.798" lon="6.46269">
        <ele>919.755</ele>
        <time>2013-05-25T11:55:07Z</time>
      </trkpt>
      <trkpt lat="43.79812" lon="6.46269">
        <ele>923.143</ele>
        <time>2013-05-25T11:55:14Z</time>
      </trkpt>
      <trkpt lat="43.79821" lon="6.46265">
        <ele>924.974</ele>
        <time>2013-05-25T11:55:20Z</time>
      </trkpt>
      <trkpt lat="43.79833" lon="6.46261">
        <ele>924.659</ele>
        <time>2013-05-25T11:55:26Z</time>
      </trkpt>
      <trkpt lat="43.79844" lon="6.46256">
        <ele>924.783</ele>
        <time>2013-05-25T11:55:32Z</time>
      </trkpt>
      <trkpt lat="43.79857" lon="6.46246">
        <ele>926.116</ele>
        <time>2013-05-25T11:55:40Z</time>
      </trkpt>
      <trkpt lat="43.79859" lon="6.46243">
        <ele>926.366</ele>
        <time>2013-05-25T11:55:42Z</time>
      </trkpt>
      <trkpt lat="43.79869" lon="6.46236">
        <ele>926.947</ele>
        <time>2013-05-25T11:55:49Z</time>
      </trkpt>
      <trkpt lat="43.79882" lon="6.46236">
        <ele>927.302</ele>
        <time>2013-05-25T11:55:57Z</time>
      </trkpt>
      <trkpt lat="43.79893" lon="6.46243">
        <ele>927.56</ele>
        <time>2013-05-25T11:56:04Z</time>
      </trkpt>
      <trkpt lat="43.79902" lon="6.46254">
        <ele>928.46</ele>
        <time>2013-05-25T11:56:12Z</time>
      </trkpt>
      <trkpt lat="43.79913" lon="6.46269">
        <ele>929.29</ele>
        <time>2013-05-25T11:56:21Z</time>
      </trkpt>
      <trkpt lat="43.79924" lon="6.46279">
        <ele>930.643</ele>
        <time>2013-05-25T11:56:29Z</time>
      </trkpt>
      <trkpt lat="43.79935" lon="6.46282">
        <ele>931.452</ele>
        <time>2013-05-25T11:56:36Z</time>
      </trkpt>
      <trkpt lat="43.79946" lon="6.46279">
        <ele>932.875</ele>
        <time>2013-05-25T11:56:43Z</time>
      </trkpt>
      <trkpt lat="43.79957" lon="6.46269">
        <ele>935.269</ele>
        <time>2013-05-25T11:56:52Z</time>
      </trkpt>
      <trkpt lat="43.79967" lon="6.4626">
        <ele>935.83</ele>
        <time>2013-05-25T11:56:59Z</time>
      </trkpt>
      <trkpt lat="43.79975" lon="6.46254">
        <ele>936.648</ele>
        <time>2013-05-25T11:57:05Z</time>
      </trkpt>
      <trkpt lat="43.79987" lon="6.46251">
        <ele>937.405</ele>
        <time>2013-05-25T11:57:12Z</time>
      </trkpt>
      <trkpt lat="43.79995" lon="6.46251">
        <ele>938.501</ele>
        <time>2013-05-25T11:57:17Z</time>
      </trkpt>
      <trkpt lat="43.80004" lon="6.46246">
        <ele>941.212</ele>
        <time>2013-05-25T11:57:24Z</time>
      </trkpt>
      <trkpt lat="43.80011" lon="6.46239">
        <ele>942.891</ele>
        <time>2013-05-25T11:57:30Z</time>
      </trkpt>
      <trkpt lat="43.80013" lon="6.4623">
        <ele>942.477</ele>
        <time>2013-05-25T11:57:34Z</time>
      </trkpt>
      <trkpt lat="43.80008" lon="6.46217">
        <ele>945.305</ele>
        <time>2013-05-25T11:57:41Z</time>
      </trkpt>
      <trkpt lat="43.79992" lon="6.46204">
        <ele>946.096</ele>
        <time>2013-05-25T11:57:50Z</time>
      </trkpt>
      <trkpt lat="43.79981" lon="6.46193">
        <ele>946.964</ele>
        <time>2013-05-25T11:57:57Z</time>
      </trkpt>
      <trkpt lat="43.79979" lon="6.46183">
        <ele>946.772</ele>
        <time>2013-05-25T11:58:01Z</time>
      </trkpt>
      <trkpt lat="43.79986" lon="6.46174">
        <ele>948.334</ele>
        <time>2013-05-25T11:58:07Z</time>
      </trkpt>
      <trkpt lat="43.7999" lon="6.46173">
        <ele>948.493</ele>
        <time>2013-05-25T11:58:09Z</time>
      </trkpt>
      <trkpt lat="43.80003" lon="6.46169">
        <ele>950.51</ele>
        <time>2013-05-25T11:58:18Z</time>
      </trkpt>
      <trkpt lat="43.80013" lon="6.46166">
        <ele>952.177</ele>
        <time>2013-05-25T11:58:25Z</time>
      </trkpt>
      <trkpt lat="43.80024" lon="6.46162">
        <ele>954.177</ele>
        <time>2013-05-25T11:58:33Z</time>
      </trkpt>
      <trkpt lat="43.80034" lon="6.46153">
        <ele>954.998</ele>
        <time>2013-05-25T11:58:41Z</time>
      </trkpt>
      <trkpt lat="43.80043" lon="6.46142">
        <ele>953.499</ele>
        <time>2013-05-25T11:58:47Z</time>
      </trkpt>
      <trkpt lat="43.80054" lon="6.46128">
        <ele>953.953</ele>
        <time>2013-05-25T11:58:56Z</time>
      </trkpt>
      <trkpt lat="43.80063" lon="6.46119">
        <ele>955.2</ele>
        <time>2013-05-25T11:59:03Z</time>
      </trkpt>
      <trkpt lat="43.80075" lon="6.46108">
        <ele>955.012</ele>
        <time>2013-05-25T11:59:11Z</time>
      </trkpt>
      <trkpt lat="43.80088" lon="6.46099">
        <ele>955.732</ele>
        <time>2013-05-25T11:59:19Z</time>
      </trkpt>
      <trkpt lat="43.80099" lon="6.4609">
        <ele>955.85</ele>
        <time>2013-05-25T11:59:26Z</time>
      </trkpt>
      <trkpt lat="43.80108" lon="6.46078">
        <ele>958.676</ele>
        <time>2013-05-25T11:59:33Z</time>
      </trkpt>
      <trkpt lat="43.80115" lon="6.46067">
        <ele>961.483</ele>
        <time>2013-05-25T11:59:41Z</time>
      </trkpt>
      <trkpt lat="43.80121" lon="6.46059">
        <ele>962.172</ele>
        <time>2013-05-25T11:59:46Z</time>
      </trkpt>
      <trkpt lat="43.80122" lon="6.46056">
        <ele>962.481</ele>
        <time>2013-05-25T11:59:48Z</time>
      </trkpt>
      <trkpt lat="43.80131" lon="6.46041">
        <ele>963.677</ele>
        <time>2013-05-25T11:59:57Z</time>
      </trkpt>
      <trkpt lat="43.80143" lon="6.46026">
        <ele>964.26</ele>
        <time>2013-05-25T12:00:05Z</time>
      </trkpt>
      <trkpt lat="43.80157" lon="6.46011">
        <ele>964.833</ele>
        <time>2013-05-25T12:00:14Z</time>
      </trkpt>
      <trkpt lat="43.80165" lon="6.46001">
        <ele>964.997</ele>
        <time>2013-05-25T12:00:20Z</time>
      </trkpt>
      <trkpt lat="43.80174" lon="6.45991">
        <ele>965.055</ele>
        <time>2013-05-25T12:00:27Z</time>
      </trkpt>
      <trkpt lat="43.80175" lon="6.4599">
        <ele>963.03</ele>
        <time>2013-05-25T12:00:33Z</time>
      </trkpt>
      <trkpt lat="43.80177" lon="6.45988">
        <ele>958.361</ele>
        <time>2013-05-25T12:01:04Z</time>
      </trkpt>
      <trkpt lat="43.80184" lon="6.45991">
        <ele>958.907</ele>
        <time>2013-05-25T12:01:09Z</time>
      </trkpt>
      <trkpt lat="43.80201" lon="6.46009">
        <ele>958.11</ele>
        <time>2013-05-25T12:01:20Z</time>
      </trkpt>
      <trkpt lat="43.80212" lon="6.46012">
        <ele>957.522</ele>
        <time>2013-05-25T12:01:26Z</time>
      </trkpt>
      <trkpt lat="43.80227" lon="6.46011">
        <ele>958.381</ele>
        <time>2013-05-25T12:01:34Z</time>
      </trkpt>
      <trkpt lat="43.80241" lon="6.46008">
        <ele>959.019</ele>
        <time>2013-05-25T12:01:41Z</time>
      </trkpt>
      <trkpt lat="43.80255" lon="6.46004">
        <ele>959.893</ele>
        <time>2013-05-25T12:01:48Z</time>
      </trkpt>
      <trkpt lat="43.80267" lon="6.45998">
        <ele>960.784</ele>
        <time>2013-05-25T12:01:54Z</time>
      </trkpt>
      <trkpt lat="43.80289" lon="6.45996">
        <ele>961.267</ele>
        <time>2013-05-25T12:02:04Z</time>
      </trkpt>
      <trkpt lat="43.80305" lon="6.45995">
        <ele>962.283</ele>
        <time>2013-05-25T12:02:12Z</time>
      </trkpt>
      <trkpt lat="43.80308" lon="6.45994">
        <ele>962.583</ele>
        <time>2013-05-25T12:02:14Z</time>
      </trkpt>
      <trkpt lat="43.80314" lon="6.46001">
        <ele>963.171</ele>
        <time>2013-05-25T12:02:18Z</time>
      </trkpt>
      <trkpt lat="43.80314" lon="6.46009">
        <ele>963.639</ele>
        <time>2013-05-25T12:02:21Z</time>
      </trkpt>
      <trkpt lat="43.80305" lon="6.46019">
        <ele>963.888</ele>
        <time>2013-05-25T12:02:27Z</time>
      </trkpt>
      <trkpt lat="43.80303" lon="6.46019">
        <ele>963.948</ele>
        <time>2013-05-25T12:02:28Z</time>
      </trkpt>
      <trkpt lat="43.80287" lon="6.46018">
        <ele>965.203</ele>
        <time>2013-05-25T12:02:36Z</time>
      </trkpt>
      <trkpt lat="43.80275" lon="6.46024">
        <ele>965.82</ele>
        <time>2013-05-25T12:02:43Z</time>
      </trkpt>
      <trkpt lat="43.80262" lon="6.46031">
        <ele>966.473</ele>
        <time>2013-05-25T12:02:51Z</time>
      </trkpt>
      <trkpt lat="43.8025" lon="6.46039">
        <ele>967.21</ele>
        <time>2013-05-25T12:02:59Z</time>
      </trkpt>
      <trkpt lat="43.8024" lon="6.46047">
        <ele>967.507</ele>
        <time>2013-05-25T12:03:06Z</time>
      </trkpt>
      <trkpt lat="43.80224" lon="6.4605">
        <ele>968.038</ele>
        <time>2013-05-25T12:03:15Z</time>
      </trkpt>
      <trkpt lat="43.80211" lon="6.46057">
        <ele>969.018</ele>
        <time>2013-05-25T12:03:23Z</time>
      </trkpt>
      <trkpt lat="43.80199" lon="6.46067">
        <ele>970.691</ele>
        <time>2013-05-25T12:03:31Z</time>
      </trkpt>
      <trkpt lat="43.80186" lon="6.46076">
        <ele>971.689</ele>
        <time>2013-05-25T12:03:39Z</time>
      </trkpt>
      <trkpt lat="43.80175" lon="6.46088">
        <ele>973.058</ele>
        <time>2013-05-25T12:03:47Z</time>
      </trkpt>
      <trkpt lat="43.80166" lon="6.46099">
        <ele>973.083</ele>
        <time>2013-05-25T12:03:54Z</time>
      </trkpt>
      <trkpt lat="43.80158" lon="6.46117">
        <ele>971.8</ele>
        <time>2013-05-25T12:04:02Z</time>
      </trkpt>
      <trkpt lat="43.8015" lon="6.4613">
        <ele>972.761</ele>
        <time>2013-05-25T12:04:09Z</time>
      </trkpt>
      <trkpt lat="43.80138" lon="6.46146">
        <ele>973.155</ele>
        <time>2013-05-25T12:04:18Z</time>
      </trkpt>
      <trkpt lat="43.80134" lon="6.4616">
        <ele>973.65</ele>
        <time>2013-05-25T12:04:24Z</time>
      </trkpt>
      <trkpt lat="43.80132" lon="6.46178">
        <ele>975.733</ele>
        <time>2013-05-25T12:04:31Z</time>
      </trkpt>
      <trkpt lat="43.80127" lon="6.46201">
        <ele>976.76</ele>
        <time>2013-05-25T12:04:40Z</time>
      </trkpt>
      <trkpt lat="43.80129" lon="6.46213">
        <ele>978.109</ele>
        <time>2013-05-25T12:04:45Z</time>
      </trkpt>
      <trkpt lat="43.80136" lon="6.46228">
        <ele>978.945</ele>
        <time>2013-05-25T12:04:52Z</time>
      </trkpt>
      <trkpt lat="43.80144" lon="6.4624">
        <ele>981.258</ele>
        <time>2013-05-25T12:04:59Z</time>
      </trkpt>
      <trkpt lat="43.80151" lon="6.46253">
        <ele>983.385</ele>
        <time>2013-05-25T12:05:05Z</time>
      </trkpt>
      <trkpt lat="43.80151" lon="6.46269">
        <ele>984.563</ele>
        <time>2013-05-25T12:05:12Z</time>
      </trkpt>
      <trkpt lat="43.80142" lon="6.46286">
        <ele>986.362</ele>
        <time>2013-05-25T12:05:21Z</time>
      </trkpt>
      <trkpt lat="43.80137" lon="6.46299">
        <ele>987.243</ele>
        <time>2013-05-25T12:05:27Z</time>
      </trkpt>
      <trkpt lat="43.80136" lon="6.46314">
        <ele>988.731</ele>
        <time>2013-05-25T12:05:33Z</time>
      </trkpt>
      <trkpt lat="43.80135" lon="6.46332">
        <ele>989.825</ele>
        <time>2013-05-25T12:05:40Z</time>
      </trkpt>
      <trkpt lat="43.80131" lon="6.46348">
        <ele>991.66</ele>
        <time>2013-05-25T12:05:47Z</time>
      </trkpt>
      <trkpt lat="43.80127" lon="6.46367">
        <ele>991.436</ele>
        <time>2013-05-25T12:05:54Z</time>
      </trkpt>
      <trkpt lat="43.80127" lon="6.46384">
        <ele>992.272</ele>
        <time>2013-05-25T12:06:01Z</time>
      </trkpt>
      <trkpt lat="43.80132" lon="6.46399">
        <ele>991.999</ele>
        <time>2013-05-25T12:06:06Z</time>
      </trkpt>
      <trkpt lat="43.80139" lon="6.4641">
        <ele>991.083</ele>
        <time>2013-05-25T12:06:11Z</time>
      </trkpt>
      <trkpt lat="43.8015" lon="6.46418">
        <ele>991.995</ele>
        <time>2013-05-25T12:06:17Z</time>
      </trkpt>
      <trkpt lat="43.80159" lon="6.46422">
        <ele>993.476</ele>
        <time>2013-05-25T12:06:22Z</time>
      </trkpt>
      <trkpt lat="43.80169" lon="6.46421">
        <ele>995.706</ele>
        <time>2013-05-25T12:06:29Z</time>
      </trkpt>
      <trkpt lat="43.80179" lon="6.46424">
        <ele>998.761</ele>
        <time>2013-05-25T12:06:36Z</time>
      </trkpt>
      <trkpt lat="43.80188" lon="6.46434">
        <ele>999.976</ele>
        <time>2013-05-25T12:06:43Z</time>
      </trkpt>
      <trkpt lat="43.80192" lon="6.4645">
        <ele>1001.719</ele>
        <time>2013-05-25T12:06:51Z</time>
      </trkpt>
      <trkpt lat="43.80191" lon="6.46468">
        <ele>1004.326</ele>
        <time>2013-05-25T12:06:59Z</time>
      </trkpt>
      <trkpt lat="43.80186" lon="6.46477">
        <ele>1007.63</ele>
        <time>2013-05-25T12:07:05Z</time>
      </trkpt>
      <trkpt lat="43.80177" lon="6.46485">
        <ele>1011.271</ele>
        <time>2013-05-25T12:07:12Z</time>
      </trkpt>
      <trkpt lat="43.80168" lon="6.46497">
        <ele>1016.234</ele>
        <time>2013-05-25T12:07:20Z</time>
      </trkpt>
      <trkpt lat="43.80163" lon="6.46506">
        <ele>1020.257</ele>
        <time>2013-05-25T12:07:26Z</time>
      </trkpt>
      <trkpt lat="43.80158" lon="6.46514">
        <ele>1023.452</ele>
        <time>2013-05-25T12:07:31Z</time>
      </trkpt>
      <trkpt lat="43.80151" lon="6.46529">
        <ele>1025.923</ele>
        <time>2013-05-25T12:07:38Z</time>
      </trkpt>
      <trkpt lat="43.80143" lon="6.46544">
        <ele>1029.28</ele>
        <time>2013-05-25T12:07:46Z</time>
      </trkpt>
      <trkpt lat="43.80135" lon="6.4656">
        <ele>1029.449</ele>
        <time>2013-05-25T12:07:55Z</time>
      </trkpt>
      <trkpt lat="43.8013" lon="6.46574">
        <ele>1028.685</ele>
        <time>2013-05-25T12:08:01Z</time>
      </trkpt>
      <trkpt lat="43.80125" lon="6.4659">
        <ele>1026.511</ele>
        <time>2013-05-25T12:08:07Z</time>
      </trkpt>
      <trkpt lat="43.8012" lon="6.46606">
        <ele>1025.683</ele>
        <time>2013-05-25T12:08:14Z</time>
      </trkpt>
      <trkpt lat="43.80118" lon="6.46613">
        <ele>1024.388</ele>
        <time>2013-05-25T12:08:17Z</time>
      </trkpt>
      <trkpt lat="43.80117" lon="6.4664">
        <ele>1018.545</ele>
        <time>2013-05-25T12:08:25Z</time>
      </trkpt>
      <trkpt lat="43.80119" lon="6.46662">
        <ele>1016.43</ele>
        <time>2013-05-25T12:08:33Z</time>
      </trkpt>
      <trkpt lat="43.80126" lon="6.46673">
        <ele>1019.315</ele>
        <time>2013-05-25T12:08:39Z</time>
      </trkpt>
      <trkpt lat="43.80137" lon="6.46684">
        <ele>1020.718</ele>
        <time>2013-05-25T12:08:47Z</time>
      </trkpt>
      <trkpt lat="43.80146" lon="6.46694">
        <ele>1022.942</ele>
        <time>2013-05-25T12:08:53Z</time>
      </trkpt>
      <trkpt lat="43.80155" lon="6.46709">
        <ele>1024.02</ele>
        <time>2013-05-25T12:09:01Z</time>
      </trkpt>
      <trkpt lat="43.80163" lon="6.46724">
        <ele>1024.404</ele>
        <time>2013-05-25T12:09:08Z</time>
      </trkpt>
      <trkpt lat="43.80172" lon="6.46731">
        <ele>1023.863</ele>
        <time>2013-05-25T12:09:13Z</time>
      </trkpt>
      <trkpt lat="43.80183" lon="6.46728">
        <ele>1024.573</ele>
        <time>2013-05-25T12:09:18Z</time>
      </trkpt>
      <trkpt lat="43.80193" lon="6.46722">
        <ele>1023.689</ele>
        <time>2013-05-25T12:09:24Z</time>
      </trkpt>
      <trkpt lat="43.80203" lon="6.46717">
        <ele>1024.613</ele>
        <time>2013-05-25T12:09:30Z</time>
      </trkpt>
      <trkpt lat="43.80218" lon="6.46708">
        <ele>1028.122</ele>
        <time>2013-05-25T12:09:37Z</time>
      </trkpt>
      <trkpt lat="43.80233" lon="6.46704">
        <ele>1031.385</ele>
        <time>2013-05-25T12:09:44Z</time>
      </trkpt>
      <trkpt lat="43.80247" lon="6.46706">
        <ele>1032.268</ele>
        <time>2013-05-25T12:09:50Z</time>
      </trkpt>
      <trkpt lat="43.80262" lon="6.4671">
        <ele>1030.289</ele>
        <time>2013-05-25T12:09:57Z</time>
      </trkpt>
      <trkpt lat="43.8027" lon="6.46719">
        <ele>1028.028</ele>
        <time>2013-05-25T12:10:03Z</time>
      </trkpt>
      <trkpt lat="43.80276" lon="6.46736">
        <ele>1028.412</ele>
        <time>2013-05-25T12:10:09Z</time>
      </trkpt>
      <trkpt lat="43.80277" lon="6.46754">
        <ele>1026.639</ele>
        <time>2013-05-25T12:10:15Z</time>
      </trkpt>
      <trkpt lat="43.8028" lon="6.46771">
        <ele>1026.036</ele>
        <time>2013-05-25T12:10:21Z</time>
      </trkpt>
      <trkpt lat="43.80281" lon="6.46777">
        <ele>1026.523</ele>
        <time>2013-05-25T12:10:23Z</time>
      </trkpt>
      <trkpt lat="43.80286" lon="6.468">
        <ele>1025.634</ele>
        <time>2013-05-25T12:10:31Z</time>
      </trkpt>
      <trkpt lat="43.80288" lon="6.46804">
        <ele>1026.607</ele>
        <time>2013-05-25T12:10:33Z</time>
      </trkpt>
      <trkpt lat="43.80298" lon="6.46803">
        <ele>1027.403</ele>
        <time>2013-05-25T12:10:38Z</time>
      </trkpt>
      <trkpt lat="43.80301" lon="6.46797">
        <ele>1028.646</ele>
        <time>2013-05-25T12:10:41Z</time>
      </trkpt>
      <trkpt lat="43.80303" lon="6.46786">
        <ele>1035.975</ele>
        <time>2013-05-25T12:10:47Z</time>
      </trkpt>
      <trkpt lat="43.80301" lon="6.46775">
        <ele>1041.409</ele>
        <time>2013-05-25T12:10:52Z</time>
      </trkpt>
      <trkpt lat="43.80301" lon="6.46765">
        <ele>1045.388</ele>
        <time>2013-05-25T12:10:56Z</time>
      </trkpt>
      <trkpt lat="43.80307" lon="6.46745">
        <ele>1047.277</ele>
        <time>2013-05-25T12:11:03Z</time>
      </trkpt>
      <trkpt lat="43.80307" lon="6.46724">
        <ele>1049.165</ele>
        <time>2013-05-25T12:11:10Z</time>
      </trkpt>
      <trkpt lat="43.80304" lon="6.46707">
        <ele>1056.778</ele>
        <time>2013-05-25T12:11:18Z</time>
      </trkpt>
      <trkpt lat="43.80304" lon="6.46705">
        <ele>1057.819</ele>
        <time>2013-05-25T12:11:19Z</time>
      </trkpt>
      <trkpt lat="43.80301" lon="6.46692">
        <ele>1064.645</ele>
        <time>2013-05-25T12:11:26Z</time>
      </trkpt>
      <trkpt lat="43.80301" lon="6.46685">
        <ele>1061.631</ele>
        <time>2013-05-25T12:11:31Z</time>
      </trkpt>
      <trkpt lat="43.80306" lon="6.46678">
        <ele>1054.322</ele>
        <time>2013-05-25T12:13:14Z</time>
      </trkpt>
      <trkpt lat="43.80302" lon="6.46676">
        <ele>1054.464</ele>
        <time>2013-05-25T12:13:17Z</time>
      </trkpt>
      <trkpt lat="43.80294" lon="6.46668">
        <ele>1056.549</ele>
        <time>2013-05-25T12:13:23Z</time>
      </trkpt>
      <trkpt lat="43.80287" lon="6.46656">
        <ele>1057.199</ele>
        <time>2013-05-25T12:13:30Z</time>
      </trkpt>
      <trkpt lat="43.8028" lon="6.46644">
        <ele>1055.926</ele>
        <time>2013-05-25T12:13:36Z</time>
      </trkpt>
      <trkpt lat="43.8028" lon="6.46635">
        <ele>1054.204</ele>
        <time>2013-05-25T12:13:38Z</time>
      </trkpt>
      <trkpt lat="43.80282" lon="6.46609">
        <ele>1051.497</ele>
        <time>2013-05-25T12:13:43Z</time>
      </trkpt>
      <trkpt lat="43.80281" lon="6.46585">
        <ele>1050.295</ele>
        <time>2013-05-25T12:13:47Z</time>
      </trkpt>
      <trkpt lat="43.80283" lon="6.46556">
        <ele>1046.178</ele>
        <time>2013-05-25T12:13:52Z</time>
      </trkpt>
      <trkpt lat="43.8029" lon="6.46537">
        <ele>1041.693</ele>
        <time>2013-05-25T12:13:56Z</time>
      </trkpt>
      <trkpt lat="43.8029" lon="6.46532">
        <ele>1040.913</ele>
        <time>2013-05-25T12:13:57Z</time>
      </trkpt>
      <trkpt lat="43.80278" lon="6.46521">
        <ele>1043.682</ele>
        <time>2013-05-25T12:14:01Z</time>
      </trkpt>
      <trkpt lat="43.80274" lon="6.46519">
        <ele>1042.15</ele>
        <time>2013-05-25T12:14:02Z</time>
      </trkpt>
      <trkpt lat="43.80269" lon="6.46513">
        <ele>1042.312</ele>
        <time>2013-05-25T12:14:04Z</time>
      </trkpt>
      <trkpt lat="43.80245" lon="6.46497">
        <ele>1037.581</ele>
        <time>2013-05-25T12:14:09Z</time>
      </trkpt>
      <trkpt lat="43.80243" lon="6.46475">
        <ele>1033.111</ele>
        <time>2013-05-25T12:14:13Z</time>
      </trkpt>
      <trkpt lat="43.80242" lon="6.46472">
        <ele>1032.429</ele>
        <time>2013-05-25T12:14:14Z</time>
      </trkpt>
      <trkpt lat="43.80233" lon="6.46452">
        <ele>1029.152</ele>
        <time>2013-05-25T12:14:19Z</time>
      </trkpt>
      <trkpt lat="43.80231" lon="6.46442">
        <ele>1027.441</ele>
        <time>2013-05-25T12:14:21Z</time>
      </trkpt>
      <trkpt lat="43.80223" lon="6.46421">
        <ele>1024.723</ele>
        <time>2013-05-25T12:14:25Z</time>
      </trkpt>
      <trkpt lat="43.80221" lon="6.46408">
        <ele>1022.97</ele>
        <time>2013-05-25T12:14:27Z</time>
      </trkpt>
      <trkpt lat="43.80219" lon="6.46393">
        <ele>1021.533</ele>
        <time>2013-05-25T12:14:29Z</time>
      </trkpt>
      <trkpt lat="43.80208" lon="6.46361">
        <ele>1019.93</ele>
        <time>2013-05-25T12:14:34Z</time>
      </trkpt>
      <trkpt lat="43.80196" lon="6.46349">
        <ele>1020.044</ele>
        <time>2013-05-25T12:14:37Z</time>
      </trkpt>
      <trkpt lat="43.80194" lon="6.46331">
        <ele>1019.224</ele>
        <time>2013-05-25T12:14:40Z</time>
      </trkpt>
      <trkpt lat="43.80195" lon="6.46315">
        <ele>1018.864</ele>
        <time>2013-05-25T12:14:42Z</time>
      </trkpt>
      <trkpt lat="43.80197" lon="6.46304">
        <ele>1017.226</ele>
        <time>2013-05-25T12:14:45Z</time>
      </trkpt>
      <trkpt lat="43.80196" lon="6.46295">
        <ele>1001.887</ele>
        <time>2013-05-25T12:15:17Z</time>
      </trkpt>
      <trkpt lat="43.80203" lon="6.46271">
        <ele>1000.884</ele>
        <time>2013-05-25T12:15:22Z</time>
      </trkpt>
      <trkpt lat="43.80205" lon="6.46265">
        <ele>1000.553</ele>
        <time>2013-05-25T12:15:23Z</time>
      </trkpt>
      <trkpt lat="43.80216" lon="6.46246">
        <ele>1000.432</ele>
        <time>2013-05-25T12:15:27Z</time>
      </trkpt>
      <trkpt lat="43.8022" lon="6.46229">
        <ele>1000.002</ele>
        <time>2013-05-25T12:15:30Z</time>
      </trkpt>
      <trkpt lat="43.80214" lon="6.4621">
        <ele>1000.084</ele>
        <time>2013-05-25T12:15:33Z</time>
      </trkpt>
      <trkpt lat="43.80216" lon="6.46193">
        <ele>999.193</ele>
        <time>2013-05-25T12:15:36Z</time>
      </trkpt>
      <trkpt lat="43.80223" lon="6.4618">
        <ele>998.151</ele>
        <time>2013-05-25T12:15:40Z</time>
      </trkpt>
      <trkpt lat="43.80233" lon="6.46187">
        <ele>997.362</ele>
        <time>2013-05-25T12:15:43Z</time>
      </trkpt>
      <trkpt lat="43.80237" lon="6.46185">
        <ele>997.553</ele>
        <time>2013-05-25T12:15:44Z</time>
      </trkpt>
      <trkpt lat="43.80262" lon="6.46176">
        <ele>996.222</ele>
        <time>2013-05-25T12:15:49Z</time>
      </trkpt>
      <trkpt lat="43.80272" lon="6.46173">
        <ele>994.299</ele>
        <time>2013-05-25T12:15:51Z</time>
      </trkpt>
      <trkpt lat="43.80285" lon="6.46158">
        <ele>992.359</ele>
        <time>2013-05-25T12:15:54Z</time>
      </trkpt>
      <trkpt lat="43.80296" lon="6.4615">
        <ele>990.759</ele>
        <time>2013-05-25T12:15:57Z</time>
      </trkpt>
      <trkpt lat="43.80316" lon="6.46149">
        <ele>989.069</ele>
        <time>2013-05-25T12:16:01Z</time>
      </trkpt>
      <trkpt lat="43.80329" lon="6.46139">
        <ele>987.598</ele>
        <time>2013-05-25T12:16:05Z</time>
      </trkpt>
      <trkpt lat="43.80338" lon="6.46135">
        <ele>986.63</ele>
        <time>2013-05-25T12:16:07Z</time>
      </trkpt>
      <trkpt lat="43.80364" lon="6.46129">
        <ele>984.491</ele>
        <time>2013-05-25T12:16:13Z</time>
      </trkpt>
      <trkpt lat="43.80368" lon="6.46126">
        <ele>983.936</ele>
        <time>2013-05-25T12:16:16Z</time>
      </trkpt>
      <trkpt lat="43.80369" lon="6.46126">
        <ele>983.766</ele>
        <time>2013-05-25T12:16:17Z</time>
      </trkpt>
      <trkpt lat="43.8037" lon="6.46123">
        <ele>982.977</ele>
        <time>2013-05-25T12:16:20Z</time>
      </trkpt>
      <trkpt lat="43.80373" lon="6.46119">
        <ele>982.477</ele>
        <time>2013-05-25T12:16:26Z</time>
      </trkpt>
      <trkpt lat="43.80374" lon="6.46118">
        <ele>982.397</ele>
        <time>2013-05-25T12:16:28Z</time>
      </trkpt>
      <trkpt lat="43.80376" lon="6.46112">
        <ele>982.86</ele>
        <time>2013-05-25T12:16:32Z</time>
      </trkpt>
      <trkpt lat="43.80372" lon="6.46087">
        <ele>984.774</ele>
        <time>2013-05-25T12:16:39Z</time>
      </trkpt>
      <trkpt lat="43.80355" lon="6.46058">
        <ele>987.738</ele>
        <time>2013-05-25T12:16:44Z</time>
      </trkpt>
      <trkpt lat="43.80349" lon="6.46045">
        <ele>988.058</ele>
        <time>2013-05-25T12:16:46Z</time>
      </trkpt>
      <trkpt lat="43.80341" lon="6.46007">
        <ele>988.313</ele>
        <time>2013-05-25T12:16:51Z</time>
      </trkpt>
      <trkpt lat="43.80341" lon="6.46">
        <ele>987.701</ele>
        <time>2013-05-25T12:16:52Z</time>
      </trkpt>
      <trkpt lat="43.80344" lon="6.45981">
        <ele>984.248</ele>
        <time>2013-05-25T12:16:56Z</time>
      </trkpt>
      <trkpt lat="43.80348" lon="6.45972">
        <ele>981.906</ele>
        <time>2013-05-25T12:16:59Z</time>
      </trkpt>
      <trkpt lat="43.8036" lon="6.45963">
        <ele>980.457</ele>
        <time>2013-05-25T12:17:04Z</time>
      </trkpt>
      <trkpt lat="43.80366" lon="6.45943">
        <ele>977.31</ele>
        <time>2013-05-25T12:17:09Z</time>
      </trkpt>
      <trkpt lat="43.8037" lon="6.4592">
        <ele>974.258</ele>
        <time>2013-05-25T12:17:14Z</time>
      </trkpt>
      <trkpt lat="43.80376" lon="6.45912">
        <ele>973.339</ele>
        <time>2013-05-25T12:17:18Z</time>
      </trkpt>
      <trkpt lat="43.80381" lon="6.45895">
        <ele>973.216</ele>
        <time>2013-05-25T12:17:22Z</time>
      </trkpt>
      <trkpt lat="43.80393" lon="6.45878">
        <ele>972.077</ele>
        <time>2013-05-25T12:17:28Z</time>
      </trkpt>
      <trkpt lat="43.804" lon="6.45858">
        <ele>969.784</ele>
        <time>2013-05-25T12:17:33Z</time>
      </trkpt>
      <trkpt lat="43.80402" lon="6.45848">
        <ele>970.729</ele>
        <time>2013-05-25T12:17:37Z</time>
      </trkpt>
      <trkpt lat="43.80404" lon="6.45841">
        <ele>972.935</ele>
        <time>2013-05-25T12:17:45Z</time>
      </trkpt>
      <trkpt lat="43.80407" lon="6.45831">
        <ele>977.231</ele>
        <time>2013-05-25T12:17:52Z</time>
      </trkpt>
      <trkpt lat="43.8041" lon="6.45821">
        <ele>979.021</ele>
        <time>2013-05-25T12:17:58Z</time>
      </trkpt>
      <trkpt lat="43.80411" lon="6.45817">
        <ele>978.67</ele>
        <time>2013-05-25T12:18:00Z</time>
      </trkpt>
      <trkpt lat="43.80421" lon="6.45809">
        <ele>974.941</ele>
        <time>2013-05-25T12:18:04Z</time>
      </trkpt>
      <trkpt lat="43.80435" lon="6.45798">
        <ele>973.153</ele>
        <time>2013-05-25T12:18:09Z</time>
      </trkpt>
      <trkpt lat="43.80454" lon="6.45776">
        <ele>970.532</ele>
        <time>2013-05-25T12:18:15Z</time>
      </trkpt>
      <trkpt lat="43.8046" lon="6.45768">
        <ele>969.99</ele>
        <time>2013-05-25T12:18:19Z</time>
      </trkpt>
      <trkpt lat="43.80469" lon="6.45762">
        <ele>970.944</ele>
        <time>2013-05-25T12:18:24Z</time>
      </trkpt>
      <trkpt lat="43.80476" lon="6.4575">
        <ele>972.895</ele>
        <time>2013-05-25T12:18:30Z</time>
      </trkpt>
      <trkpt lat="43.80482" lon="6.45737">
        <ele>975.635</ele>
        <time>2013-05-25T12:18:38Z</time>
      </trkpt>
      <trkpt lat="43.80489" lon="6.45726">
        <ele>977.357</ele>
        <time>2013-05-25T12:18:44Z</time>
      </trkpt>
      <trkpt lat="43.80493" lon="6.45723">
        <ele>978.279</ele>
        <time>2013-05-25T12:18:50Z</time>
      </trkpt>
      <trkpt lat="43.80494" lon="6.45721">
        <ele>978.913</ele>
        <time>2013-05-25T12:18:55Z</time>
      </trkpt>
      <trkpt lat="43.80498" lon="6.45716">
        <ele>978.712</ele>
        <time>2013-05-25T12:19:01Z</time>
      </trkpt>
      <trkpt lat="43.80501" lon="6.45712">
        <ele>979.523</ele>
        <time>2013-05-25T12:19:06Z</time>
      </trkpt>
      <trkpt lat="43.80506" lon="6.45709">
        <ele>982.684</ele>
        <time>2013-05-25T12:19:12Z</time>
      </trkpt>
      <trkpt lat="43.80507" lon="6.45705">
        <ele>983.221</ele>
        <time>2013-05-25T12:19:19Z</time>
      </trkpt>
      <trkpt lat="43.80508" lon="6.45701">
        <ele>984.371</ele>
        <time>2013-05-25T12:19:27Z</time>
      </trkpt>
      <trkpt lat="43.80514" lon="6.45694">
        <ele>985.485</ele>
        <time>2013-05-25T12:19:34Z</time>
      </trkpt>
      <trkpt lat="43.80514" lon="6.45693">
        <ele>985.745</ele>
        <time>2013-05-25T12:19:35Z</time>
      </trkpt>
      <trkpt lat="43.80521" lon="6.45688">
        <ele>985.335</ele>
        <time>2013-05-25T12:19:40Z</time>
      </trkpt>
      <trkpt lat="43.80528" lon="6.45677">
        <ele>987.527</ele>
        <time>2013-05-25T12:19:48Z</time>
      </trkpt>
      <trkpt lat="43.80536" lon="6.45668">
        <ele>988.276</ele>
        <time>2013-05-25T12:19:54Z</time>
      </trkpt>
      <trkpt lat="43.80547" lon="6.45657">
        <ele>987.705</ele>
        <time>2013-05-25T12:20:03Z</time>
      </trkpt>
      <trkpt lat="43.8055" lon="6.45655">
        <ele>986.763</ele>
        <time>2013-05-25T12:20:05Z</time>
      </trkpt>
      <trkpt lat="43.80561" lon="6.45649">
        <ele>986.954</ele>
        <time>2013-05-25T12:20:12Z</time>
      </trkpt>
      <trkpt lat="43.80565" lon="6.45648">
        <ele>986.321</ele>
        <time>2013-05-25T12:20:15Z</time>
      </trkpt>
      <trkpt lat="43.80568" lon="6.45643">
        <ele>987.75</ele>
        <time>2013-05-25T12:20:19Z</time>
      </trkpt>
      <trkpt lat="43.80574" lon="6.45625">
        <ele>990.411</ele>
        <time>2013-05-25T12:20:27Z</time>
      </trkpt>
      <trkpt lat="43.80579" lon="6.45616">
        <ele>991.212</ele>
        <time>2013-05-25T12:20:32Z</time>
      </trkpt>
      <trkpt lat="43.80586" lon="6.45606">
        <ele>990.469</ele>
        <time>2013-05-25T12:20:39Z</time>
      </trkpt>
      <trkpt lat="43.80592" lon="6.45598">
        <ele>989.348</ele>
        <time>2013-05-25T12:20:45Z</time>
      </trkpt>
      <trkpt lat="43.80593" lon="6.45596">
        <ele>988.878</ele>
        <time>2013-05-25T12:20:46Z</time>
      </trkpt>
      <trkpt lat="43.80599" lon="6.45594">
        <ele>989.401</ele>
        <time>2013-05-25T12:20:53Z</time>
      </trkpt>
      <trkpt lat="43.80605" lon="6.45589">
        <ele>990.801</ele>
        <time>2013-05-25T12:21:02Z</time>
      </trkpt>
      <trkpt lat="43.80608" lon="6.45589">
        <ele>991.612</ele>
        <time>2013-05-25T12:21:05Z</time>
      </trkpt>
      <trkpt lat="43.80611" lon="6.45589">
        <ele>992.13</ele>
        <time>2013-05-25T12:21:09Z</time>
      </trkpt>
      <trkpt lat="43.80614" lon="6.45586">
        <ele>992.61</ele>
        <time>2013-05-25T12:21:15Z</time>
      </trkpt>
      <trkpt lat="43.80619" lon="6.4558">
        <ele>992.071</ele>
        <time>2013-05-25T12:21:28Z</time>
      </trkpt>
      <trkpt lat="43.80625" lon="6.45569">
        <ele>992.571</ele>
        <time>2013-05-25T12:21:35Z</time>
      </trkpt>
      <trkpt lat="43.80629" lon="6.45561">
        <ele>995.937</ele>
        <time>2013-05-25T12:21:41Z</time>
      </trkpt>
      <trkpt lat="43.80633" lon="6.4555">
        <ele>999.886</ele>
        <time>2013-05-25T12:21:49Z</time>
      </trkpt>
      <trkpt lat="43.80641" lon="6.45542">
        <ele>1002.488</ele>
        <time>2013-05-25T12:21:56Z</time>
      </trkpt>
      <trkpt lat="43.80642" lon="6.45542">
        <ele>1002.245</ele>
        <time>2013-05-25T12:21:57Z</time>
      </trkpt>
      <trkpt lat="43.80645" lon="6.45539">
        <ele>1003.798</ele>
        <time>2013-05-25T12:22:01Z</time>
      </trkpt>
      <trkpt lat="43.80658" lon="6.45536">
        <ele>1005.663</ele>
        <time>2013-05-25T12:22:10Z</time>
      </trkpt>
      <trkpt lat="43.80661" lon="6.45536">
        <ele>1006.98</ele>
        <time>2013-05-25T12:22:18Z</time>
      </trkpt>
      <trkpt lat="43.8066" lon="6.45535">
        <ele>1010.401</ele>
        <time>2013-05-25T12:22:26Z</time>
      </trkpt>
      <trkpt lat="43.80669" lon="6.45534">
        <ele>1010.698</ele>
        <time>2013-05-25T12:22:34Z</time>
      </trkpt>
      <trkpt lat="43.80676" lon="6.4553">
        <ele>1003.777</ele>
        <time>2013-05-25T12:22:39Z</time>
      </trkpt>
      <trkpt lat="43.80685" lon="6.45527">
        <ele>994.081</ele>
        <time>2013-05-25T12:22:46Z</time>
      </trkpt>
      <trkpt lat="43.80688" lon="6.45524">
        <ele>993.869</ele>
        <time>2013-05-25T12:22:51Z</time>
      </trkpt>
      <trkpt lat="43.8069" lon="6.45521">
        <ele>995.395</ele>
        <time>2013-05-25T12:22:54Z</time>
      </trkpt>
      <trkpt lat="43.80691" lon="6.45518">
        <ele>1007.143</ele>
        <time>2013-05-25T12:23:01Z</time>
      </trkpt>
      <trkpt lat="43.80694" lon="6.45512">
        <ele>1010.916</ele>
        <time>2013-05-25T12:23:11Z</time>
      </trkpt>
      <trkpt lat="43.80697" lon="6.4551">
        <ele>1014.948</ele>
        <time>2013-05-25T12:23:17Z</time>
      </trkpt>
      <trkpt lat="43.807" lon="6.45506">
        <ele>1013.298</ele>
        <time>2013-05-25T12:23:23Z</time>
      </trkpt>
      <trkpt lat="43.80702" lon="6.45503">
        <ele>1015.266</ele>
        <time>2013-05-25T12:23:29Z</time>
      </trkpt>
      <trkpt lat="43.80707" lon="6.455">
        <ele>1017.857</ele>
        <time>2013-05-25T12:23:36Z</time>
      </trkpt>
      <trkpt lat="43.80711" lon="6.45496">
        <ele>1022.158</ele>
        <time>2013-05-25T12:23:42Z</time>
      </trkpt>
      <trkpt lat="43.80715" lon="6.45491">
        <ele>1022.844</ele>
        <time>2013-05-25T12:23:47Z</time>
      </trkpt>
      <trkpt lat="43.80719" lon="6.45485">
        <ele>1023.501</ele>
        <time>2013-05-25T12:23:52Z</time>
      </trkpt>
      <trkpt lat="43.80723" lon="6.4548">
        <ele>1026.178</ele>
        <time>2013-05-25T12:23:57Z</time>
      </trkpt>
      <trkpt lat="43.80725" lon="6.45473">
        <ele>1024.976</ele>
        <time>2013-05-25T12:24:05Z</time>
      </trkpt>
      <trkpt lat="43.80729" lon="6.45469">
        <ele>1021.682</ele>
        <time>2013-05-25T12:24:10Z</time>
      </trkpt>
      <trkpt lat="43.80735" lon="6.45459">
        <ele>1020.064</ele>
        <time>2013-05-25T12:24:17Z</time>
      </trkpt>
      <trkpt lat="43.80741" lon="6.45456">
        <ele>1019.905</ele>
        <time>2013-05-25T12:24:22Z</time>
      </trkpt>
      <trkpt lat="43.80744" lon="6.45451">
        <ele>1022.041</ele>
        <time>2013-05-25T12:24:29Z</time>
      </trkpt>
      <trkpt lat="43.80744" lon="6.45444">
        <ele>1023.391</ele>
        <time>2013-05-25T12:24:36Z</time>
      </trkpt>
      <trkpt lat="43.80747" lon="6.45438">
        <ele>1023.588</ele>
        <time>2013-05-25T12:24:41Z</time>
      </trkpt>
      <trkpt lat="43.80746" lon="6.45432">
        <ele>1023.899</ele>
        <time>2013-05-25T12:24:46Z</time>
      </trkpt>
      <trkpt lat="43.8075" lon="6.45428">
        <ele>1023.924</ele>
        <time>2013-05-25T12:24:53Z</time>
      </trkpt>
      <trkpt lat="43.80752" lon="6.45424">
        <ele>1022.243</ele>
        <time>2013-05-25T12:24:59Z</time>
      </trkpt>
      <trkpt lat="43.80758" lon="6.45419">
        <ele>1019.29</ele>
        <time>2013-05-25T12:25:05Z</time>
      </trkpt>
      <trkpt lat="43.80762" lon="6.45414">
        <ele>1021.349</ele>
        <time>2013-05-25T12:25:11Z</time>
      </trkpt>
      <trkpt lat="43.80764" lon="6.45405">
        <ele>1036.39</ele>
        <time>2013-05-25T12:25:33Z</time>
      </trkpt>
      <trkpt lat="43.80764" lon="6.45398">
        <ele>1035.528</ele>
        <time>2013-05-25T12:25:39Z</time>
      </trkpt>
      <trkpt lat="43.80769" lon="6.45394">
        <ele>1033.162</ele>
        <time>2013-05-25T12:25:47Z</time>
      </trkpt>
      <trkpt lat="43.8077" lon="6.45385">
        <ele>1036.872</ele>
        <time>2013-05-25T12:25:53Z</time>
      </trkpt>
      <trkpt lat="43.8077" lon="6.4538">
        <ele>1039.055</ele>
        <time>2013-05-25T12:25:59Z</time>
      </trkpt>
      <trkpt lat="43.80772" lon="6.4538">
        <ele>1035.108</ele>
        <time>2013-05-25T12:26:06Z</time>
      </trkpt>
      <trkpt lat="43.80777" lon="6.45377">
        <ele>1034.912</ele>
        <time>2013-05-25T12:26:22Z</time>
      </trkpt>
      <trkpt lat="43.80782" lon="6.45373">
        <ele>1036.101</ele>
        <time>2013-05-25T12:26:30Z</time>
      </trkpt>
      <trkpt lat="43.80787" lon="6.45367">
        <ele>1035.016</ele>
        <time>2013-05-25T12:26:36Z</time>
      </trkpt>
      <trkpt lat="43.80792" lon="6.45355">
        <ele>1037.579</ele>
        <time>2013-05-25T12:26:47Z</time>
      </trkpt>
      <trkpt lat="43.80794" lon="6.45353">
        <ele>1044.421</ele>
        <time>2013-05-25T12:26:52Z</time>
      </trkpt>
      <trkpt lat="43.80798" lon="6.4534">
        <ele>1047.182</ele>
        <time>2013-05-25T12:27:24Z</time>
      </trkpt>
      <trkpt lat="43.80802" lon="6.45333">
        <ele>1049.943</ele>
        <time>2013-05-25T12:27:41Z</time>
      </trkpt>
      <trkpt lat="43.80805" lon="6.45329">
        <ele>1048.37</ele>
        <time>2013-05-25T12:27:46Z</time>
      </trkpt>
      <trkpt lat="43.80816" lon="6.45324">
        <ele>1043.416</ele>
        <time>2013-05-25T12:27:55Z</time>
      </trkpt>
      <trkpt lat="43.80818" lon="6.45323">
        <ele>1045.002</ele>
        <time>2013-05-25T12:28:00Z</time>
      </trkpt>
      <trkpt lat="43.80818" lon="6.45322">
        <ele>1050.142</ele>
        <time>2013-05-25T12:28:08Z</time>
      </trkpt>
      <trkpt lat="43.80819" lon="6.45312">
        <ele>1050.641</ele>
        <time>2013-05-25T12:28:46Z</time>
      </trkpt>
      <trkpt lat="43.8082" lon="6.45308">
        <ele>1051.831</ele>
        <time>2013-05-25T12:28:52Z</time>
      </trkpt>
      <trkpt lat="43.80821" lon="6.45304">
        <ele>1052.62</ele>
        <time>2013-05-25T12:28:59Z</time>
      </trkpt>
      <trkpt lat="43.8082" lon="6.453">
        <ele>1053.712</ele>
        <time>2013-05-25T12:29:02Z</time>
      </trkpt>
      <trkpt lat="43.80818" lon="6.45291">
        <ele>1055.568</ele>
        <time>2013-05-25T12:29:09Z</time>
      </trkpt>
      <trkpt lat="43.8082" lon="6.45286">
        <ele>1055.486</ele>
        <time>2013-05-25T12:29:12Z</time>
      </trkpt>
      <trkpt lat="43.80821" lon="6.45283">
        <ele>1055.258</ele>
        <time>2013-05-25T12:29:18Z</time>
      </trkpt>
      <trkpt lat="43.80824" lon="6.45278">
        <ele>1054.759</ele>
        <time>2013-05-25T12:29:23Z</time>
      </trkpt>
      <trkpt lat="43.80829" lon="6.45266">
        <ele>1054.256</ele>
        <time>2013-05-25T12:29:32Z</time>
      </trkpt>
      <trkpt lat="43.80835" lon="6.45253">
        <ele>1053.758</ele>
        <time>2013-05-25T12:29:42Z</time>
      </trkpt>
      <trkpt lat="43.80837" lon="6.45242">
        <ele>1054.821</ele>
        <time>2013-05-25T12:29:51Z</time>
      </trkpt>
      <trkpt lat="43.80836" lon="6.4523">
        <ele>1056.973</ele>
        <time>2013-05-25T12:30:01Z</time>
      </trkpt>
      <trkpt lat="43.80835" lon="6.45221">
        <ele>1058.813</ele>
        <time>2013-05-25T12:30:09Z</time>
      </trkpt>
      <trkpt lat="43.80836" lon="6.45211">
        <ele>1060.461</ele>
        <time>2013-05-25T12:30:18Z</time>
      </trkpt>
      <trkpt lat="43.80838" lon="6.45202">
        <ele>1060.6</ele>
        <time>2013-05-25T12:30:25Z</time>
      </trkpt>
      <trkpt lat="43.80839" lon="6.452">
        <ele>1060.57</ele>
        <time>2013-05-25T12:30:27Z</time>
      </trkpt>
      <trkpt lat="43.8084" lon="6.45191">
        <ele>1060.79</ele>
        <time>2013-05-25T12:30:36Z</time>
      </trkpt>
      <trkpt lat="43.8084" lon="6.45181">
        <ele>1063.172</ele>
        <time>2013-05-25T12:30:46Z</time>
      </trkpt>
      <trkpt lat="43.80841" lon="6.45173">
        <ele>1065.112</ele>
        <time>2013-05-25T12:30:54Z</time>
      </trkpt>
      <trkpt lat="43.80843" lon="6.45164">
        <ele>1067.392</ele>
        <time>2013-05-25T12:31:02Z</time>
      </trkpt>
      <trkpt lat="43.80843" lon="6.45156">
        <ele>1069.503</ele>
        <time>2013-05-25T12:31:10Z</time>
      </trkpt>
      <trkpt lat="43.80844" lon="6.45147">
        <ele>1071.644</ele>
        <time>2013-05-25T12:31:19Z</time>
      </trkpt>
      <trkpt lat="43.80844" lon="6.45138">
        <ele>1073.433</ele>
        <time>2013-05-25T12:31:27Z</time>
      </trkpt>
      <trkpt lat="43.80842" lon="6.45129">
        <ele>1075.882</ele>
        <time>2013-05-25T12:31:36Z</time>
      </trkpt>
      <trkpt lat="43.80842" lon="6.45119">
        <ele>1078.504</ele>
        <time>2013-05-25T12:31:44Z</time>
      </trkpt>
      <trkpt lat="43.80841" lon="6.45111">
        <ele>1079.731</ele>
        <time>2013-05-25T12:31:51Z</time>
      </trkpt>
      <trkpt lat="43.80839" lon="6.45102">
        <ele>1081.143</ele>
        <time>2013-05-25T12:31:58Z</time>
      </trkpt>
      <trkpt lat="43.80838" lon="6.4509">
        <ele>1082.442</ele>
        <time>2013-05-25T12:32:07Z</time>
      </trkpt>
      <trkpt lat="43.8084" lon="6.45087">
        <ele>1083.093</ele>
        <time>2013-05-25T12:32:11Z</time>
      </trkpt>
      <trkpt lat="43.80842" lon="6.45079">
        <ele>1083.7</ele>
        <time>2013-05-25T12:32:20Z</time>
      </trkpt>
      <trkpt lat="43.80843" lon="6.45075">
        <ele>1082.376</ele>
        <time>2013-05-25T12:32:29Z</time>
      </trkpt>
      <trkpt lat="43.80846" lon="6.45069">
        <ele>1079.978</ele>
        <time>2013-05-25T12:32:36Z</time>
      </trkpt>
      <trkpt lat="43.80848" lon="6.4506">
        <ele>1079.156</ele>
        <time>2013-05-25T12:32:44Z</time>
      </trkpt>
      <trkpt lat="43.80848" lon="6.45052">
        <ele>1080.479</ele>
        <time>2013-05-25T12:32:50Z</time>
      </trkpt>
      <trkpt lat="43.80849" lon="6.45051">
        <ele>1080.911</ele>
        <time>2013-05-25T12:32:51Z</time>
      </trkpt>
      <trkpt lat="43.80847" lon="6.45041">
        <ele>1081.436</ele>
        <time>2013-05-25T12:33:00Z</time>
      </trkpt>
      <trkpt lat="43.80847" lon="6.45033">
        <ele>1083.579</ele>
        <time>2013-05-25T12:33:07Z</time>
      </trkpt>
      <trkpt lat="43.80848" lon="6.45029">
        <ele>1085.832</ele>
        <time>2013-05-25T12:33:12Z</time>
      </trkpt>
      <trkpt lat="43.80848" lon="6.45024">
        <ele>1090.118</ele>
        <time>2013-05-25T12:33:19Z</time>
      </trkpt>
      <trkpt lat="43.80852" lon="6.45014">
        <ele>1097.247</ele>
        <time>2013-05-25T12:33:29Z</time>
      </trkpt>
      <trkpt lat="43.80854" lon="6.45007">
        <ele>1101.384</ele>
        <time>2013-05-25T12:33:35Z</time>
      </trkpt>
      <trkpt lat="43.80855" lon="6.45002">
        <ele>1105.756</ele>
        <time>2013-05-25T12:33:41Z</time>
      </trkpt>
      <trkpt lat="43.80855" lon="6.44995">
        <ele>1106.119</ele>
        <time>2013-05-25T12:33:47Z</time>
      </trkpt>
      <trkpt lat="43.80858" lon="6.4499">
        <ele>1104.384</ele>
        <time>2013-05-25T12:33:52Z</time>
      </trkpt>
      <trkpt lat="43.80863" lon="6.44984">
        <ele>1102.582</ele>
        <time>2013-05-25T12:34:03Z</time>
      </trkpt>
      <trkpt lat="43.80867" lon="6.44975">
        <ele>1097.313</ele>
        <time>2013-05-25T12:34:09Z</time>
      </trkpt>
      <trkpt lat="43.80869" lon="6.44968">
        <ele>1095.131</ele>
        <time>2013-05-25T12:34:14Z</time>
      </trkpt>
      <trkpt lat="43.80869" lon="6.44964">
        <ele>1093.66</ele>
        <time>2013-05-25T12:34:17Z</time>
      </trkpt>
      <trkpt lat="43.80871" lon="6.44953">
        <ele>1090.39</ele>
        <time>2013-05-25T12:34:25Z</time>
      </trkpt>
      <trkpt lat="43.80871" lon="6.44943">
        <ele>1091.094</ele>
        <time>2013-05-25T12:34:32Z</time>
      </trkpt>
      <trkpt lat="43.8087" lon="6.44943">
        <ele>1101.743</ele>
        <time>2013-05-25T12:34:48Z</time>
      </trkpt>
      <trkpt lat="43.80872" lon="6.44953">
        <ele>1104.122</ele>
        <time>2013-05-25T12:34:56Z</time>
      </trkpt>
      <trkpt lat="43.80874" lon="6.44966">
        <ele>1105.601</ele>
        <time>2013-05-25T12:35:07Z</time>
      </trkpt>
      <trkpt lat="43.80876" lon="6.44976">
        <ele>1105.831</ele>
        <time>2013-05-25T12:35:16Z</time>
      </trkpt>
      <trkpt lat="43.80874" lon="6.44991">
        <ele>1106.943</ele>
        <time>2013-05-25T12:35:26Z</time>
      </trkpt>
      <trkpt lat="43.80875" lon="6.44993">
        <ele>1107.222</ele>
        <time>2013-05-25T12:35:28Z</time>
      </trkpt>
      <trkpt lat="43.80873" lon="6.44998">
        <ele>1107.741</ele>
        <time>2013-05-25T12:35:32Z</time>
      </trkpt>
      <trkpt lat="43.80874" lon="6.45008">
        <ele>1108.32</ele>
        <time>2013-05-25T12:35:41Z</time>
      </trkpt>
      <trkpt lat="43.80875" lon="6.45018">
        <ele>1108.541</ele>
        <time>2013-05-25T12:35:49Z</time>
      </trkpt>
      <trkpt lat="43.80877" lon="6.45022">
        <ele>1108.962</ele>
        <time>2013-05-25T12:35:52Z</time>
      </trkpt>
      <trkpt lat="43.80875" lon="6.45027">
        <ele>1111.456</ele>
        <time>2013-05-25T12:35:58Z</time>
      </trkpt>
      <trkpt lat="43.80875" lon="6.45026">
        <ele>1111.539</ele>
        <time>2013-05-25T12:36:08Z</time>
      </trkpt>
      <trkpt lat="43.80876" lon="6.45027">
        <ele>1111.347</ele>
        <time>2013-05-25T12:36:10Z</time>
      </trkpt>
      <trkpt lat="43.80881" lon="6.45037">
        <ele>1109.036</ele>
        <time>2013-05-25T12:36:17Z</time>
      </trkpt>
      <trkpt lat="43.80883" lon="6.4504">
        <ele>1107.564</ele>
        <time>2013-05-25T12:36:20Z</time>
      </trkpt>
      <trkpt lat="43.80884" lon="6.45046">
        <ele>1108.973</ele>
        <time>2013-05-25T12:36:23Z</time>
      </trkpt>
      <trkpt lat="43.80887" lon="6.45056">
        <ele>1105.327</ele>
        <time>2013-05-25T12:36:30Z</time>
      </trkpt>
      <trkpt lat="43.80888" lon="6.45059">
        <ele>1104.265</ele>
        <time>2013-05-25T12:36:32Z</time>
      </trkpt>
      <trkpt lat="43.80889" lon="6.45076">
        <ele>1110.043</ele>
        <time>2013-05-25T12:36:41Z</time>
      </trkpt>
      <trkpt lat="43.80892" lon="6.45076">
        <ele>1111.661</ele>
        <time>2013-05-25T12:36:48Z</time>
      </trkpt>
      <trkpt lat="43.80897" lon="6.45077">
        <ele>1116.929</ele>
        <time>2013-05-25T12:36:55Z</time>
      </trkpt>
      <trkpt lat="43.80899" lon="6.45072">
        <ele>1117.409</ele>
        <time>2013-05-25T12:37:03Z</time>
      </trkpt>
      <trkpt lat="43.809" lon="6.4507">
        <ele>1115.736</ele>
        <time>2013-05-25T12:37:06Z</time>
      </trkpt>
      <trkpt lat="43.80903" lon="6.45061">
        <ele>1114.516</ele>
        <time>2013-05-25T12:37:13Z</time>
      </trkpt>
      <trkpt lat="43.80905" lon="6.45056">
        <ele>1117.19</ele>
        <time>2013-05-25T12:37:20Z</time>
      </trkpt>
      <trkpt lat="43.80905" lon="6.45053">
        <ele>1128.036</ele>
        <time>2013-05-25T12:37:27Z</time>
      </trkpt>
      <trkpt lat="43.80905" lon="6.45043">
        <ele>1120.877</ele>
        <time>2013-05-25T12:37:35Z</time>
      </trkpt>
      <trkpt lat="43.8091" lon="6.45034">
        <ele>1121.605</ele>
        <time>2013-05-25T12:37:45Z</time>
      </trkpt>
      <trkpt lat="43.8091" lon="6.45029">
        <ele>1118.74</ele>
        <time>2013-05-25T12:37:51Z</time>
      </trkpt>
      <trkpt lat="43.80913" lon="6.45021">
        <ele>1114.889</ele>
        <time>2013-05-25T12:37:57Z</time>
      </trkpt>
      <trkpt lat="43.80916" lon="6.45012">
        <ele>1116.297</ele>
        <time>2013-05-25T12:38:06Z</time>
      </trkpt>
      <trkpt lat="43.80913" lon="6.45006">
        <ele>1125.226</ele>
        <time>2013-05-25T12:38:13Z</time>
      </trkpt>
      <trkpt lat="43.80913" lon="6.44997">
        <ele>1138.032</ele>
        <time>2013-05-25T12:38:41Z</time>
      </trkpt>
      <trkpt lat="43.80914" lon="6.44993">
        <ele>1137.88</ele>
        <time>2013-05-25T12:38:47Z</time>
      </trkpt>
      <trkpt lat="43.80917" lon="6.44988">
        <ele>1135.236</ele>
        <time>2013-05-25T12:38:56Z</time>
      </trkpt>
      <trkpt lat="43.80919" lon="6.44984">
        <ele>1132.219</ele>
        <time>2013-05-25T12:39:04Z</time>
      </trkpt>
      <trkpt lat="43.80921" lon="6.44976">
        <ele>1132.342</ele>
        <time>2013-05-25T12:39:11Z</time>
      </trkpt>
      <trkpt lat="43.80921" lon="6.4497">
        <ele>1135.195</ele>
        <time>2013-05-25T12:39:18Z</time>
      </trkpt>
      <trkpt lat="43.8092" lon="6.44965">
        <ele>1141.577</ele>
        <time>2013-05-25T12:39:25Z</time>
      </trkpt>
      <trkpt lat="43.80918" lon="6.44957">
        <ele>1147.269</ele>
        <time>2013-05-25T12:39:33Z</time>
      </trkpt>
      <trkpt lat="43.8092" lon="6.4495">
        <ele>1147.545</ele>
        <time>2013-05-25T12:39:38Z</time>
      </trkpt>
      <trkpt lat="43.8092" lon="6.44939">
        <ele>1147.742</ele>
        <time>2013-05-25T12:39:48Z</time>
      </trkpt>
      <trkpt lat="43.80917" lon="6.44928">
        <ele>1150.487</ele>
        <time>2013-05-25T12:39:56Z</time>
      </trkpt>
      <trkpt lat="43.80914" lon="6.4492">
        <ele>1153.583</ele>
        <time>2013-05-25T12:40:06Z</time>
      </trkpt>
      <trkpt lat="43.80913" lon="6.44917">
        <ele>1152.926</ele>
        <time>2013-05-25T12:40:12Z</time>
      </trkpt>
      <trkpt lat="43.80912" lon="6.44916">
        <ele>1153.105</ele>
        <time>2013-05-25T12:40:21Z</time>
      </trkpt>
      <trkpt lat="43.8091" lon="6.44907">
        <ele>1147.585</ele>
        <time>2013-05-25T12:40:29Z</time>
      </trkpt>
      <trkpt lat="43.80908" lon="6.44903">
        <ele>1146.578</ele>
        <time>2013-05-25T12:40:39Z</time>
      </trkpt>
      <trkpt lat="43.8091" lon="6.449">
        <ele>1147.57</ele>
        <time>2013-05-25T12:40:45Z</time>
      </trkpt>
      <trkpt lat="43.8091" lon="6.449">
        <ele>1147.449</ele>
        <time>2013-05-25T12:40:46Z</time>
      </trkpt>
      <trkpt lat="43.80912" lon="6.44901">
        <ele>1148.275</ele>
        <time>2013-05-25T12:40:53Z</time>
      </trkpt>
      <trkpt lat="43.80914" lon="6.44911">
        <ele>1168.481</ele>
        <time>2013-05-25T12:49:40Z</time>
      </trkpt>
      <trkpt lat="43.80921" lon="6.44905">
        <ele>1162.706</ele>
        <time>2013-05-25T12:49:47Z</time>
      </trkpt>
      <trkpt lat="43.80928" lon="6.44904">
        <ele>1160.584</ele>
        <time>2013-05-25T12:49:55Z</time>
      </trkpt>
      <trkpt lat="43.80932" lon="6.44904">
        <ele>1155.71</ele>
        <time>2013-05-25T12:50:02Z</time>
      </trkpt>
      <trkpt lat="43.80934" lon="6.44901">
        <ele>1151.359</ele>
        <time>2013-05-25T12:50:08Z</time>
      </trkpt>
      <trkpt lat="43.80936" lon="6.44898">
        <ele>1151.412</ele>
        <time>2013-05-25T12:50:18Z</time>
      </trkpt>
      <trkpt lat="43.80937" lon="6.44898">
        <ele>1151.142</ele>
        <time>2013-05-25T12:50:19Z</time>
      </trkpt>
      <trkpt lat="43.8095" lon="6.44898">
        <ele>1151.128</ele>
        <time>2013-05-25T12:50:26Z</time>
      </trkpt>
      <trkpt lat="43.80966" lon="6.44903">
        <ele>1151.933</ele>
        <time>2013-05-25T12:50:32Z</time>
      </trkpt>
      <trkpt lat="43.80969" lon="6.44907">
        <ele>1151.929</ele>
        <time>2013-05-25T12:50:36Z</time>
      </trkpt>
      <trkpt lat="43.80975" lon="6.44912">
        <ele>1154.047</ele>
        <time>2013-05-25T12:50:44Z</time>
      </trkpt>
      <trkpt lat="43.80984" lon="6.44923">
        <ele>1153.88</ele>
        <time>2013-05-25T12:50:49Z</time>
      </trkpt>
      <trkpt lat="43.80997" lon="6.44941">
        <ele>1153.322</ele>
        <time>2013-05-25T12:50:54Z</time>
      </trkpt>
      <trkpt lat="43.81004" lon="6.44955">
        <ele>1153.201</ele>
        <time>2013-05-25T12:50:58Z</time>
      </trkpt>
      <trkpt lat="43.81012" lon="6.44972">
        <ele>1152.358</ele>
        <time>2013-05-25T12:51:03Z</time>
      </trkpt>
      <trkpt lat="43.81018" lon="6.44992">
        <ele>1150.766</ele>
        <time>2013-05-25T12:51:08Z</time>
      </trkpt>
      <trkpt lat="43.81018" lon="6.44996">
        <ele>1150.335</ele>
        <time>2013-05-25T12:51:11Z</time>
      </trkpt>
      <trkpt lat="43.81029" lon="6.45012">
        <ele>1150.597</ele>
        <time>2013-05-25T12:51:16Z</time>
      </trkpt>
      <trkpt lat="43.81037" lon="6.45037">
        <ele>1149.494</ele>
        <time>2013-05-25T12:51:21Z</time>
      </trkpt>
      <trkpt lat="43.81039" lon="6.45053">
        <ele>1146.621</ele>
        <time>2013-05-25T12:51:25Z</time>
      </trkpt>
      <trkpt lat="43.81042" lon="6.45072">
        <ele>1143.319</ele>
        <time>2013-05-25T12:51:30Z</time>
      </trkpt>
      <trkpt lat="43.81041" lon="6.45088">
        <ele>1141.219</ele>
        <time>2013-05-25T12:51:34Z</time>
      </trkpt>
      <trkpt lat="43.81044" lon="6.45101">
        <ele>1140.433</ele>
        <time>2013-05-25T12:51:38Z</time>
      </trkpt>
      <trkpt lat="43.81053" lon="6.45121">
        <ele>1139.982</ele>
        <time>2013-05-25T12:51:43Z</time>
      </trkpt>
      <trkpt lat="43.81059" lon="6.45129">
        <ele>1139.271</ele>
        <time>2013-05-25T12:51:47Z</time>
      </trkpt>
      <trkpt lat="43.8106" lon="6.45131">
        <ele>1139.124</ele>
        <time>2013-05-25T12:51:51Z</time>
      </trkpt>
      <trkpt lat="43.8106" lon="6.45132">
        <ele>1131.711</ele>
        <time>2013-05-25T12:52:17Z</time>
      </trkpt>
      <trkpt lat="43.81061" lon="6.45144">
        <ele>1131.253</ele>
        <time>2013-05-25T12:52:22Z</time>
      </trkpt>
      <trkpt lat="43.81067" lon="6.45158">
        <ele>1134.85</ele>
        <time>2013-05-25T12:52:28Z</time>
      </trkpt>
      <trkpt lat="43.81077" lon="6.45173">
        <ele>1137.124</ele>
        <time>2013-05-25T12:52:34Z</time>
      </trkpt>
      <trkpt lat="43.81091" lon="6.45183">
        <ele>1138.837</ele>
        <time>2013-05-25T12:52:39Z</time>
      </trkpt>
      <trkpt lat="43.81107" lon="6.45192">
        <ele>1136.116</ele>
        <time>2013-05-25T12:52:44Z</time>
      </trkpt>
      <trkpt lat="43.81114" lon="6.45192">
        <ele>1135.375</ele>
        <time>2013-05-25T12:52:46Z</time>
      </trkpt>
      <trkpt lat="43.81126" lon="6.45205">
        <ele>1132.211</ele>
        <time>2013-05-25T12:52:51Z</time>
      </trkpt>
      <trkpt lat="43.81131" lon="6.45222">
        <ele>1131.445</ele>
        <time>2013-05-25T12:52:55Z</time>
      </trkpt>
      <trkpt lat="43.81134" lon="6.45235">
        <ele>1130.603</ele>
        <time>2013-05-25T12:52:58Z</time>
      </trkpt>
      <trkpt lat="43.81144" lon="6.45264">
        <ele>1128.594</ele>
        <time>2013-05-25T12:53:05Z</time>
      </trkpt>
      <trkpt lat="43.81153" lon="6.45288">
        <ele>1126.562</ele>
        <time>2013-05-25T12:53:11Z</time>
      </trkpt>
      <trkpt lat="43.81163" lon="6.45309">
        <ele>1124.833</ele>
        <time>2013-05-25T12:53:16Z</time>
      </trkpt>
      <trkpt lat="43.81173" lon="6.45333">
        <ele>1123.753</ele>
        <time>2013-05-25T12:53:21Z</time>
      </trkpt>
      <trkpt lat="43.81182" lon="6.4535">
        <ele>1122.982</ele>
        <time>2013-05-25T12:53:25Z</time>
      </trkpt>
      <trkpt lat="43.81203" lon="6.45365">
        <ele>1120.157</ele>
        <time>2013-05-25T12:53:30Z</time>
      </trkpt>
      <trkpt lat="43.81211" lon="6.45374">
        <ele>1118.847</ele>
        <time>2013-05-25T12:53:34Z</time>
      </trkpt>
      <trkpt lat="43.8122" lon="6.45393">
        <ele>1118.882</ele>
        <time>2013-05-25T12:53:40Z</time>
      </trkpt>
      <trkpt lat="43.81222" lon="6.45402">
        <ele>1117.51</ele>
        <time>2013-05-25T12:53:42Z</time>
      </trkpt>
      <trkpt lat="43.81235" lon="6.4541">
        <ele>1115.517</ele>
        <time>2013-05-25T12:53:46Z</time>
      </trkpt>
      <trkpt lat="43.81254" lon="6.45415">
        <ele>1112.196</ele>
        <time>2013-05-25T12:53:52Z</time>
      </trkpt>
      <trkpt lat="43.81263" lon="6.45421">
        <ele>1111.657</ele>
        <time>2013-05-25T12:53:56Z</time>
      </trkpt>
      <trkpt lat="43.81269" lon="6.45426">
        <ele>1111.31</ele>
        <time>2013-05-25T12:53:59Z</time>
      </trkpt>
      <trkpt lat="43.81278" lon="6.45429">
        <ele>1110.461</ele>
        <time>2013-05-25T12:54:03Z</time>
      </trkpt>
      <trkpt lat="43.81292" lon="6.45452">
        <ele>1109.173</ele>
        <time>2013-05-25T12:54:10Z</time>
      </trkpt>
      <trkpt lat="43.81301" lon="6.45467">
        <ele>1107.439</ele>
        <time>2013-05-25T12:54:14Z</time>
      </trkpt>
      <trkpt lat="43.81316" lon="6.45489">
        <ele>1105.208</ele>
        <time>2013-05-25T12:54:20Z</time>
      </trkpt>
      <trkpt lat="43.81323" lon="6.45504">
        <ele>1103.296</ele>
        <time>2013-05-25T12:54:23Z</time>
      </trkpt>
      <trkpt lat="43.81329" lon="6.45514">
        <ele>1102.258</ele>
        <time>2013-05-25T12:54:25Z</time>
      </trkpt>
      <trkpt lat="43.81347" lon="6.45546">
        <ele>1098.867</ele>
        <time>2013-05-25T12:54:32Z</time>
      </trkpt>
      <trkpt lat="43.8135" lon="6.45554">
        <ele>1097.739</ele>
        <time>2013-05-25T12:54:35Z</time>
      </trkpt>
      <trkpt lat="43.81358" lon="6.45571">
        <ele>1094.987</ele>
        <time>2013-05-25T12:54:40Z</time>
      </trkpt>
      <trkpt lat="43.81373" lon="6.45596">
        <ele>1091.424</ele>
        <time>2013-05-25T12:54:46Z</time>
      </trkpt>
      <trkpt lat="43.81382" lon="6.45611">
        <ele>1089.052</ele>
        <time>2013-05-25T12:54:49Z</time>
      </trkpt>
      <trkpt lat="43.81399" lon="6.45647">
        <ele>1085.09</ele>
        <time>2013-05-25T12:54:55Z</time>
      </trkpt>
      <trkpt lat="43.81405" lon="6.45663">
        <ele>1082.632</ele>
        <time>2013-05-25T12:54:58Z</time>
      </trkpt>
      <trkpt lat="43.81409" lon="6.45675">
        <ele>1080.157</ele>
        <time>2013-05-25T12:55:00Z</time>
      </trkpt>
      <trkpt lat="43.81422" lon="6.45713">
        <ele>1074.781</ele>
        <time>2013-05-25T12:55:07Z</time>
      </trkpt>
      <trkpt lat="43.81423" lon="6.45719">
        <ele>1074.392</ele>
        <time>2013-05-25T12:55:08Z</time>
      </trkpt>
      <trkpt lat="43.81433" lon="6.45748">
        <ele>1069.165</ele>
        <time>2013-05-25T12:55:14Z</time>
      </trkpt>
      <trkpt lat="43.81437" lon="6.45766">
        <ele>1067.188</ele>
        <time>2013-05-25T12:55:17Z</time>
      </trkpt>
      <trkpt lat="43.81442" lon="6.45795">
        <ele>1066.576</ele>
        <time>2013-05-25T12:55:22Z</time>
      </trkpt>
      <trkpt lat="43.81446" lon="6.4582">
        <ele>1066.521</ele>
        <time>2013-05-25T12:55:26Z</time>
      </trkpt>
      <trkpt lat="43.81457" lon="6.45837">
        <ele>1064.227</ele>
        <time>2013-05-25T12:55:30Z</time>
      </trkpt>
      <trkpt lat="43.81464" lon="6.45839">
        <ele>1064.37</ele>
        <time>2013-05-25T12:55:32Z</time>
      </trkpt>
      <trkpt lat="43.81477" lon="6.45853">
        <ele>1062.739</ele>
        <time>2013-05-25T12:55:37Z</time>
      </trkpt>
      <trkpt lat="43.81492" lon="6.45884">
        <ele>1059.136</ele>
        <time>2013-05-25T12:55:44Z</time>
      </trkpt>
      <trkpt lat="43.81499" lon="6.45903">
        <ele>1058.179</ele>
        <time>2013-05-25T12:55:47Z</time>
      </trkpt>
      <trkpt lat="43.81515" lon="6.45955">
        <ele>1054.495</ele>
        <time>2013-05-25T12:55:54Z</time>
      </trkpt>
      <trkpt lat="43.81517" lon="6.45962">
        <ele>1054.112</ele>
        <time>2013-05-25T12:55:55Z</time>
      </trkpt>
      <trkpt lat="43.81523" lon="6.45989">
        <ele>1051.885</ele>
        <time>2013-05-25T12:55:59Z</time>
      </trkpt>
      <trkpt lat="43.81531" lon="6.46016">
        <ele>1049.558</ele>
        <time>2013-05-25T12:56:04Z</time>
      </trkpt>
      <trkpt lat="43.81539" lon="6.46023">
        <ele>1049.893</ele>
        <time>2013-05-25T12:56:07Z</time>
      </trkpt>
      <trkpt lat="43.81551" lon="6.46028">
        <ele>1048.962</ele>
        <time>2013-05-25T12:56:10Z</time>
      </trkpt>
      <trkpt lat="43.81557" lon="6.4603">
        <ele>1049.043</ele>
        <time>2013-05-25T12:56:12Z</time>
      </trkpt>
      <trkpt lat="43.81572" lon="6.46061">
        <ele>1045.559</ele>
        <time>2013-05-25T12:56:18Z</time>
      </trkpt>
      <trkpt lat="43.8158" lon="6.46082">
        <ele>1043.486</ele>
        <time>2013-05-25T12:56:21Z</time>
      </trkpt>
      <trkpt lat="43.81585" lon="6.46096">
        <ele>1042.538</ele>
        <time>2013-05-25T12:56:23Z</time>
      </trkpt>
      <trkpt lat="43.81599" lon="6.46151">
        <ele>1038.949</ele>
        <time>2013-05-25T12:56:30Z</time>
      </trkpt>
      <trkpt lat="43.81606" lon="6.46173">
        <ele>1037.107</ele>
        <time>2013-05-25T12:56:33Z</time>
      </trkpt>
      <trkpt lat="43.81627" lon="6.4619">
        <ele>1034.848</ele>
        <time>2013-05-25T12:56:38Z</time>
      </trkpt>
      <trkpt lat="43.81636" lon="6.46196">
        <ele>1032.918</ele>
        <time>2013-05-25T12:56:40Z</time>
      </trkpt>
      <trkpt lat="43.8166" lon="6.46229">
        <ele>1030.1</ele>
        <time>2013-05-25T12:56:46Z</time>
      </trkpt>
      <trkpt lat="43.81675" lon="6.46246">
        <ele>1028.941</ele>
        <time>2013-05-25T12:56:49Z</time>
      </trkpt>
      <trkpt lat="43.81686" lon="6.46256">
        <ele>1026.838</ele>
        <time>2013-05-25T12:56:51Z</time>
      </trkpt>
      <trkpt lat="43.817" lon="6.46277">
        <ele>1022.753</ele>
        <time>2013-05-25T12:56:56Z</time>
      </trkpt>
      <trkpt lat="43.81707" lon="6.46282">
        <ele>1022.566</ele>
        <time>2013-05-25T12:56:58Z</time>
      </trkpt>
      <trkpt lat="43.8173" lon="6.46305">
        <ele>1020.458</ele>
        <time>2013-05-25T12:57:04Z</time>
      </trkpt>
      <trkpt lat="43.81739" lon="6.46315">
        <ele>1018.456</ele>
        <time>2013-05-25T12:57:06Z</time>
      </trkpt>
      <trkpt lat="43.81758" lon="6.46341">
        <ele>1013.75</ele>
        <time>2013-05-25T12:57:12Z</time>
      </trkpt>
      <trkpt lat="43.81767" lon="6.46354">
        <ele>1013.006</ele>
        <time>2013-05-25T12:57:16Z</time>
      </trkpt>
      <trkpt lat="43.8178" lon="6.46369">
        <ele>1010.086</ele>
        <time>2013-05-25T12:57:21Z</time>
      </trkpt>
      <trkpt lat="43.81784" lon="6.46373">
        <ele>1009.738</ele>
        <time>2013-05-25T12:57:22Z</time>
      </trkpt>
      <trkpt lat="43.81802" lon="6.46386">
        <ele>1008.237</ele>
        <time>2013-05-25T12:57:26Z</time>
      </trkpt>
      <trkpt lat="43.81819" lon="6.464">
        <ele>1007.03</ele>
        <time>2013-05-25T12:57:30Z</time>
      </trkpt>
      <trkpt lat="43.81837" lon="6.46414">
        <ele>1002.589</ele>
        <time>2013-05-25T12:57:34Z</time>
      </trkpt>
      <trkpt lat="43.81856" lon="6.46429">
        <ele>1001.734</ele>
        <time>2013-05-25T12:57:39Z</time>
      </trkpt>
      <trkpt lat="43.81861" lon="6.46432">
        <ele>1001.588</ele>
        <time>2013-05-25T12:57:41Z</time>
      </trkpt>
      <trkpt lat="43.81875" lon="6.46441">
        <ele>1001.292</ele>
        <time>2013-05-25T12:57:46Z</time>
      </trkpt>
      <trkpt lat="43.81885" lon="6.46442">
        <ele>1000.626</ele>
        <time>2013-05-25T12:57:49Z</time>
      </trkpt>
      <trkpt lat="43.819" lon="6.4646">
        <ele>1002.774</ele>
        <time>2013-05-25T12:57:55Z</time>
      </trkpt>
      <trkpt lat="43.81902" lon="6.46467">
        <ele>1002.572</ele>
        <time>2013-05-25T12:57:57Z</time>
      </trkpt>
      <trkpt lat="43.81913" lon="6.46484">
        <ele>1002.03</ele>
        <time>2013-05-25T12:58:02Z</time>
      </trkpt>
      <trkpt lat="43.81927" lon="6.46502">
        <ele>1000.901</ele>
        <time>2013-05-25T12:58:07Z</time>
      </trkpt>
      <trkpt lat="43.81935" lon="6.46514">
        <ele>999.136</ele>
        <time>2013-05-25T12:58:10Z</time>
      </trkpt>
      <trkpt lat="43.81943" lon="6.46525">
        <ele>996.735</ele>
        <time>2013-05-25T12:58:15Z</time>
      </trkpt>
      <trkpt lat="43.81947" lon="6.46529">
        <ele>997.279</ele>
        <time>2013-05-25T12:58:17Z</time>
      </trkpt>
      <trkpt lat="43.81958" lon="6.46545">
        <ele>995.755</ele>
        <time>2013-05-25T12:58:22Z</time>
      </trkpt>
      <trkpt lat="43.81965" lon="6.46561">
        <ele>994.014</ele>
        <time>2013-05-25T12:58:26Z</time>
      </trkpt>
      <trkpt lat="43.81965" lon="6.46583">
        <ele>990.421</ele>
        <time>2013-05-25T12:58:31Z</time>
      </trkpt>
      <trkpt lat="43.8197" lon="6.46601">
        <ele>989.151</ele>
        <time>2013-05-25T12:58:34Z</time>
      </trkpt>
      <trkpt lat="43.81983" lon="6.46614">
        <ele>987.984</ele>
        <time>2013-05-25T12:58:38Z</time>
      </trkpt>
      <trkpt lat="43.81988" lon="6.46623">
        <ele>987.194</ele>
        <time>2013-05-25T12:58:40Z</time>
      </trkpt>
      <trkpt lat="43.81993" lon="6.46634">
        <ele>986.674</ele>
        <time>2013-05-25T12:58:42Z</time>
      </trkpt>
      <trkpt lat="43.81999" lon="6.46668">
        <ele>984.555</ele>
        <time>2013-05-25T12:58:47Z</time>
      </trkpt>
      <trkpt lat="43.8201" lon="6.46704">
        <ele>980.861</ele>
        <time>2013-05-25T12:58:52Z</time>
      </trkpt>
      <trkpt lat="43.8202" lon="6.4675">
        <ele>975.013</ele>
        <time>2013-05-25T12:58:58Z</time>
      </trkpt>
      <trkpt lat="43.8203" lon="6.46776">
        <ele>972.086</ele>
        <time>2013-05-25T12:59:02Z</time>
      </trkpt>
      <trkpt lat="43.82035" lon="6.46804">
        <ele>969.415</ele>
        <time>2013-05-25T12:59:07Z</time>
      </trkpt>
      <trkpt lat="43.82043" lon="6.46815">
        <ele>969.541</ele>
        <time>2013-05-25T12:59:11Z</time>
      </trkpt>
      <trkpt lat="43.82049" lon="6.46817">
        <ele>971.107</ele>
        <time>2013-05-25T12:59:14Z</time>
      </trkpt>
      <trkpt lat="43.82083" lon="6.46815">
        <ele>970.863</ele>
        <time>2013-05-25T12:59:22Z</time>
      </trkpt>
      <trkpt lat="43.82087" lon="6.46815">
        <ele>970.242</ele>
        <time>2013-05-25T12:59:23Z</time>
      </trkpt>
      <trkpt lat="43.82118" lon="6.46819">
        <ele>965.421</ele>
        <time>2013-05-25T12:59:29Z</time>
      </trkpt>
      <trkpt lat="43.82127" lon="6.46821">
        <ele>963.96</ele>
        <time>2013-05-25T12:59:31Z</time>
      </trkpt>
      <trkpt lat="43.82151" lon="6.46836">
        <ele>961.831</ele>
        <time>2013-05-25T12:59:36Z</time>
      </trkpt>
      <trkpt lat="43.8217" lon="6.46862">
        <ele>958.398</ele>
        <time>2013-05-25T12:59:42Z</time>
      </trkpt>
      <trkpt lat="43.82182" lon="6.46878">
        <ele>958.545</ele>
        <time>2013-05-25T12:59:47Z</time>
      </trkpt>
      <trkpt lat="43.82201" lon="6.46892">
        <ele>955.069</ele>
        <time>2013-05-25T12:59:52Z</time>
      </trkpt>
      <trkpt lat="43.82216" lon="6.46899">
        <ele>951.599</ele>
        <time>2013-05-25T12:59:56Z</time>
      </trkpt>
      <trkpt lat="43.82223" lon="6.46907">
        <ele>949.165</ele>
        <time>2013-05-25T12:59:58Z</time>
      </trkpt>
      <trkpt lat="43.82229" lon="6.46917">
        <ele>948.848</ele>
        <time>2013-05-25T13:00:00Z</time>
      </trkpt>
      <trkpt lat="43.8224" lon="6.46945">
        <ele>943.914</ele>
        <time>2013-05-25T13:00:05Z</time>
      </trkpt>
      <trkpt lat="43.82241" lon="6.46952">
        <ele>942.384</ele>
        <time>2013-05-25T13:00:06Z</time>
      </trkpt>
      <trkpt lat="43.82249" lon="6.46986">
        <ele>935.74</ele>
        <time>2013-05-25T13:00:12Z</time>
      </trkpt>
      <trkpt lat="43.82251" lon="6.46992">
        <ele>935.181</ele>
        <time>2013-05-25T13:00:13Z</time>
      </trkpt>
      <trkpt lat="43.82261" lon="6.47009">
        <ele>934.173</ele>
        <time>2013-05-25T13:00:16Z</time>
      </trkpt>
      <trkpt lat="43.82278" lon="6.47038">
        <ele>934.436</ele>
        <time>2013-05-25T13:00:20Z</time>
      </trkpt>
      <trkpt lat="43.82284" lon="6.47053">
        <ele>935.95</ele>
        <time>2013-05-25T13:00:24Z</time>
      </trkpt>
      <trkpt lat="43.82284" lon="6.47053">
        <ele>937.254</ele>
        <time>2013-05-25T13:00:25Z</time>
      </trkpt>
      <trkpt lat="43.82285" lon="6.47055">
        <ele>937.869</ele>
        <time>2013-05-25T13:00:30Z</time>
      </trkpt>
      <trkpt lat="43.82292" lon="6.47068">
        <ele>939.533</ele>
        <time>2013-05-25T13:00:50Z</time>
      </trkpt>
      <trkpt lat="43.82298" lon="6.47081">
        <ele>940.005</ele>
        <time>2013-05-25T13:00:54Z</time>
      </trkpt>
      <trkpt lat="43.82308" lon="6.47099">
        <ele>938.801</ele>
        <time>2013-05-25T13:00:59Z</time>
      </trkpt>
      <trkpt lat="43.8231" lon="6.47103">
        <ele>938.118</ele>
        <time>2013-05-25T13:01:00Z</time>
      </trkpt>
      <trkpt lat="43.82321" lon="6.47128">
        <ele>934.572</ele>
        <time>2013-05-25T13:01:05Z</time>
      </trkpt>
      <trkpt lat="43.82329" lon="6.47156">
        <ele>930.328</ele>
        <time>2013-05-25T13:01:10Z</time>
      </trkpt>
      <trkpt lat="43.82333" lon="6.47165">
        <ele>928.285</ele>
        <time>2013-05-25T13:01:12Z</time>
      </trkpt>
      <trkpt lat="43.82338" lon="6.47175">
        <ele>926.696</ele>
        <time>2013-05-25T13:01:14Z</time>
      </trkpt>
      <trkpt lat="43.82355" lon="6.47201">
        <ele>923.506</ele>
        <time>2013-05-25T13:01:19Z</time>
      </trkpt>
      <trkpt lat="43.82363" lon="6.47211">
        <ele>923.028</ele>
        <time>2013-05-25T13:01:21Z</time>
      </trkpt>
      <trkpt lat="43.82373" lon="6.47221">
        <ele>921.425</ele>
        <time>2013-05-25T13:01:23Z</time>
      </trkpt>
      <trkpt lat="43.82392" lon="6.47248">
        <ele>917.222</ele>
        <time>2013-05-25T13:01:28Z</time>
      </trkpt>
      <trkpt lat="43.82404" lon="6.47272">
        <ele>913.08</ele>
        <time>2013-05-25T13:01:32Z</time>
      </trkpt>
      <trkpt lat="43.82418" lon="6.47297">
        <ele>911.453</ele>
        <time>2013-05-25T13:01:36Z</time>
      </trkpt>
      <trkpt lat="43.82428" lon="6.47325">
        <ele>909.462</ele>
        <time>2013-05-25T13:01:40Z</time>
      </trkpt>
      <trkpt lat="43.82437" lon="6.47365">
        <ele>904.073</ele>
        <time>2013-05-25T13:01:45Z</time>
      </trkpt>
      <trkpt lat="43.8245" lon="6.47385">
        <ele>902.283</ele>
        <time>2013-05-25T13:01:48Z</time>
      </trkpt>
      <trkpt lat="43.82463" lon="6.4741">
        <ele>901.748</ele>
        <time>2013-05-25T13:01:52Z</time>
      </trkpt>
      <trkpt lat="43.82465" lon="6.47435">
        <ele>901.02</ele>
        <time>2013-05-25T13:01:56Z</time>
      </trkpt>
      <trkpt lat="43.82466" lon="6.4746">
        <ele>898.58</ele>
        <time>2013-05-25T13:02:01Z</time>
      </trkpt>
      <trkpt lat="43.82468" lon="6.47472">
        <ele>897.92</ele>
        <time>2013-05-25T13:02:03Z</time>
      </trkpt>
      <trkpt lat="43.82468" lon="6.47487">
        <ele>897.161</ele>
        <time>2013-05-25T13:02:05Z</time>
      </trkpt>
      <trkpt lat="43.8248" lon="6.47527">
        <ele>893.887</ele>
        <time>2013-05-25T13:02:11Z</time>
      </trkpt>
      <trkpt lat="43.82492" lon="6.47563">
        <ele>891.064</ele>
        <time>2013-05-25T13:02:16Z</time>
      </trkpt>
      <trkpt lat="43.82499" lon="6.47596">
        <ele>889.068</ele>
        <time>2013-05-25T13:02:21Z</time>
      </trkpt>
      <trkpt lat="43.82506" lon="6.47617">
        <ele>889.195</ele>
        <time>2013-05-25T13:02:27Z</time>
      </trkpt>
      <trkpt lat="43.82513" lon="6.47631">
        <ele>888.508</ele>
        <time>2013-05-25T13:02:32Z</time>
      </trkpt>
      <trkpt lat="43.82524" lon="6.47661">
        <ele>886.925</ele>
        <time>2013-05-25T13:02:37Z</time>
      </trkpt>
      <trkpt lat="43.82542" lon="6.47703">
        <ele>885.375</ele>
        <time>2013-05-25T13:02:44Z</time>
      </trkpt>
      <trkpt lat="43.82553" lon="6.47727">
        <ele>883.243</ele>
        <time>2013-05-25T13:02:48Z</time>
      </trkpt>
      <trkpt lat="43.82564" lon="6.4776">
        <ele>880.881</ele>
        <time>2013-05-25T13:02:54Z</time>
      </trkpt>
      <trkpt lat="43.82567" lon="6.47789">
        <ele>877.929</ele>
        <time>2013-05-25T13:02:59Z</time>
      </trkpt>
      <trkpt lat="43.82574" lon="6.47803">
        <ele>877.654</ele>
        <time>2013-05-25T13:03:03Z</time>
      </trkpt>
      <trkpt lat="43.82582" lon="6.47815">
        <ele>877.298</ele>
        <time>2013-05-25T13:03:07Z</time>
      </trkpt>
      <trkpt lat="43.82589" lon="6.47827">
        <ele>875.467</ele>
        <time>2013-05-25T13:03:11Z</time>
      </trkpt>
      <trkpt lat="43.82599" lon="6.47839">
        <ele>874.334</ele>
        <time>2013-05-25T13:03:15Z</time>
      </trkpt>
      <trkpt lat="43.82607" lon="6.47852">
        <ele>873.655</ele>
        <time>2013-05-25T13:03:19Z</time>
      </trkpt>
      <trkpt lat="43.82609" lon="6.47861">
        <ele>873.566</ele>
        <time>2013-05-25T13:03:21Z</time>
      </trkpt>
      <trkpt lat="43.82611" lon="6.47887">
        <ele>871.575</ele>
        <time>2013-05-25T13:03:27Z</time>
      </trkpt>
      <trkpt lat="43.82613" lon="6.47888">
        <ele>871.849</ele>
        <time>2013-05-25T13:03:31Z</time>
      </trkpt>
      <trkpt lat="43.82616" lon="6.47889">
        <ele>872.642</ele>
        <time>2013-05-25T13:03:38Z</time>
      </trkpt>
      <trkpt lat="43.8262" lon="6.47887">
        <ele>871.743</ele>
        <time>2013-05-25T13:03:46Z</time>
      </trkpt>
      <trkpt lat="43.82619" lon="6.4789">
        <ele>875.918</ele>
        <time>2013-05-25T13:04:02Z</time>
      </trkpt>
      <trkpt lat="43.82621" lon="6.47902">
        <ele>873.652</ele>
        <time>2013-05-25T13:04:08Z</time>
      </trkpt>
      <trkpt lat="43.82627" lon="6.47908">
        <ele>874.344</ele>
        <time>2013-05-25T13:04:13Z</time>
      </trkpt>
      <trkpt lat="43.82635" lon="6.47916">
        <ele>875.668</ele>
        <time>2013-05-25T13:04:17Z</time>
      </trkpt>
      <trkpt lat="43.82643" lon="6.47929">
        <ele>879.082</ele>
        <time>2013-05-25T13:04:22Z</time>
      </trkpt>
      <trkpt lat="43.82653" lon="6.47938">
        <ele>881.322</ele>
        <time>2013-05-25T13:04:27Z</time>
      </trkpt>
      <trkpt lat="43.82659" lon="6.47943">
        <ele>883.085</ele>
        <time>2013-05-25T13:04:31Z</time>
      </trkpt>
      <trkpt lat="43.82672" lon="6.47958">
        <ele>884.651</ele>
        <time>2013-05-25T13:04:37Z</time>
      </trkpt>
      <trkpt lat="43.82681" lon="6.47975">
        <ele>882.474</ele>
        <time>2013-05-25T13:04:42Z</time>
      </trkpt>
      <trkpt lat="43.82688" lon="6.47987">
        <ele>881.302</ele>
        <time>2013-05-25T13:04:46Z</time>
      </trkpt>
      <trkpt lat="43.8269" lon="6.48015">
        <ele>872.383</ele>
        <time>2013-05-25T13:04:52Z</time>
      </trkpt>
      <trkpt lat="43.82692" lon="6.48023">
        <ele>871.626</ele>
        <time>2013-05-25T13:04:56Z</time>
      </trkpt>
      <trkpt lat="43.82693" lon="6.48027">
        <ele>867.48</ele>
        <time>2013-05-25T13:05:13Z</time>
      </trkpt>
      <trkpt lat="43.82699" lon="6.48041">
        <ele>867.022</ele>
        <time>2013-05-25T13:05:19Z</time>
      </trkpt>
      <trkpt lat="43.82698" lon="6.48057">
        <ele>866.319</ele>
        <time>2013-05-25T13:05:23Z</time>
      </trkpt>
      <trkpt lat="43.82698" lon="6.48078">
        <ele>864.317</ele>
        <time>2013-05-25T13:05:28Z</time>
      </trkpt>
      <trkpt lat="43.82711" lon="6.48101">
        <ele>864.264</ele>
        <time>2013-05-25T13:05:36Z</time>
      </trkpt>
      <trkpt lat="43.82723" lon="6.48109">
        <ele>868.922</ele>
        <time>2013-05-25T13:05:43Z</time>
      </trkpt>
      <trkpt lat="43.82734" lon="6.48115">
        <ele>869.672</ele>
        <time>2013-05-25T13:05:49Z</time>
      </trkpt>
      <trkpt lat="43.82749" lon="6.48115">
        <ele>870.773</ele>
        <time>2013-05-25T13:05:55Z</time>
      </trkpt>
      <trkpt lat="43.82758" lon="6.48118">
        <ele>873.686</ele>
        <time>2013-05-25T13:06:00Z</time>
      </trkpt>
      <trkpt lat="43.82768" lon="6.48127">
        <ele>870.695</ele>
        <time>2013-05-25T13:06:05Z</time>
      </trkpt>
      <trkpt lat="43.82769" lon="6.48132">
        <ele>869.99</ele>
        <time>2013-05-25T13:06:06Z</time>
      </trkpt>
      <trkpt lat="43.8278" lon="6.4816">
        <ele>867.94</ele>
        <time>2013-05-25T13:06:12Z</time>
      </trkpt>
      <trkpt lat="43.82789" lon="6.48173">
        <ele>866.327</ele>
        <time>2013-05-25T13:06:17Z</time>
      </trkpt>
      <trkpt lat="43.82797" lon="6.48193">
        <ele>864.948</ele>
        <time>2013-05-25T13:06:22Z</time>
      </trkpt>
      <trkpt lat="43.82803" lon="6.48205">
        <ele>865.935</ele>
        <time>2013-05-25T13:06:28Z</time>
      </trkpt>
      <trkpt lat="43.82811" lon="6.48223">
        <ele>864.319</ele>
        <time>2013-05-25T13:06:33Z</time>
      </trkpt>
      <trkpt lat="43.82817" lon="6.48236">
        <ele>865.273</ele>
        <time>2013-05-25T13:06:37Z</time>
      </trkpt>
      <trkpt lat="43.82819" lon="6.48241">
        <ele>864.62</ele>
        <time>2013-05-25T13:06:39Z</time>
      </trkpt>
      <trkpt lat="43.82834" lon="6.48265">
        <ele>864.968</ele>
        <time>2013-05-25T13:06:46Z</time>
      </trkpt>
      <trkpt lat="43.82841" lon="6.48279">
        <ele>865.677</ele>
        <time>2013-05-25T13:06:52Z</time>
      </trkpt>
      <trkpt lat="43.82842" lon="6.48282">
        <ele>866.64</ele>
        <time>2013-05-25T13:06:55Z</time>
      </trkpt>
      <trkpt lat="43.82846" lon="6.48293">
        <ele>865.596</ele>
        <time>2013-05-25T13:07:00Z</time>
      </trkpt>
      <trkpt lat="43.82853" lon="6.48304">
        <ele>868.081</ele>
        <time>2013-05-25T13:07:07Z</time>
      </trkpt>
      <trkpt lat="43.82855" lon="6.48311">
        <ele>869.13</ele>
        <time>2013-05-25T13:07:11Z</time>
      </trkpt>
      <trkpt lat="43.8286" lon="6.48321">
        <ele>867.968</ele>
        <time>2013-05-25T13:07:16Z</time>
      </trkpt>
      <trkpt lat="43.82861" lon="6.48324">
        <ele>868.219</ele>
        <time>2013-05-25T13:07:18Z</time>
      </trkpt>
      <trkpt lat="43.82863" lon="6.48331">
        <ele>869.169</ele>
        <time>2013-05-25T13:07:22Z</time>
      </trkpt>
      <trkpt lat="43.82864" lon="6.48335">
        <ele>868.956</ele>
        <time>2013-05-25T13:07:24Z</time>
      </trkpt>
      <trkpt lat="43.82863" lon="6.48353">
        <ele>867.953</ele>
        <time>2013-05-25T13:07:31Z</time>
      </trkpt>
      <trkpt lat="43.82863" lon="6.48355">
        <ele>867.541</ele>
        <time>2013-05-25T13:07:32Z</time>
      </trkpt>
      <trkpt lat="43.82863" lon="6.48365">
        <ele>868.596</ele>
        <time>2013-05-25T13:07:37Z</time>
      </trkpt>
      <trkpt lat="43.82864" lon="6.48377">
        <ele>870.08</ele>
        <time>2013-05-25T13:07:43Z</time>
      </trkpt>
      <trkpt lat="43.82864" lon="6.48395">
        <ele>872.29</ele>
        <time>2013-05-25T13:07:51Z</time>
      </trkpt>
      <trkpt lat="43.82866" lon="6.48407">
        <ele>872.037</ele>
        <time>2013-05-25T13:07:57Z</time>
      </trkpt>
      <trkpt lat="43.82875" lon="6.48411">
        <ele>874.129</ele>
        <time>2013-05-25T13:08:02Z</time>
      </trkpt>
      <trkpt lat="43.82883" lon="6.4842">
        <ele>876.962</ele>
        <time>2013-05-25T13:08:08Z</time>
      </trkpt>
      <trkpt lat="43.82886" lon="6.48434">
        <ele>876.818</ele>
        <time>2013-05-25T13:08:14Z</time>
      </trkpt>
      <trkpt lat="43.82892" lon="6.48448">
        <ele>876.506</ele>
        <time>2013-05-25T13:08:21Z</time>
      </trkpt>
      <trkpt lat="43.82897" lon="6.48464">
        <ele>876.159</ele>
        <time>2013-05-25T13:08:28Z</time>
      </trkpt>
      <trkpt lat="43.82902" lon="6.48478">
        <ele>875.938</ele>
        <time>2013-05-25T13:08:35Z</time>
      </trkpt>
      <trkpt lat="43.82906" lon="6.4849">
        <ele>878.473</ele>
        <time>2013-05-25T13:08:42Z</time>
      </trkpt>
      <trkpt lat="43.82914" lon="6.48509">
        <ele>877.787</ele>
        <time>2013-05-25T13:08:50Z</time>
      </trkpt>
      <trkpt lat="43.82917" lon="6.48523">
        <ele>877.884</ele>
        <time>2013-05-25T13:08:55Z</time>
      </trkpt>
      <trkpt lat="43.82918" lon="6.48526">
        <ele>877.976</ele>
        <time>2013-05-25T13:08:56Z</time>
      </trkpt>
      <trkpt lat="43.8292" lon="6.48529">
        <ele>878.316</ele>
        <time>2013-05-25T13:09:00Z</time>
      </trkpt>
      <trkpt lat="43.82932" lon="6.48545">
        <ele>880.814</ele>
        <time>2013-05-25T13:09:09Z</time>
      </trkpt>
      <trkpt lat="43.82939" lon="6.48558">
        <ele>881.478</ele>
        <time>2013-05-25T13:09:15Z</time>
      </trkpt>
      <trkpt lat="43.82947" lon="6.48574">
        <ele>880.388</ele>
        <time>2013-05-25T13:09:22Z</time>
      </trkpt>
      <trkpt lat="43.82955" lon="6.48589">
        <ele>879.705</ele>
        <time>2013-05-25T13:09:28Z</time>
      </trkpt>
      <trkpt lat="43.8296" lon="6.486">
        <ele>881.11</ele>
        <time>2013-05-25T13:09:33Z</time>
      </trkpt>
      <trkpt lat="43.82966" lon="6.48611">
        <ele>882.751</ele>
        <time>2013-05-25T13:09:39Z</time>
      </trkpt>
      <trkpt lat="43.82972" lon="6.48626">
        <ele>881.846</ele>
        <time>2013-05-25T13:09:46Z</time>
      </trkpt>
      <trkpt lat="43.82974" lon="6.48632">
        <ele>882.518</ele>
        <time>2013-05-25T13:09:49Z</time>
      </trkpt>
      <trkpt lat="43.8298" lon="6.48647">
        <ele>884.022</ele>
        <time>2013-05-25T13:09:56Z</time>
      </trkpt>
      <trkpt lat="43.82986" lon="6.48661">
        <ele>886.114</ele>
        <time>2013-05-25T13:10:03Z</time>
      </trkpt>
      <trkpt lat="43.82992" lon="6.48676">
        <ele>888.142</ele>
        <time>2013-05-25T13:10:11Z</time>
      </trkpt>
      <trkpt lat="43.82999" lon="6.48691">
        <ele>889.523</ele>
        <time>2013-05-25T13:10:18Z</time>
      </trkpt>
      <trkpt lat="43.83003" lon="6.48705">
        <ele>889.7</ele>
        <time>2013-05-25T13:10:24Z</time>
      </trkpt>
      <trkpt lat="43.83007" lon="6.48724">
        <ele>890.922</ele>
        <time>2013-05-25T13:10:32Z</time>
      </trkpt>
      <trkpt lat="43.83009" lon="6.48738">
        <ele>891.23</ele>
        <time>2013-05-25T13:10:38Z</time>
      </trkpt>
      <trkpt lat="43.83011" lon="6.48747">
        <ele>890.408</ele>
        <time>2013-05-25T13:10:42Z</time>
      </trkpt>
      <trkpt lat="43.83019" lon="6.48767">
        <ele>891.051</ele>
        <time>2013-05-25T13:10:50Z</time>
      </trkpt>
      <trkpt lat="43.83023" lon="6.48783">
        <ele>891.648</ele>
        <time>2013-05-25T13:10:56Z</time>
      </trkpt>
      <trkpt lat="43.83028" lon="6.48803">
        <ele>891.176</ele>
        <time>2013-05-25T13:11:03Z</time>
      </trkpt>
      <trkpt lat="43.83031" lon="6.4882">
        <ele>890.115</ele>
        <time>2013-05-25T13:11:08Z</time>
      </trkpt>
      <trkpt lat="43.83036" lon="6.48837">
        <ele>890.677</ele>
        <time>2013-05-25T13:11:14Z</time>
      </trkpt>
      <trkpt lat="43.83035" lon="6.48851">
        <ele>889.274</ele>
        <time>2013-05-25T13:11:18Z</time>
      </trkpt>
      <trkpt lat="43.83034" lon="6.48864">
        <ele>889.165</ele>
        <time>2013-05-25T13:11:23Z</time>
      </trkpt>
      <trkpt lat="43.83031" lon="6.48878">
        <ele>888.514</ele>
        <time>2013-05-25T13:11:28Z</time>
      </trkpt>
      <trkpt lat="43.83028" lon="6.48888">
        <ele>888.104</ele>
        <time>2013-05-25T13:11:33Z</time>
      </trkpt>
      <trkpt lat="43.83028" lon="6.48892">
        <ele>888.416</ele>
        <time>2013-05-25T13:11:36Z</time>
      </trkpt>
      <trkpt lat="43.83028" lon="6.48902">
        <ele>890.491</ele>
        <time>2013-05-25T13:11:41Z</time>
      </trkpt>
      <trkpt lat="43.83028" lon="6.4892">
        <ele>892.472</ele>
        <time>2013-05-25T13:11:49Z</time>
      </trkpt>
      <trkpt lat="43.8303" lon="6.48937">
        <ele>893.251</ele>
        <time>2013-05-25T13:11:56Z</time>
      </trkpt>
      <trkpt lat="43.83033" lon="6.48951">
        <ele>892.647</ele>
        <time>2013-05-25T13:12:01Z</time>
      </trkpt>
      <trkpt lat="43.83041" lon="6.48967">
        <ele>892.117</ele>
        <time>2013-05-25T13:12:08Z</time>
      </trkpt>
      <trkpt lat="43.83047" lon="6.48983">
        <ele>893.131</ele>
        <time>2013-05-25T13:12:15Z</time>
      </trkpt>
      <trkpt lat="43.83053" lon="6.48998">
        <ele>895.845</ele>
        <time>2013-05-25T13:12:23Z</time>
      </trkpt>
      <trkpt lat="43.83058" lon="6.4901">
        <ele>897.32</ele>
        <time>2013-05-25T13:12:29Z</time>
      </trkpt>
      <trkpt lat="43.83067" lon="6.49028">
        <ele>896.786</ele>
        <time>2013-05-25T13:12:33Z</time>
      </trkpt>
      <trkpt lat="43.83077" lon="6.49054">
        <ele>896.397</ele>
        <time>2013-05-25T13:12:39Z</time>
      </trkpt>
      <trkpt lat="43.83083" lon="6.49073">
        <ele>896.382</ele>
        <time>2013-05-25T13:12:45Z</time>
      </trkpt>
      <trkpt lat="43.8309" lon="6.4909">
        <ele>895.764</ele>
        <time>2013-05-25T13:12:51Z</time>
      </trkpt>
      <trkpt lat="43.83095" lon="6.49102">
        <ele>894.819</ele>
        <time>2013-05-25T13:12:54Z</time>
      </trkpt>
      <trkpt lat="43.83094" lon="6.49131">
        <ele>893.28</ele>
        <time>2013-05-25T13:12:59Z</time>
      </trkpt>
      <trkpt lat="43.83093" lon="6.49149">
        <ele>892.865</ele>
        <time>2013-05-25T13:13:04Z</time>
      </trkpt>
      <trkpt lat="43.831" lon="6.49158">
        <ele>894.39</ele>
        <time>2013-05-25T13:13:09Z</time>
      </trkpt>
      <trkpt lat="43.8311" lon="6.49161">
        <ele>896.696</ele>
        <time>2013-05-25T13:13:14Z</time>
      </trkpt>
      <trkpt lat="43.83116" lon="6.49174">
        <ele>897.931</ele>
        <time>2013-05-25T13:13:20Z</time>
      </trkpt>
      <trkpt lat="43.83119" lon="6.49188">
        <ele>894.92</ele>
        <time>2013-05-25T13:13:24Z</time>
      </trkpt>
      <trkpt lat="43.83122" lon="6.49188">
        <ele>893.581</ele>
        <time>2013-05-25T13:13:27Z</time>
      </trkpt>
      <trkpt lat="43.83125" lon="6.49201">
        <ele>889.384</ele>
        <time>2013-05-25T13:13:32Z</time>
      </trkpt>
      <trkpt lat="43.83126" lon="6.49207">
        <ele>887.562</ele>
        <time>2013-05-25T13:13:34Z</time>
      </trkpt>
      <trkpt lat="43.83129" lon="6.49207">
        <ele>886.435</ele>
        <time>2013-05-25T13:13:38Z</time>
      </trkpt>
      <trkpt lat="43.8313" lon="6.49204">
        <ele>885.835</ele>
        <time>2013-05-25T13:13:39Z</time>
      </trkpt>
      <trkpt lat="43.83132" lon="6.49195">
        <ele>883.693</ele>
        <time>2013-05-25T13:13:42Z</time>
      </trkpt>
      <trkpt lat="43.83135" lon="6.49201">
        <ele>880.362</ele>
        <time>2013-05-25T13:13:46Z</time>
      </trkpt>
      <trkpt lat="43.83139" lon="6.49224">
        <ele>876.572</ele>
        <time>2013-05-25T13:13:52Z</time>
      </trkpt>
      <trkpt lat="43.83143" lon="6.49223">
        <ele>874.564</ele>
        <time>2013-05-25T13:13:56Z</time>
      </trkpt>
      <trkpt lat="43.83146" lon="6.49224">
        <ele>871.752</ele>
        <time>2013-05-25T13:13:59Z</time>
      </trkpt>
      <trkpt lat="43.83144" lon="6.49231">
        <ele>869.379</ele>
        <time>2013-05-25T13:14:01Z</time>
      </trkpt>
      <trkpt lat="43.8315" lon="6.49252">
        <ele>864.295</ele>
        <time>2013-05-25T13:14:07Z</time>
      </trkpt>
      <trkpt lat="43.83153" lon="6.49255">
        <ele>863.133</ele>
        <time>2013-05-25T13:14:08Z</time>
      </trkpt>
      <trkpt lat="43.83167" lon="6.49277">
        <ele>857.033</ele>
        <time>2013-05-25T13:14:14Z</time>
      </trkpt>
      <trkpt lat="43.83171" lon="6.49299">
        <ele>853.579</ele>
        <time>2013-05-25T13:14:19Z</time>
      </trkpt>
      <trkpt lat="43.83172" lon="6.49303">
        <ele>852.639</ele>
        <time>2013-05-25T13:14:20Z</time>
      </trkpt>
      <trkpt lat="43.83185" lon="6.49325">
        <ele>850.194</ele>
        <time>2013-05-25T13:14:25Z</time>
      </trkpt>
      <trkpt lat="43.83186" lon="6.49337">
        <ele>848.883</ele>
        <time>2013-05-25T13:14:27Z</time>
      </trkpt>
      <trkpt lat="43.83194" lon="6.49366">
        <ele>845.121</ele>
        <time>2013-05-25T13:14:32Z</time>
      </trkpt>
      <trkpt lat="43.83197" lon="6.49382">
        <ele>843.492</ele>
        <time>2013-05-25T13:14:34Z</time>
      </trkpt>
      <trkpt lat="43.83209" lon="6.49409">
        <ele>840.579</ele>
        <time>2013-05-25T13:14:38Z</time>
      </trkpt>
      <trkpt lat="43.83232" lon="6.49443">
        <ele>837.53</ele>
        <time>2013-05-25T13:14:43Z</time>
      </trkpt>
      <trkpt lat="43.83247" lon="6.49474">
        <ele>833.138</ele>
        <time>2013-05-25T13:14:48Z</time>
      </trkpt>
      <trkpt lat="43.83259" lon="6.49507">
        <ele>827.475</ele>
        <time>2013-05-25T13:14:53Z</time>
      </trkpt>
      <trkpt lat="43.83275" lon="6.49548">
        <ele>823.52</ele>
        <time>2013-05-25T13:14:58Z</time>
      </trkpt>
      <trkpt lat="43.83287" lon="6.49575">
        <ele>819.713</ele>
        <time>2013-05-25T13:15:02Z</time>
      </trkpt>
      <trkpt lat="43.8329" lon="6.4958">
        <ele>818.14</ele>
        <time>2013-05-25T13:15:03Z</time>
      </trkpt>
      <trkpt lat="43.83302" lon="6.49597">
        <ele>813.596</ele>
        <time>2013-05-25T13:15:06Z</time>
      </trkpt>
      <trkpt lat="43.83309" lon="6.4961">
        <ele>811.197</ele>
        <time>2013-05-25T13:15:08Z</time>
      </trkpt>
      <trkpt lat="43.83315" lon="6.49624">
        <ele>809.54</ele>
        <time>2013-05-25T13:15:10Z</time>
      </trkpt>
      <trkpt lat="43.8333" lon="6.49648">
        <ele>806.571</ele>
        <time>2013-05-25T13:15:14Z</time>
      </trkpt>
      <trkpt lat="43.83339" lon="6.49662">
        <ele>803.237</ele>
        <time>2013-05-25T13:15:16Z</time>
      </trkpt>
      <trkpt lat="43.83345" lon="6.49678">
        <ele>800.436</ele>
        <time>2013-05-25T13:15:18Z</time>
      </trkpt>
      <trkpt lat="43.83365" lon="6.49711">
        <ele>792.641</ele>
        <time>2013-05-25T13:15:23Z</time>
      </trkpt>
      <trkpt lat="43.83398" lon="6.49765">
        <ele>780.887</ele>
        <time>2013-05-25T13:15:30Z</time>
      </trkpt>
      <trkpt lat="43.8342" lon="6.49803">
        <ele>772.08</ele>
        <time>2013-05-25T13:15:35Z</time>
      </trkpt>
      <trkpt lat="43.83439" lon="6.49837">
        <ele>763.508</ele>
        <time>2013-05-25T13:15:40Z</time>
      </trkpt>
      <trkpt lat="43.8345" lon="6.49857">
        <ele>757.898</ele>
        <time>2013-05-25T13:15:45Z</time>
      </trkpt>
      <trkpt lat="43.83456" lon="6.49869">
        <ele>755.183</ele>
        <time>2013-05-25T13:15:48Z</time>
      </trkpt>
      <trkpt lat="43.83459" lon="6.49866">
        <ele>753.332</ele>
        <time>2013-05-25T13:15:52Z</time>
      </trkpt>
      <trkpt lat="43.83465" lon="6.49856">
        <ele>751.526</ele>
        <time>2013-05-25T13:15:56Z</time>
      </trkpt>
      <trkpt lat="43.83468" lon="6.49861">
        <ele>750.194</ele>
        <time>2013-05-25T13:15:58Z</time>
      </trkpt>
      <trkpt lat="43.83475" lon="6.4988">
        <ele>744.657</ele>
        <time>2013-05-25T13:16:04Z</time>
      </trkpt>
      <trkpt lat="43.8348" lon="6.49904">
        <ele>741.267</ele>
        <time>2013-05-25T13:16:09Z</time>
      </trkpt>
      <trkpt lat="43.83482" lon="6.49919">
        <ele>739.318</ele>
        <time>2013-05-25T13:16:12Z</time>
      </trkpt>
      <trkpt lat="43.83486" lon="6.49922">
        <ele>738.514</ele>
        <time>2013-05-25T13:16:15Z</time>
      </trkpt>
      <trkpt lat="43.83489" lon="6.49908">
        <ele>738.26</ele>
        <time>2013-05-25T13:16:19Z</time>
      </trkpt>
      <trkpt lat="43.83492" lon="6.49886">
        <ele>737.324</ele>
        <time>2013-05-25T13:16:22Z</time>
      </trkpt>
      <trkpt lat="43.835" lon="6.49834">
        <ele>735.474</ele>
        <time>2013-05-25T13:16:28Z</time>
      </trkpt>
      <trkpt lat="43.83501" lon="6.49825">
        <ele>735.865</ele>
        <time>2013-05-25T13:16:29Z</time>
      </trkpt>
      <trkpt lat="43.83507" lon="6.49815">
        <ele>735.966</ele>
        <time>2013-05-25T13:16:33Z</time>
      </trkpt>
      <trkpt lat="43.83509" lon="6.49844">
        <ele>726.818</ele>
        <time>2013-05-25T13:16:39Z</time>
      </trkpt>
      <trkpt lat="43.8351" lon="6.49853">
        <ele>724.483</ele>
        <time>2013-05-25T13:16:40Z</time>
      </trkpt>
      <trkpt lat="43.83517" lon="6.49905">
        <ele>716.884</ele>
        <time>2013-05-25T13:16:45Z</time>
      </trkpt>
      <trkpt lat="43.83522" lon="6.49949">
        <ele>710.894</ele>
        <time>2013-05-25T13:16:50Z</time>
      </trkpt>
      <trkpt lat="43.8353" lon="6.49973">
        <ele>709.288</ele>
        <time>2013-05-25T13:16:54Z</time>
      </trkpt>
      <trkpt lat="43.83534" lon="6.49977">
        <ele>710.961</ele>
        <time>2013-05-25T13:16:57Z</time>
      </trkpt>
      <trkpt lat="43.8354" lon="6.49981">
        <ele>715.455</ele>
        <time>2013-05-25T13:17:03Z</time>
      </trkpt>
      <trkpt lat="43.83539" lon="6.49981">
        <ele>718.305</ele>
        <time>2013-05-25T13:17:34Z</time>
      </trkpt>
      <trkpt lat="43.83544" lon="6.4998">
        <ele>718.369</ele>
        <time>2013-05-25T13:17:57Z</time>
      </trkpt>
      <trkpt lat="43.83547" lon="6.49982">
        <ele>719.452</ele>
        <time>2013-05-25T13:18:03Z</time>
      </trkpt>
      <trkpt lat="43.83546" lon="6.49982">
        <ele>719.943</ele>
        <time>2013-05-25T13:18:04Z</time>
      </trkpt>
      <trkpt lat="43.83547" lon="6.49984">
        <ele>723.039</ele>
        <time>2013-05-25T13:18:10Z</time>
      </trkpt>
      <trkpt lat="43.83548" lon="6.49987">
        <ele>723.447</ele>
        <time>2013-05-25T13:18:12Z</time>
      </trkpt>
      <trkpt lat="43.83552" lon="6.49988">
        <ele>727.242</ele>
        <time>2013-05-25T13:18:16Z</time>
      </trkpt>
      <trkpt lat="43.83555" lon="6.4999">
        <ele>727.79</ele>
        <time>2013-05-25T13:18:19Z</time>
      </trkpt>
      <trkpt lat="43.83567" lon="6.49999">
        <ele>727.876</ele>
        <time>2013-05-25T13:18:29Z</time>
      </trkpt>
      <trkpt lat="43.83575" lon="6.49997">
        <ele>728.058</ele>
        <time>2013-05-25T13:18:36Z</time>
      </trkpt>
      <trkpt lat="43.83575" lon="6.49994">
        <ele>730.815</ele>
        <time>2013-05-25T13:18:41Z</time>
      </trkpt>
      <trkpt lat="43.83577" lon="6.49988">
        <ele>732.367</ele>
        <time>2013-05-25T13:18:45Z</time>
      </trkpt>
      <trkpt lat="43.83582" lon="6.49981">
        <ele>732.131</ele>
        <time>2013-05-25T13:18:50Z</time>
      </trkpt>
      <trkpt lat="43.83586" lon="6.49977">
        <ele>731.127</ele>
        <time>2013-05-25T13:18:53Z</time>
      </trkpt>
      <trkpt lat="43.83586" lon="6.49971">
        <ele>727.62</ele>
        <time>2013-05-25T13:18:59Z</time>
      </trkpt>
      <trkpt lat="43.83584" lon="6.49968">
        <ele>726.787</ele>
        <time>2013-05-25T13:19:11Z</time>
      </trkpt>
      <trkpt lat="43.83585" lon="6.49963">
        <ele>730.765</ele>
        <time>2013-05-25T13:19:17Z</time>
      </trkpt>
      <trkpt lat="43.83587" lon="6.49958">
        <ele>732.242</ele>
        <time>2013-05-25T13:19:22Z</time>
      </trkpt>
      <trkpt lat="43.83589" lon="6.49957">
        <ele>727.093</ele>
        <time>2013-05-25T13:19:51Z</time>
      </trkpt>
      <trkpt lat="43.83591" lon="6.49955">
        <ele>729.054</ele>
        <time>2013-05-25T13:19:57Z</time>
      </trkpt>
      <trkpt lat="43.83592" lon="6.49954">
        <ele>729.894</ele>
        <time>2013-05-25T13:20:01Z</time>
      </trkpt>
      <trkpt lat="43.83595" lon="6.49961">
        <ele>732.065</ele>
        <time>2013-05-25T13:20:09Z</time>
      </trkpt>
      <trkpt lat="43.83595" lon="6.49963">
        <ele>732.972</ele>
        <time>2013-05-25T13:20:14Z</time>
      </trkpt>
      <trkpt lat="43.83598" lon="6.49967">
        <ele>734.715</ele>
        <time>2013-05-25T13:20:19Z</time>
      </trkpt>
      <trkpt lat="43.83601" lon="6.49971">
        <ele>736.435</ele>
        <time>2013-05-25T13:20:26Z</time>
      </trkpt>
      <trkpt lat="43.83603" lon="6.49975">
        <ele>738.076</ele>
        <time>2013-05-25T13:20:32Z</time>
      </trkpt>
      <trkpt lat="43.83603" lon="6.49976">
        <ele>738.265</ele>
        <time>2013-05-25T13:20:33Z</time>
      </trkpt>
      <trkpt lat="43.83603" lon="6.4998">
        <ele>738.181</ele>
        <time>2013-05-25T13:20:40Z</time>
      </trkpt>
      <trkpt lat="43.83604" lon="6.49985">
        <ele>739.413</ele>
        <time>2013-05-25T13:20:45Z</time>
      </trkpt>
      <trkpt lat="43.83605" lon="6.49994">
        <ele>743.618</ele>
        <time>2013-05-25T13:20:53Z</time>
      </trkpt>
      <trkpt lat="43.83605" lon="6.49998">
        <ele>743.265</ele>
        <time>2013-05-25T13:20:56Z</time>
      </trkpt>
      <trkpt lat="43.83605" lon="6.49999">
        <ele>746.22</ele>
        <time>2013-05-25T13:20:59Z</time>
      </trkpt>
      <trkpt lat="43.83606" lon="6.50001">
        <ele>747.844</ele>
        <time>2013-05-25T13:21:06Z</time>
      </trkpt>
      <trkpt lat="43.83612" lon="6.50001">
        <ele>749.823</ele>
        <time>2013-05-25T13:21:27Z</time>
      </trkpt>
      <trkpt lat="43.83613" lon="6.50004">
        <ele>749.494</ele>
        <time>2013-05-25T13:21:30Z</time>
      </trkpt>
      <trkpt lat="43.83614" lon="6.50007">
        <ele>749.474</ele>
        <time>2013-05-25T13:21:33Z</time>
      </trkpt>
      <trkpt lat="43.83617" lon="6.50015">
        <ele>750.824</ele>
        <time>2013-05-25T13:21:42Z</time>
      </trkpt>
      <trkpt lat="43.83619" lon="6.5002">
        <ele>750.633</ele>
        <time>2013-05-25T13:21:48Z</time>
      </trkpt>
      <trkpt lat="43.8362" lon="6.5002">
        <ele>751.313</ele>
        <time>2013-05-25T13:21:53Z</time>
      </trkpt>
      <trkpt lat="43.83626" lon="6.50024">
        <ele>752.175</ele>
        <time>2013-05-25T13:21:58Z</time>
      </trkpt>
      <trkpt lat="43.83636" lon="6.50026">
        <ele>753.685</ele>
        <time>2013-05-25T13:22:01Z</time>
      </trkpt>
      <trkpt lat="43.83654" lon="6.5003">
        <ele>754.554</ele>
        <time>2013-05-25T13:22:05Z</time>
      </trkpt>
      <trkpt lat="43.83682" lon="6.50028">
        <ele>754.682</ele>
        <time>2013-05-25T13:22:11Z</time>
      </trkpt>
      <trkpt lat="43.83691" lon="6.50026">
        <ele>755.164</ele>
        <time>2013-05-25T13:22:13Z</time>
      </trkpt>
      <trkpt lat="43.83712" lon="6.50018">
        <ele>758.449</ele>
        <time>2013-05-25T13:22:17Z</time>
      </trkpt>
      <trkpt lat="43.83728" lon="6.50015">
        <ele>758.497</ele>
        <time>2013-05-25T13:22:20Z</time>
      </trkpt>
      <trkpt lat="43.83755" lon="6.50026">
        <ele>756.127</ele>
        <time>2013-05-25T13:22:25Z</time>
      </trkpt>
      <trkpt lat="43.83769" lon="6.50051">
        <ele>753.927</ele>
        <time>2013-05-25T13:22:29Z</time>
      </trkpt>
      <trkpt lat="43.83785" lon="6.50076">
        <ele>750.75</ele>
        <time>2013-05-25T13:22:33Z</time>
      </trkpt>
      <trkpt lat="43.838" lon="6.50073">
        <ele>749.118</ele>
        <time>2013-05-25T13:22:35Z</time>
      </trkpt>
      <trkpt lat="43.83808" lon="6.50071">
        <ele>748.317</ele>
        <time>2013-05-25T13:22:36Z</time>
      </trkpt>
      <trkpt lat="43.83823" lon="6.50067">
        <ele>746.598</ele>
        <time>2013-05-25T13:22:38Z</time>
      </trkpt>
      <trkpt lat="43.83851" lon="6.50049">
        <ele>745.132</ele>
        <time>2013-05-25T13:22:42Z</time>
      </trkpt>
      <trkpt lat="43.8388" lon="6.50044">
        <ele>742.923</ele>
        <time>2013-05-25T13:22:46Z</time>
      </trkpt>
      <trkpt lat="43.83889" lon="6.5006">
        <ele>742.736</ele>
        <time>2013-05-25T13:22:48Z</time>
      </trkpt>
      <trkpt lat="43.83896" lon="6.50076">
        <ele>742.466</ele>
        <time>2013-05-25T13:22:50Z</time>
      </trkpt>
      <trkpt lat="43.83914" lon="6.50121">
        <ele>741.467</ele>
        <time>2013-05-25T13:22:56Z</time>
      </trkpt>
      <trkpt lat="43.83919" lon="6.50153">
        <ele>739.305</ele>
        <time>2013-05-25T13:23:00Z</time>
      </trkpt>
      <trkpt lat="43.83914" lon="6.50167">
        <ele>738.698</ele>
        <time>2013-05-25T13:23:02Z</time>
      </trkpt>
      <trkpt lat="43.83908" lon="6.50181">
        <ele>737.887</ele>
        <time>2013-05-25T13:23:04Z</time>
      </trkpt>
      <trkpt lat="43.839" lon="6.50204">
        <ele>736.909</ele>
        <time>2013-05-25T13:23:07Z</time>
      </trkpt>
      <trkpt lat="43.83892" lon="6.50249">
        <ele>736.071</ele>
        <time>2013-05-25T13:23:13Z</time>
      </trkpt>
      <trkpt lat="43.83895" lon="6.50277">
        <ele>736.001</ele>
        <time>2013-05-25T13:23:17Z</time>
      </trkpt>
      <trkpt lat="43.83908" lon="6.50282">
        <ele>735.771</ele>
        <time>2013-05-25T13:23:20Z</time>
      </trkpt>
      <trkpt lat="43.83921" lon="6.50268">
        <ele>735.19</ele>
        <time>2013-05-25T13:23:23Z</time>
      </trkpt>
      <trkpt lat="43.83924" lon="6.50262">
        <ele>735.221</ele>
        <time>2013-05-25T13:23:24Z</time>
      </trkpt>
      <trkpt lat="43.83931" lon="6.50251">
        <ele>735.042</ele>
        <time>2013-05-25T13:23:26Z</time>
      </trkpt>
      <trkpt lat="43.83948" lon="6.50242">
        <ele>735.704</ele>
        <time>2013-05-25T13:23:30Z</time>
      </trkpt>
      <trkpt lat="43.83956" lon="6.50247">
        <ele>736.365</ele>
        <time>2013-05-25T13:23:32Z</time>
      </trkpt>
      <trkpt lat="43.83991" lon="6.50279">
        <ele>740.479</ele>
        <time>2013-05-25T13:23:41Z</time>
      </trkpt>
      <trkpt lat="43.84008" lon="6.50307">
        <ele>736.006</ele>
        <time>2013-05-25T13:23:46Z</time>
      </trkpt>
      <trkpt lat="43.84033" lon="6.50336">
        <ele>737.164</ele>
        <time>2013-05-25T13:23:52Z</time>
      </trkpt>
      <trkpt lat="43.8404" lon="6.50348">
        <ele>736.342</ele>
        <time>2013-05-25T13:23:54Z</time>
      </trkpt>
      <trkpt lat="43.84057" lon="6.50396">
        <ele>733.848</ele>
        <time>2013-05-25T13:24:01Z</time>
      </trkpt>
      <trkpt lat="43.84075" lon="6.50448">
        <ele>732.487</ele>
        <time>2013-05-25T13:24:08Z</time>
      </trkpt>
      <trkpt lat="43.84097" lon="6.50504">
        <ele>730.998</ele>
        <time>2013-05-25T13:24:15Z</time>
      </trkpt>
      <trkpt lat="43.84103" lon="6.50528">
        <ele>729.966</ele>
        <time>2013-05-25T13:24:18Z</time>
      </trkpt>
      <trkpt lat="43.841" lon="6.50554">
        <ele>729.505</ele>
        <time>2013-05-25T13:24:22Z</time>
      </trkpt>
      <trkpt lat="43.84102" lon="6.50583">
        <ele>729.217</ele>
        <time>2013-05-25T13:24:25Z</time>
      </trkpt>
      <trkpt lat="43.84117" lon="6.5061">
        <ele>729.73</ele>
        <time>2013-05-25T13:24:29Z</time>
      </trkpt>
      <trkpt lat="43.84137" lon="6.50639">
        <ele>728.445</ele>
        <time>2013-05-25T13:24:34Z</time>
      </trkpt>
      <trkpt lat="43.84141" lon="6.50654">
        <ele>727.898</ele>
        <time>2013-05-25T13:24:36Z</time>
      </trkpt>
      <trkpt lat="43.84156" lon="6.50696">
        <ele>727.593</ele>
        <time>2013-05-25T13:24:42Z</time>
      </trkpt>
      <trkpt lat="43.84168" lon="6.50722">
        <ele>727.777</ele>
        <time>2013-05-25T13:24:46Z</time>
      </trkpt>
      <trkpt lat="43.84179" lon="6.50772">
        <ele>727.822</ele>
        <time>2013-05-25T13:24:53Z</time>
      </trkpt>
      <trkpt lat="43.84196" lon="6.50822">
        <ele>729.046</ele>
        <time>2013-05-25T13:25:00Z</time>
      </trkpt>
      <trkpt lat="43.84216" lon="6.5086">
        <ele>728.852</ele>
        <time>2013-05-25T13:25:06Z</time>
      </trkpt>
      <trkpt lat="43.84224" lon="6.50873">
        <ele>729.244</ele>
        <time>2013-05-25T13:25:08Z</time>
      </trkpt>
      <trkpt lat="43.84238" lon="6.50888">
        <ele>729.653</ele>
        <time>2013-05-25T13:25:11Z</time>
      </trkpt>
      <trkpt lat="43.84279" lon="6.50908">
        <ele>730.787</ele>
        <time>2013-05-25T13:25:18Z</time>
      </trkpt>
      <trkpt lat="43.8431" lon="6.50923">
        <ele>732.03</ele>
        <time>2013-05-25T13:25:23Z</time>
      </trkpt>
      <trkpt lat="43.84327" lon="6.50935">
        <ele>732.843</ele>
        <time>2013-05-25T13:25:26Z</time>
      </trkpt>
      <trkpt lat="43.84344" lon="6.50956">
        <ele>735.704</ele>
        <time>2013-05-25T13:25:30Z</time>
      </trkpt>
      <trkpt lat="43.84352" lon="6.50974">
        <ele>736.833</ele>
        <time>2013-05-25T13:25:33Z</time>
      </trkpt>
      <trkpt lat="43.8437" lon="6.51008">
        <ele>737.021</ele>
        <time>2013-05-25T13:25:40Z</time>
      </trkpt>
      <trkpt lat="43.84385" lon="6.51034">
        <ele>737.28</ele>
        <time>2013-05-25T13:25:46Z</time>
      </trkpt>
      <trkpt lat="43.84391" lon="6.51049">
        <ele>737.399</ele>
        <time>2013-05-25T13:25:49Z</time>
      </trkpt>
      <trkpt lat="43.84395" lon="6.51059">
        <ele>737.688</ele>
        <time>2013-05-25T13:25:51Z</time>
      </trkpt>
      <trkpt lat="43.84407" lon="6.51101">
        <ele>740.302</ele>
        <time>2013-05-25T13:25:59Z</time>
      </trkpt>
      <trkpt lat="43.84416" lon="6.51148">
        <ele>737.682</ele>
        <time>2013-05-25T13:26:06Z</time>
      </trkpt>
      <trkpt lat="43.84422" lon="6.5119">
        <ele>736.912</ele>
        <time>2013-05-25T13:26:12Z</time>
      </trkpt>
      <trkpt lat="43.8443" lon="6.51236">
        <ele>735.2</ele>
        <time>2013-05-25T13:26:18Z</time>
      </trkpt>
      <trkpt lat="43.84439" lon="6.51266">
        <ele>733.076</ele>
        <time>2013-05-25T13:26:22Z</time>
      </trkpt>
      <trkpt lat="43.8445" lon="6.51322">
        <ele>730.858</ele>
        <time>2013-05-25T13:26:29Z</time>
      </trkpt>
      <trkpt lat="43.84466" lon="6.51384">
        <ele>730.185</ele>
        <time>2013-05-25T13:26:37Z</time>
      </trkpt>
      <trkpt lat="43.84477" lon="6.5142">
        <ele>730.544</ele>
        <time>2013-05-25T13:26:43Z</time>
      </trkpt>
      <trkpt lat="43.84488" lon="6.51461">
        <ele>729.109</ele>
        <time>2013-05-25T13:26:49Z</time>
      </trkpt>
      <trkpt lat="43.84497" lon="6.51487">
        <ele>728.69</ele>
        <time>2013-05-25T13:26:53Z</time>
      </trkpt>
      <trkpt lat="43.84507" lon="6.51511">
        <ele>727.701</ele>
        <time>2013-05-25T13:26:57Z</time>
      </trkpt>
      <trkpt lat="43.84508" lon="6.51518">
        <ele>727.593</ele>
        <time>2013-05-25T13:26:58Z</time>
      </trkpt>
      <trkpt lat="43.84509" lon="6.5154">
        <ele>728.246</ele>
        <time>2013-05-25T13:27:03Z</time>
      </trkpt>
      <trkpt lat="43.84512" lon="6.51551">
        <ele>729.929</ele>
        <time>2013-05-25T13:27:07Z</time>
      </trkpt>
      <trkpt lat="43.8451" lon="6.51561">
        <ele>730.039</ele>
        <time>2013-05-25T13:27:09Z</time>
      </trkpt>
      <trkpt lat="43.84511" lon="6.51587">
        <ele>733.733</ele>
        <time>2013-05-25T13:27:14Z</time>
      </trkpt>
      <trkpt lat="43.84518" lon="6.51631">
        <ele>737.27</ele>
        <time>2013-05-25T13:27:22Z</time>
      </trkpt>
      <trkpt lat="43.84525" lon="6.51654">
        <ele>736.067</ele>
        <time>2013-05-25T13:27:26Z</time>
      </trkpt>
      <trkpt lat="43.84549" lon="6.51659">
        <ele>742.193</ele>
        <time>2013-05-25T13:27:32Z</time>
      </trkpt>
      <trkpt lat="43.8456" lon="6.5166">
        <ele>746.243</ele>
        <time>2013-05-25T13:27:36Z</time>
      </trkpt>
      <trkpt lat="43.84578" lon="6.51651">
        <ele>752.535</ele>
        <time>2013-05-25T13:27:41Z</time>
      </trkpt>
      <trkpt lat="43.84582" lon="6.51648">
        <ele>752.843</ele>
        <time>2013-05-25T13:27:42Z</time>
      </trkpt>
      <trkpt lat="43.84596" lon="6.51625">
        <ele>753.934</ele>
        <time>2013-05-25T13:27:47Z</time>
      </trkpt>
      <trkpt lat="43.84606" lon="6.51588">
        <ele>761.003</ele>
        <time>2013-05-25T13:27:53Z</time>
      </trkpt>
      <trkpt lat="43.84614" lon="6.51551">
        <ele>768.891</ele>
        <time>2013-05-25T13:27:58Z</time>
      </trkpt>
      <trkpt lat="43.84629" lon="6.51507">
        <ele>768.032</ele>
        <time>2013-05-25T13:28:04Z</time>
      </trkpt>
      <trkpt lat="43.84627" lon="6.51484">
        <ele>761.841</ele>
        <time>2013-05-25T13:28:09Z</time>
      </trkpt>
      <trkpt lat="43.84617" lon="6.51502">
        <ele>754.741</ele>
        <time>2013-05-25T13:28:13Z</time>
      </trkpt>
      <trkpt lat="43.8461" lon="6.51525">
        <ele>750.012</ele>
        <time>2013-05-25T13:28:16Z</time>
      </trkpt>
      <trkpt lat="43.846" lon="6.51542">
        <ele>746.636</ele>
        <time>2013-05-25T13:28:20Z</time>
      </trkpt>
      <trkpt lat="43.84601" lon="6.51546">
        <ele>744.418</ele>
        <time>2013-05-25T13:28:23Z</time>
      </trkpt>
      <trkpt lat="43.84606" lon="6.51554">
        <ele>734.336</ele>
        <time>2013-05-25T13:29:09Z</time>
      </trkpt>
      <trkpt lat="43.84607" lon="6.51554">
        <ele>734.761</ele>
        <time>2013-05-25T13:29:11Z</time>
      </trkpt>
    </trkseg>
  </trk>
</gpx>